<?xml version='1.0' encoding='UTF-8'?><gpx version="1.1" creator="JPX - https://github.com/jenetics/jpx" xmlns="http://www.topografix.com/GPX/1/1"><trk><trkseg><trkpt lat="43.2592746" lon="11.3625355"><ele>195.0</ele><time>2026-03-27T12:41:31.705Z</time></trkpt><trkpt lat="43.2593381" lon="11.3625943"><ele>195.0</ele><time>2026-03-27T12:41:34.706Z</time></trkpt><trkpt lat="43.2594195" lon="11.3626683"><ele>195.0</ele><time>2026-03-27T12:41:37.705Z</time></trkpt><trkpt lat="43.2594839" lon="11.3627222"><ele>195.0</ele><time>2026-03-27T12:41:39.705Z</time></trkpt><trkpt lat="43.2595536" lon="11.3627774"><ele>195.0</ele><time>2026-03-27T12:41:41.705Z</time></trkpt><trkpt lat="43.2595998" lon="11.3626911"><ele>195.0</ele><time>2026-03-27T12:41:45.705Z</time></trkpt><trkpt lat="43.2595544" lon="11.3626137"><ele>195.0</ele><time>2026-03-27T12:41:47.706Z</time></trkpt><trkpt lat="43.2595033" lon="11.3625519"><ele>195.0</ele><time>2026-03-27T12:41:49.706Z</time></trkpt><trkpt lat="43.2594607" lon="11.3624356"><ele>195.0</ele><time>2026-03-27T12:41:52.705Z</time></trkpt><trkpt lat="43.259452" lon="11.3623221"><ele>195.0</ele><time>2026-03-27T12:41:54.705Z</time></trkpt><trkpt lat="43.2594504" lon="11.3621936"><ele>195.0</ele><time>2026-03-27T12:41:56.705Z</time></trkpt><trkpt lat="43.2594111" lon="11.362042"><ele>194.66666666666666</ele><time>2026-03-27T12:41:58.705Z</time></trkpt><trkpt lat="43.2593682" lon="11.3619663"><ele>194.33333333333331</ele><time>2026-03-27T12:41:59.705Z</time></trkpt><trkpt lat="43.2593146" lon="11.3619005"><ele>194.0</ele><time>2026-03-27T12:42:00.705Z</time></trkpt><trkpt lat="43.2592592" lon="11.3618405"><ele>193.66666666666666</ele><time>2026-03-27T12:42:01.705Z</time></trkpt><trkpt lat="43.2592043" lon="11.3617935"><ele>193.33333333333331</ele><time>2026-03-27T12:42:02.705Z</time></trkpt><trkpt lat="43.2591209" lon="11.3616921"><ele>193.0</ele><time>2026-03-27T12:42:04.705Z</time></trkpt><trkpt lat="43.2590756" lon="11.3616247"><ele>192.99999999999997</ele><time>2026-03-27T12:42:05.705Z</time></trkpt><trkpt lat="43.2589814" lon="11.3615275"><ele>193.0</ele><time>2026-03-27T12:42:07.705Z</time></trkpt><trkpt lat="43.2589207" lon="11.3614521"><ele>193.0</ele><time>2026-03-27T12:42:09.705Z</time></trkpt><trkpt lat="43.2589354" lon="11.3613536"><ele>193.0</ele><time>2026-03-27T12:42:13.705Z</time></trkpt><trkpt lat="43.2590181" lon="11.3613884"><ele>192.99999999999997</ele><time>2026-03-27T12:42:16.706Z</time></trkpt><trkpt lat="43.259082" lon="11.3614336"><ele>193.0</ele><time>2026-03-27T12:42:18.705Z</time></trkpt><trkpt lat="43.2591555" lon="11.3614762"><ele>193.0</ele><time>2026-03-27T12:42:20.705Z</time></trkpt><trkpt lat="43.2592529" lon="11.3615098"><ele>193.0</ele><time>2026-03-27T12:42:22.706Z</time></trkpt><trkpt lat="43.2593583" lon="11.3615552"><ele>193.0</ele><time>2026-03-27T12:42:24.706Z</time></trkpt><trkpt lat="43.2594695" lon="11.3616249"><ele>193.0</ele><time>2026-03-27T12:42:26.705Z</time></trkpt><trkpt lat="43.2595292" lon="11.3616611"><ele>193.0</ele><time>2026-03-27T12:42:27.705Z</time></trkpt><trkpt lat="43.2595975" lon="11.3616991"><ele>192.99999999999997</ele><time>2026-03-27T12:42:28.705Z</time></trkpt><trkpt lat="43.2596619" lon="11.3617222"><ele>193.0</ele><time>2026-03-27T12:42:29.705Z</time></trkpt><trkpt lat="43.2597756" lon="11.3617758"><ele>193.0</ele><time>2026-03-27T12:42:31.705Z</time></trkpt><trkpt lat="43.2598379" lon="11.3617987"><ele>193.0</ele><time>2026-03-27T12:42:32.705Z</time></trkpt><trkpt lat="43.2598996" lon="11.36182"><ele>192.99999999999997</ele><time>2026-03-27T12:42:33.705Z</time></trkpt><trkpt lat="43.2599684" lon="11.3618473"><ele>193.0</ele><time>2026-03-27T12:42:34.705Z</time></trkpt><trkpt lat="43.2600304" lon="11.3618727"><ele>191.66666666666666</ele><time>2026-03-27T12:42:35.705Z</time></trkpt><trkpt lat="43.2601155" lon="11.3618991"><ele>190.33333333333331</ele><time>2026-03-27T12:42:36.706Z</time></trkpt><trkpt lat="43.2601873" lon="11.3619147"><ele>189.0</ele><time>2026-03-27T12:42:37.705Z</time></trkpt><trkpt lat="43.2602586" lon="11.3619303"><ele>187.66666666666666</ele><time>2026-03-27T12:42:38.705Z</time></trkpt><trkpt lat="43.2603362" lon="11.361947"><ele>186.33333333333331</ele><time>2026-03-27T12:42:39.705Z</time></trkpt><trkpt lat="43.2604169" lon="11.3619674"><ele>185.0</ele><time>2026-03-27T12:42:40.705Z</time></trkpt><trkpt lat="43.2604965" lon="11.3619858"><ele>184.99999999999997</ele><time>2026-03-27T12:42:41.705Z</time></trkpt><trkpt lat="43.2605703" lon="11.3619903"><ele>185.0</ele><time>2026-03-27T12:42:42.705Z</time></trkpt><trkpt lat="43.26065" lon="11.3619859"><ele>185.0</ele><time>2026-03-27T12:42:43.705Z</time></trkpt><trkpt lat="43.2607211" lon="11.3620013"><ele>185.0</ele><time>2026-03-27T12:42:44.705Z</time></trkpt><trkpt lat="43.2607977" lon="11.3620128"><ele>185.0</ele><time>2026-03-27T12:42:45.706Z</time></trkpt><trkpt lat="43.2608695" lon="11.3620202"><ele>184.99999999999997</ele><time>2026-03-27T12:42:46.705Z</time></trkpt><trkpt lat="43.2609438" lon="11.3620147"><ele>185.0</ele><time>2026-03-27T12:42:47.705Z</time></trkpt><trkpt lat="43.2610176" lon="11.362004"><ele>184.5</ele><time>2026-03-27T12:42:48.706Z</time></trkpt><trkpt lat="43.2610886" lon="11.3619949"><ele>184.0</ele><time>2026-03-27T12:42:49.706Z</time></trkpt><trkpt lat="43.2611542" lon="11.3619639"><ele>183.5</ele><time>2026-03-27T12:42:50.705Z</time></trkpt><trkpt lat="43.2612568" lon="11.3619021"><ele>183.0</ele><time>2026-03-27T12:42:52.705Z</time></trkpt><trkpt lat="43.2613159" lon="11.3618689"><ele>182.5</ele><time>2026-03-27T12:42:53.706Z</time></trkpt><trkpt lat="43.2613745" lon="11.361837"><ele>182.0</ele><time>2026-03-27T12:42:54.705Z</time></trkpt><trkpt lat="43.2614762" lon="11.3617655"><ele>182.0</ele><time>2026-03-27T12:42:56.705Z</time></trkpt><trkpt lat="43.2615761" lon="11.3617165"><ele>182.0</ele><time>2026-03-27T12:42:58.705Z</time></trkpt><trkpt lat="43.2616759" lon="11.3616415"><ele>182.0</ele><time>2026-03-27T12:43:00.705Z</time></trkpt><trkpt lat="43.2617711" lon="11.361558"><ele>182.0</ele><time>2026-03-27T12:43:02.705Z</time></trkpt><trkpt lat="43.2618514" lon="11.3614989"><ele>182.0</ele><time>2026-03-27T12:43:04.705Z</time></trkpt><trkpt lat="43.2619284" lon="11.3614381"><ele>182.0</ele><time>2026-03-27T12:43:06.705Z</time></trkpt><trkpt lat="43.2619889" lon="11.3613722"><ele>182.0</ele><time>2026-03-27T12:43:08.706Z</time></trkpt><trkpt lat="43.2620402" lon="11.3613064"><ele>182.0</ele><time>2026-03-27T12:43:10.706Z</time></trkpt><trkpt lat="43.2620983" lon="11.3612498"><ele>182.0</ele><time>2026-03-27T12:43:12.705Z</time></trkpt><trkpt lat="43.2621711" lon="11.3611959"><ele>182.0</ele><time>2026-03-27T12:43:14.705Z</time></trkpt><trkpt lat="43.2622394" lon="11.3611377"><ele>182.0</ele><time>2026-03-27T12:43:16.705Z</time></trkpt><trkpt lat="43.2623013" lon="11.3610529"><ele>182.2</ele><time>2026-03-27T12:43:18.705Z</time></trkpt><trkpt lat="43.2623727" lon="11.360971"><ele>182.39999999999998</ele><time>2026-03-27T12:43:20.705Z</time></trkpt><trkpt lat="43.2624371" lon="11.360885"><ele>182.60000000000002</ele><time>2026-03-27T12:43:22.705Z</time></trkpt><trkpt lat="43.2625058" lon="11.3607913"><ele>182.8</ele><time>2026-03-27T12:43:24.705Z</time></trkpt><trkpt lat="43.2625717" lon="11.3606905"><ele>183.0</ele><time>2026-03-27T12:43:26.705Z</time></trkpt><trkpt lat="43.2626332" lon="11.3606162"><ele>183.0</ele><time>2026-03-27T12:43:28.705Z</time></trkpt><trkpt lat="43.2627167" lon="11.3605334"><ele>183.0</ele><time>2026-03-27T12:43:30.705Z</time></trkpt><trkpt lat="43.2627841" lon="11.3604377"><ele>183.0</ele><time>2026-03-27T12:43:32.705Z</time></trkpt><trkpt lat="43.2628514" lon="11.3603328"><ele>183.0</ele><time>2026-03-27T12:43:34.705Z</time></trkpt><trkpt lat="43.2629272" lon="11.3602498"><ele>183.0</ele><time>2026-03-27T12:43:36.705Z</time></trkpt><trkpt lat="43.263006" lon="11.3601571"><ele>182.8</ele><time>2026-03-27T12:43:38.706Z</time></trkpt><trkpt lat="43.2630899" lon="11.3600871"><ele>182.60000000000002</ele><time>2026-03-27T12:43:40.705Z</time></trkpt><trkpt lat="43.263156" lon="11.3599867"><ele>182.39999999999998</ele><time>2026-03-27T12:43:42.706Z</time></trkpt><trkpt lat="43.263238" lon="11.359903"><ele>182.2</ele><time>2026-03-27T12:43:44.705Z</time></trkpt><trkpt lat="43.2633169" lon="11.3598188"><ele>182.0</ele><time>2026-03-27T12:43:46.705Z</time></trkpt><trkpt lat="43.263396" lon="11.3597412"><ele>182.16666666666666</ele><time>2026-03-27T12:43:48.705Z</time></trkpt><trkpt lat="43.263474" lon="11.359648"><ele>182.33333333333331</ele><time>2026-03-27T12:43:50.705Z</time></trkpt><trkpt lat="43.2635313" lon="11.35955"><ele>182.5</ele><time>2026-03-27T12:43:52.706Z</time></trkpt><trkpt lat="43.2635314" lon="11.3594419"><ele>182.66666666666666</ele><time>2026-03-27T12:43:54.705Z</time></trkpt><trkpt lat="43.2635106" lon="11.3593235"><ele>182.83333333333334</ele><time>2026-03-27T12:43:56.706Z</time></trkpt><trkpt lat="43.2635274" lon="11.3592143"><ele>183.0</ele><time>2026-03-27T12:43:58.705Z</time></trkpt><trkpt lat="43.2635049" lon="11.3591004"><ele>183.0</ele><time>2026-03-27T12:44:00.705Z</time></trkpt><trkpt lat="43.26349" lon="11.3589796"><ele>183.0</ele><time>2026-03-27T12:44:02.705Z</time></trkpt><trkpt lat="43.2635017" lon="11.3588879"><ele>183.0</ele><time>2026-03-27T12:44:04.706Z</time></trkpt><trkpt lat="43.2635084" lon="11.3587819"><ele>183.0</ele><time>2026-03-27T12:44:06.705Z</time></trkpt><trkpt lat="43.2634968" lon="11.358655"><ele>183.0</ele><time>2026-03-27T12:44:08.705Z</time></trkpt><trkpt lat="43.2634921" lon="11.3585226"><ele>183.0</ele><time>2026-03-27T12:44:10.706Z</time></trkpt><trkpt lat="43.2634879" lon="11.358394"><ele>183.83333333333334</ele><time>2026-03-27T12:44:12.705Z</time></trkpt><trkpt lat="43.2634812" lon="11.358286"><ele>184.66666666666666</ele><time>2026-03-27T12:44:14.705Z</time></trkpt><trkpt lat="43.2634692" lon="11.3581816"><ele>185.5</ele><time>2026-03-27T12:44:16.706Z</time></trkpt><trkpt lat="43.2634568" lon="11.3580728"><ele>186.33333333333331</ele><time>2026-03-27T12:44:18.706Z</time></trkpt><trkpt lat="43.2634353" lon="11.3579889"><ele>187.16666666666666</ele><time>2026-03-27T12:44:20.705Z</time></trkpt><trkpt lat="43.2634121" lon="11.3578668"><ele>188.0</ele><time>2026-03-27T12:44:23.705Z</time></trkpt><trkpt lat="43.2633986" lon="11.357774"><ele>189.16666666666666</ele><time>2026-03-27T12:44:25.705Z</time></trkpt><trkpt lat="43.2633856" lon="11.3576746"><ele>190.33333333333331</ele><time>2026-03-27T12:44:27.706Z</time></trkpt><trkpt lat="43.2633749" lon="11.3575534"><ele>191.5</ele><time>2026-03-27T12:44:30.705Z</time></trkpt><trkpt lat="43.2633629" lon="11.3574416"><ele>192.66666666666666</ele><time>2026-03-27T12:44:33.706Z</time></trkpt><trkpt lat="43.2633437" lon="11.3573416"><ele>193.83333333333334</ele><time>2026-03-27T12:44:35.705Z</time></trkpt><trkpt lat="43.2633312" lon="11.3572515"><ele>195.0</ele><time>2026-03-27T12:44:37.705Z</time></trkpt><trkpt lat="43.2633298" lon="11.3571596"><ele>195.66666666666666</ele><time>2026-03-27T12:44:39.705Z</time></trkpt><trkpt lat="43.263324" lon="11.3570424"><ele>196.33333333333331</ele><time>2026-03-27T12:44:42.705Z</time></trkpt><trkpt lat="43.2632948" lon="11.3569485"><ele>197.0</ele><time>2026-03-27T12:44:45.705Z</time></trkpt><trkpt lat="43.2632748" lon="11.3568557"><ele>197.66666666666666</ele><time>2026-03-27T12:44:48.705Z</time></trkpt><trkpt lat="43.2632534" lon="11.3567542"><ele>198.33333333333331</ele><time>2026-03-27T12:44:51.705Z</time></trkpt><trkpt lat="43.2632367" lon="11.3566536"><ele>199.0</ele><time>2026-03-27T12:44:54.705Z</time></trkpt><trkpt lat="43.2632203" lon="11.3565512"><ele>198.99999999999997</ele><time>2026-03-27T12:44:57.706Z</time></trkpt><trkpt lat="43.2632032" lon="11.3564526"><ele>199.0</ele><time>2026-03-27T12:45:00.705Z</time></trkpt><trkpt lat="43.2632278" lon="11.3563583"><ele>199.0</ele><time>2026-03-27T12:45:03.706Z</time></trkpt><trkpt lat="43.2632645" lon="11.3562511"><ele>199.0</ele><time>2026-03-27T12:45:06.705Z</time></trkpt><trkpt lat="43.2633064" lon="11.3561608"><ele>198.99999999999997</ele><time>2026-03-27T12:45:09.706Z</time></trkpt><trkpt lat="43.2633352" lon="11.3560529"><ele>199.0</ele><time>2026-03-27T12:45:12.705Z</time></trkpt><trkpt lat="43.2633533" lon="11.3559427"><ele>199.66666666666666</ele><time>2026-03-27T12:45:15.705Z</time></trkpt><trkpt lat="43.2633641" lon="11.3558442"><ele>200.33333333333331</ele><time>2026-03-27T12:45:18.705Z</time></trkpt><trkpt lat="43.2633663" lon="11.3557373"><ele>201.0</ele><time>2026-03-27T12:45:21.705Z</time></trkpt><trkpt lat="43.2633643" lon="11.3556282"><ele>201.66666666666669</ele><time>2026-03-27T12:45:24.705Z</time></trkpt><trkpt lat="43.2633477" lon="11.355512"><ele>202.33333333333334</ele><time>2026-03-27T12:45:27.706Z</time></trkpt><trkpt lat="43.2633287" lon="11.3554037"><ele>203.0</ele><time>2026-03-27T12:45:30.705Z</time></trkpt><trkpt lat="43.2633056" lon="11.3552924"><ele>203.33333333333334</ele><time>2026-03-27T12:45:33.706Z</time></trkpt><trkpt lat="43.263278" lon="11.3551822"><ele>203.66666666666669</ele><time>2026-03-27T12:45:36.706Z</time></trkpt><trkpt lat="43.2632428" lon="11.3550828"><ele>204.0</ele><time>2026-03-27T12:45:39.705Z</time></trkpt><trkpt lat="43.2631956" lon="11.3549878"><ele>204.33333333333331</ele><time>2026-03-27T12:45:42.705Z</time></trkpt><trkpt lat="43.2631513" lon="11.3548791"><ele>204.66666666666666</ele><time>2026-03-27T12:45:45.705Z</time></trkpt><trkpt lat="43.2631294" lon="11.3547966"><ele>205.0</ele><time>2026-03-27T12:45:47.705Z</time></trkpt><trkpt lat="43.2631168" lon="11.3547091"><ele>205.2857142857143</ele><time>2026-03-27T12:45:49.705Z</time></trkpt><trkpt lat="43.2631135" lon="11.3546209"><ele>205.57142857142856</ele><time>2026-03-27T12:45:51.705Z</time></trkpt><trkpt lat="43.2631187" lon="11.354533"><ele>205.85714285714286</ele><time>2026-03-27T12:45:53.705Z</time></trkpt><trkpt lat="43.2631237" lon="11.354444"><ele>206.14285714285717</ele><time>2026-03-27T12:45:55.705Z</time></trkpt><trkpt lat="43.2631277" lon="11.3543525"><ele>206.42857142857144</ele><time>2026-03-27T12:45:57.705Z</time></trkpt><trkpt lat="43.2631327" lon="11.3542546"><ele>206.71428571428572</ele><time>2026-03-27T12:45:59.705Z</time></trkpt><trkpt lat="43.2631378" lon="11.3541644"><ele>207.0</ele><time>2026-03-27T12:46:01.706Z</time></trkpt><trkpt lat="43.263139" lon="11.3540722"><ele>207.0</ele><time>2026-03-27T12:46:03.705Z</time></trkpt><trkpt lat="43.2631412" lon="11.3539449"><ele>207.0</ele><time>2026-03-27T12:46:06.705Z</time></trkpt><trkpt lat="43.26315" lon="11.3538182"><ele>207.0</ele><time>2026-03-27T12:46:09.706Z</time></trkpt><trkpt lat="43.2631467" lon="11.3537259"><ele>207.0</ele><time>2026-03-27T12:46:11.705Z</time></trkpt><trkpt lat="43.2631429" lon="11.353639"><ele>207.0</ele><time>2026-03-27T12:46:13.705Z</time></trkpt><trkpt lat="43.2631314" lon="11.3535191"><ele>207.0</ele><time>2026-03-27T12:46:16.705Z</time></trkpt><trkpt lat="43.263119" lon="11.3533952"><ele>206.83333333333334</ele><time>2026-03-27T12:46:19.705Z</time></trkpt><trkpt lat="43.2630973" lon="11.3532773"><ele>206.66666666666669</ele><time>2026-03-27T12:46:22.705Z</time></trkpt><trkpt lat="43.2630693" lon="11.3531559"><ele>206.5</ele><time>2026-03-27T12:46:25.705Z</time></trkpt><trkpt lat="43.2630431" lon="11.3530669"><ele>206.33333333333334</ele><time>2026-03-27T12:46:27.706Z</time></trkpt><trkpt lat="43.2630136" lon="11.3529739"><ele>206.16666666666669</ele><time>2026-03-27T12:46:29.705Z</time></trkpt><trkpt lat="43.2629889" lon="11.3528797"><ele>206.0</ele><time>2026-03-27T12:46:31.705Z</time></trkpt><trkpt lat="43.2629621" lon="11.3527893"><ele>206.7142857142857</ele><time>2026-03-27T12:46:33.705Z</time></trkpt><trkpt lat="43.2629262" lon="11.3527079"><ele>207.42857142857142</ele><time>2026-03-27T12:46:35.705Z</time></trkpt><trkpt lat="43.2628909" lon="11.3526311"><ele>208.14285714285714</ele><time>2026-03-27T12:46:37.705Z</time></trkpt><trkpt lat="43.2628531" lon="11.352534"><ele>208.85714285714283</ele><time>2026-03-27T12:46:40.705Z</time></trkpt><trkpt lat="43.2628155" lon="11.3524364"><ele>209.57142857142858</ele><time>2026-03-27T12:46:44.706Z</time></trkpt><trkpt lat="43.2627803" lon="11.3523622"><ele>210.28571428571428</ele><time>2026-03-27T12:46:47.705Z</time></trkpt><trkpt lat="43.262756" lon="11.3522785"><ele>211.0</ele><time>2026-03-27T12:46:50.706Z</time></trkpt><trkpt lat="43.2627311" lon="11.3521804"><ele>211.83333333333331</ele><time>2026-03-27T12:46:53.705Z</time></trkpt><trkpt lat="43.2627086" lon="11.3520644"><ele>212.66666666666666</ele><time>2026-03-27T12:46:56.706Z</time></trkpt><trkpt lat="43.2626906" lon="11.3519514"><ele>213.5</ele><time>2026-03-27T12:46:59.705Z</time></trkpt><trkpt lat="43.2626725" lon="11.3518429"><ele>214.33333333333331</ele><time>2026-03-27T12:47:02.706Z</time></trkpt><trkpt lat="43.2626509" lon="11.3517374"><ele>215.16666666666666</ele><time>2026-03-27T12:47:05.706Z</time></trkpt><trkpt lat="43.2626155" lon="11.3516238"><ele>216.0</ele><time>2026-03-27T12:47:08.705Z</time></trkpt><trkpt lat="43.262584" lon="11.3515336"><ele>216.0</ele><time>2026-03-27T12:47:11.705Z</time></trkpt><trkpt lat="43.2625519" lon="11.3514385"><ele>216.0</ele><time>2026-03-27T12:47:14.706Z</time></trkpt><trkpt lat="43.2625204" lon="11.3513327"><ele>216.0</ele><time>2026-03-27T12:47:17.705Z</time></trkpt><trkpt lat="43.2624921" lon="11.3512251"><ele>216.0</ele><time>2026-03-27T12:47:20.705Z</time></trkpt><trkpt lat="43.2624735" lon="11.3511394"><ele>216.0</ele><time>2026-03-27T12:47:22.706Z</time></trkpt><trkpt lat="43.2624562" lon="11.3510535"><ele>216.0</ele><time>2026-03-27T12:47:24.705Z</time></trkpt><trkpt lat="43.2624257" lon="11.3509606"><ele>216.0</ele><time>2026-03-27T12:47:26.705Z</time></trkpt><trkpt lat="43.2623938" lon="11.3508639"><ele>216.33333333333334</ele><time>2026-03-27T12:47:28.705Z</time></trkpt><trkpt lat="43.2623531" lon="11.3507654"><ele>216.66666666666669</ele><time>2026-03-27T12:47:30.705Z</time></trkpt><trkpt lat="43.2622874" lon="11.3506688"><ele>217.0</ele><time>2026-03-27T12:47:32.705Z</time></trkpt><trkpt lat="43.2622285" lon="11.3506022"><ele>217.33333333333334</ele><time>2026-03-27T12:47:34.705Z</time></trkpt><trkpt lat="43.2621797" lon="11.3505133"><ele>217.66666666666669</ele><time>2026-03-27T12:47:36.705Z</time></trkpt><trkpt lat="43.2621315" lon="11.3504337"><ele>218.0</ele><time>2026-03-27T12:47:38.706Z</time></trkpt><trkpt lat="43.262088" lon="11.3503589"><ele>218.66666666666669</ele><time>2026-03-27T12:47:40.706Z</time></trkpt><trkpt lat="43.2620551" lon="11.350282"><ele>219.33333333333334</ele><time>2026-03-27T12:47:42.705Z</time></trkpt><trkpt lat="43.262022" lon="11.3502004"><ele>220.0</ele><time>2026-03-27T12:47:44.706Z</time></trkpt><trkpt lat="43.2619858" lon="11.3501219"><ele>220.66666666666669</ele><time>2026-03-27T12:47:46.705Z</time></trkpt><trkpt lat="43.2619571" lon="11.3500426"><ele>221.33333333333334</ele><time>2026-03-27T12:47:48.706Z</time></trkpt><trkpt lat="43.2619223" lon="11.3499232"><ele>222.0</ele><time>2026-03-27T12:47:51.705Z</time></trkpt><trkpt lat="43.2618894" lon="11.3498027"><ele>222.66666666666666</ele><time>2026-03-27T12:47:54.705Z</time></trkpt><trkpt lat="43.2618611" lon="11.3496945"><ele>223.33333333333331</ele><time>2026-03-27T12:47:57.706Z</time></trkpt><trkpt lat="43.2618042" lon="11.3496033"><ele>224.0</ele><time>2026-03-27T12:48:00.705Z</time></trkpt><trkpt lat="43.2617573" lon="11.3495387"><ele>224.66666666666666</ele><time>2026-03-27T12:48:02.705Z</time></trkpt><trkpt lat="43.2616947" lon="11.349445"><ele>225.33333333333331</ele><time>2026-03-27T12:48:05.705Z</time></trkpt><trkpt lat="43.2616517" lon="11.3493751"><ele>226.0</ele><time>2026-03-27T12:48:07.705Z</time></trkpt><trkpt lat="43.2615891" lon="11.3492911"><ele>225.99999999999997</ele><time>2026-03-27T12:48:10.706Z</time></trkpt><trkpt lat="43.2615276" lon="11.349213"><ele>226.0</ele><time>2026-03-27T12:48:13.705Z</time></trkpt><trkpt lat="43.2614668" lon="11.3491271"><ele>226.0</ele><time>2026-03-27T12:48:16.705Z</time></trkpt><trkpt lat="43.2614245" lon="11.349061"><ele>226.0</ele><time>2026-03-27T12:48:18.706Z</time></trkpt><trkpt lat="43.2613897" lon="11.3489794"><ele>225.99999999999997</ele><time>2026-03-27T12:48:20.705Z</time></trkpt><trkpt lat="43.2613604" lon="11.3488874"><ele>226.0</ele><time>2026-03-27T12:48:22.706Z</time></trkpt><trkpt lat="43.2613345" lon="11.3487818"><ele>226.49999999999997</ele><time>2026-03-27T12:48:24.705Z</time></trkpt><trkpt lat="43.2613073" lon="11.348673"><ele>227.0</ele><time>2026-03-27T12:48:26.706Z</time></trkpt><trkpt lat="43.2612831" lon="11.3485597"><ele>227.5</ele><time>2026-03-27T12:48:28.706Z</time></trkpt><trkpt lat="43.2612628" lon="11.3484531"><ele>228.0</ele><time>2026-03-27T12:48:30.705Z</time></trkpt><trkpt lat="43.2612424" lon="11.348351"><ele>228.49999999999997</ele><time>2026-03-27T12:48:32.705Z</time></trkpt><trkpt lat="43.2612238" lon="11.3482491"><ele>229.0</ele><time>2026-03-27T12:48:34.705Z</time></trkpt><trkpt lat="43.2612121" lon="11.3481505"><ele>229.49999999999997</ele><time>2026-03-27T12:48:36.705Z</time></trkpt><trkpt lat="43.2612052" lon="11.348042"><ele>230.0</ele><time>2026-03-27T12:48:38.706Z</time></trkpt><trkpt lat="43.2612014" lon="11.347935"><ele>230.5</ele><time>2026-03-27T12:48:40.705Z</time></trkpt><trkpt lat="43.2612022" lon="11.3478331"><ele>231.0</ele><time>2026-03-27T12:48:42.706Z</time></trkpt><trkpt lat="43.2612029" lon="11.3477345"><ele>231.49999999999997</ele><time>2026-03-27T12:48:44.705Z</time></trkpt><trkpt lat="43.2612036" lon="11.3476372"><ele>232.0</ele><time>2026-03-27T12:48:46.705Z</time></trkpt><trkpt lat="43.2612033" lon="11.3475179"><ele>231.99999999999997</ele><time>2026-03-27T12:48:49.705Z</time></trkpt><trkpt lat="43.2612079" lon="11.3473996"><ele>232.0</ele><time>2026-03-27T12:48:52.706Z</time></trkpt><trkpt lat="43.2612106" lon="11.3472777"><ele>232.0</ele><time>2026-03-27T12:48:55.706Z</time></trkpt><trkpt lat="43.2612084" lon="11.3471525"><ele>232.0</ele><time>2026-03-27T12:48:58.705Z</time></trkpt><trkpt lat="43.2612109" lon="11.3470653"><ele>231.99999999999997</ele><time>2026-03-27T12:49:00.706Z</time></trkpt><trkpt lat="43.2612147" lon="11.3469738"><ele>232.0</ele><time>2026-03-27T12:49:02.705Z</time></trkpt><trkpt lat="43.2612198" lon="11.3468735"><ele>232.16666666666666</ele><time>2026-03-27T12:49:04.705Z</time></trkpt><trkpt lat="43.2612259" lon="11.3467539"><ele>232.33333333333331</ele><time>2026-03-27T12:49:06.705Z</time></trkpt><trkpt lat="43.2612406" lon="11.3466647"><ele>232.5</ele><time>2026-03-27T12:49:07.705Z</time></trkpt><trkpt lat="43.2612606" lon="11.3465704"><ele>232.66666666666669</ele><time>2026-03-27T12:49:09.706Z</time></trkpt><trkpt lat="43.2612934" lon="11.3464638"><ele>232.83333333333334</ele><time>2026-03-27T12:49:11.705Z</time></trkpt><trkpt lat="43.2613305" lon="11.3463837"><ele>233.0</ele><time>2026-03-27T12:49:13.705Z</time></trkpt><trkpt lat="43.2613938" lon="11.3463172"><ele>232.83333333333334</ele><time>2026-03-27T12:49:16.706Z</time></trkpt><trkpt lat="43.2614385" lon="11.3462453"><ele>232.66666666666669</ele><time>2026-03-27T12:49:19.705Z</time></trkpt><trkpt lat="43.2615149" lon="11.3461504"><ele>232.5</ele><time>2026-03-27T12:49:22.705Z</time></trkpt><trkpt lat="43.2615828" lon="11.3460571"><ele>232.33333333333331</ele><time>2026-03-27T12:49:24.705Z</time></trkpt><trkpt lat="43.2616495" lon="11.3459693"><ele>232.16666666666666</ele><time>2026-03-27T12:49:26.705Z</time></trkpt><trkpt lat="43.2617132" lon="11.3458864"><ele>232.0</ele><time>2026-03-27T12:49:28.705Z</time></trkpt><trkpt lat="43.2617675" lon="11.3458056"><ele>231.99999999999997</ele><time>2026-03-27T12:49:30.705Z</time></trkpt><trkpt lat="43.2618326" lon="11.3457496"><ele>232.0</ele><time>2026-03-27T12:49:32.705Z</time></trkpt><trkpt lat="43.2618947" lon="11.3457275"><ele>232.0</ele><time>2026-03-27T12:49:34.705Z</time></trkpt><trkpt lat="43.261966" lon="11.3456903"><ele>232.0</ele><time>2026-03-27T12:49:36.705Z</time></trkpt><trkpt lat="43.2620436" lon="11.3455966"><ele>231.99999999999997</ele><time>2026-03-27T12:49:38.705Z</time></trkpt><trkpt lat="43.2621033" lon="11.3454596"><ele>232.0</ele><time>2026-03-27T12:49:40.705Z</time></trkpt><trkpt lat="43.2620821" lon="11.3453042"><ele>231.8</ele><time>2026-03-27T12:49:42.705Z</time></trkpt><trkpt lat="43.2620565" lon="11.34522"><ele>231.6</ele><time>2026-03-27T12:49:43.705Z</time></trkpt><trkpt lat="43.2620222" lon="11.3451346"><ele>231.40000000000003</ele><time>2026-03-27T12:49:44.705Z</time></trkpt><trkpt lat="43.2619378" lon="11.3450014"><ele>231.20000000000002</ele><time>2026-03-27T12:49:46.705Z</time></trkpt><trkpt lat="43.2618686" lon="11.3448745"><ele>231.0</ele><time>2026-03-27T12:49:48.706Z</time></trkpt><trkpt lat="43.2618365" lon="11.3447164"><ele>230.60000000000002</ele><time>2026-03-27T12:49:50.705Z</time></trkpt><trkpt lat="43.2618249" lon="11.3445913"><ele>230.20000000000002</ele><time>2026-03-27T12:49:52.705Z</time></trkpt><trkpt lat="43.2618431" lon="11.3444519"><ele>229.79999999999998</ele><time>2026-03-27T12:49:54.706Z</time></trkpt><trkpt lat="43.2618756" lon="11.3443229"><ele>229.39999999999998</ele><time>2026-03-27T12:49:56.705Z</time></trkpt><trkpt lat="43.2619121" lon="11.3442094"><ele>229.0</ele><time>2026-03-27T12:49:58.705Z</time></trkpt><trkpt lat="43.2619734" lon="11.3441192"><ele>228.99999999999997</ele><time>2026-03-27T12:50:00.705Z</time></trkpt><trkpt lat="43.2620336" lon="11.3440643"><ele>229.0</ele><time>2026-03-27T12:50:02.705Z</time></trkpt><trkpt lat="43.2621217" lon="11.343989"><ele>229.0</ele><time>2026-03-27T12:50:04.705Z</time></trkpt><trkpt lat="43.2622325" lon="11.343918"><ele>229.0</ele><time>2026-03-27T12:50:06.706Z</time></trkpt><trkpt lat="43.262289" lon="11.3438679"><ele>228.99999999999997</ele><time>2026-03-27T12:50:07.706Z</time></trkpt><trkpt lat="43.2623477" lon="11.3438064"><ele>229.0</ele><time>2026-03-27T12:50:08.706Z</time></trkpt><trkpt lat="43.2624107" lon="11.3437517"><ele>227.49999999999997</ele><time>2026-03-27T12:50:09.705Z</time></trkpt><trkpt lat="43.2624698" lon="11.3436839"><ele>226.0</ele><time>2026-03-27T12:50:10.706Z</time></trkpt><trkpt lat="43.2625231" lon="11.3436207"><ele>224.5</ele><time>2026-03-27T12:50:11.705Z</time></trkpt><trkpt lat="43.2625701" lon="11.3435387"><ele>223.0</ele><time>2026-03-27T12:50:12.705Z</time></trkpt><trkpt lat="43.2626126" lon="11.3434547"><ele>221.49999999999997</ele><time>2026-03-27T12:50:13.705Z</time></trkpt><trkpt lat="43.262662" lon="11.3433641"><ele>220.0</ele><time>2026-03-27T12:50:14.706Z</time></trkpt><trkpt lat="43.2627058" lon="11.3432854"><ele>219.99999999999997</ele><time>2026-03-27T12:50:15.705Z</time></trkpt><trkpt lat="43.2627548" lon="11.3431939"><ele>220.0</ele><time>2026-03-27T12:50:16.705Z</time></trkpt><trkpt lat="43.2627905" lon="11.3430986"><ele>220.0</ele><time>2026-03-27T12:50:17.705Z</time></trkpt><trkpt lat="43.2628467" lon="11.3430228"><ele>220.0</ele><time>2026-03-27T12:50:18.706Z</time></trkpt><trkpt lat="43.2629134" lon="11.3429724"><ele>219.99999999999997</ele><time>2026-03-27T12:50:19.705Z</time></trkpt><trkpt lat="43.2630154" lon="11.3429256"><ele>220.0</ele><time>2026-03-27T12:50:21.705Z</time></trkpt><trkpt lat="43.2631012" lon="11.3428823"><ele>218.99999999999997</ele><time>2026-03-27T12:50:23.705Z</time></trkpt><trkpt lat="43.2631806" lon="11.3428652"><ele>218.0</ele><time>2026-03-27T12:50:25.706Z</time></trkpt><trkpt lat="43.2632779" lon="11.3428558"><ele>217.0</ele><time>2026-03-27T12:50:27.705Z</time></trkpt><trkpt lat="43.2633607" lon="11.3428335"><ele>216.0</ele><time>2026-03-27T12:50:29.705Z</time></trkpt><trkpt lat="43.2634342" lon="11.3428023"><ele>214.99999999999997</ele><time>2026-03-27T12:50:31.705Z</time></trkpt><trkpt lat="43.2635308" lon="11.3427832"><ele>214.0</ele><time>2026-03-27T12:50:33.706Z</time></trkpt><trkpt lat="43.2636204" lon="11.3427532"><ele>213.99999999999997</ele><time>2026-03-27T12:50:35.705Z</time></trkpt><trkpt lat="43.2637014" lon="11.3427223"><ele>214.0</ele><time>2026-03-27T12:50:37.705Z</time></trkpt><trkpt lat="43.2637808" lon="11.3426882"><ele>214.0</ele><time>2026-03-27T12:50:39.705Z</time></trkpt><trkpt lat="43.2638605" lon="11.3426377"><ele>214.0</ele><time>2026-03-27T12:50:41.705Z</time></trkpt><trkpt lat="43.263949" lon="11.3426069"><ele>213.99999999999997</ele><time>2026-03-27T12:50:43.705Z</time></trkpt><trkpt lat="43.2640356" lon="11.3426138"><ele>214.0</ele><time>2026-03-27T12:50:45.706Z</time></trkpt><trkpt lat="43.2641248" lon="11.3426222"><ele>214.49999999999997</ele><time>2026-03-27T12:50:48.705Z</time></trkpt><trkpt lat="43.2641899" lon="11.3426193"><ele>215.0</ele><time>2026-03-27T12:50:50.706Z</time></trkpt><trkpt lat="43.2642717" lon="11.3426527"><ele>215.5</ele><time>2026-03-27T12:50:53.706Z</time></trkpt><trkpt lat="43.264354" lon="11.3427019"><ele>216.0</ele><time>2026-03-27T12:50:56.705Z</time></trkpt><trkpt lat="43.264435" lon="11.3427519"><ele>216.49999999999997</ele><time>2026-03-27T12:50:59.705Z</time></trkpt><trkpt lat="43.2644982" lon="11.3428162"><ele>217.0</ele><time>2026-03-27T12:51:02.706Z</time></trkpt><trkpt lat="43.2645652" lon="11.3428911"><ele>216.99999999999997</ele><time>2026-03-27T12:51:05.706Z</time></trkpt><trkpt lat="43.2646346" lon="11.3429552"><ele>217.0</ele><time>2026-03-27T12:51:08.705Z</time></trkpt><trkpt lat="43.2647094" lon="11.3430151"><ele>217.0</ele><time>2026-03-27T12:51:11.705Z</time></trkpt><trkpt lat="43.2647899" lon="11.3430706"><ele>217.0</ele><time>2026-03-27T12:51:14.705Z</time></trkpt><trkpt lat="43.264848" lon="11.3431106"><ele>216.99999999999997</ele><time>2026-03-27T12:51:16.705Z</time></trkpt><trkpt lat="43.2649356" lon="11.3431528"><ele>217.0</ele><time>2026-03-27T12:51:19.706Z</time></trkpt><trkpt lat="43.2650196" lon="11.3431966"><ele>217.99999999999997</ele><time>2026-03-27T12:51:22.705Z</time></trkpt><trkpt lat="43.2651011" lon="11.3432417"><ele>219.0</ele><time>2026-03-27T12:51:25.705Z</time></trkpt><trkpt lat="43.2651884" lon="11.3432725"><ele>220.0</ele><time>2026-03-27T12:51:28.705Z</time></trkpt><trkpt lat="43.2652764" lon="11.343304"><ele>221.0</ele><time>2026-03-27T12:51:31.705Z</time></trkpt><trkpt lat="43.2653608" lon="11.3433405"><ele>221.99999999999997</ele><time>2026-03-27T12:51:34.705Z</time></trkpt><trkpt lat="43.2654416" lon="11.3433703"><ele>223.0</ele><time>2026-03-27T12:51:37.706Z</time></trkpt><trkpt lat="43.2655262" lon="11.3433846"><ele>222.99999999999997</ele><time>2026-03-27T12:51:40.705Z</time></trkpt><trkpt lat="43.2656055" lon="11.343386"><ele>223.0</ele><time>2026-03-27T12:51:43.705Z</time></trkpt><trkpt lat="43.2656915" lon="11.3433564"><ele>223.0</ele><time>2026-03-27T12:51:46.705Z</time></trkpt><trkpt lat="43.2657699" lon="11.3433171"><ele>223.0</ele><time>2026-03-27T12:51:49.705Z</time></trkpt><trkpt lat="43.2658275" lon="11.3432765"><ele>222.99999999999997</ele><time>2026-03-27T12:51:51.705Z</time></trkpt><trkpt lat="43.265916" lon="11.3432649"><ele>223.0</ele><time>2026-03-27T12:51:54.706Z</time></trkpt><trkpt lat="43.2659799" lon="11.3432682"><ele>223.66666666666666</ele><time>2026-03-27T12:51:56.705Z</time></trkpt><trkpt lat="43.266059" lon="11.3432592"><ele>224.33333333333331</ele><time>2026-03-27T12:51:59.705Z</time></trkpt><trkpt lat="43.2661303" lon="11.3432325"><ele>225.0</ele><time>2026-03-27T12:52:02.706Z</time></trkpt><trkpt lat="43.2662094" lon="11.3431831"><ele>225.66666666666669</ele><time>2026-03-27T12:52:05.706Z</time></trkpt><trkpt lat="43.2662877" lon="11.3431086"><ele>226.33333333333334</ele><time>2026-03-27T12:52:08.706Z</time></trkpt><trkpt lat="43.2663403" lon="11.3430468"><ele>227.0</ele><time>2026-03-27T12:52:10.705Z</time></trkpt><trkpt lat="43.2663828" lon="11.3429785"><ele>227.00000000000003</ele><time>2026-03-27T12:52:12.706Z</time></trkpt><trkpt lat="43.266441" lon="11.3428931"><ele>227.0</ele><time>2026-03-27T12:52:15.705Z</time></trkpt><trkpt lat="43.2664996" lon="11.3428117"><ele>227.0</ele><time>2026-03-27T12:52:18.705Z</time></trkpt><trkpt lat="43.2665513" lon="11.3427162"><ele>227.0</ele><time>2026-03-27T12:52:21.706Z</time></trkpt><trkpt lat="43.2666136" lon="11.3426525"><ele>227.00000000000003</ele><time>2026-03-27T12:52:24.705Z</time></trkpt><trkpt lat="43.266658" lon="11.3425803"><ele>227.0</ele><time>2026-03-27T12:52:27.705Z</time></trkpt><trkpt lat="43.2666815" lon="11.3424966"><ele>228.00000000000003</ele><time>2026-03-27T12:52:30.705Z</time></trkpt><trkpt lat="43.266676" lon="11.342388"><ele>229.0</ele><time>2026-03-27T12:52:33.706Z</time></trkpt><trkpt lat="43.2666677" lon="11.3422857"><ele>230.0</ele><time>2026-03-27T12:52:36.705Z</time></trkpt><trkpt lat="43.2666514" lon="11.3421854"><ele>231.0</ele><time>2026-03-27T12:52:39.705Z</time></trkpt><trkpt lat="43.2666354" lon="11.3420728"><ele>232.00000000000003</ele><time>2026-03-27T12:52:42.705Z</time></trkpt><trkpt lat="43.2666275" lon="11.3419543"><ele>233.0</ele><time>2026-03-27T12:52:45.705Z</time></trkpt><trkpt lat="43.2666201" lon="11.3418683"><ele>233.66666666666669</ele><time>2026-03-27T12:52:47.705Z</time></trkpt><trkpt lat="43.2666012" lon="11.3417831"><ele>234.33333333333334</ele><time>2026-03-27T12:52:49.706Z</time></trkpt><trkpt lat="43.2665808" lon="11.3416605"><ele>235.0</ele><time>2026-03-27T12:52:52.705Z</time></trkpt><trkpt lat="43.2665656" lon="11.3415362"><ele>235.66666666666669</ele><time>2026-03-27T12:52:55.705Z</time></trkpt><trkpt lat="43.2665561" lon="11.3414496"><ele>236.33333333333334</ele><time>2026-03-27T12:52:57.705Z</time></trkpt><trkpt lat="43.2665372" lon="11.3413315"><ele>237.0</ele><time>2026-03-27T12:53:00.705Z</time></trkpt><trkpt lat="43.2665319" lon="11.3412226"><ele>237.33333333333334</ele><time>2026-03-27T12:53:03.705Z</time></trkpt><trkpt lat="43.2665302" lon="11.3411219"><ele>237.66666666666669</ele><time>2026-03-27T12:53:06.705Z</time></trkpt><trkpt lat="43.2665192" lon="11.3410187"><ele>238.0</ele><time>2026-03-27T12:53:09.705Z</time></trkpt><trkpt lat="43.266502" lon="11.3409242"><ele>238.33333333333334</ele><time>2026-03-27T12:53:12.705Z</time></trkpt><trkpt lat="43.2664883" lon="11.3408276"><ele>238.66666666666669</ele><time>2026-03-27T12:53:15.706Z</time></trkpt><trkpt lat="43.2664804" lon="11.3407264"><ele>239.0</ele><time>2026-03-27T12:53:18.705Z</time></trkpt><trkpt lat="43.2664597" lon="11.3406109"><ele>238.16666666666669</ele><time>2026-03-27T12:53:21.706Z</time></trkpt><trkpt lat="43.266431" lon="11.340509"><ele>237.33333333333334</ele><time>2026-03-27T12:53:24.705Z</time></trkpt><trkpt lat="43.2664023" lon="11.3404299"><ele>236.5</ele><time>2026-03-27T12:53:26.705Z</time></trkpt><trkpt lat="43.2663661" lon="11.3403393"><ele>235.66666666666669</ele><time>2026-03-27T12:53:28.705Z</time></trkpt><trkpt lat="43.266316" lon="11.3402691"><ele>234.83333333333334</ele><time>2026-03-27T12:53:30.705Z</time></trkpt><trkpt lat="43.2662653" lon="11.3401962"><ele>234.0</ele><time>2026-03-27T12:53:32.705Z</time></trkpt><trkpt lat="43.266203" lon="11.3401158"><ele>234.0</ele><time>2026-03-27T12:53:34.706Z</time></trkpt><trkpt lat="43.2661364" lon="11.3400683"><ele>234.0</ele><time>2026-03-27T12:53:36.706Z</time></trkpt><trkpt lat="43.2660532" lon="11.3400246"><ele>234.0</ele><time>2026-03-27T12:53:38.705Z</time></trkpt><trkpt lat="43.2659697" lon="11.3399873"><ele>234.0</ele><time>2026-03-27T12:53:40.706Z</time></trkpt><trkpt lat="43.2658725" lon="11.3399611"><ele>234.0</ele><time>2026-03-27T12:53:42.705Z</time></trkpt><trkpt lat="43.2657852" lon="11.3399145"><ele>234.0</ele><time>2026-03-27T12:53:44.706Z</time></trkpt><trkpt lat="43.2657015" lon="11.3398614"><ele>233.5</ele><time>2026-03-27T12:53:46.705Z</time></trkpt><trkpt lat="43.2656046" lon="11.3398064"><ele>233.0</ele><time>2026-03-27T12:53:48.705Z</time></trkpt><trkpt lat="43.2654814" lon="11.3397649"><ele>232.5</ele><time>2026-03-27T12:53:50.705Z</time></trkpt><trkpt lat="43.2654075" lon="11.3397446"><ele>232.0</ele><time>2026-03-27T12:53:51.705Z</time></trkpt><trkpt lat="43.2653411" lon="11.3397245"><ele>231.5</ele><time>2026-03-27T12:53:52.705Z</time></trkpt><trkpt lat="43.2652693" lon="11.3397035"><ele>231.0</ele><time>2026-03-27T12:53:53.705Z</time></trkpt><trkpt lat="43.2651926" lon="11.3396824"><ele>230.16666666666666</ele><time>2026-03-27T12:53:54.706Z</time></trkpt><trkpt lat="43.2651146" lon="11.3396697"><ele>229.33333333333331</ele><time>2026-03-27T12:53:55.706Z</time></trkpt><trkpt lat="43.2650264" lon="11.3396529"><ele>228.5</ele><time>2026-03-27T12:53:56.705Z</time></trkpt><trkpt lat="43.2649446" lon="11.3396531"><ele>227.66666666666666</ele><time>2026-03-27T12:53:57.705Z</time></trkpt><trkpt lat="43.2648629" lon="11.3396373"><ele>226.83333333333331</ele><time>2026-03-27T12:53:58.705Z</time></trkpt><trkpt lat="43.264791" lon="11.3396092"><ele>226.0</ele><time>2026-03-27T12:53:59.705Z</time></trkpt><trkpt lat="43.2647159" lon="11.3395918"><ele>225.16666666666666</ele><time>2026-03-27T12:54:00.705Z</time></trkpt><trkpt lat="43.2646475" lon="11.3395708"><ele>224.33333333333331</ele><time>2026-03-27T12:54:01.705Z</time></trkpt><trkpt lat="43.2645824" lon="11.3395662"><ele>223.5</ele><time>2026-03-27T12:54:02.706Z</time></trkpt><trkpt lat="43.2644733" lon="11.3395767"><ele>222.66666666666669</ele><time>2026-03-27T12:54:04.706Z</time></trkpt><trkpt lat="43.2643975" lon="11.3396618"><ele>221.83333333333334</ele><time>2026-03-27T12:54:06.705Z</time></trkpt><trkpt lat="43.2643091" lon="11.3397277"><ele>221.0</ele><time>2026-03-27T12:54:08.705Z</time></trkpt><trkpt lat="43.2642103" lon="11.3397531"><ele>221.00000000000003</ele><time>2026-03-27T12:54:10.705Z</time></trkpt><trkpt lat="43.2641016" lon="11.3397513"><ele>221.0</ele><time>2026-03-27T12:54:12.705Z</time></trkpt><trkpt lat="43.2640112" lon="11.3396363"><ele>221.0</ele><time>2026-03-27T12:54:14.705Z</time></trkpt><trkpt lat="43.263976" lon="11.3395603"><ele>221.0</ele><time>2026-03-27T12:54:15.706Z</time></trkpt><trkpt lat="43.263954" lon="11.3394763"><ele>221.00000000000003</ele><time>2026-03-27T12:54:16.705Z</time></trkpt><trkpt lat="43.2639318" lon="11.3393775"><ele>221.0</ele><time>2026-03-27T12:54:17.706Z</time></trkpt><trkpt lat="43.2639377" lon="11.3392064"><ele>221.00000000000003</ele><time>2026-03-27T12:54:19.705Z</time></trkpt><trkpt lat="43.2639421" lon="11.3391172"><ele>221.0</ele><time>2026-03-27T12:54:20.706Z</time></trkpt><trkpt lat="43.2639553" lon="11.3390118"><ele>221.0</ele><time>2026-03-27T12:54:21.706Z</time></trkpt><trkpt lat="43.2639701" lon="11.338917"><ele>221.0</ele><time>2026-03-27T12:54:22.705Z</time></trkpt><trkpt lat="43.2640015" lon="11.3388238"><ele>221.0</ele><time>2026-03-27T12:54:23.705Z</time></trkpt><trkpt lat="43.2640402" lon="11.3387406"><ele>221.00000000000003</ele><time>2026-03-27T12:54:24.705Z</time></trkpt><trkpt lat="43.264083" lon="11.3386579"><ele>221.0</ele><time>2026-03-27T12:54:25.705Z</time></trkpt><trkpt lat="43.2641378" lon="11.3385792"><ele>219.50000000000003</ele><time>2026-03-27T12:54:26.705Z</time></trkpt><trkpt lat="43.2641982" lon="11.3384939"><ele>218.0</ele><time>2026-03-27T12:54:27.705Z</time></trkpt><trkpt lat="43.2642536" lon="11.3384194"><ele>216.5</ele><time>2026-03-27T12:54:28.706Z</time></trkpt><trkpt lat="43.2643126" lon="11.33835"><ele>215.0</ele><time>2026-03-27T12:54:29.706Z</time></trkpt><trkpt lat="43.2643696" lon="11.3382776"><ele>213.50000000000003</ele><time>2026-03-27T12:54:30.706Z</time></trkpt><trkpt lat="43.2644221" lon="11.3382141"><ele>212.0</ele><time>2026-03-27T12:54:31.706Z</time></trkpt><trkpt lat="43.2644784" lon="11.3381498"><ele>212.0</ele><time>2026-03-27T12:54:32.706Z</time></trkpt><trkpt lat="43.2645271" lon="11.338082"><ele>212.0</ele><time>2026-03-27T12:54:33.706Z</time></trkpt><trkpt lat="43.2645725" lon="11.3379342"><ele>212.0</ele><time>2026-03-27T12:54:35.706Z</time></trkpt><trkpt lat="43.264592" lon="11.3377993"><ele>212.0</ele><time>2026-03-27T12:54:37.705Z</time></trkpt><trkpt lat="43.2645482" lon="11.3376322"><ele>212.0</ele><time>2026-03-27T12:54:39.705Z</time></trkpt><trkpt lat="43.2645303" lon="11.3375437"><ele>211.00000000000003</ele><time>2026-03-27T12:54:40.705Z</time></trkpt><trkpt lat="43.2645101" lon="11.3374595"><ele>210.0</ele><time>2026-03-27T12:54:41.705Z</time></trkpt><trkpt lat="43.2644813" lon="11.337364"><ele>209.0</ele><time>2026-03-27T12:54:42.706Z</time></trkpt><trkpt lat="43.2644338" lon="11.3372115"><ele>208.0</ele><time>2026-03-27T12:54:44.705Z</time></trkpt><trkpt lat="43.2644042" lon="11.3371288"><ele>207.00000000000003</ele><time>2026-03-27T12:54:45.705Z</time></trkpt><trkpt lat="43.2643579" lon="11.3369799"><ele>206.0</ele><time>2026-03-27T12:54:47.705Z</time></trkpt><trkpt lat="43.2643061" lon="11.3368255"><ele>205.75</ele><time>2026-03-27T12:54:49.705Z</time></trkpt><trkpt lat="43.2642551" lon="11.3366816"><ele>205.5</ele><time>2026-03-27T12:54:51.705Z</time></trkpt><trkpt lat="43.2642036" lon="11.3365448"><ele>205.25</ele><time>2026-03-27T12:54:53.706Z</time></trkpt><trkpt lat="43.2641523" lon="11.3364051"><ele>205.0</ele><time>2026-03-27T12:54:55.706Z</time></trkpt><trkpt lat="43.2640862" lon="11.3362713"><ele>205.49999999999997</ele><time>2026-03-27T12:54:57.705Z</time></trkpt><trkpt lat="43.2640277" lon="11.3361452"><ele>206.0</ele><time>2026-03-27T12:54:59.706Z</time></trkpt><trkpt lat="43.2639761" lon="11.336047"><ele>206.5</ele><time>2026-03-27T12:55:01.705Z</time></trkpt><trkpt lat="43.2639243" lon="11.3359487"><ele>207.0</ele><time>2026-03-27T12:55:03.705Z</time></trkpt><trkpt lat="43.2638699" lon="11.3358748"><ele>207.49999999999997</ele><time>2026-03-27T12:55:05.705Z</time></trkpt><trkpt lat="43.2638313" lon="11.3357889"><ele>208.0</ele><time>2026-03-27T12:55:07.705Z</time></trkpt><trkpt lat="43.2638012" lon="11.3357106"><ele>208.28571428571428</ele><time>2026-03-27T12:55:09.705Z</time></trkpt><trkpt lat="43.2637561" lon="11.3356195"><ele>208.57142857142858</ele><time>2026-03-27T12:55:12.705Z</time></trkpt><trkpt lat="43.26372" lon="11.3355416"><ele>208.85714285714286</ele><time>2026-03-27T12:55:15.706Z</time></trkpt><trkpt lat="43.263676" lon="11.3354453"><ele>209.14285714285714</ele><time>2026-03-27T12:55:18.706Z</time></trkpt><trkpt lat="43.2636246" lon="11.3353721"><ele>209.42857142857144</ele><time>2026-03-27T12:55:22.705Z</time></trkpt><trkpt lat="43.2635921" lon="11.3352962"><ele>209.71428571428572</ele><time>2026-03-27T12:55:25.705Z</time></trkpt><trkpt lat="43.2635696" lon="11.3352138"><ele>210.0</ele><time>2026-03-27T12:55:28.705Z</time></trkpt><trkpt lat="43.2635291" lon="11.3351159"><ele>211.28571428571428</ele><time>2026-03-27T12:55:32.706Z</time></trkpt><trkpt lat="43.2634979" lon="11.3350259"><ele>212.57142857142856</ele><time>2026-03-27T12:55:36.705Z</time></trkpt><trkpt lat="43.2634776" lon="11.3349391"><ele>213.85714285714286</ele><time>2026-03-27T12:55:39.706Z</time></trkpt><trkpt lat="43.2634474" lon="11.3348486"><ele>215.14285714285714</ele><time>2026-03-27T12:55:43.705Z</time></trkpt><trkpt lat="43.263433" lon="11.3347523"><ele>216.42857142857142</ele><time>2026-03-27T12:55:47.705Z</time></trkpt><trkpt lat="43.2634215" lon="11.3346545"><ele>217.71428571428572</ele><time>2026-03-27T12:55:52.705Z</time></trkpt><trkpt lat="43.2634052" lon="11.3345675"><ele>219.0</ele><time>2026-03-27T12:55:56.705Z</time></trkpt><trkpt lat="43.2634016" lon="11.3344793"><ele>220.0</ele><time>2026-03-27T12:56:00.706Z</time></trkpt><trkpt lat="43.2634086" lon="11.3343895"><ele>221.0</ele><time>2026-03-27T12:56:04.705Z</time></trkpt><trkpt lat="43.2634093" lon="11.3342939"><ele>222.0</ele><time>2026-03-27T12:56:08.705Z</time></trkpt><trkpt lat="43.2634516" lon="11.3342297"><ele>223.0</ele><time>2026-03-27T12:56:12.705Z</time></trkpt><trkpt lat="43.2635176" lon="11.334181"><ele>224.0</ele><time>2026-03-27T12:56:16.705Z</time></trkpt><trkpt lat="43.2635754" lon="11.3341305"><ele>225.0</ele><time>2026-03-27T12:56:19.705Z</time></trkpt><trkpt lat="43.2636566" lon="11.3341087"><ele>226.0</ele><time>2026-03-27T12:56:22.705Z</time></trkpt><trkpt lat="43.2637472" lon="11.334091"><ele>226.0</ele><time>2026-03-27T12:56:25.705Z</time></trkpt><trkpt lat="43.2638127" lon="11.3340695"><ele>226.0</ele><time>2026-03-27T12:56:27.705Z</time></trkpt><trkpt lat="43.2638759" lon="11.3340511"><ele>226.0</ele><time>2026-03-27T12:56:29.705Z</time></trkpt><trkpt lat="43.2639392" lon="11.3340392"><ele>226.0</ele><time>2026-03-27T12:56:31.706Z</time></trkpt><trkpt lat="43.2640048" lon="11.3340339"><ele>226.0</ele><time>2026-03-27T12:56:33.706Z</time></trkpt><trkpt lat="43.264072" lon="11.3340279"><ele>226.0</ele><time>2026-03-27T12:56:35.705Z</time></trkpt><trkpt lat="43.2641424" lon="11.3340208"><ele>226.0</ele><time>2026-03-27T12:56:37.705Z</time></trkpt><trkpt lat="43.2642179" lon="11.334013"><ele>225.57142857142858</ele><time>2026-03-27T12:56:39.705Z</time></trkpt><trkpt lat="43.2642858" lon="11.3340043"><ele>225.14285714285714</ele><time>2026-03-27T12:56:41.706Z</time></trkpt><trkpt lat="43.2643562" lon="11.3339796"><ele>224.71428571428572</ele><time>2026-03-27T12:56:43.705Z</time></trkpt><trkpt lat="43.2644321" lon="11.3339546"><ele>224.28571428571428</ele><time>2026-03-27T12:56:45.706Z</time></trkpt><trkpt lat="43.2645056" lon="11.3339319"><ele>223.85714285714283</ele><time>2026-03-27T12:56:47.705Z</time></trkpt><trkpt lat="43.2645774" lon="11.3339072"><ele>223.42857142857142</ele><time>2026-03-27T12:56:49.705Z</time></trkpt><trkpt lat="43.264645" lon="11.3338878"><ele>223.0</ele><time>2026-03-27T12:56:51.705Z</time></trkpt><trkpt lat="43.2647149" lon="11.3338589"><ele>223.42857142857142</ele><time>2026-03-27T12:56:53.706Z</time></trkpt><trkpt lat="43.2647836" lon="11.333828"><ele>223.85714285714283</ele><time>2026-03-27T12:56:55.706Z</time></trkpt><trkpt lat="43.2648527" lon="11.333809"><ele>224.28571428571428</ele><time>2026-03-27T12:56:57.706Z</time></trkpt><trkpt lat="43.2649162" lon="11.3337711"><ele>224.71428571428572</ele><time>2026-03-27T12:56:59.706Z</time></trkpt><trkpt lat="43.2649767" lon="11.3337272"><ele>225.14285714285714</ele><time>2026-03-27T12:57:01.706Z</time></trkpt><trkpt lat="43.2650464" lon="11.3336992"><ele>225.57142857142858</ele><time>2026-03-27T12:57:03.705Z</time></trkpt><trkpt lat="43.2651154" lon="11.3336768"><ele>226.0</ele><time>2026-03-27T12:57:05.705Z</time></trkpt><trkpt lat="43.2652065" lon="11.3336418"><ele>226.0</ele><time>2026-03-27T12:57:08.705Z</time></trkpt><trkpt lat="43.2652972" lon="11.3335941"><ele>226.0</ele><time>2026-03-27T12:57:11.706Z</time></trkpt><trkpt lat="43.2653596" lon="11.3335628"><ele>226.0</ele><time>2026-03-27T12:57:13.706Z</time></trkpt><trkpt lat="43.2654263" lon="11.3335324"><ele>226.0</ele><time>2026-03-27T12:57:15.706Z</time></trkpt><trkpt lat="43.2654894" lon="11.3335092"><ele>226.0</ele><time>2026-03-27T12:57:17.706Z</time></trkpt><trkpt lat="43.2655538" lon="11.3334734"><ele>226.0</ele><time>2026-03-27T12:57:19.705Z</time></trkpt><trkpt lat="43.2656118" lon="11.3334349"><ele>226.0</ele><time>2026-03-27T12:57:21.705Z</time></trkpt><trkpt lat="43.2657062" lon="11.3334077"><ele>226.42857142857144</ele><time>2026-03-27T12:57:24.705Z</time></trkpt><trkpt lat="43.26577" lon="11.3333825"><ele>226.85714285714283</ele><time>2026-03-27T12:57:26.705Z</time></trkpt><trkpt lat="43.2658364" lon="11.3333596"><ele>227.28571428571428</ele><time>2026-03-27T12:57:28.705Z</time></trkpt><trkpt lat="43.2659058" lon="11.3333407"><ele>227.71428571428572</ele><time>2026-03-27T12:57:30.706Z</time></trkpt><trkpt lat="43.2659753" lon="11.3333268"><ele>228.14285714285717</ele><time>2026-03-27T12:57:32.705Z</time></trkpt><trkpt lat="43.2660408" lon="11.3333045"><ele>228.57142857142856</ele><time>2026-03-27T12:57:34.706Z</time></trkpt><trkpt lat="43.2661087" lon="11.3332827"><ele>229.0</ele><time>2026-03-27T12:57:36.705Z</time></trkpt><trkpt lat="43.2661942" lon="11.3332642"><ele>229.0</ele><time>2026-03-27T12:57:39.705Z</time></trkpt><trkpt lat="43.266285" lon="11.3332649"><ele>229.0</ele><time>2026-03-27T12:57:42.705Z</time></trkpt><trkpt lat="43.2663508" lon="11.3332579"><ele>229.0</ele><time>2026-03-27T12:57:44.705Z</time></trkpt><trkpt lat="43.26642" lon="11.3332473"><ele>229.0</ele><time>2026-03-27T12:57:46.705Z</time></trkpt><trkpt lat="43.2664862" lon="11.3332322"><ele>229.0</ele><time>2026-03-27T12:57:48.705Z</time></trkpt><trkpt lat="43.2665762" lon="11.3332099"><ele>229.0</ele><time>2026-03-27T12:57:51.705Z</time></trkpt><trkpt lat="43.2666402" lon="11.3332048"><ele>229.0</ele><time>2026-03-27T12:57:53.706Z</time></trkpt><trkpt lat="43.2667263" lon="11.3331774"><ele>229.42857142857142</ele><time>2026-03-27T12:57:56.705Z</time></trkpt><trkpt lat="43.2667918" lon="11.3331624"><ele>229.8571428571429</ele><time>2026-03-27T12:57:58.705Z</time></trkpt><trkpt lat="43.2668648" lon="11.3331541"><ele>230.2857142857143</ele><time>2026-03-27T12:58:00.705Z</time></trkpt><trkpt lat="43.2669342" lon="11.3331451"><ele>230.71428571428572</ele><time>2026-03-27T12:58:02.705Z</time></trkpt><trkpt lat="43.2670221" lon="11.3331401"><ele>231.14285714285717</ele><time>2026-03-27T12:58:05.705Z</time></trkpt><trkpt lat="43.2670896" lon="11.3331276"><ele>231.5714285714286</ele><time>2026-03-27T12:58:07.705Z</time></trkpt><trkpt lat="43.2671619" lon="11.3331176"><ele>232.00000000000003</ele><time>2026-03-27T12:58:09.705Z</time></trkpt><trkpt lat="43.267237" lon="11.3331091"><ele>231.99999999999997</ele><time>2026-03-27T12:58:11.706Z</time></trkpt><trkpt lat="43.26732" lon="11.3331129"><ele>232.0</ele><time>2026-03-27T12:58:13.705Z</time></trkpt><trkpt lat="43.2674061" lon="11.333117"><ele>232.0</ele><time>2026-03-27T12:58:15.705Z</time></trkpt><trkpt lat="43.2674831" lon="11.3331188"><ele>232.0</ele><time>2026-03-27T12:58:17.705Z</time></trkpt><trkpt lat="43.2675469" lon="11.3331248"><ele>231.99999999999997</ele><time>2026-03-27T12:58:19.705Z</time></trkpt><trkpt lat="43.2676242" lon="11.3331372"><ele>232.0</ele><time>2026-03-27T12:58:21.705Z</time></trkpt><trkpt lat="43.2677069" lon="11.3331412"><ele>231.99999999999997</ele><time>2026-03-27T12:58:23.706Z</time></trkpt><trkpt lat="43.267794" lon="11.3331511"><ele>232.0</ele><time>2026-03-27T12:58:25.706Z</time></trkpt><trkpt lat="43.2678778" lon="11.3331616"><ele>232.0</ele><time>2026-03-27T12:58:27.706Z</time></trkpt><trkpt lat="43.267963" lon="11.333174"><ele>232.0</ele><time>2026-03-27T12:58:29.705Z</time></trkpt><trkpt lat="43.2680492" lon="11.3331858"><ele>231.99999999999997</ele><time>2026-03-27T12:58:31.706Z</time></trkpt><trkpt lat="43.2681332" lon="11.3331927"><ele>232.0</ele><time>2026-03-27T12:58:33.705Z</time></trkpt><trkpt lat="43.2682139" lon="11.3331966"><ele>231.99999999999997</ele><time>2026-03-27T12:58:35.706Z</time></trkpt><trkpt lat="43.2683102" lon="11.3332025"><ele>232.0</ele><time>2026-03-27T12:58:37.706Z</time></trkpt><trkpt lat="43.2684036" lon="11.3332004"><ele>232.0</ele><time>2026-03-27T12:58:39.706Z</time></trkpt><trkpt lat="43.2684872" lon="11.3331982"><ele>232.0</ele><time>2026-03-27T12:58:41.706Z</time></trkpt><trkpt lat="43.268566" lon="11.3331889"><ele>231.99999999999997</ele><time>2026-03-27T12:58:43.705Z</time></trkpt><trkpt lat="43.2686532" lon="11.3331719"><ele>232.0</ele><time>2026-03-27T12:58:45.706Z</time></trkpt><trkpt lat="43.2687423" lon="11.3331482"><ele>232.0</ele><time>2026-03-27T12:58:47.705Z</time></trkpt><trkpt lat="43.2688412" lon="11.3331207"><ele>232.0</ele><time>2026-03-27T12:58:49.706Z</time></trkpt><trkpt lat="43.2689323" lon="11.3330868"><ele>232.0</ele><time>2026-03-27T12:58:51.705Z</time></trkpt><trkpt lat="43.2690096" lon="11.333048"><ele>232.0</ele><time>2026-03-27T12:58:53.705Z</time></trkpt><trkpt lat="43.2690847" lon="11.3329906"><ele>232.0</ele><time>2026-03-27T12:58:55.705Z</time></trkpt><trkpt lat="43.2691656" lon="11.3329355"><ele>232.0</ele><time>2026-03-27T12:58:57.705Z</time></trkpt><trkpt lat="43.2692402" lon="11.3328521"><ele>232.0</ele><time>2026-03-27T12:58:59.705Z</time></trkpt><trkpt lat="43.2693195" lon="11.3327726"><ele>232.0</ele><time>2026-03-27T12:59:01.705Z</time></trkpt><trkpt lat="43.2693803" lon="11.332691"><ele>232.0</ele><time>2026-03-27T12:59:03.705Z</time></trkpt><trkpt lat="43.2694421" lon="11.3326013"><ele>232.0</ele><time>2026-03-27T12:59:05.705Z</time></trkpt><trkpt lat="43.2695162" lon="11.332549"><ele>231.99999999999997</ele><time>2026-03-27T12:59:07.705Z</time></trkpt><trkpt lat="43.2695802" lon="11.3324818"><ele>232.0</ele><time>2026-03-27T12:59:09.706Z</time></trkpt><trkpt lat="43.2696495" lon="11.3324124"><ele>232.0</ele><time>2026-03-27T12:59:11.705Z</time></trkpt><trkpt lat="43.2697157" lon="11.3323524"><ele>232.0</ele><time>2026-03-27T12:59:13.705Z</time></trkpt><trkpt lat="43.2697709" lon="11.3322894"><ele>231.99999999999997</ele><time>2026-03-27T12:59:15.705Z</time></trkpt><trkpt lat="43.2698294" lon="11.3322176"><ele>232.0</ele><time>2026-03-27T12:59:17.705Z</time></trkpt><trkpt lat="43.2698925" lon="11.3321461"><ele>232.66666666666666</ele><time>2026-03-27T12:59:19.705Z</time></trkpt><trkpt lat="43.2699575" lon="11.332068"><ele>233.33333333333331</ele><time>2026-03-27T12:59:21.705Z</time></trkpt><trkpt lat="43.2700197" lon="11.3319869"><ele>234.0</ele><time>2026-03-27T12:59:23.706Z</time></trkpt><trkpt lat="43.270087" lon="11.3319156"><ele>234.66666666666669</ele><time>2026-03-27T12:59:25.705Z</time></trkpt><trkpt lat="43.2701449" lon="11.3318444"><ele>235.33333333333334</ele><time>2026-03-27T12:59:27.706Z</time></trkpt><trkpt lat="43.2702057" lon="11.3317678"><ele>236.0</ele><time>2026-03-27T12:59:29.706Z</time></trkpt><trkpt lat="43.2702739" lon="11.3316831"><ele>236.00000000000003</ele><time>2026-03-27T12:59:31.706Z</time></trkpt><trkpt lat="43.2703376" lon="11.3315948"><ele>236.0</ele><time>2026-03-27T12:59:33.705Z</time></trkpt><trkpt lat="43.270403" lon="11.3315135"><ele>236.0</ele><time>2026-03-27T12:59:35.705Z</time></trkpt><trkpt lat="43.270466" lon="11.3314373"><ele>236.0</ele><time>2026-03-27T12:59:37.705Z</time></trkpt><trkpt lat="43.2705274" lon="11.331366"><ele>236.00000000000003</ele><time>2026-03-27T12:59:39.706Z</time></trkpt><trkpt lat="43.2706016" lon="11.3312991"><ele>236.0</ele><time>2026-03-27T12:59:41.706Z</time></trkpt><trkpt lat="43.2706741" lon="11.3312241"><ele>236.50000000000003</ele><time>2026-03-27T12:59:43.706Z</time></trkpt><trkpt lat="43.2707455" lon="11.3311558"><ele>237.0</ele><time>2026-03-27T12:59:45.705Z</time></trkpt><trkpt lat="43.2708179" lon="11.3311121"><ele>237.5</ele><time>2026-03-27T12:59:47.705Z</time></trkpt><trkpt lat="43.2708897" lon="11.3310784"><ele>238.0</ele><time>2026-03-27T12:59:49.706Z</time></trkpt><trkpt lat="43.2709711" lon="11.331032"><ele>238.50000000000003</ele><time>2026-03-27T12:59:51.705Z</time></trkpt><trkpt lat="43.2710534" lon="11.3309894"><ele>239.0</ele><time>2026-03-27T12:59:53.705Z</time></trkpt><trkpt lat="43.2711357" lon="11.330957"><ele>239.00000000000003</ele><time>2026-03-27T12:59:55.705Z</time></trkpt><trkpt lat="43.2712198" lon="11.3309319"><ele>239.0</ele><time>2026-03-27T12:59:57.706Z</time></trkpt><trkpt lat="43.2712997" lon="11.3309061"><ele>239.0</ele><time>2026-03-27T12:59:59.705Z</time></trkpt><trkpt lat="43.2713805" lon="11.3308903"><ele>239.0</ele><time>2026-03-27T13:00:01.705Z</time></trkpt><trkpt lat="43.2714592" lon="11.3308685"><ele>239.00000000000003</ele><time>2026-03-27T13:00:03.705Z</time></trkpt><trkpt lat="43.2715443" lon="11.33085"><ele>239.0</ele><time>2026-03-27T13:00:05.706Z</time></trkpt><trkpt lat="43.2716337" lon="11.3308358"><ele>239.16666666666669</ele><time>2026-03-27T13:00:07.705Z</time></trkpt><trkpt lat="43.271721" lon="11.3308295"><ele>239.33333333333334</ele><time>2026-03-27T13:00:09.706Z</time></trkpt><trkpt lat="43.2718226" lon="11.3308166"><ele>239.5</ele><time>2026-03-27T13:00:11.705Z</time></trkpt><trkpt lat="43.2719158" lon="11.3308157"><ele>239.66666666666669</ele><time>2026-03-27T13:00:13.705Z</time></trkpt><trkpt lat="43.2719882" lon="11.3308186"><ele>239.83333333333334</ele><time>2026-03-27T13:00:15.705Z</time></trkpt><trkpt lat="43.2720688" lon="11.3307882"><ele>240.0</ele><time>2026-03-27T13:00:17.705Z</time></trkpt><trkpt lat="43.2721529" lon="11.3307706"><ele>240.0</ele><time>2026-03-27T13:00:19.705Z</time></trkpt><trkpt lat="43.2722329" lon="11.3307588"><ele>240.0</ele><time>2026-03-27T13:00:21.706Z</time></trkpt><trkpt lat="43.2723032" lon="11.3307402"><ele>240.0</ele><time>2026-03-27T13:00:23.705Z</time></trkpt><trkpt lat="43.2723779" lon="11.3307143"><ele>240.0</ele><time>2026-03-27T13:00:25.705Z</time></trkpt><trkpt lat="43.27246" lon="11.3306936"><ele>240.0</ele><time>2026-03-27T13:00:27.705Z</time></trkpt><trkpt lat="43.2725366" lon="11.3306741"><ele>240.0</ele><time>2026-03-27T13:00:29.706Z</time></trkpt><trkpt lat="43.272616" lon="11.3306514"><ele>240.16666666666666</ele><time>2026-03-27T13:00:31.705Z</time></trkpt><trkpt lat="43.2727005" lon="11.3306286"><ele>240.33333333333331</ele><time>2026-03-27T13:00:33.705Z</time></trkpt><trkpt lat="43.2728008" lon="11.3306287"><ele>240.5</ele><time>2026-03-27T13:00:35.705Z</time></trkpt><trkpt lat="43.2728808" lon="11.3305987"><ele>240.66666666666666</ele><time>2026-03-27T13:00:37.705Z</time></trkpt><trkpt lat="43.2729566" lon="11.3305499"><ele>240.83333333333331</ele><time>2026-03-27T13:00:39.705Z</time></trkpt><trkpt lat="43.2730352" lon="11.3305096"><ele>241.0</ele><time>2026-03-27T13:00:41.706Z</time></trkpt><trkpt lat="43.2731086" lon="11.3304708"><ele>240.66666666666666</ele><time>2026-03-27T13:00:43.705Z</time></trkpt><trkpt lat="43.273183" lon="11.3304286"><ele>240.33333333333331</ele><time>2026-03-27T13:00:45.705Z</time></trkpt><trkpt lat="43.2732601" lon="11.3303768"><ele>240.0</ele><time>2026-03-27T13:00:47.705Z</time></trkpt><trkpt lat="43.2733418" lon="11.3303165"><ele>239.66666666666669</ele><time>2026-03-27T13:00:49.705Z</time></trkpt><trkpt lat="43.273417" lon="11.3302549"><ele>239.33333333333334</ele><time>2026-03-27T13:00:51.705Z</time></trkpt><trkpt lat="43.2734909" lon="11.3301892"><ele>239.0</ele><time>2026-03-27T13:00:53.705Z</time></trkpt><trkpt lat="43.2735653" lon="11.3301346"><ele>239.0</ele><time>2026-03-27T13:00:55.705Z</time></trkpt><trkpt lat="43.2736514" lon="11.33009"><ele>238.99999999999997</ele><time>2026-03-27T13:00:57.705Z</time></trkpt><trkpt lat="43.2737362" lon="11.3300138"><ele>238.99999999999997</ele><time>2026-03-27T13:00:59.706Z</time></trkpt><trkpt lat="43.2738167" lon="11.3299392"><ele>239.0</ele><time>2026-03-27T13:01:01.705Z</time></trkpt><trkpt lat="43.2738844" lon="11.3298819"><ele>239.0</ele><time>2026-03-27T13:01:03.705Z</time></trkpt><trkpt lat="43.2739473" lon="11.3298066"><ele>239.50000000000003</ele><time>2026-03-27T13:01:05.705Z</time></trkpt><trkpt lat="43.2740055" lon="11.3297269"><ele>240.0</ele><time>2026-03-27T13:01:07.705Z</time></trkpt><trkpt lat="43.2740617" lon="11.3296563"><ele>240.5</ele><time>2026-03-27T13:01:09.706Z</time></trkpt><trkpt lat="43.274122" lon="11.3295793"><ele>241.0</ele><time>2026-03-27T13:01:11.705Z</time></trkpt><trkpt lat="43.2741801" lon="11.3294976"><ele>241.50000000000003</ele><time>2026-03-27T13:01:13.705Z</time></trkpt><trkpt lat="43.2742452" lon="11.3294163"><ele>242.0</ele><time>2026-03-27T13:01:15.705Z</time></trkpt><trkpt lat="43.274305" lon="11.3293288"><ele>243.33333333333334</ele><time>2026-03-27T13:01:17.705Z</time></trkpt><trkpt lat="43.274361" lon="11.3292293"><ele>244.66666666666669</ele><time>2026-03-27T13:01:19.706Z</time></trkpt><trkpt lat="43.27441" lon="11.3291219"><ele>246.0</ele><time>2026-03-27T13:01:21.705Z</time></trkpt><trkpt lat="43.2744527" lon="11.3290189"><ele>247.33333333333331</ele><time>2026-03-27T13:01:23.705Z</time></trkpt><trkpt lat="43.2744915" lon="11.3289252"><ele>248.66666666666666</ele><time>2026-03-27T13:01:25.705Z</time></trkpt><trkpt lat="43.2745297" lon="11.3288315"><ele>250.0</ele><time>2026-03-27T13:01:27.705Z</time></trkpt><trkpt lat="43.2745677" lon="11.3287272"><ele>249.83333333333331</ele><time>2026-03-27T13:01:29.705Z</time></trkpt><trkpt lat="43.2746282" lon="11.3286318"><ele>249.66666666666666</ele><time>2026-03-27T13:01:31.705Z</time></trkpt><trkpt lat="43.2746742" lon="11.3285202"><ele>249.5</ele><time>2026-03-27T13:01:33.705Z</time></trkpt><trkpt lat="43.2747097" lon="11.3284145"><ele>249.33333333333331</ele><time>2026-03-27T13:01:35.705Z</time></trkpt><trkpt lat="43.2747557" lon="11.3283229"><ele>249.16666666666666</ele><time>2026-03-27T13:01:37.705Z</time></trkpt><trkpt lat="43.2748131" lon="11.3282288"><ele>249.0</ele><time>2026-03-27T13:01:39.706Z</time></trkpt><trkpt lat="43.2748781" lon="11.3281537"><ele>249.0</ele><time>2026-03-27T13:01:41.706Z</time></trkpt><trkpt lat="43.2749389" lon="11.3280733"><ele>249.0</ele><time>2026-03-27T13:01:43.706Z</time></trkpt><trkpt lat="43.2750101" lon="11.3279896"><ele>249.0</ele><time>2026-03-27T13:01:45.705Z</time></trkpt><trkpt lat="43.2750858" lon="11.3279085"><ele>249.0</ele><time>2026-03-27T13:01:47.706Z</time></trkpt><trkpt lat="43.2751567" lon="11.3278297"><ele>249.0</ele><time>2026-03-27T13:01:49.705Z</time></trkpt><trkpt lat="43.2752216" lon="11.3277684"><ele>249.0</ele><time>2026-03-27T13:01:51.706Z</time></trkpt><trkpt lat="43.2752878" lon="11.327688"><ele>248.79999999999998</ele><time>2026-03-27T13:01:53.705Z</time></trkpt><trkpt lat="43.2753505" lon="11.3276018"><ele>248.59999999999997</ele><time>2026-03-27T13:01:55.706Z</time></trkpt><trkpt lat="43.2754203" lon="11.3275282"><ele>248.4</ele><time>2026-03-27T13:01:57.705Z</time></trkpt><trkpt lat="43.2755022" lon="11.3274277"><ele>248.2</ele><time>2026-03-27T13:01:59.705Z</time></trkpt><trkpt lat="43.2755645" lon="11.3273409"><ele>248.0</ele><time>2026-03-27T13:02:01.705Z</time></trkpt><trkpt lat="43.2756238" lon="11.3272581"><ele>248.50000000000003</ele><time>2026-03-27T13:02:03.706Z</time></trkpt><trkpt lat="43.2756899" lon="11.3271911"><ele>249.0</ele><time>2026-03-27T13:02:05.705Z</time></trkpt><trkpt lat="43.2757514" lon="11.3271211"><ele>249.5</ele><time>2026-03-27T13:02:07.706Z</time></trkpt><trkpt lat="43.2758073" lon="11.327053"><ele>250.0</ele><time>2026-03-27T13:02:09.706Z</time></trkpt><trkpt lat="43.2758604" lon="11.3269871"><ele>250.50000000000003</ele><time>2026-03-27T13:02:11.705Z</time></trkpt><trkpt lat="43.2759162" lon="11.3269212"><ele>251.0</ele><time>2026-03-27T13:02:13.705Z</time></trkpt><trkpt lat="43.2759727" lon="11.3268305"><ele>251.0</ele><time>2026-03-27T13:02:15.705Z</time></trkpt><trkpt lat="43.2759906" lon="11.3267452"><ele>251.00000000000003</ele><time>2026-03-27T13:02:16.705Z</time></trkpt><trkpt lat="43.2760549" lon="11.3266467"><ele>251.00000000000003</ele><time>2026-03-27T13:02:18.705Z</time></trkpt><trkpt lat="43.2761252" lon="11.32654"><ele>251.0</ele><time>2026-03-27T13:02:20.705Z</time></trkpt><trkpt lat="43.2761954" lon="11.3264285"><ele>251.0</ele><time>2026-03-27T13:02:22.705Z</time></trkpt><trkpt lat="43.2762649" lon="11.3262998"><ele>250.66666666666669</ele><time>2026-03-27T13:02:24.705Z</time></trkpt><trkpt lat="43.2763007" lon="11.3262275"><ele>250.33333333333334</ele><time>2026-03-27T13:02:25.706Z</time></trkpt><trkpt lat="43.2763808" lon="11.3260992"><ele>250.0</ele><time>2026-03-27T13:02:27.705Z</time></trkpt><trkpt lat="43.2764217" lon="11.3260283"><ele>249.66666666666669</ele><time>2026-03-27T13:02:28.706Z</time></trkpt><trkpt lat="43.2764606" lon="11.3259534"><ele>249.33333333333334</ele><time>2026-03-27T13:02:29.706Z</time></trkpt><trkpt lat="43.2765007" lon="11.3258798"><ele>249.0</ele><time>2026-03-27T13:02:30.705Z</time></trkpt><trkpt lat="43.2765431" lon="11.3258099"><ele>248.7142857142857</ele><time>2026-03-27T13:02:31.705Z</time></trkpt><trkpt lat="43.2765831" lon="11.3257419"><ele>248.4285714285714</ele><time>2026-03-27T13:02:32.705Z</time></trkpt><trkpt lat="43.276624" lon="11.3256691"><ele>248.14285714285714</ele><time>2026-03-27T13:02:33.706Z</time></trkpt><trkpt lat="43.2766666" lon="11.3256048"><ele>247.85714285714283</ele><time>2026-03-27T13:02:34.705Z</time></trkpt><trkpt lat="43.2767046" lon="11.3255352"><ele>247.57142857142856</ele><time>2026-03-27T13:02:35.706Z</time></trkpt><trkpt lat="43.2767442" lon="11.3254662"><ele>247.28571428571428</ele><time>2026-03-27T13:02:36.705Z</time></trkpt><trkpt lat="43.2767829" lon="11.3253964"><ele>247.0</ele><time>2026-03-27T13:02:37.705Z</time></trkpt><trkpt lat="43.2768225" lon="11.3253194"><ele>246.39999999999998</ele><time>2026-03-27T13:02:38.705Z</time></trkpt><trkpt lat="43.2769141" lon="11.3252013"><ele>245.79999999999998</ele><time>2026-03-27T13:02:40.705Z</time></trkpt><trkpt lat="43.2769999" lon="11.3250765"><ele>245.2</ele><time>2026-03-27T13:02:42.705Z</time></trkpt><trkpt lat="43.2770409" lon="11.3250047"><ele>244.6</ele><time>2026-03-27T13:02:43.706Z</time></trkpt><trkpt lat="43.2770836" lon="11.3249403"><ele>244.0</ele><time>2026-03-27T13:02:44.706Z</time></trkpt><trkpt lat="43.2771668" lon="11.324823"><ele>244.39999999999998</ele><time>2026-03-27T13:02:46.706Z</time></trkpt><trkpt lat="43.2772376" lon="11.3247107"><ele>244.79999999999998</ele><time>2026-03-27T13:02:48.705Z</time></trkpt><trkpt lat="43.2773003" lon="11.3246244"><ele>245.20000000000002</ele><time>2026-03-27T13:02:50.705Z</time></trkpt><trkpt lat="43.2773702" lon="11.324533"><ele>245.60000000000002</ele><time>2026-03-27T13:02:52.705Z</time></trkpt><trkpt lat="43.2774377" lon="11.3244506"><ele>246.0</ele><time>2026-03-27T13:02:54.705Z</time></trkpt><trkpt lat="43.2774993" lon="11.3243889"><ele>246.0</ele><time>2026-03-27T13:02:56.705Z</time></trkpt><trkpt lat="43.2775546" lon="11.3243405"><ele>246.0</ele><time>2026-03-27T13:02:58.705Z</time></trkpt><trkpt lat="43.2776231" lon="11.3243002"><ele>246.0</ele><time>2026-03-27T13:03:00.705Z</time></trkpt><trkpt lat="43.2777024" lon="11.3242601"><ele>246.0</ele><time>2026-03-27T13:03:02.705Z</time></trkpt><trkpt lat="43.2777826" lon="11.3242206"><ele>246.0</ele><time>2026-03-27T13:03:04.705Z</time></trkpt><trkpt lat="43.277862" lon="11.3241815"><ele>246.0</ele><time>2026-03-27T13:03:06.705Z</time></trkpt><trkpt lat="43.2779399" lon="11.3241399"><ele>246.0</ele><time>2026-03-27T13:03:08.705Z</time></trkpt><trkpt lat="43.2780191" lon="11.324097"><ele>246.0</ele><time>2026-03-27T13:03:10.705Z</time></trkpt><trkpt lat="43.2780959" lon="11.3240525"><ele>246.0</ele><time>2026-03-27T13:03:12.705Z</time></trkpt><trkpt lat="43.2781706" lon="11.3240152"><ele>246.0</ele><time>2026-03-27T13:03:14.705Z</time></trkpt><trkpt lat="43.2782507" lon="11.3239737"><ele>246.0</ele><time>2026-03-27T13:03:16.705Z</time></trkpt><trkpt lat="43.2783258" lon="11.3239248"><ele>246.0</ele><time>2026-03-27T13:03:18.705Z</time></trkpt><trkpt lat="43.2784023" lon="11.3238719"><ele>245.66666666666666</ele><time>2026-03-27T13:03:20.705Z</time></trkpt><trkpt lat="43.2784724" lon="11.3238103"><ele>245.33333333333331</ele><time>2026-03-27T13:03:22.706Z</time></trkpt><trkpt lat="43.2785385" lon="11.3237454"><ele>245.0</ele><time>2026-03-27T13:03:24.705Z</time></trkpt><trkpt lat="43.2786042" lon="11.3236853"><ele>244.66666666666666</ele><time>2026-03-27T13:03:26.705Z</time></trkpt><trkpt lat="43.2786699" lon="11.3236214"><ele>244.33333333333331</ele><time>2026-03-27T13:03:28.706Z</time></trkpt><trkpt lat="43.2787428" lon="11.3235572"><ele>244.0</ele><time>2026-03-27T13:03:30.705Z</time></trkpt><trkpt lat="43.2788174" lon="11.323483"><ele>244.0</ele><time>2026-03-27T13:03:32.705Z</time></trkpt><trkpt lat="43.2789022" lon="11.3234365"><ele>243.99999999999997</ele><time>2026-03-27T13:03:34.706Z</time></trkpt><trkpt lat="43.278993" lon="11.3234074"><ele>243.99999999999997</ele><time>2026-03-27T13:03:36.705Z</time></trkpt><trkpt lat="43.2790784" lon="11.3233735"><ele>244.0</ele><time>2026-03-27T13:03:38.705Z</time></trkpt><trkpt lat="43.2791684" lon="11.3233458"><ele>244.0</ele><time>2026-03-27T13:03:40.705Z</time></trkpt><trkpt lat="43.2792587" lon="11.3233153"><ele>243.79999999999998</ele><time>2026-03-27T13:03:42.705Z</time></trkpt><trkpt lat="43.2793541" lon="11.3232853"><ele>243.59999999999997</ele><time>2026-03-27T13:03:44.706Z</time></trkpt><trkpt lat="43.2794539" lon="11.3232464"><ele>243.4</ele><time>2026-03-27T13:03:46.705Z</time></trkpt><trkpt lat="43.2795401" lon="11.3231936"><ele>243.2</ele><time>2026-03-27T13:03:48.706Z</time></trkpt><trkpt lat="43.2796176" lon="11.3231062"><ele>243.0</ele><time>2026-03-27T13:03:50.706Z</time></trkpt><trkpt lat="43.2796929" lon="11.3230263"><ele>244.0</ele><time>2026-03-27T13:03:52.705Z</time></trkpt><trkpt lat="43.2797675" lon="11.3229389"><ele>245.0</ele><time>2026-03-27T13:03:54.705Z</time></trkpt><trkpt lat="43.2798457" lon="11.322841"><ele>246.0</ele><time>2026-03-27T13:03:56.706Z</time></trkpt><trkpt lat="43.279923" lon="11.3227475"><ele>247.0</ele><time>2026-03-27T13:03:58.705Z</time></trkpt><trkpt lat="43.2799964" lon="11.3226482"><ele>248.0</ele><time>2026-03-27T13:04:00.706Z</time></trkpt><trkpt lat="43.280066" lon="11.3225368"><ele>248.0</ele><time>2026-03-27T13:04:02.706Z</time></trkpt><trkpt lat="43.2801293" lon="11.3224282"><ele>248.0</ele><time>2026-03-27T13:04:04.706Z</time></trkpt><trkpt lat="43.2801798" lon="11.3223234"><ele>248.0</ele><time>2026-03-27T13:04:06.705Z</time></trkpt><trkpt lat="43.2802265" lon="11.3222189"><ele>248.0</ele><time>2026-03-27T13:04:08.706Z</time></trkpt><trkpt lat="43.2802736" lon="11.322091"><ele>248.0</ele><time>2026-03-27T13:04:10.705Z</time></trkpt><trkpt lat="43.2803146" lon="11.321953"><ele>248.0</ele><time>2026-03-27T13:04:12.705Z</time></trkpt><trkpt lat="43.2803609" lon="11.3218171"><ele>248.0</ele><time>2026-03-27T13:04:14.705Z</time></trkpt><trkpt lat="43.2804091" lon="11.321681"><ele>248.0</ele><time>2026-03-27T13:04:16.706Z</time></trkpt><trkpt lat="43.2804713" lon="11.3215566"><ele>248.0</ele><time>2026-03-27T13:04:18.705Z</time></trkpt><trkpt lat="43.2805447" lon="11.3214281"><ele>248.0</ele><time>2026-03-27T13:04:20.705Z</time></trkpt><trkpt lat="43.280623" lon="11.321332"><ele>248.0</ele><time>2026-03-27T13:04:22.705Z</time></trkpt><trkpt lat="43.2807006" lon="11.3212653"><ele>248.0</ele><time>2026-03-27T13:04:24.705Z</time></trkpt><trkpt lat="43.280785" lon="11.3211987"><ele>248.0</ele><time>2026-03-27T13:04:26.705Z</time></trkpt><trkpt lat="43.2808728" lon="11.3211393"><ele>248.0</ele><time>2026-03-27T13:04:28.705Z</time></trkpt><trkpt lat="43.2809621" lon="11.3210733"><ele>248.0</ele><time>2026-03-27T13:04:30.706Z</time></trkpt><trkpt lat="43.281056" lon="11.3210148"><ele>248.0</ele><time>2026-03-27T13:04:32.705Z</time></trkpt><trkpt lat="43.2811525" lon="11.3209397"><ele>248.0</ele><time>2026-03-27T13:04:34.705Z</time></trkpt><trkpt lat="43.2812492" lon="11.3208701"><ele>248.0</ele><time>2026-03-27T13:04:36.705Z</time></trkpt><trkpt lat="43.2813524" lon="11.3208211"><ele>248.0</ele><time>2026-03-27T13:04:38.705Z</time></trkpt><trkpt lat="43.2814461" lon="11.3207856"><ele>248.0</ele><time>2026-03-27T13:04:40.706Z</time></trkpt><trkpt lat="43.2815341" lon="11.3207535"><ele>248.60000000000002</ele><time>2026-03-27T13:04:42.705Z</time></trkpt><trkpt lat="43.2816265" lon="11.3207264"><ele>249.20000000000002</ele><time>2026-03-27T13:04:44.705Z</time></trkpt><trkpt lat="43.2817224" lon="11.3207056"><ele>249.8</ele><time>2026-03-27T13:04:46.706Z</time></trkpt><trkpt lat="43.2818188" lon="11.3206891"><ele>250.4</ele><time>2026-03-27T13:04:48.705Z</time></trkpt><trkpt lat="43.2819166" lon="11.3206694"><ele>251.0</ele><time>2026-03-27T13:04:50.706Z</time></trkpt><trkpt lat="43.2820124" lon="11.3206458"><ele>251.0</ele><time>2026-03-27T13:04:52.706Z</time></trkpt><trkpt lat="43.2821085" lon="11.3206025"><ele>251.00000000000003</ele><time>2026-03-27T13:04:54.705Z</time></trkpt><trkpt lat="43.2822047" lon="11.3205599"><ele>251.00000000000003</ele><time>2026-03-27T13:04:56.705Z</time></trkpt><trkpt lat="43.2823014" lon="11.3205152"><ele>251.0</ele><time>2026-03-27T13:04:58.706Z</time></trkpt><trkpt lat="43.2823953" lon="11.3204673"><ele>251.0</ele><time>2026-03-27T13:05:00.706Z</time></trkpt><trkpt lat="43.2824902" lon="11.3204236"><ele>251.20000000000002</ele><time>2026-03-27T13:05:02.705Z</time></trkpt><trkpt lat="43.2825802" lon="11.32038"><ele>251.40000000000003</ele><time>2026-03-27T13:05:04.706Z</time></trkpt><trkpt lat="43.2826744" lon="11.3203326"><ele>251.6</ele><time>2026-03-27T13:05:06.705Z</time></trkpt><trkpt lat="43.2827573" lon="11.3202528"><ele>251.8</ele><time>2026-03-27T13:05:08.706Z</time></trkpt><trkpt lat="43.2828395" lon="11.3201764"><ele>252.0</ele><time>2026-03-27T13:05:10.705Z</time></trkpt><trkpt lat="43.2829204" lon="11.3200877"><ele>252.0</ele><time>2026-03-27T13:05:12.706Z</time></trkpt><trkpt lat="43.2829946" lon="11.3199956"><ele>252.0</ele><time>2026-03-27T13:05:14.705Z</time></trkpt><trkpt lat="43.2830637" lon="11.3198936"><ele>252.0</ele><time>2026-03-27T13:05:16.706Z</time></trkpt><trkpt lat="43.2831278" lon="11.3197813"><ele>252.0</ele><time>2026-03-27T13:05:18.705Z</time></trkpt><trkpt lat="43.2831923" lon="11.3196644"><ele>252.0</ele><time>2026-03-27T13:05:20.705Z</time></trkpt><trkpt lat="43.2832558" lon="11.3195488"><ele>252.39999999999998</ele><time>2026-03-27T13:05:22.705Z</time></trkpt><trkpt lat="43.2833191" lon="11.3194187"><ele>252.79999999999998</ele><time>2026-03-27T13:05:24.705Z</time></trkpt><trkpt lat="43.283375" lon="11.3192824"><ele>253.2</ele><time>2026-03-27T13:05:26.706Z</time></trkpt><trkpt lat="43.283426" lon="11.3191505"><ele>253.6</ele><time>2026-03-27T13:05:28.705Z</time></trkpt><trkpt lat="43.2834781" lon="11.3190166"><ele>254.0</ele><time>2026-03-27T13:05:30.706Z</time></trkpt><trkpt lat="43.2835322" lon="11.3188724"><ele>252.75</ele><time>2026-03-27T13:05:32.705Z</time></trkpt><trkpt lat="43.2836075" lon="11.3187401"><ele>251.5</ele><time>2026-03-27T13:05:34.706Z</time></trkpt><trkpt lat="43.2836896" lon="11.3186279"><ele>250.25</ele><time>2026-03-27T13:05:36.706Z</time></trkpt><trkpt lat="43.2837865" lon="11.3185495"><ele>249.0</ele><time>2026-03-27T13:05:38.705Z</time></trkpt><trkpt lat="43.2838844" lon="11.3184886"><ele>249.79999999999998</ele><time>2026-03-27T13:05:40.706Z</time></trkpt><trkpt lat="43.283984" lon="11.3184431"><ele>250.59999999999997</ele><time>2026-03-27T13:05:42.705Z</time></trkpt><trkpt lat="43.2840933" lon="11.3184131"><ele>251.4</ele><time>2026-03-27T13:05:44.705Z</time></trkpt><trkpt lat="43.2842059" lon="11.3183919"><ele>252.2</ele><time>2026-03-27T13:05:46.705Z</time></trkpt><trkpt lat="43.2843147" lon="11.3184005"><ele>253.0</ele><time>2026-03-27T13:05:48.705Z</time></trkpt><trkpt lat="43.2844149" lon="11.3184163"><ele>253.0</ele><time>2026-03-27T13:05:50.705Z</time></trkpt><trkpt lat="43.2845173" lon="11.3184364"><ele>253.0</ele><time>2026-03-27T13:05:52.706Z</time></trkpt><trkpt lat="43.2846256" lon="11.3184721"><ele>253.0</ele><time>2026-03-27T13:05:54.705Z</time></trkpt><trkpt lat="43.2847302" lon="11.3185129"><ele>253.0</ele><time>2026-03-27T13:05:56.705Z</time></trkpt><trkpt lat="43.2848257" lon="11.3185538"><ele>253.0</ele><time>2026-03-27T13:05:58.706Z</time></trkpt><trkpt lat="43.2849235" lon="11.3185828"><ele>253.60000000000002</ele><time>2026-03-27T13:06:00.705Z</time></trkpt><trkpt lat="43.2850237" lon="11.3185873"><ele>254.20000000000002</ele><time>2026-03-27T13:06:02.705Z</time></trkpt><trkpt lat="43.2851278" lon="11.3185347"><ele>254.8</ele><time>2026-03-27T13:06:04.706Z</time></trkpt><trkpt lat="43.285231" lon="11.3185059"><ele>255.4</ele><time>2026-03-27T13:06:06.705Z</time></trkpt><trkpt lat="43.2853207" lon="11.3184755"><ele>256.0</ele><time>2026-03-27T13:06:08.706Z</time></trkpt><trkpt lat="43.2853984" lon="11.3184279"><ele>255.99999999999997</ele><time>2026-03-27T13:06:10.705Z</time></trkpt><trkpt lat="43.2854759" lon="11.3183772"><ele>256.0</ele><time>2026-03-27T13:06:12.705Z</time></trkpt><trkpt lat="43.2855521" lon="11.3183241"><ele>256.0</ele><time>2026-03-27T13:06:14.705Z</time></trkpt><trkpt lat="43.285628" lon="11.3182564"><ele>256.0</ele><time>2026-03-27T13:06:16.705Z</time></trkpt><trkpt lat="43.2857016" lon="11.3181877"><ele>255.99999999999997</ele><time>2026-03-27T13:06:18.705Z</time></trkpt><trkpt lat="43.2857635" lon="11.3181257"><ele>256.0</ele><time>2026-03-27T13:06:20.705Z</time></trkpt><trkpt lat="43.2858305" lon="11.3180551"><ele>255.83333333333331</ele><time>2026-03-27T13:06:22.705Z</time></trkpt><trkpt lat="43.2858857" lon="11.3179726"><ele>255.66666666666666</ele><time>2026-03-27T13:06:24.705Z</time></trkpt><trkpt lat="43.2859036" lon="11.3178781"><ele>255.5</ele><time>2026-03-27T13:06:26.705Z</time></trkpt><trkpt lat="43.2858466" lon="11.3177964"><ele>255.33333333333331</ele><time>2026-03-27T13:06:28.705Z</time></trkpt><trkpt lat="43.2857755" lon="11.3177308"><ele>255.16666666666666</ele><time>2026-03-27T13:06:30.705Z</time></trkpt><trkpt lat="43.2857196" lon="11.3176565"><ele>255.0</ele><time>2026-03-27T13:06:32.705Z</time></trkpt><trkpt lat="43.2856786" lon="11.317586"><ele>255.0</ele><time>2026-03-27T13:06:34.705Z</time></trkpt><trkpt lat="43.2856381" lon="11.3174967"><ele>255.00000000000003</ele><time>2026-03-27T13:06:37.705Z</time></trkpt><trkpt lat="43.2855929" lon="11.3173992"><ele>255.0</ele><time>2026-03-27T13:06:40.705Z</time></trkpt><trkpt lat="43.2855407" lon="11.3173296"><ele>255.0</ele><time>2026-03-27T13:06:43.705Z</time></trkpt><trkpt lat="43.2854821" lon="11.3172905"><ele>255.00000000000003</ele><time>2026-03-27T13:06:46.705Z</time></trkpt><trkpt lat="43.2854165" lon="11.3172648"><ele>255.0</ele><time>2026-03-27T13:06:49.705Z</time></trkpt><trkpt lat="43.2853437" lon="11.3172159"><ele>255.0</ele><time>2026-03-27T13:06:53.705Z</time></trkpt><trkpt lat="43.285263" lon="11.3171641"><ele>255.16666666666666</ele><time>2026-03-27T13:06:56.705Z</time></trkpt><trkpt lat="43.2851847" lon="11.3171211"><ele>255.33333333333331</ele><time>2026-03-27T13:06:59.706Z</time></trkpt><trkpt lat="43.2851227" lon="11.3170785"><ele>255.5</ele><time>2026-03-27T13:07:01.706Z</time></trkpt><trkpt lat="43.2850452" lon="11.3170149"><ele>255.66666666666666</ele><time>2026-03-27T13:07:03.706Z</time></trkpt><trkpt lat="43.2849551" lon="11.3169564"><ele>255.83333333333331</ele><time>2026-03-27T13:07:05.705Z</time></trkpt><trkpt lat="43.2848723" lon="11.3169115"><ele>256.0</ele><time>2026-03-27T13:07:07.705Z</time></trkpt><trkpt lat="43.2848028" lon="11.3168622"><ele>256.8333333333333</ele><time>2026-03-27T13:07:09.706Z</time></trkpt><trkpt lat="43.2847312" lon="11.3168084"><ele>257.66666666666663</ele><time>2026-03-27T13:07:11.705Z</time></trkpt><trkpt lat="43.2846558" lon="11.3167356"><ele>258.5</ele><time>2026-03-27T13:07:13.705Z</time></trkpt><trkpt lat="43.2845804" lon="11.316657"><ele>259.3333333333333</ele><time>2026-03-27T13:07:15.705Z</time></trkpt><trkpt lat="43.2845101" lon="11.316589"><ele>260.1666666666667</ele><time>2026-03-27T13:07:17.705Z</time></trkpt><trkpt lat="43.2844387" lon="11.316525"><ele>261.0</ele><time>2026-03-27T13:07:19.705Z</time></trkpt><trkpt lat="43.2843643" lon="11.3164745"><ele>261.0</ele><time>2026-03-27T13:07:21.705Z</time></trkpt><trkpt lat="43.2842926" lon="11.3164317"><ele>261.0</ele><time>2026-03-27T13:07:23.705Z</time></trkpt><trkpt lat="43.284215" lon="11.3164014"><ele>261.0</ele><time>2026-03-27T13:07:25.706Z</time></trkpt><trkpt lat="43.2841415" lon="11.3163611"><ele>261.0</ele><time>2026-03-27T13:07:27.705Z</time></trkpt><trkpt lat="43.2840596" lon="11.3163266"><ele>261.0</ele><time>2026-03-27T13:07:29.705Z</time></trkpt><trkpt lat="43.2839811" lon="11.3162654"><ele>261.0</ele><time>2026-03-27T13:07:31.705Z</time></trkpt><trkpt lat="43.2838982" lon="11.3162062"><ele>260.1666666666667</ele><time>2026-03-27T13:07:33.705Z</time></trkpt><trkpt lat="43.2838101" lon="11.3161497"><ele>259.3333333333333</ele><time>2026-03-27T13:07:35.705Z</time></trkpt><trkpt lat="43.2836981" lon="11.3160961"><ele>258.5</ele><time>2026-03-27T13:07:37.705Z</time></trkpt><trkpt lat="43.2836318" lon="11.3160552"><ele>257.66666666666663</ele><time>2026-03-27T13:07:38.706Z</time></trkpt><trkpt lat="43.2835619" lon="11.3160167"><ele>256.8333333333333</ele><time>2026-03-27T13:07:39.706Z</time></trkpt><trkpt lat="43.2834873" lon="11.3159698"><ele>256.0</ele><time>2026-03-27T13:07:40.706Z</time></trkpt><trkpt lat="43.2834086" lon="11.3159196"><ele>256.0</ele><time>2026-03-27T13:07:41.705Z</time></trkpt><trkpt lat="43.2833188" lon="11.3158661"><ele>256.0</ele><time>2026-03-27T13:07:42.705Z</time></trkpt><trkpt lat="43.2832347" lon="11.3158167"><ele>256.0</ele><time>2026-03-27T13:07:43.705Z</time></trkpt><trkpt lat="43.2831473" lon="11.3157678"><ele>256.0</ele><time>2026-03-27T13:07:44.706Z</time></trkpt><trkpt lat="43.2830578" lon="11.3157163"><ele>256.0</ele><time>2026-03-27T13:07:45.705Z</time></trkpt><trkpt lat="43.282967" lon="11.3156551"><ele>254.4</ele><time>2026-03-27T13:07:46.705Z</time></trkpt><trkpt lat="43.2828711" lon="11.3155893"><ele>252.8</ele><time>2026-03-27T13:07:47.705Z</time></trkpt><trkpt lat="43.2827719" lon="11.3155246"><ele>251.20000000000002</ele><time>2026-03-27T13:07:48.706Z</time></trkpt><trkpt lat="43.2826701" lon="11.3154674"><ele>249.60000000000002</ele><time>2026-03-27T13:07:49.706Z</time></trkpt><trkpt lat="43.2825638" lon="11.3154069"><ele>248.0</ele><time>2026-03-27T13:07:50.705Z</time></trkpt><trkpt lat="43.2824587" lon="11.3153458"><ele>248.0</ele><time>2026-03-27T13:07:51.705Z</time></trkpt><trkpt lat="43.2823542" lon="11.3152859"><ele>248.0</ele><time>2026-03-27T13:07:52.705Z</time></trkpt><trkpt lat="43.2822461" lon="11.3152276"><ele>248.0</ele><time>2026-03-27T13:07:53.705Z</time></trkpt><trkpt lat="43.2821425" lon="11.3151775"><ele>248.0</ele><time>2026-03-27T13:07:54.705Z</time></trkpt><trkpt lat="43.2820439" lon="11.3151132"><ele>248.0</ele><time>2026-03-27T13:07:55.705Z</time></trkpt><trkpt lat="43.2819579" lon="11.3150206"><ele>248.50000000000003</ele><time>2026-03-27T13:07:56.705Z</time></trkpt><trkpt lat="43.2818896" lon="11.3149233"><ele>249.0</ele><time>2026-03-27T13:07:57.705Z</time></trkpt><trkpt lat="43.281838" lon="11.3148142"><ele>249.5</ele><time>2026-03-27T13:07:58.705Z</time></trkpt><trkpt lat="43.2817908" lon="11.3147081"><ele>250.0</ele><time>2026-03-27T13:07:59.706Z</time></trkpt><trkpt lat="43.2817418" lon="11.3146158"><ele>250.50000000000003</ele><time>2026-03-27T13:08:00.705Z</time></trkpt><trkpt lat="43.2816854" lon="11.3145365"><ele>251.0</ele><time>2026-03-27T13:08:01.706Z</time></trkpt><trkpt lat="43.281627" lon="11.3144706"><ele>251.00000000000003</ele><time>2026-03-27T13:08:02.705Z</time></trkpt><trkpt lat="43.2815636" lon="11.3144198"><ele>251.0</ele><time>2026-03-27T13:08:03.706Z</time></trkpt><trkpt lat="43.281495" lon="11.3143822"><ele>251.0</ele><time>2026-03-27T13:08:04.705Z</time></trkpt><trkpt lat="43.281425" lon="11.3143536"><ele>251.0</ele><time>2026-03-27T13:08:05.705Z</time></trkpt><trkpt lat="43.2813513" lon="11.3143525"><ele>251.00000000000003</ele><time>2026-03-27T13:08:06.706Z</time></trkpt><trkpt lat="43.2812738" lon="11.314365"><ele>251.0</ele><time>2026-03-27T13:08:07.706Z</time></trkpt><trkpt lat="43.2811957" lon="11.3143851"><ele>250.66666666666669</ele><time>2026-03-27T13:08:08.705Z</time></trkpt><trkpt lat="43.2811184" lon="11.3144085"><ele>250.33333333333334</ele><time>2026-03-27T13:08:09.705Z</time></trkpt><trkpt lat="43.2810409" lon="11.314431"><ele>250.0</ele><time>2026-03-27T13:08:10.705Z</time></trkpt><trkpt lat="43.2809641" lon="11.3144149"><ele>249.66666666666669</ele><time>2026-03-27T13:08:11.705Z</time></trkpt><trkpt lat="43.2809082" lon="11.3143497"><ele>249.33333333333334</ele><time>2026-03-27T13:08:12.705Z</time></trkpt><trkpt lat="43.2808626" lon="11.3142625"><ele>249.0</ele><time>2026-03-27T13:08:13.705Z</time></trkpt><trkpt lat="43.2808326" lon="11.3141495"><ele>249.0</ele><time>2026-03-27T13:08:14.705Z</time></trkpt><trkpt lat="43.2808343" lon="11.3140222"><ele>248.99999999999997</ele><time>2026-03-27T13:08:15.705Z</time></trkpt><trkpt lat="43.2808519" lon="11.3138933"><ele>248.99999999999997</ele><time>2026-03-27T13:08:16.705Z</time></trkpt><trkpt lat="43.2808727" lon="11.3137655"><ele>249.0</ele><time>2026-03-27T13:08:17.705Z</time></trkpt><trkpt lat="43.280878" lon="11.3136373"><ele>249.0</ele><time>2026-03-27T13:08:18.706Z</time></trkpt><trkpt lat="43.2808426" lon="11.3135185"><ele>246.75</ele><time>2026-03-27T13:08:19.706Z</time></trkpt><trkpt lat="43.2807817" lon="11.3134069"><ele>244.5</ele><time>2026-03-27T13:08:20.705Z</time></trkpt><trkpt lat="43.2807018" lon="11.3133035"><ele>242.25</ele><time>2026-03-27T13:08:21.705Z</time></trkpt><trkpt lat="43.2806186" lon="11.3131875"><ele>240.0</ele><time>2026-03-27T13:08:22.706Z</time></trkpt><trkpt lat="43.2805372" lon="11.3130613"><ele>236.5</ele><time>2026-03-27T13:08:23.705Z</time></trkpt><trkpt lat="43.2804736" lon="11.312908"><ele>233.0</ele><time>2026-03-27T13:08:24.705Z</time></trkpt><trkpt lat="43.2804333" lon="11.3127336"><ele>229.5</ele><time>2026-03-27T13:08:25.705Z</time></trkpt><trkpt lat="43.2804045" lon="11.312548"><ele>226.0</ele><time>2026-03-27T13:08:26.706Z</time></trkpt><trkpt lat="43.2803849" lon="11.312357"><ele>225.0</ele><time>2026-03-27T13:08:27.706Z</time></trkpt><trkpt lat="43.2803724" lon="11.3121679"><ele>224.0</ele><time>2026-03-27T13:08:28.705Z</time></trkpt><trkpt lat="43.2803559" lon="11.3119836"><ele>223.0</ele><time>2026-03-27T13:08:29.705Z</time></trkpt><trkpt lat="43.2803411" lon="11.3117868"><ele>222.0</ele><time>2026-03-27T13:08:30.706Z</time></trkpt><trkpt lat="43.2803317" lon="11.3115976"><ele>222.0</ele><time>2026-03-27T13:08:31.705Z</time></trkpt><trkpt lat="43.2803293" lon="11.311419"><ele>222.0</ele><time>2026-03-27T13:08:32.705Z</time></trkpt><trkpt lat="43.2803342" lon="11.3112431"><ele>222.0</ele><time>2026-03-27T13:08:33.706Z</time></trkpt><trkpt lat="43.2803499" lon="11.3110694"><ele>222.0</ele><time>2026-03-27T13:08:34.705Z</time></trkpt><trkpt lat="43.2803724" lon="11.3108959"><ele>221.75</ele><time>2026-03-27T13:08:35.706Z</time></trkpt><trkpt lat="43.2803857" lon="11.3107327"><ele>221.5</ele><time>2026-03-27T13:08:36.705Z</time></trkpt><trkpt lat="43.2803948" lon="11.3105696"><ele>221.25</ele><time>2026-03-27T13:08:37.705Z</time></trkpt><trkpt lat="43.2804064" lon="11.310405"><ele>221.0</ele><time>2026-03-27T13:08:38.705Z</time></trkpt><trkpt lat="43.2804265" lon="11.3102429"><ele>221.0</ele><time>2026-03-27T13:08:39.706Z</time></trkpt><trkpt lat="43.2804427" lon="11.3100864"><ele>221.00000000000003</ele><time>2026-03-27T13:08:40.705Z</time></trkpt><trkpt lat="43.2804506" lon="11.3099416"><ele>221.00000000000003</ele><time>2026-03-27T13:08:41.705Z</time></trkpt><trkpt lat="43.2804545" lon="11.3097898"><ele>221.0</ele><time>2026-03-27T13:08:42.705Z</time></trkpt><trkpt lat="43.2804628" lon="11.3096415"><ele>221.0</ele><time>2026-03-27T13:08:43.705Z</time></trkpt><trkpt lat="43.2804631" lon="11.3094936"><ele>221.0</ele><time>2026-03-27T13:08:44.705Z</time></trkpt><trkpt lat="43.2804526" lon="11.3093652"><ele>221.00000000000003</ele><time>2026-03-27T13:08:45.705Z</time></trkpt><trkpt lat="43.2804425" lon="11.3092355"><ele>221.00000000000003</ele><time>2026-03-27T13:08:46.705Z</time></trkpt><trkpt lat="43.2804305" lon="11.3091128"><ele>221.0</ele><time>2026-03-27T13:08:47.705Z</time></trkpt><trkpt lat="43.2804153" lon="11.3089775"><ele>221.0</ele><time>2026-03-27T13:08:48.706Z</time></trkpt><trkpt lat="43.2804006" lon="11.3088553"><ele>221.00000000000003</ele><time>2026-03-27T13:08:49.705Z</time></trkpt><trkpt lat="43.280386" lon="11.308736"><ele>221.0</ele><time>2026-03-27T13:08:50.705Z</time></trkpt><trkpt lat="43.2803711" lon="11.3086201"><ele>221.0</ele><time>2026-03-27T13:08:51.705Z</time></trkpt><trkpt lat="43.2803627" lon="11.3085118"><ele>221.0</ele><time>2026-03-27T13:08:52.705Z</time></trkpt><trkpt lat="43.280359" lon="11.3084003"><ele>221.00000000000003</ele><time>2026-03-27T13:08:53.706Z</time></trkpt><trkpt lat="43.2803555" lon="11.3082984"><ele>221.0</ele><time>2026-03-27T13:08:54.706Z</time></trkpt><trkpt lat="43.2803576" lon="11.3081931"><ele>221.0</ele><time>2026-03-27T13:08:55.705Z</time></trkpt><trkpt lat="43.2803613" lon="11.3081005"><ele>221.00000000000003</ele><time>2026-03-27T13:08:56.705Z</time></trkpt><trkpt lat="43.2803717" lon="11.3080119"><ele>221.00000000000003</ele><time>2026-03-27T13:08:57.706Z</time></trkpt><trkpt lat="43.280403" lon="11.3078454"><ele>221.0</ele><time>2026-03-27T13:08:59.705Z</time></trkpt><trkpt lat="43.2804365" lon="11.3076963"><ele>221.0</ele><time>2026-03-27T13:09:01.705Z</time></trkpt><trkpt lat="43.2804624" lon="11.3075644"><ele>221.71428571428572</ele><time>2026-03-27T13:09:03.705Z</time></trkpt><trkpt lat="43.280483" lon="11.307459"><ele>222.42857142857144</ele><time>2026-03-27T13:09:05.705Z</time></trkpt><trkpt lat="43.2805025" lon="11.3073596"><ele>223.14285714285717</ele><time>2026-03-27T13:09:07.705Z</time></trkpt><trkpt lat="43.2805217" lon="11.3072736"><ele>223.85714285714286</ele><time>2026-03-27T13:09:09.706Z</time></trkpt><trkpt lat="43.2805486" lon="11.3071732"><ele>224.57142857142856</ele><time>2026-03-27T13:09:12.705Z</time></trkpt><trkpt lat="43.2805717" lon="11.3070826"><ele>225.2857142857143</ele><time>2026-03-27T13:09:15.705Z</time></trkpt><trkpt lat="43.2805998" lon="11.3069825"><ele>226.0</ele><time>2026-03-27T13:09:19.705Z</time></trkpt><trkpt lat="43.2806384" lon="11.3068857"><ele>227.66666666666666</ele><time>2026-03-27T13:09:23.705Z</time></trkpt><trkpt lat="43.2806797" lon="11.306797"><ele>229.33333333333331</ele><time>2026-03-27T13:09:27.705Z</time></trkpt><trkpt lat="43.2807222" lon="11.3067053"><ele>231.0</ele><time>2026-03-27T13:09:31.705Z</time></trkpt><trkpt lat="43.2807571" lon="11.3066179"><ele>232.66666666666669</ele><time>2026-03-27T13:09:35.706Z</time></trkpt><trkpt lat="43.2807882" lon="11.3065325"><ele>234.33333333333334</ele><time>2026-03-27T13:09:39.705Z</time></trkpt><trkpt lat="43.2808237" lon="11.3064489"><ele>236.0</ele><time>2026-03-27T13:09:43.706Z</time></trkpt><trkpt lat="43.2808589" lon="11.3063463"><ele>237.14285714285714</ele><time>2026-03-27T13:09:47.705Z</time></trkpt><trkpt lat="43.2808913" lon="11.3062629"><ele>238.28571428571428</ele><time>2026-03-27T13:09:50.705Z</time></trkpt><trkpt lat="43.2809191" lon="11.3061847"><ele>239.42857142857142</ele><time>2026-03-27T13:09:53.705Z</time></trkpt><trkpt lat="43.2809502" lon="11.3061012"><ele>240.57142857142856</ele><time>2026-03-27T13:09:56.705Z</time></trkpt><trkpt lat="43.2809761" lon="11.306009"><ele>241.71428571428572</ele><time>2026-03-27T13:09:59.706Z</time></trkpt><trkpt lat="43.2810004" lon="11.305921"><ele>242.85714285714283</ele><time>2026-03-27T13:10:02.706Z</time></trkpt><trkpt lat="43.2810254" lon="11.3058301"><ele>243.99999999999997</ele><time>2026-03-27T13:10:05.705Z</time></trkpt><trkpt lat="43.2810422" lon="11.3057388"><ele>243.99999999999997</ele><time>2026-03-27T13:10:08.706Z</time></trkpt><trkpt lat="43.281058" lon="11.3056517"><ele>244.0</ele><time>2026-03-27T13:10:11.706Z</time></trkpt><trkpt lat="43.2810993" lon="11.3055669"><ele>244.0</ele><time>2026-03-27T13:10:14.705Z</time></trkpt><trkpt lat="43.28118" lon="11.3055288"><ele>244.0</ele><time>2026-03-27T13:10:17.705Z</time></trkpt><trkpt lat="43.2812527" lon="11.3054779"><ele>243.99999999999997</ele><time>2026-03-27T13:10:20.705Z</time></trkpt><trkpt lat="43.281336" lon="11.3054331"><ele>244.0</ele><time>2026-03-27T13:10:23.705Z</time></trkpt><trkpt lat="43.2814117" lon="11.3053664"><ele>244.83333333333331</ele><time>2026-03-27T13:10:26.705Z</time></trkpt><trkpt lat="43.2814911" lon="11.3052997"><ele>245.66666666666666</ele><time>2026-03-27T13:10:29.705Z</time></trkpt><trkpt lat="43.2815386" lon="11.3052407"><ele>246.5</ele><time>2026-03-27T13:10:31.705Z</time></trkpt><trkpt lat="43.2815815" lon="11.3051751"><ele>247.33333333333331</ele><time>2026-03-27T13:10:33.705Z</time></trkpt><trkpt lat="43.2816148" lon="11.3050985"><ele>248.16666666666666</ele><time>2026-03-27T13:10:35.705Z</time></trkpt><trkpt lat="43.2816641" lon="11.3049955"><ele>249.0</ele><time>2026-03-27T13:10:38.705Z</time></trkpt><trkpt lat="43.2817143" lon="11.30489"><ele>249.0</ele><time>2026-03-27T13:10:41.705Z</time></trkpt><trkpt lat="43.281765" lon="11.3047887"><ele>249.0</ele><time>2026-03-27T13:10:44.706Z</time></trkpt><trkpt lat="43.2818162" lon="11.3046877"><ele>249.0</ele><time>2026-03-27T13:10:47.706Z</time></trkpt><trkpt lat="43.2818649" lon="11.3045821"><ele>249.0</ele><time>2026-03-27T13:10:50.705Z</time></trkpt><trkpt lat="43.2819189" lon="11.3044874"><ele>249.0</ele><time>2026-03-27T13:10:53.705Z</time></trkpt><trkpt lat="43.2819694" lon="11.304386"><ele>249.0</ele><time>2026-03-27T13:10:56.705Z</time></trkpt><trkpt lat="43.2820031" lon="11.3043127"><ele>249.28571428571428</ele><time>2026-03-27T13:10:58.706Z</time></trkpt><trkpt lat="43.2820536" lon="11.3042069"><ele>249.57142857142856</ele><time>2026-03-27T13:11:01.706Z</time></trkpt><trkpt lat="43.2821066" lon="11.3041059"><ele>249.85714285714283</ele><time>2026-03-27T13:11:04.706Z</time></trkpt><trkpt lat="43.2821385" lon="11.304026"><ele>250.1428571428571</ele><time>2026-03-27T13:11:06.705Z</time></trkpt><trkpt lat="43.2821701" lon="11.3039496"><ele>250.42857142857142</ele><time>2026-03-27T13:11:08.705Z</time></trkpt><trkpt lat="43.2821974" lon="11.3038714"><ele>250.71428571428567</ele><time>2026-03-27T13:11:10.705Z</time></trkpt><trkpt lat="43.2822286" lon="11.3037864"><ele>250.99999999999997</ele><time>2026-03-27T13:11:12.705Z</time></trkpt><trkpt lat="43.2822687" lon="11.3037067"><ele>252.33333333333334</ele><time>2026-03-27T13:11:14.705Z</time></trkpt><trkpt lat="43.2823087" lon="11.3036318"><ele>253.66666666666669</ele><time>2026-03-27T13:11:16.705Z</time></trkpt><trkpt lat="43.2823682" lon="11.3035484"><ele>255.0</ele><time>2026-03-27T13:11:19.705Z</time></trkpt><trkpt lat="43.2824102" lon="11.3034612"><ele>256.3333333333333</ele><time>2026-03-27T13:11:22.705Z</time></trkpt><trkpt lat="43.2824289" lon="11.3033375"><ele>257.66666666666663</ele><time>2026-03-27T13:11:25.706Z</time></trkpt><trkpt lat="43.2824112" lon="11.3032389"><ele>259.0</ele><time>2026-03-27T13:11:27.705Z</time></trkpt><trkpt lat="43.2823753" lon="11.3031298"><ele>259.59999999999997</ele><time>2026-03-27T13:11:29.705Z</time></trkpt><trkpt lat="43.2823278" lon="11.3030313"><ele>260.2</ele><time>2026-03-27T13:11:31.705Z</time></trkpt><trkpt lat="43.2822918" lon="11.3029194"><ele>260.79999999999995</ele><time>2026-03-27T13:11:33.705Z</time></trkpt><trkpt lat="43.2822637" lon="11.3027959"><ele>261.4</ele><time>2026-03-27T13:11:35.705Z</time></trkpt><trkpt lat="43.2822431" lon="11.3026601"><ele>262.0</ele><time>2026-03-27T13:11:37.705Z</time></trkpt><trkpt lat="43.2822224" lon="11.3025224"><ele>259.6</ele><time>2026-03-27T13:11:39.705Z</time></trkpt><trkpt lat="43.2822013" lon="11.3023892"><ele>257.2</ele><time>2026-03-27T13:11:41.705Z</time></trkpt><trkpt lat="43.2821878" lon="11.3022563"><ele>254.8</ele><time>2026-03-27T13:11:43.706Z</time></trkpt><trkpt lat="43.2821739" lon="11.3021232"><ele>252.4</ele><time>2026-03-27T13:11:45.705Z</time></trkpt><trkpt lat="43.2821601" lon="11.3019929"><ele>250.0</ele><time>2026-03-27T13:11:47.705Z</time></trkpt><trkpt lat="43.2821482" lon="11.3018702"><ele>249.6</ele><time>2026-03-27T13:11:49.705Z</time></trkpt><trkpt lat="43.2821338" lon="11.3017501"><ele>249.2</ele><time>2026-03-27T13:11:51.706Z</time></trkpt><trkpt lat="43.2821208" lon="11.3016187"><ele>248.8</ele><time>2026-03-27T13:11:53.705Z</time></trkpt><trkpt lat="43.2821051" lon="11.3014952"><ele>248.4</ele><time>2026-03-27T13:11:55.706Z</time></trkpt><trkpt lat="43.2821008" lon="11.3013577"><ele>248.0</ele><time>2026-03-27T13:11:57.706Z</time></trkpt><trkpt lat="43.2820947" lon="11.3012267"><ele>247.8</ele><time>2026-03-27T13:11:59.705Z</time></trkpt><trkpt lat="43.2820838" lon="11.3010972"><ele>247.60000000000002</ele><time>2026-03-27T13:12:01.706Z</time></trkpt><trkpt lat="43.2820721" lon="11.3009756"><ele>247.39999999999998</ele><time>2026-03-27T13:12:03.705Z</time></trkpt><trkpt lat="43.2820552" lon="11.300843"><ele>247.2</ele><time>2026-03-27T13:12:05.705Z</time></trkpt><trkpt lat="43.2820352" lon="11.3007204"><ele>247.0</ele><time>2026-03-27T13:12:07.705Z</time></trkpt><trkpt lat="43.282015" lon="11.3005968"><ele>247.39999999999998</ele><time>2026-03-27T13:12:09.705Z</time></trkpt><trkpt lat="43.2819987" lon="11.3004685"><ele>247.79999999999998</ele><time>2026-03-27T13:12:11.705Z</time></trkpt><trkpt lat="43.2819969" lon="11.30032"><ele>248.2</ele><time>2026-03-27T13:12:13.705Z</time></trkpt><trkpt lat="43.281982" lon="11.3001777"><ele>248.6</ele><time>2026-03-27T13:12:15.705Z</time></trkpt><trkpt lat="43.2819584" lon="11.3000286"><ele>249.0</ele><time>2026-03-27T13:12:17.705Z</time></trkpt><trkpt lat="43.2819319" lon="11.2998904"><ele>249.0</ele><time>2026-03-27T13:12:19.705Z</time></trkpt><trkpt lat="43.2818803" lon="11.2997435"><ele>248.99999999999997</ele><time>2026-03-27T13:12:21.705Z</time></trkpt><trkpt lat="43.2818066" lon="11.2996201"><ele>248.99999999999997</ele><time>2026-03-27T13:12:23.705Z</time></trkpt><trkpt lat="43.281718" lon="11.2994973"><ele>249.0</ele><time>2026-03-27T13:12:25.705Z</time></trkpt><trkpt lat="43.2816686" lon="11.2994358"><ele>249.0</ele><time>2026-03-27T13:12:26.705Z</time></trkpt><trkpt lat="43.2816188" lon="11.2993611"><ele>249.0</ele><time>2026-03-27T13:12:27.705Z</time></trkpt><trkpt lat="43.2815744" lon="11.2992861"><ele>249.0</ele><time>2026-03-27T13:12:28.706Z</time></trkpt><trkpt lat="43.2815328" lon="11.2991955"><ele>249.0</ele><time>2026-03-27T13:12:29.706Z</time></trkpt><trkpt lat="43.2814952" lon="11.2990927"><ele>249.0</ele><time>2026-03-27T13:12:30.706Z</time></trkpt><trkpt lat="43.281452" lon="11.2989862"><ele>249.0</ele><time>2026-03-27T13:12:31.705Z</time></trkpt><trkpt lat="43.2814008" lon="11.2988837"><ele>249.0</ele><time>2026-03-27T13:12:32.705Z</time></trkpt><trkpt lat="43.2813438" lon="11.2987909"><ele>247.6</ele><time>2026-03-27T13:12:33.705Z</time></trkpt><trkpt lat="43.2812782" lon="11.2987041"><ele>246.2</ele><time>2026-03-27T13:12:34.705Z</time></trkpt><trkpt lat="43.2812015" lon="11.2986273"><ele>244.79999999999998</ele><time>2026-03-27T13:12:35.705Z</time></trkpt><trkpt lat="43.2811137" lon="11.2985651"><ele>243.39999999999998</ele><time>2026-03-27T13:12:36.706Z</time></trkpt><trkpt lat="43.2810247" lon="11.2985089"><ele>242.0</ele><time>2026-03-27T13:12:37.706Z</time></trkpt><trkpt lat="43.2809318" lon="11.2984554"><ele>242.0</ele><time>2026-03-27T13:12:38.705Z</time></trkpt><trkpt lat="43.2808361" lon="11.2983989"><ele>242.0</ele><time>2026-03-27T13:12:39.706Z</time></trkpt><trkpt lat="43.28074" lon="11.29834"><ele>242.0</ele><time>2026-03-27T13:12:40.705Z</time></trkpt><trkpt lat="43.2806435" lon="11.2982876"><ele>242.0</ele><time>2026-03-27T13:12:41.705Z</time></trkpt><trkpt lat="43.2805428" lon="11.2982285"><ele>242.0</ele><time>2026-03-27T13:12:42.705Z</time></trkpt><trkpt lat="43.2804425" lon="11.2981691"><ele>241.75</ele><time>2026-03-27T13:12:43.706Z</time></trkpt><trkpt lat="43.2803421" lon="11.2981122"><ele>241.5</ele><time>2026-03-27T13:12:44.705Z</time></trkpt><trkpt lat="43.2802346" lon="11.2980528"><ele>241.25</ele><time>2026-03-27T13:12:45.705Z</time></trkpt><trkpt lat="43.2801279" lon="11.2979909"><ele>241.0</ele><time>2026-03-27T13:12:46.705Z</time></trkpt><trkpt lat="43.2800247" lon="11.2979277"><ele>241.0</ele><time>2026-03-27T13:12:47.705Z</time></trkpt><trkpt lat="43.2799212" lon="11.2978706"><ele>241.0</ele><time>2026-03-27T13:12:48.705Z</time></trkpt><trkpt lat="43.279822" lon="11.2978048"><ele>241.0</ele><time>2026-03-27T13:12:49.705Z</time></trkpt><trkpt lat="43.2797288" lon="11.297718"><ele>241.0</ele><time>2026-03-27T13:12:50.706Z</time></trkpt><trkpt lat="43.2796434" lon="11.2975981"><ele>239.25</ele><time>2026-03-27T13:12:51.706Z</time></trkpt><trkpt lat="43.2795553" lon="11.2974925"><ele>237.5</ele><time>2026-03-27T13:12:52.705Z</time></trkpt><trkpt lat="43.2794694" lon="11.2973808"><ele>235.75</ele><time>2026-03-27T13:12:53.705Z</time></trkpt><trkpt lat="43.2793929" lon="11.297258"><ele>234.0</ele><time>2026-03-27T13:12:54.705Z</time></trkpt><trkpt lat="43.2793275" lon="11.2971374"><ele>233.6</ele><time>2026-03-27T13:12:55.705Z</time></trkpt><trkpt lat="43.2792682" lon="11.2970177"><ele>233.2</ele><time>2026-03-27T13:12:56.705Z</time></trkpt><trkpt lat="43.2792074" lon="11.2969029"><ele>232.79999999999998</ele><time>2026-03-27T13:12:57.705Z</time></trkpt><trkpt lat="43.2791561" lon="11.2967896"><ele>232.39999999999998</ele><time>2026-03-27T13:12:58.705Z</time></trkpt><trkpt lat="43.2791068" lon="11.296688"><ele>232.0</ele><time>2026-03-27T13:12:59.706Z</time></trkpt><trkpt lat="43.2790599" lon="11.29659"><ele>231.99999999999997</ele><time>2026-03-27T13:13:00.705Z</time></trkpt><trkpt lat="43.2790091" lon="11.2964916"><ele>232.0</ele><time>2026-03-27T13:13:01.705Z</time></trkpt><trkpt lat="43.2789599" lon="11.2964014"><ele>232.0</ele><time>2026-03-27T13:13:02.705Z</time></trkpt><trkpt lat="43.2789175" lon="11.2963144"><ele>232.0</ele><time>2026-03-27T13:13:03.706Z</time></trkpt><trkpt lat="43.2788724" lon="11.2962315"><ele>231.99999999999997</ele><time>2026-03-27T13:13:04.705Z</time></trkpt><trkpt lat="43.2788271" lon="11.29616"><ele>232.0</ele><time>2026-03-27T13:13:05.705Z</time></trkpt><trkpt lat="43.2787812" lon="11.2960931"><ele>232.83333333333331</ele><time>2026-03-27T13:13:06.705Z</time></trkpt><trkpt lat="43.2787372" lon="11.2960304"><ele>233.66666666666666</ele><time>2026-03-27T13:13:07.705Z</time></trkpt><trkpt lat="43.2786899" lon="11.2959705"><ele>234.5</ele><time>2026-03-27T13:13:08.706Z</time></trkpt><trkpt lat="43.27864" lon="11.295913"><ele>235.33333333333331</ele><time>2026-03-27T13:13:09.705Z</time></trkpt><trkpt lat="43.27855" lon="11.2958041"><ele>236.16666666666666</ele><time>2026-03-27T13:13:11.706Z</time></trkpt><trkpt lat="43.2784517" lon="11.2957107"><ele>237.0</ele><time>2026-03-27T13:13:13.706Z</time></trkpt><trkpt lat="43.278351" lon="11.2956238"><ele>237.2</ele><time>2026-03-27T13:13:15.705Z</time></trkpt><trkpt lat="43.2782578" lon="11.2955376"><ele>237.39999999999998</ele><time>2026-03-27T13:13:17.706Z</time></trkpt><trkpt lat="43.2781593" lon="11.2954667"><ele>237.60000000000002</ele><time>2026-03-27T13:13:19.705Z</time></trkpt><trkpt lat="43.278062" lon="11.2953956"><ele>237.8</ele><time>2026-03-27T13:13:21.705Z</time></trkpt><trkpt lat="43.2779653" lon="11.295338"><ele>238.0</ele><time>2026-03-27T13:13:23.705Z</time></trkpt><trkpt lat="43.2778698" lon="11.2952768"><ele>239.2</ele><time>2026-03-27T13:13:25.706Z</time></trkpt><trkpt lat="43.277778" lon="11.2952261"><ele>240.4</ele><time>2026-03-27T13:13:27.705Z</time></trkpt><trkpt lat="43.277694" lon="11.2951898"><ele>241.59999999999997</ele><time>2026-03-27T13:13:29.706Z</time></trkpt><trkpt lat="43.2776058" lon="11.2951431"><ele>242.79999999999998</ele><time>2026-03-27T13:13:31.705Z</time></trkpt><trkpt lat="43.2775235" lon="11.2951029"><ele>244.0</ele><time>2026-03-27T13:13:33.706Z</time></trkpt><trkpt lat="43.2774393" lon="11.2950629"><ele>243.99999999999997</ele><time>2026-03-27T13:13:35.705Z</time></trkpt><trkpt lat="43.2773604" lon="11.295023"><ele>244.0</ele><time>2026-03-27T13:13:37.706Z</time></trkpt><trkpt lat="43.2772899" lon="11.2949936"><ele>244.0</ele><time>2026-03-27T13:13:39.706Z</time></trkpt><trkpt lat="43.2772256" lon="11.2949632"><ele>244.0</ele><time>2026-03-27T13:13:41.705Z</time></trkpt><trkpt lat="43.2771632" lon="11.2949391"><ele>243.99999999999997</ele><time>2026-03-27T13:13:43.705Z</time></trkpt><trkpt lat="43.2770735" lon="11.2948959"><ele>244.0</ele><time>2026-03-27T13:13:46.706Z</time></trkpt><trkpt lat="43.2770081" lon="11.2948718"><ele>244.1428571428571</ele><time>2026-03-27T13:13:48.705Z</time></trkpt><trkpt lat="43.2769438" lon="11.2948406"><ele>244.28571428571428</ele><time>2026-03-27T13:13:50.705Z</time></trkpt><trkpt lat="43.2768799" lon="11.2948177"><ele>244.42857142857142</ele><time>2026-03-27T13:13:52.705Z</time></trkpt><trkpt lat="43.2768163" lon="11.2947967"><ele>244.57142857142856</ele><time>2026-03-27T13:13:54.706Z</time></trkpt><trkpt lat="43.2767529" lon="11.2947783"><ele>244.71428571428572</ele><time>2026-03-27T13:13:56.705Z</time></trkpt><trkpt lat="43.276689" lon="11.2947578"><ele>244.85714285714286</ele><time>2026-03-27T13:13:58.705Z</time></trkpt><trkpt lat="43.2766254" lon="11.2947361"><ele>245.0</ele><time>2026-03-27T13:14:00.705Z</time></trkpt><trkpt lat="43.2765621" lon="11.2947129"><ele>246.0</ele><time>2026-03-27T13:14:02.706Z</time></trkpt><trkpt lat="43.2764977" lon="11.2946931"><ele>247.0</ele><time>2026-03-27T13:14:04.706Z</time></trkpt><trkpt lat="43.2764353" lon="11.2946691"><ele>248.0</ele><time>2026-03-27T13:14:06.705Z</time></trkpt><trkpt lat="43.2763695" lon="11.2946487"><ele>249.0</ele><time>2026-03-27T13:14:08.705Z</time></trkpt><trkpt lat="43.2763025" lon="11.2946326"><ele>250.0</ele><time>2026-03-27T13:14:10.705Z</time></trkpt><trkpt lat="43.2762361" lon="11.2946127"><ele>251.0</ele><time>2026-03-27T13:14:12.706Z</time></trkpt><trkpt lat="43.276165" lon="11.2946023"><ele>252.0</ele><time>2026-03-27T13:14:14.705Z</time></trkpt><trkpt lat="43.2760903" lon="11.2945927"><ele>252.0</ele><time>2026-03-27T13:14:16.705Z</time></trkpt><trkpt lat="43.2760148" lon="11.2945914"><ele>252.0</ele><time>2026-03-27T13:14:18.705Z</time></trkpt><trkpt lat="43.2759377" lon="11.2945901"><ele>252.0</ele><time>2026-03-27T13:14:20.705Z</time></trkpt><trkpt lat="43.2758627" lon="11.2945926"><ele>252.0</ele><time>2026-03-27T13:14:22.705Z</time></trkpt><trkpt lat="43.2757879" lon="11.294594"><ele>252.0</ele><time>2026-03-27T13:14:24.705Z</time></trkpt><trkpt lat="43.2757126" lon="11.294603"><ele>252.0</ele><time>2026-03-27T13:14:26.705Z</time></trkpt><trkpt lat="43.2756374" lon="11.2946103"><ele>251.83333333333334</ele><time>2026-03-27T13:14:28.705Z</time></trkpt><trkpt lat="43.2755628" lon="11.2946225"><ele>251.66666666666669</ele><time>2026-03-27T13:14:30.705Z</time></trkpt><trkpt lat="43.2754852" lon="11.2946329"><ele>251.5</ele><time>2026-03-27T13:14:32.705Z</time></trkpt><trkpt lat="43.2754055" lon="11.2946423"><ele>251.33333333333334</ele><time>2026-03-27T13:14:34.705Z</time></trkpt><trkpt lat="43.275324" lon="11.2946506"><ele>251.16666666666669</ele><time>2026-03-27T13:14:36.705Z</time></trkpt><trkpt lat="43.2752431" lon="11.2946523"><ele>251.0</ele><time>2026-03-27T13:14:38.705Z</time></trkpt><trkpt lat="43.2751622" lon="11.2946586"><ele>251.0</ele><time>2026-03-27T13:14:40.705Z</time></trkpt><trkpt lat="43.2750767" lon="11.2946741"><ele>251.00000000000003</ele><time>2026-03-27T13:14:42.706Z</time></trkpt><trkpt lat="43.2749902" lon="11.2946896"><ele>251.00000000000003</ele><time>2026-03-27T13:14:44.705Z</time></trkpt><trkpt lat="43.2748988" lon="11.2947038"><ele>251.0</ele><time>2026-03-27T13:14:46.705Z</time></trkpt><trkpt lat="43.2748042" lon="11.2947214"><ele>251.0</ele><time>2026-03-27T13:14:48.706Z</time></trkpt><trkpt lat="43.2747084" lon="11.2947397"><ele>250.60000000000002</ele><time>2026-03-27T13:14:50.706Z</time></trkpt><trkpt lat="43.2746114" lon="11.294748"><ele>250.20000000000002</ele><time>2026-03-27T13:14:52.706Z</time></trkpt><trkpt lat="43.2745149" lon="11.2947624"><ele>249.79999999999998</ele><time>2026-03-27T13:14:54.705Z</time></trkpt><trkpt lat="43.2744167" lon="11.2947654"><ele>249.39999999999998</ele><time>2026-03-27T13:14:56.705Z</time></trkpt><trkpt lat="43.2743179" lon="11.2947639"><ele>249.0</ele><time>2026-03-27T13:14:58.705Z</time></trkpt><trkpt lat="43.2742113" lon="11.2947675"><ele>249.0</ele><time>2026-03-27T13:15:00.706Z</time></trkpt><trkpt lat="43.2740935" lon="11.2947633"><ele>249.0</ele><time>2026-03-27T13:15:02.706Z</time></trkpt><trkpt lat="43.2739712" lon="11.2947568"><ele>249.0</ele><time>2026-03-27T13:15:04.706Z</time></trkpt><trkpt lat="43.273905" lon="11.2947513"><ele>249.0</ele><time>2026-03-27T13:15:05.705Z</time></trkpt><trkpt lat="43.2738389" lon="11.2947444"><ele>249.0</ele><time>2026-03-27T13:15:06.705Z</time></trkpt><trkpt lat="43.2737726" lon="11.2947365"><ele>249.0</ele><time>2026-03-27T13:15:07.705Z</time></trkpt><trkpt lat="43.273706" lon="11.2947269"><ele>249.0</ele><time>2026-03-27T13:15:08.706Z</time></trkpt><trkpt lat="43.2736369" lon="11.2947158"><ele>248.99999999999997</ele><time>2026-03-27T13:15:09.705Z</time></trkpt><trkpt lat="43.2735674" lon="11.2947062"><ele>249.0</ele><time>2026-03-27T13:15:10.705Z</time></trkpt><trkpt lat="43.273498" lon="11.2946928"><ele>249.0</ele><time>2026-03-27T13:15:11.705Z</time></trkpt><trkpt lat="43.2734284" lon="11.2946757"><ele>248.99999999999997</ele><time>2026-03-27T13:15:12.705Z</time></trkpt><trkpt lat="43.2733596" lon="11.2946575"><ele>249.0</ele><time>2026-03-27T13:15:13.705Z</time></trkpt><trkpt lat="43.2732896" lon="11.2946353"><ele>249.0</ele><time>2026-03-27T13:15:14.705Z</time></trkpt><trkpt lat="43.273219" lon="11.2946044"><ele>249.0</ele><time>2026-03-27T13:15:15.705Z</time></trkpt><trkpt lat="43.2731534" lon="11.2945707"><ele>248.99999999999997</ele><time>2026-03-27T13:15:16.706Z</time></trkpt><trkpt lat="43.2730869" lon="11.2945391"><ele>249.0</ele><time>2026-03-27T13:15:17.706Z</time></trkpt><trkpt lat="43.2730203" lon="11.2945024"><ele>249.0</ele><time>2026-03-27T13:15:18.705Z</time></trkpt><trkpt lat="43.2729601" lon="11.2944638"><ele>248.99999999999997</ele><time>2026-03-27T13:15:19.705Z</time></trkpt><trkpt lat="43.2729012" lon="11.2944215"><ele>249.0</ele><time>2026-03-27T13:15:20.705Z</time></trkpt><trkpt lat="43.2728402" lon="11.2943908"><ele>249.0</ele><time>2026-03-27T13:15:21.705Z</time></trkpt><trkpt lat="43.2727817" lon="11.2943524"><ele>249.83333333333334</ele><time>2026-03-27T13:15:22.705Z</time></trkpt><trkpt lat="43.2727254" lon="11.2943135"><ele>250.66666666666669</ele><time>2026-03-27T13:15:23.706Z</time></trkpt><trkpt lat="43.2726648" lon="11.294279"><ele>251.5</ele><time>2026-03-27T13:15:24.705Z</time></trkpt><trkpt lat="43.2725513" lon="11.2942013"><ele>252.33333333333334</ele><time>2026-03-27T13:15:26.706Z</time></trkpt><trkpt lat="43.2724873" lon="11.294158"><ele>253.16666666666669</ele><time>2026-03-27T13:15:27.706Z</time></trkpt><trkpt lat="43.2724306" lon="11.294117"><ele>254.0</ele><time>2026-03-27T13:15:28.705Z</time></trkpt><trkpt lat="43.2723631" lon="11.2940745"><ele>254.0</ele><time>2026-03-27T13:15:29.705Z</time></trkpt><trkpt lat="43.2722993" lon="11.2940315"><ele>254.0</ele><time>2026-03-27T13:15:30.705Z</time></trkpt><trkpt lat="43.2722354" lon="11.2939933"><ele>254.0</ele><time>2026-03-27T13:15:31.705Z</time></trkpt><trkpt lat="43.2721681" lon="11.2939555"><ele>254.0</ele><time>2026-03-27T13:15:32.706Z</time></trkpt><trkpt lat="43.2721017" lon="11.2939264"><ele>254.0</ele><time>2026-03-27T13:15:33.706Z</time></trkpt><trkpt lat="43.2720327" lon="11.2938936"><ele>254.0</ele><time>2026-03-27T13:15:34.705Z</time></trkpt><trkpt lat="43.2719649" lon="11.29386"><ele>254.0</ele><time>2026-03-27T13:15:35.705Z</time></trkpt><trkpt lat="43.2718968" lon="11.2938297"><ele>254.79999999999998</ele><time>2026-03-27T13:15:36.705Z</time></trkpt><trkpt lat="43.2718294" lon="11.2938014"><ele>255.59999999999997</ele><time>2026-03-27T13:15:37.705Z</time></trkpt><trkpt lat="43.2717639" lon="11.2937762"><ele>256.4</ele><time>2026-03-27T13:15:38.705Z</time></trkpt><trkpt lat="43.2716505" lon="11.2937289"><ele>257.2</ele><time>2026-03-27T13:15:40.705Z</time></trkpt><trkpt lat="43.2715451" lon="11.2936977"><ele>258.0</ele><time>2026-03-27T13:15:42.705Z</time></trkpt><trkpt lat="43.2714462" lon="11.2936532"><ele>256.6666666666667</ele><time>2026-03-27T13:15:44.705Z</time></trkpt><trkpt lat="43.2713301" lon="11.2935887"><ele>255.33333333333331</ele><time>2026-03-27T13:15:46.705Z</time></trkpt><trkpt lat="43.2712807" lon="11.2935202"><ele>254.0</ele><time>2026-03-27T13:15:47.705Z</time></trkpt><trkpt lat="43.2712387" lon="11.2934466"><ele>252.66666666666666</ele><time>2026-03-27T13:15:48.705Z</time></trkpt><trkpt lat="43.2711999" lon="11.2933579"><ele>251.33333333333331</ele><time>2026-03-27T13:15:49.705Z</time></trkpt><trkpt lat="43.2711755" lon="11.2932611"><ele>250.0</ele><time>2026-03-27T13:15:50.705Z</time></trkpt><trkpt lat="43.2711523" lon="11.2931606"><ele>249.83333333333331</ele><time>2026-03-27T13:15:51.706Z</time></trkpt><trkpt lat="43.2711328" lon="11.2930535"><ele>249.66666666666666</ele><time>2026-03-27T13:15:52.705Z</time></trkpt><trkpt lat="43.2711096" lon="11.2929443"><ele>249.5</ele><time>2026-03-27T13:15:53.705Z</time></trkpt><trkpt lat="43.2710788" lon="11.292835"><ele>249.33333333333331</ele><time>2026-03-27T13:15:54.705Z</time></trkpt><trkpt lat="43.2710446" lon="11.2927302"><ele>249.16666666666666</ele><time>2026-03-27T13:15:55.706Z</time></trkpt><trkpt lat="43.2710087" lon="11.2926197"><ele>249.0</ele><time>2026-03-27T13:15:56.705Z</time></trkpt><trkpt lat="43.2709723" lon="11.2925156"><ele>249.0</ele><time>2026-03-27T13:15:57.705Z</time></trkpt><trkpt lat="43.2709357" lon="11.2924138"><ele>249.0</ele><time>2026-03-27T13:15:58.705Z</time></trkpt><trkpt lat="43.2708964" lon="11.2923115"><ele>249.0</ele><time>2026-03-27T13:15:59.705Z</time></trkpt><trkpt lat="43.2708565" lon="11.2922183"><ele>249.0</ele><time>2026-03-27T13:16:00.705Z</time></trkpt><trkpt lat="43.2708215" lon="11.2921296"><ele>249.0</ele><time>2026-03-27T13:16:01.705Z</time></trkpt><trkpt lat="43.270784" lon="11.2920508"><ele>249.0</ele><time>2026-03-27T13:16:02.706Z</time></trkpt><trkpt lat="43.2707447" lon="11.291974"><ele>249.33333333333334</ele><time>2026-03-27T13:16:03.706Z</time></trkpt><trkpt lat="43.2707032" lon="11.2919002"><ele>249.66666666666669</ele><time>2026-03-27T13:16:04.705Z</time></trkpt><trkpt lat="43.2706535" lon="11.2918332"><ele>250.0</ele><time>2026-03-27T13:16:05.705Z</time></trkpt><trkpt lat="43.2706" lon="11.2917791"><ele>250.33333333333334</ele><time>2026-03-27T13:16:06.705Z</time></trkpt><trkpt lat="43.2705457" lon="11.2917276"><ele>250.66666666666669</ele><time>2026-03-27T13:16:07.705Z</time></trkpt><trkpt lat="43.2704885" lon="11.2916855"><ele>251.0</ele><time>2026-03-27T13:16:08.705Z</time></trkpt><trkpt lat="43.2703835" lon="11.2916203"><ele>251.0</ele><time>2026-03-27T13:16:10.706Z</time></trkpt><trkpt lat="43.2702795" lon="11.2915579"><ele>251.00000000000003</ele><time>2026-03-27T13:16:12.706Z</time></trkpt><trkpt lat="43.2701826" lon="11.2915103"><ele>251.00000000000003</ele><time>2026-03-27T13:16:14.705Z</time></trkpt><trkpt lat="43.27009" lon="11.2914485"><ele>251.0</ele><time>2026-03-27T13:16:16.705Z</time></trkpt><trkpt lat="43.2699938" lon="11.2913999"><ele>251.0</ele><time>2026-03-27T13:16:18.705Z</time></trkpt><trkpt lat="43.2698969" lon="11.2913446"><ele>251.60000000000002</ele><time>2026-03-27T13:16:20.705Z</time></trkpt><trkpt lat="43.2698033" lon="11.2912881"><ele>252.20000000000002</ele><time>2026-03-27T13:16:22.706Z</time></trkpt><trkpt lat="43.2697092" lon="11.291238"><ele>252.79999999999998</ele><time>2026-03-27T13:16:24.706Z</time></trkpt><trkpt lat="43.2696196" lon="11.2911849"><ele>253.39999999999998</ele><time>2026-03-27T13:16:26.706Z</time></trkpt><trkpt lat="43.2695353" lon="11.291134"><ele>254.0</ele><time>2026-03-27T13:16:28.705Z</time></trkpt><trkpt lat="43.2694451" lon="11.2910961"><ele>254.0</ele><time>2026-03-27T13:16:30.706Z</time></trkpt><trkpt lat="43.269351" lon="11.2910604"><ele>253.99999999999997</ele><time>2026-03-27T13:16:32.705Z</time></trkpt><trkpt lat="43.2692601" lon="11.2910251"><ele>253.99999999999997</ele><time>2026-03-27T13:16:34.705Z</time></trkpt><trkpt lat="43.2691708" lon="11.2909812"><ele>254.0</ele><time>2026-03-27T13:16:36.705Z</time></trkpt><trkpt lat="43.2690743" lon="11.2909582"><ele>254.0</ele><time>2026-03-27T13:16:38.705Z</time></trkpt><trkpt lat="43.2689922" lon="11.2909253"><ele>253.0</ele><time>2026-03-27T13:16:40.706Z</time></trkpt><trkpt lat="43.2689037" lon="11.2908945"><ele>251.99999999999997</ele><time>2026-03-27T13:16:42.705Z</time></trkpt><trkpt lat="43.2688298" lon="11.2908574"><ele>250.99999999999997</ele><time>2026-03-27T13:16:44.705Z</time></trkpt><trkpt lat="43.2687528" lon="11.2908109"><ele>250.0</ele><time>2026-03-27T13:16:46.705Z</time></trkpt><trkpt lat="43.2686677" lon="11.2907453"><ele>249.0</ele><time>2026-03-27T13:16:48.705Z</time></trkpt><trkpt lat="43.268576" lon="11.2906659"><ele>249.0</ele><time>2026-03-27T13:16:50.705Z</time></trkpt><trkpt lat="43.2684798" lon="11.2905941"><ele>248.99999999999997</ele><time>2026-03-27T13:16:52.706Z</time></trkpt><trkpt lat="43.2683932" lon="11.2905092"><ele>248.99999999999997</ele><time>2026-03-27T13:16:54.705Z</time></trkpt><trkpt lat="43.2683065" lon="11.2904234"><ele>249.0</ele><time>2026-03-27T13:16:56.706Z</time></trkpt><trkpt lat="43.2682241" lon="11.2903438"><ele>249.0</ele><time>2026-03-27T13:16:58.705Z</time></trkpt><trkpt lat="43.2681446" lon="11.2902675"><ele>250.2</ele><time>2026-03-27T13:17:00.706Z</time></trkpt><trkpt lat="43.2680654" lon="11.2901882"><ele>251.39999999999998</ele><time>2026-03-27T13:17:02.705Z</time></trkpt><trkpt lat="43.2679893" lon="11.2900914"><ele>252.6</ele><time>2026-03-27T13:17:04.705Z</time></trkpt><trkpt lat="43.2679072" lon="11.2899991"><ele>253.8</ele><time>2026-03-27T13:17:06.705Z</time></trkpt><trkpt lat="43.2678387" lon="11.2899339"><ele>255.0</ele><time>2026-03-27T13:17:08.705Z</time></trkpt><trkpt lat="43.267767" lon="11.2898826"><ele>255.0</ele><time>2026-03-27T13:17:10.705Z</time></trkpt><trkpt lat="43.2676809" lon="11.289835"><ele>255.0</ele><time>2026-03-27T13:17:12.705Z</time></trkpt><trkpt lat="43.2675838" lon="11.2897879"><ele>255.0</ele><time>2026-03-27T13:17:14.705Z</time></trkpt><trkpt lat="43.2674898" lon="11.2897312"><ele>255.0</ele><time>2026-03-27T13:17:16.705Z</time></trkpt><trkpt lat="43.2673945" lon="11.2896732"><ele>255.0</ele><time>2026-03-27T13:17:18.706Z</time></trkpt><trkpt lat="43.2672923" lon="11.2896209"><ele>253.66666666666666</ele><time>2026-03-27T13:17:20.705Z</time></trkpt><trkpt lat="43.2671748" lon="11.2895486"><ele>252.33333333333331</ele><time>2026-03-27T13:17:22.705Z</time></trkpt><trkpt lat="43.2671093" lon="11.2895067"><ele>251.0</ele><time>2026-03-27T13:17:23.705Z</time></trkpt><trkpt lat="43.2670443" lon="11.2894636"><ele>249.66666666666666</ele><time>2026-03-27T13:17:24.705Z</time></trkpt><trkpt lat="43.2669851" lon="11.289419"><ele>248.33333333333331</ele><time>2026-03-27T13:17:25.705Z</time></trkpt><trkpt lat="43.2669197" lon="11.2893751"><ele>247.0</ele><time>2026-03-27T13:17:26.706Z</time></trkpt><trkpt lat="43.2668513" lon="11.2893454"><ele>246.99999999999997</ele><time>2026-03-27T13:17:27.706Z</time></trkpt><trkpt lat="43.2667819" lon="11.289305"><ele>247.0</ele><time>2026-03-27T13:17:28.706Z</time></trkpt><trkpt lat="43.266719" lon="11.2892663"><ele>247.0</ele><time>2026-03-27T13:17:29.705Z</time></trkpt><trkpt lat="43.2666569" lon="11.2892218"><ele>247.0</ele><time>2026-03-27T13:17:30.705Z</time></trkpt><trkpt lat="43.2665905" lon="11.289189"><ele>246.99999999999997</ele><time>2026-03-27T13:17:31.705Z</time></trkpt><trkpt lat="43.2665233" lon="11.2891531"><ele>247.0</ele><time>2026-03-27T13:17:32.705Z</time></trkpt><trkpt lat="43.2664165" lon="11.2890523"><ele>246.83333333333331</ele><time>2026-03-27T13:17:34.705Z</time></trkpt><trkpt lat="43.2663498" lon="11.289021"><ele>246.66666666666666</ele><time>2026-03-27T13:17:35.706Z</time></trkpt><trkpt lat="43.2662846" lon="11.2889951"><ele>246.5</ele><time>2026-03-27T13:17:36.705Z</time></trkpt><trkpt lat="43.2662236" lon="11.2889732"><ele>246.33333333333331</ele><time>2026-03-27T13:17:37.705Z</time></trkpt><trkpt lat="43.2661613" lon="11.2889505"><ele>246.16666666666666</ele><time>2026-03-27T13:17:38.706Z</time></trkpt><trkpt lat="43.2660432" lon="11.2889055"><ele>246.0</ele><time>2026-03-27T13:17:40.705Z</time></trkpt><trkpt lat="43.2659306" lon="11.288871"><ele>246.0</ele><time>2026-03-27T13:17:42.705Z</time></trkpt><trkpt lat="43.2658237" lon="11.2888448"><ele>246.00000000000003</ele><time>2026-03-27T13:17:44.706Z</time></trkpt><trkpt lat="43.2657247" lon="11.2888116"><ele>246.00000000000003</ele><time>2026-03-27T13:17:46.706Z</time></trkpt><trkpt lat="43.265626" lon="11.2887875"><ele>246.0</ele><time>2026-03-27T13:17:48.705Z</time></trkpt><trkpt lat="43.2655352" lon="11.2887535"><ele>246.0</ele><time>2026-03-27T13:17:50.705Z</time></trkpt><trkpt lat="43.2654503" lon="11.2887153"><ele>246.20000000000002</ele><time>2026-03-27T13:17:52.706Z</time></trkpt><trkpt lat="43.2653566" lon="11.2886833"><ele>246.40000000000003</ele><time>2026-03-27T13:17:54.705Z</time></trkpt><trkpt lat="43.2652659" lon="11.2886349"><ele>246.6</ele><time>2026-03-27T13:17:56.706Z</time></trkpt><trkpt lat="43.2651745" lon="11.2885729"><ele>246.8</ele><time>2026-03-27T13:17:58.706Z</time></trkpt><trkpt lat="43.2650725" lon="11.2885066"><ele>247.0</ele><time>2026-03-27T13:18:00.705Z</time></trkpt><trkpt lat="43.2649745" lon="11.2884476"><ele>247.0</ele><time>2026-03-27T13:18:02.706Z</time></trkpt><trkpt lat="43.2648726" lon="11.2883982"><ele>247.0</ele><time>2026-03-27T13:18:04.705Z</time></trkpt><trkpt lat="43.2647621" lon="11.2883463"><ele>247.0</ele><time>2026-03-27T13:18:06.705Z</time></trkpt><trkpt lat="43.2646471" lon="11.2882923"><ele>247.0</ele><time>2026-03-27T13:18:08.706Z</time></trkpt><trkpt lat="43.2645331" lon="11.2882413"><ele>246.83333333333331</ele><time>2026-03-27T13:18:10.705Z</time></trkpt><trkpt lat="43.2644137" lon="11.2881912"><ele>246.66666666666666</ele><time>2026-03-27T13:18:12.705Z</time></trkpt><trkpt lat="43.2643518" lon="11.2881661"><ele>246.5</ele><time>2026-03-27T13:18:13.705Z</time></trkpt><trkpt lat="43.2642901" lon="11.2881409"><ele>246.33333333333331</ele><time>2026-03-27T13:18:14.705Z</time></trkpt><trkpt lat="43.2642299" lon="11.2881135"><ele>246.16666666666666</ele><time>2026-03-27T13:18:15.705Z</time></trkpt><trkpt lat="43.2641675" lon="11.2880898"><ele>246.0</ele><time>2026-03-27T13:18:16.705Z</time></trkpt><trkpt lat="43.2640529" lon="11.2880411"><ele>246.0</ele><time>2026-03-27T13:18:18.706Z</time></trkpt><trkpt lat="43.2639361" lon="11.2879983"><ele>246.00000000000003</ele><time>2026-03-27T13:18:20.705Z</time></trkpt><trkpt lat="43.2638305" lon="11.2879518"><ele>246.00000000000003</ele><time>2026-03-27T13:18:22.705Z</time></trkpt><trkpt lat="43.2637287" lon="11.287908"><ele>246.0</ele><time>2026-03-27T13:18:24.705Z</time></trkpt><trkpt lat="43.2636276" lon="11.2878664"><ele>246.0</ele><time>2026-03-27T13:18:26.705Z</time></trkpt><trkpt lat="43.2635306" lon="11.2878165"><ele>246.0</ele><time>2026-03-27T13:18:28.705Z</time></trkpt><trkpt lat="43.2634409" lon="11.2877592"><ele>246.00000000000003</ele><time>2026-03-27T13:18:30.705Z</time></trkpt><trkpt lat="43.2633498" lon="11.2876975"><ele>246.00000000000003</ele><time>2026-03-27T13:18:32.705Z</time></trkpt><trkpt lat="43.2632554" lon="11.2876266"><ele>246.0</ele><time>2026-03-27T13:18:34.705Z</time></trkpt><trkpt lat="43.2631509" lon="11.2875498"><ele>246.0</ele><time>2026-03-27T13:18:36.705Z</time></trkpt><trkpt lat="43.2630524" lon="11.2874631"><ele>245.25</ele><time>2026-03-27T13:18:38.705Z</time></trkpt><trkpt lat="43.2629493" lon="11.2873792"><ele>244.5</ele><time>2026-03-27T13:18:40.705Z</time></trkpt><trkpt lat="43.2628417" lon="11.2873056"><ele>243.75</ele><time>2026-03-27T13:18:42.705Z</time></trkpt><trkpt lat="43.2627362" lon="11.2872386"><ele>243.0</ele><time>2026-03-27T13:18:44.705Z</time></trkpt><trkpt lat="43.2626333" lon="11.287178"><ele>242.8</ele><time>2026-03-27T13:18:46.706Z</time></trkpt><trkpt lat="43.2625317" lon="11.2871117"><ele>242.60000000000002</ele><time>2026-03-27T13:18:48.705Z</time></trkpt><trkpt lat="43.2624317" lon="11.2870502"><ele>242.39999999999998</ele><time>2026-03-27T13:18:50.705Z</time></trkpt><trkpt lat="43.2623285" lon="11.2869862"><ele>242.2</ele><time>2026-03-27T13:18:52.706Z</time></trkpt><trkpt lat="43.2622381" lon="11.2869431"><ele>242.0</ele><time>2026-03-27T13:18:54.705Z</time></trkpt><trkpt lat="43.2621743" lon="11.286881"><ele>242.33333333333334</ele><time>2026-03-27T13:18:56.706Z</time></trkpt><trkpt lat="43.2621752" lon="11.286766"><ele>242.66666666666669</ele><time>2026-03-27T13:18:58.706Z</time></trkpt><trkpt lat="43.2621851" lon="11.2866345"><ele>243.0</ele><time>2026-03-27T13:19:00.706Z</time></trkpt><trkpt lat="43.2621956" lon="11.2864784"><ele>243.33333333333331</ele><time>2026-03-27T13:19:02.705Z</time></trkpt><trkpt lat="43.2621977" lon="11.286392"><ele>243.66666666666666</ele><time>2026-03-27T13:19:03.705Z</time></trkpt><trkpt lat="43.262203" lon="11.2862957"><ele>244.0</ele><time>2026-03-27T13:19:04.706Z</time></trkpt><trkpt lat="43.2622055" lon="11.2862067"><ele>243.99999999999997</ele><time>2026-03-27T13:19:05.705Z</time></trkpt><trkpt lat="43.2622081" lon="11.2860949"><ele>244.0</ele><time>2026-03-27T13:19:06.705Z</time></trkpt><trkpt lat="43.2622136" lon="11.2859967"><ele>244.0</ele><time>2026-03-27T13:19:07.705Z</time></trkpt><trkpt lat="43.2622187" lon="11.2858871"><ele>244.0</ele><time>2026-03-27T13:19:08.705Z</time></trkpt><trkpt lat="43.2622231" lon="11.2857703"><ele>243.99999999999997</ele><time>2026-03-27T13:19:09.705Z</time></trkpt><trkpt lat="43.2622283" lon="11.2856471"><ele>244.0</ele><time>2026-03-27T13:19:10.705Z</time></trkpt><trkpt lat="43.2622293" lon="11.2855206"><ele>243.49999999999997</ele><time>2026-03-27T13:19:11.705Z</time></trkpt><trkpt lat="43.2622328" lon="11.2853881"><ele>243.0</ele><time>2026-03-27T13:19:12.705Z</time></trkpt><trkpt lat="43.2622295" lon="11.2852613"><ele>242.5</ele><time>2026-03-27T13:19:13.706Z</time></trkpt><trkpt lat="43.2622175" lon="11.2851472"><ele>242.0</ele><time>2026-03-27T13:19:14.706Z</time></trkpt><trkpt lat="43.2621951" lon="11.2850328"><ele>241.49999999999997</ele><time>2026-03-27T13:19:15.705Z</time></trkpt><trkpt lat="43.2621699" lon="11.2849183"><ele>241.0</ele><time>2026-03-27T13:19:16.706Z</time></trkpt><trkpt lat="43.2621552" lon="11.2847905"><ele>240.20000000000002</ele><time>2026-03-27T13:19:17.705Z</time></trkpt><trkpt lat="43.2621474" lon="11.2846582"><ele>239.40000000000003</ele><time>2026-03-27T13:19:18.705Z</time></trkpt><trkpt lat="43.262147" lon="11.2845261"><ele>238.6</ele><time>2026-03-27T13:19:19.705Z</time></trkpt><trkpt lat="43.2621519" lon="11.2843811"><ele>237.8</ele><time>2026-03-27T13:19:20.705Z</time></trkpt><trkpt lat="43.2621629" lon="11.2842456"><ele>237.0</ele><time>2026-03-27T13:19:21.705Z</time></trkpt><trkpt lat="43.2621803" lon="11.2841087"><ele>237.0</ele><time>2026-03-27T13:19:22.705Z</time></trkpt><trkpt lat="43.2622005" lon="11.2839626"><ele>237.0</ele><time>2026-03-27T13:19:23.705Z</time></trkpt><trkpt lat="43.2622182" lon="11.2838111"><ele>237.0</ele><time>2026-03-27T13:19:24.705Z</time></trkpt><trkpt lat="43.2622395" lon="11.2836636"><ele>237.0</ele><time>2026-03-27T13:19:25.705Z</time></trkpt><trkpt lat="43.2622563" lon="11.2835227"><ele>237.0</ele><time>2026-03-27T13:19:26.706Z</time></trkpt><trkpt lat="43.2622748" lon="11.2833842"><ele>233.6</ele><time>2026-03-27T13:19:27.706Z</time></trkpt><trkpt lat="43.2622916" lon="11.2832453"><ele>230.2</ele><time>2026-03-27T13:19:28.705Z</time></trkpt><trkpt lat="43.262305" lon="11.2831067"><ele>226.8</ele><time>2026-03-27T13:19:29.705Z</time></trkpt><trkpt lat="43.262325" lon="11.2829648"><ele>223.4</ele><time>2026-03-27T13:19:30.705Z</time></trkpt><trkpt lat="43.2623404" lon="11.2828303"><ele>220.0</ele><time>2026-03-27T13:19:31.705Z</time></trkpt><trkpt lat="43.2623598" lon="11.2826959"><ele>220.0</ele><time>2026-03-27T13:19:32.705Z</time></trkpt><trkpt lat="43.2623775" lon="11.2825658"><ele>220.0</ele><time>2026-03-27T13:19:33.705Z</time></trkpt><trkpt lat="43.2623911" lon="11.2824392"><ele>220.0</ele><time>2026-03-27T13:19:34.705Z</time></trkpt><trkpt lat="43.2624027" lon="11.2823115"><ele>220.0</ele><time>2026-03-27T13:19:35.705Z</time></trkpt><trkpt lat="43.2624059" lon="11.2821829"><ele>220.0</ele><time>2026-03-27T13:19:36.705Z</time></trkpt><trkpt lat="43.2623945" lon="11.2820476"><ele>219.8</ele><time>2026-03-27T13:19:37.705Z</time></trkpt><trkpt lat="43.2623826" lon="11.2819115"><ele>219.6</ele><time>2026-03-27T13:19:38.706Z</time></trkpt><trkpt lat="43.2623632" lon="11.2817762"><ele>219.39999999999998</ele><time>2026-03-27T13:19:39.705Z</time></trkpt><trkpt lat="43.2623412" lon="11.2816415"><ele>219.2</ele><time>2026-03-27T13:19:40.705Z</time></trkpt><trkpt lat="43.2623195" lon="11.2815047"><ele>219.0</ele><time>2026-03-27T13:19:41.705Z</time></trkpt><trkpt lat="43.2623069" lon="11.2813677"><ele>218.2</ele><time>2026-03-27T13:19:42.705Z</time></trkpt><trkpt lat="43.2623052" lon="11.2812315"><ele>217.39999999999998</ele><time>2026-03-27T13:19:43.705Z</time></trkpt><trkpt lat="43.2623172" lon="11.2811033"><ele>216.6</ele><time>2026-03-27T13:19:44.705Z</time></trkpt><trkpt lat="43.2623385" lon="11.2809777"><ele>215.8</ele><time>2026-03-27T13:19:45.706Z</time></trkpt><trkpt lat="43.2623585" lon="11.2808533"><ele>215.0</ele><time>2026-03-27T13:19:46.705Z</time></trkpt><trkpt lat="43.2623886" lon="11.2807222"><ele>214.6</ele><time>2026-03-27T13:19:47.706Z</time></trkpt><trkpt lat="43.2624124" lon="11.2805927"><ele>214.2</ele><time>2026-03-27T13:19:48.705Z</time></trkpt><trkpt lat="43.2624357" lon="11.2804672"><ele>213.8</ele><time>2026-03-27T13:19:49.705Z</time></trkpt><trkpt lat="43.2624612" lon="11.2803398"><ele>213.4</ele><time>2026-03-27T13:19:50.706Z</time></trkpt><trkpt lat="43.2624858" lon="11.2802118"><ele>213.0</ele><time>2026-03-27T13:19:51.705Z</time></trkpt><trkpt lat="43.2625109" lon="11.2800776"><ele>213.0</ele><time>2026-03-27T13:19:52.706Z</time></trkpt><trkpt lat="43.2625365" lon="11.27995"><ele>213.0</ele><time>2026-03-27T13:19:53.705Z</time></trkpt><trkpt lat="43.2625639" lon="11.2798119"><ele>213.0</ele><time>2026-03-27T13:19:54.706Z</time></trkpt><trkpt lat="43.2625955" lon="11.2796714"><ele>213.0</ele><time>2026-03-27T13:19:55.705Z</time></trkpt><trkpt lat="43.2626233" lon="11.2795283"><ele>213.0</ele><time>2026-03-27T13:19:56.705Z</time></trkpt><trkpt lat="43.2626522" lon="11.2793808"><ele>212.4</ele><time>2026-03-27T13:19:57.705Z</time></trkpt><trkpt lat="43.2626803" lon="11.2792387"><ele>211.8</ele><time>2026-03-27T13:19:58.705Z</time></trkpt><trkpt lat="43.2627032" lon="11.279089"><ele>211.2</ele><time>2026-03-27T13:19:59.706Z</time></trkpt><trkpt lat="43.2627251" lon="11.2789392"><ele>210.6</ele><time>2026-03-27T13:20:00.706Z</time></trkpt><trkpt lat="43.2627407" lon="11.2787937"><ele>210.0</ele><time>2026-03-27T13:20:01.705Z</time></trkpt><trkpt lat="43.2627564" lon="11.2786494"><ele>208.8</ele><time>2026-03-27T13:20:02.705Z</time></trkpt><trkpt lat="43.2627642" lon="11.2785134"><ele>207.6</ele><time>2026-03-27T13:20:03.706Z</time></trkpt><trkpt lat="43.2627684" lon="11.2783638"><ele>206.39999999999998</ele><time>2026-03-27T13:20:04.705Z</time></trkpt><trkpt lat="43.2627682" lon="11.2782134"><ele>205.2</ele><time>2026-03-27T13:20:05.706Z</time></trkpt><trkpt lat="43.2627694" lon="11.2780664"><ele>204.0</ele><time>2026-03-27T13:20:06.706Z</time></trkpt><trkpt lat="43.2627699" lon="11.2779218"><ele>203.2</ele><time>2026-03-27T13:20:07.706Z</time></trkpt><trkpt lat="43.2627637" lon="11.2777844"><ele>202.39999999999998</ele><time>2026-03-27T13:20:08.705Z</time></trkpt><trkpt lat="43.2627652" lon="11.2776342"><ele>201.6</ele><time>2026-03-27T13:20:09.705Z</time></trkpt><trkpt lat="43.2627634" lon="11.2774893"><ele>200.8</ele><time>2026-03-27T13:20:10.706Z</time></trkpt><trkpt lat="43.2627623" lon="11.2773435"><ele>200.0</ele><time>2026-03-27T13:20:11.705Z</time></trkpt><trkpt lat="43.26276" lon="11.2772019"><ele>199.8</ele><time>2026-03-27T13:20:12.705Z</time></trkpt><trkpt lat="43.2627594" lon="11.2770634"><ele>199.6</ele><time>2026-03-27T13:20:13.705Z</time></trkpt><trkpt lat="43.2627612" lon="11.2769259"><ele>199.39999999999998</ele><time>2026-03-27T13:20:14.705Z</time></trkpt><trkpt lat="43.2627604" lon="11.2767932"><ele>199.2</ele><time>2026-03-27T13:20:15.705Z</time></trkpt><trkpt lat="43.2627571" lon="11.2766525"><ele>199.0</ele><time>2026-03-27T13:20:16.705Z</time></trkpt><trkpt lat="43.2627532" lon="11.2765183"><ele>198.6</ele><time>2026-03-27T13:20:17.705Z</time></trkpt><trkpt lat="43.2627543" lon="11.2763863"><ele>198.2</ele><time>2026-03-27T13:20:18.706Z</time></trkpt><trkpt lat="43.2627517" lon="11.2762491"><ele>197.79999999999998</ele><time>2026-03-27T13:20:19.706Z</time></trkpt><trkpt lat="43.262747" lon="11.2761127"><ele>197.39999999999998</ele><time>2026-03-27T13:20:20.706Z</time></trkpt><trkpt lat="43.2627319" lon="11.2759774"><ele>197.0</ele><time>2026-03-27T13:20:21.705Z</time></trkpt><trkpt lat="43.2627094" lon="11.2758463"><ele>197.0</ele><time>2026-03-27T13:20:22.706Z</time></trkpt><trkpt lat="43.2626775" lon="11.2757146"><ele>197.0</ele><time>2026-03-27T13:20:23.705Z</time></trkpt><trkpt lat="43.2626428" lon="11.2755877"><ele>197.0</ele><time>2026-03-27T13:20:24.705Z</time></trkpt><trkpt lat="43.2626068" lon="11.2754592"><ele>197.0</ele><time>2026-03-27T13:20:25.705Z</time></trkpt><trkpt lat="43.2625706" lon="11.2753327"><ele>197.0</ele><time>2026-03-27T13:20:26.705Z</time></trkpt><trkpt lat="43.2625312" lon="11.2752041"><ele>196.6</ele><time>2026-03-27T13:20:27.705Z</time></trkpt><trkpt lat="43.2624939" lon="11.2750735"><ele>196.2</ele><time>2026-03-27T13:20:28.706Z</time></trkpt><trkpt lat="43.2624588" lon="11.2749534"><ele>195.8</ele><time>2026-03-27T13:20:29.705Z</time></trkpt><trkpt lat="43.2624182" lon="11.274829"><ele>195.4</ele><time>2026-03-27T13:20:30.705Z</time></trkpt><trkpt lat="43.2623783" lon="11.2747001"><ele>195.0</ele><time>2026-03-27T13:20:31.705Z</time></trkpt><trkpt lat="43.2623399" lon="11.2745753"><ele>195.0</ele><time>2026-03-27T13:20:32.706Z</time></trkpt><trkpt lat="43.2623032" lon="11.2744506"><ele>195.0</ele><time>2026-03-27T13:20:33.705Z</time></trkpt><trkpt lat="43.2622629" lon="11.2743276"><ele>195.0</ele><time>2026-03-27T13:20:34.705Z</time></trkpt><trkpt lat="43.2622247" lon="11.2742042"><ele>195.0</ele><time>2026-03-27T13:20:35.706Z</time></trkpt><trkpt lat="43.2621867" lon="11.2740853"><ele>195.0</ele><time>2026-03-27T13:20:36.705Z</time></trkpt><trkpt lat="43.262151" lon="11.2739595"><ele>194.8</ele><time>2026-03-27T13:20:37.705Z</time></trkpt><trkpt lat="43.2621155" lon="11.2738316"><ele>194.6</ele><time>2026-03-27T13:20:38.705Z</time></trkpt><trkpt lat="43.2620766" lon="11.2737102"><ele>194.39999999999998</ele><time>2026-03-27T13:20:39.705Z</time></trkpt><trkpt lat="43.2620409" lon="11.2735871"><ele>194.2</ele><time>2026-03-27T13:20:40.705Z</time></trkpt><trkpt lat="43.2620071" lon="11.2734704"><ele>194.0</ele><time>2026-03-27T13:20:41.705Z</time></trkpt><trkpt lat="43.2619691" lon="11.2733525"><ele>194.0</ele><time>2026-03-27T13:20:42.705Z</time></trkpt><trkpt lat="43.2619383" lon="11.2732348"><ele>194.0</ele><time>2026-03-27T13:20:43.706Z</time></trkpt><trkpt lat="43.2619093" lon="11.2731134"><ele>194.0</ele><time>2026-03-27T13:20:44.705Z</time></trkpt><trkpt lat="43.2618841" lon="11.2729954"><ele>194.0</ele><time>2026-03-27T13:20:45.705Z</time></trkpt><trkpt lat="43.2618534" lon="11.2728812"><ele>194.0</ele><time>2026-03-27T13:20:46.705Z</time></trkpt><trkpt lat="43.2618342" lon="11.2727636"><ele>193.83333333333334</ele><time>2026-03-27T13:20:47.706Z</time></trkpt><trkpt lat="43.2618153" lon="11.2726451"><ele>193.66666666666669</ele><time>2026-03-27T13:20:48.705Z</time></trkpt><trkpt lat="43.2617951" lon="11.2725288"><ele>193.5</ele><time>2026-03-27T13:20:49.705Z</time></trkpt><trkpt lat="43.2617782" lon="11.27242"><ele>193.33333333333331</ele><time>2026-03-27T13:20:50.705Z</time></trkpt><trkpt lat="43.2617562" lon="11.272306"><ele>193.16666666666666</ele><time>2026-03-27T13:20:51.706Z</time></trkpt><trkpt lat="43.2617339" lon="11.2721906"><ele>193.0</ele><time>2026-03-27T13:20:52.705Z</time></trkpt><trkpt lat="43.2617147" lon="11.2720768"><ele>192.66666666666666</ele><time>2026-03-27T13:20:53.705Z</time></trkpt><trkpt lat="43.2616928" lon="11.2719661"><ele>192.33333333333331</ele><time>2026-03-27T13:20:54.705Z</time></trkpt><trkpt lat="43.2616747" lon="11.2718565"><ele>192.0</ele><time>2026-03-27T13:20:55.705Z</time></trkpt><trkpt lat="43.2616568" lon="11.2717483"><ele>191.66666666666666</ele><time>2026-03-27T13:20:56.705Z</time></trkpt><trkpt lat="43.261641" lon="11.2716407"><ele>191.33333333333331</ele><time>2026-03-27T13:20:57.705Z</time></trkpt><trkpt lat="43.2616259" lon="11.2715308"><ele>191.0</ele><time>2026-03-27T13:20:58.706Z</time></trkpt><trkpt lat="43.2616286" lon="11.2714191"><ele>190.83333333333331</ele><time>2026-03-27T13:20:59.705Z</time></trkpt><trkpt lat="43.2616446" lon="11.2712993"><ele>190.66666666666666</ele><time>2026-03-27T13:21:00.705Z</time></trkpt><trkpt lat="43.2616628" lon="11.2711825"><ele>190.5</ele><time>2026-03-27T13:21:01.705Z</time></trkpt><trkpt lat="43.2616776" lon="11.2710731"><ele>190.33333333333334</ele><time>2026-03-27T13:21:02.706Z</time></trkpt><trkpt lat="43.2616894" lon="11.2709676"><ele>190.16666666666669</ele><time>2026-03-27T13:21:03.705Z</time></trkpt><trkpt lat="43.261699" lon="11.2708655"><ele>190.0</ele><time>2026-03-27T13:21:04.705Z</time></trkpt><trkpt lat="43.2617129" lon="11.2707549"><ele>190.0</ele><time>2026-03-27T13:21:05.706Z</time></trkpt><trkpt lat="43.2617277" lon="11.2706583"><ele>190.0</ele><time>2026-03-27T13:21:06.705Z</time></trkpt><trkpt lat="43.2617412" lon="11.270558"><ele>190.0</ele><time>2026-03-27T13:21:07.706Z</time></trkpt><trkpt lat="43.2617503" lon="11.2704577"><ele>190.0</ele><time>2026-03-27T13:21:08.706Z</time></trkpt><trkpt lat="43.2617583" lon="11.2703649"><ele>190.0</ele><time>2026-03-27T13:21:09.705Z</time></trkpt><trkpt lat="43.261766" lon="11.2702727"><ele>190.0</ele><time>2026-03-27T13:21:10.705Z</time></trkpt><trkpt lat="43.2617806" lon="11.2701809"><ele>190.0</ele><time>2026-03-27T13:21:11.706Z</time></trkpt><trkpt lat="43.2617969" lon="11.2700919"><ele>190.28571428571428</ele><time>2026-03-27T13:21:12.706Z</time></trkpt><trkpt lat="43.261816" lon="11.2700074"><ele>190.57142857142858</ele><time>2026-03-27T13:21:13.706Z</time></trkpt><trkpt lat="43.2618407" lon="11.2699256"><ele>190.85714285714283</ele><time>2026-03-27T13:21:14.705Z</time></trkpt><trkpt lat="43.2618699" lon="11.26984"><ele>191.14285714285714</ele><time>2026-03-27T13:21:15.705Z</time></trkpt><trkpt lat="43.2619026" lon="11.2697538"><ele>191.42857142857142</ele><time>2026-03-27T13:21:16.705Z</time></trkpt><trkpt lat="43.261939" lon="11.2696696"><ele>191.7142857142857</ele><time>2026-03-27T13:21:17.705Z</time></trkpt><trkpt lat="43.2619794" lon="11.2695946"><ele>192.0</ele><time>2026-03-27T13:21:18.705Z</time></trkpt><trkpt lat="43.2620214" lon="11.2695197"><ele>192.14285714285714</ele><time>2026-03-27T13:21:19.705Z</time></trkpt><trkpt lat="43.2620603" lon="11.2694473"><ele>192.28571428571428</ele><time>2026-03-27T13:21:20.705Z</time></trkpt><trkpt lat="43.262096" lon="11.2693729"><ele>192.42857142857144</ele><time>2026-03-27T13:21:21.705Z</time></trkpt><trkpt lat="43.2621328" lon="11.2692949"><ele>192.57142857142856</ele><time>2026-03-27T13:21:22.705Z</time></trkpt><trkpt lat="43.2621687" lon="11.2692196"><ele>192.71428571428572</ele><time>2026-03-27T13:21:23.706Z</time></trkpt><trkpt lat="43.2622061" lon="11.2691478"><ele>192.85714285714286</ele><time>2026-03-27T13:21:24.705Z</time></trkpt><trkpt lat="43.2622478" lon="11.2690712"><ele>193.0</ele><time>2026-03-27T13:21:25.706Z</time></trkpt><trkpt lat="43.2623223" lon="11.2689256"><ele>193.14285714285717</ele><time>2026-03-27T13:21:27.705Z</time></trkpt><trkpt lat="43.2623627" lon="11.2688507"><ele>193.28571428571428</ele><time>2026-03-27T13:21:28.705Z</time></trkpt><trkpt lat="43.2624007" lon="11.2687721"><ele>193.42857142857144</ele><time>2026-03-27T13:21:29.705Z</time></trkpt><trkpt lat="43.2624387" lon="11.2686943"><ele>193.57142857142858</ele><time>2026-03-27T13:21:30.705Z</time></trkpt><trkpt lat="43.2624769" lon="11.2686103"><ele>193.71428571428572</ele><time>2026-03-27T13:21:31.706Z</time></trkpt><trkpt lat="43.262516" lon="11.2685336"><ele>193.85714285714286</ele><time>2026-03-27T13:21:32.705Z</time></trkpt><trkpt lat="43.2625552" lon="11.2684573"><ele>194.0</ele><time>2026-03-27T13:21:33.705Z</time></trkpt><trkpt lat="43.262594" lon="11.2683828"><ele>194.00000000000003</ele><time>2026-03-27T13:21:34.705Z</time></trkpt><trkpt lat="43.2626328" lon="11.2683048"><ele>194.0</ele><time>2026-03-27T13:21:35.706Z</time></trkpt><trkpt lat="43.2626697" lon="11.2682278"><ele>194.0</ele><time>2026-03-27T13:21:36.706Z</time></trkpt><trkpt lat="43.2627052" lon="11.2681537"><ele>194.0</ele><time>2026-03-27T13:21:37.705Z</time></trkpt><trkpt lat="43.2627799" lon="11.2680164"><ele>194.00000000000003</ele><time>2026-03-27T13:21:39.705Z</time></trkpt><trkpt lat="43.262852" lon="11.2678918"><ele>194.0</ele><time>2026-03-27T13:21:41.705Z</time></trkpt><trkpt lat="43.2629153" lon="11.2677703"><ele>194.2</ele><time>2026-03-27T13:21:43.705Z</time></trkpt><trkpt lat="43.2629778" lon="11.2676527"><ele>194.39999999999998</ele><time>2026-03-27T13:21:45.705Z</time></trkpt><trkpt lat="43.2630428" lon="11.2675333"><ele>194.6</ele><time>2026-03-27T13:21:47.705Z</time></trkpt><trkpt lat="43.2631017" lon="11.2674314"><ele>194.8</ele><time>2026-03-27T13:21:49.705Z</time></trkpt><trkpt lat="43.2631524" lon="11.2673462"><ele>195.0</ele><time>2026-03-27T13:21:51.706Z</time></trkpt><trkpt lat="43.2632016" lon="11.2672521"><ele>195.4</ele><time>2026-03-27T13:21:53.705Z</time></trkpt><trkpt lat="43.2632488" lon="11.267158"><ele>195.8</ele><time>2026-03-27T13:21:55.705Z</time></trkpt><trkpt lat="43.2633083" lon="11.2670547"><ele>196.2</ele><time>2026-03-27T13:21:57.706Z</time></trkpt><trkpt lat="43.2633602" lon="11.2669529"><ele>196.6</ele><time>2026-03-27T13:21:59.705Z</time></trkpt><trkpt lat="43.2634158" lon="11.2668431"><ele>197.0</ele><time>2026-03-27T13:22:01.706Z</time></trkpt><trkpt lat="43.263472" lon="11.2667302"><ele>197.0</ele><time>2026-03-27T13:22:03.705Z</time></trkpt><trkpt lat="43.2635269" lon="11.2666158"><ele>197.0</ele><time>2026-03-27T13:22:05.706Z</time></trkpt><trkpt lat="43.2635848" lon="11.2665002"><ele>197.0</ele><time>2026-03-27T13:22:07.705Z</time></trkpt><trkpt lat="43.2636483" lon="11.2663832"><ele>197.0</ele><time>2026-03-27T13:22:09.705Z</time></trkpt><trkpt lat="43.2637152" lon="11.2662743"><ele>197.0</ele><time>2026-03-27T13:22:11.705Z</time></trkpt><trkpt lat="43.263776" lon="11.2661556"><ele>197.2</ele><time>2026-03-27T13:22:13.706Z</time></trkpt><trkpt lat="43.2638343" lon="11.2660409"><ele>197.39999999999998</ele><time>2026-03-27T13:22:15.706Z</time></trkpt><trkpt lat="43.2638983" lon="11.2659154"><ele>197.60000000000002</ele><time>2026-03-27T13:22:17.705Z</time></trkpt><trkpt lat="43.263967" lon="11.265793"><ele>197.8</ele><time>2026-03-27T13:22:19.706Z</time></trkpt><trkpt lat="43.2640025" lon="11.2657188"><ele>198.0</ele><time>2026-03-27T13:22:20.705Z</time></trkpt><trkpt lat="43.2640409" lon="11.2656453"><ele>197.66666666666666</ele><time>2026-03-27T13:22:21.705Z</time></trkpt><trkpt lat="43.2640771" lon="11.2655717"><ele>197.33333333333331</ele><time>2026-03-27T13:22:22.705Z</time></trkpt><trkpt lat="43.2641153" lon="11.2655021"><ele>197.0</ele><time>2026-03-27T13:22:23.706Z</time></trkpt><trkpt lat="43.2641864" lon="11.2653593"><ele>196.66666666666666</ele><time>2026-03-27T13:22:25.705Z</time></trkpt><trkpt lat="43.2642262" lon="11.2652898"><ele>196.33333333333331</ele><time>2026-03-27T13:22:26.706Z</time></trkpt><trkpt lat="43.2642659" lon="11.265214"><ele>196.0</ele><time>2026-03-27T13:22:27.705Z</time></trkpt><trkpt lat="43.2643413" lon="11.2650712"><ele>196.0</ele><time>2026-03-27T13:22:29.706Z</time></trkpt><trkpt lat="43.2644178" lon="11.2649362"><ele>196.0</ele><time>2026-03-27T13:22:31.706Z</time></trkpt><trkpt lat="43.2644596" lon="11.2648694"><ele>196.0</ele><time>2026-03-27T13:22:32.705Z</time></trkpt><trkpt lat="43.2645256" lon="11.264729"><ele>196.0</ele><time>2026-03-27T13:22:34.706Z</time></trkpt><trkpt lat="43.2645857" lon="11.2645856"><ele>196.0</ele><time>2026-03-27T13:22:36.705Z</time></trkpt><trkpt lat="43.2646439" lon="11.2644374"><ele>195.75</ele><time>2026-03-27T13:22:38.705Z</time></trkpt><trkpt lat="43.2646869" lon="11.2642883"><ele>195.5</ele><time>2026-03-27T13:22:40.705Z</time></trkpt><trkpt lat="43.264737" lon="11.2641411"><ele>195.25</ele><time>2026-03-27T13:22:42.705Z</time></trkpt><trkpt lat="43.2647879" lon="11.263978"><ele>195.0</ele><time>2026-03-27T13:22:44.705Z</time></trkpt><trkpt lat="43.2648318" lon="11.2638285"><ele>195.6</ele><time>2026-03-27T13:22:46.705Z</time></trkpt><trkpt lat="43.264877" lon="11.2636802"><ele>196.2</ele><time>2026-03-27T13:22:48.705Z</time></trkpt><trkpt lat="43.2649145" lon="11.2635297"><ele>196.8</ele><time>2026-03-27T13:22:50.705Z</time></trkpt><trkpt lat="43.2649507" lon="11.263403"><ele>197.4</ele><time>2026-03-27T13:22:52.705Z</time></trkpt><trkpt lat="43.2649774" lon="11.2633008"><ele>198.0</ele><time>2026-03-27T13:22:54.706Z</time></trkpt><trkpt lat="43.2650052" lon="11.2631871"><ele>198.33333333333334</ele><time>2026-03-27T13:22:56.706Z</time></trkpt><trkpt lat="43.2650327" lon="11.2630551"><ele>198.66666666666669</ele><time>2026-03-27T13:22:58.705Z</time></trkpt><trkpt lat="43.2650636" lon="11.2629397"><ele>199.0</ele><time>2026-03-27T13:23:00.705Z</time></trkpt><trkpt lat="43.265094" lon="11.2628389"><ele>199.33333333333334</ele><time>2026-03-27T13:23:02.705Z</time></trkpt><trkpt lat="43.2651292" lon="11.2627262"><ele>199.66666666666669</ele><time>2026-03-27T13:23:04.705Z</time></trkpt><trkpt lat="43.2651604" lon="11.2626097"><ele>200.0</ele><time>2026-03-27T13:23:06.705Z</time></trkpt><trkpt lat="43.2651955" lon="11.2624817"><ele>200.0</ele><time>2026-03-27T13:23:08.705Z</time></trkpt><trkpt lat="43.2652278" lon="11.2623617"><ele>200.0</ele><time>2026-03-27T13:23:10.706Z</time></trkpt><trkpt lat="43.2652601" lon="11.262254"><ele>200.0</ele><time>2026-03-27T13:23:12.705Z</time></trkpt><trkpt lat="43.2652968" lon="11.2621298"><ele>200.0</ele><time>2026-03-27T13:23:14.706Z</time></trkpt><trkpt lat="43.2653403" lon="11.2620081"><ele>200.0</ele><time>2026-03-27T13:23:16.705Z</time></trkpt><trkpt lat="43.2653713" lon="11.2618925"><ele>200.50000000000003</ele><time>2026-03-27T13:23:18.705Z</time></trkpt><trkpt lat="43.2653947" lon="11.2617929"><ele>201.0</ele><time>2026-03-27T13:23:20.705Z</time></trkpt><trkpt lat="43.2654187" lon="11.2616975"><ele>201.5</ele><time>2026-03-27T13:23:22.706Z</time></trkpt><trkpt lat="43.2654432" lon="11.2615868"><ele>202.0</ele><time>2026-03-27T13:23:24.705Z</time></trkpt><trkpt lat="43.2654647" lon="11.261473"><ele>202.50000000000003</ele><time>2026-03-27T13:23:26.706Z</time></trkpt><trkpt lat="43.2654901" lon="11.2613486"><ele>203.0</ele><time>2026-03-27T13:23:28.706Z</time></trkpt><trkpt lat="43.2655176" lon="11.2612444"><ele>203.50000000000003</ele><time>2026-03-27T13:23:30.706Z</time></trkpt><trkpt lat="43.2655461" lon="11.2611472"><ele>204.0</ele><time>2026-03-27T13:23:32.705Z</time></trkpt><trkpt lat="43.2655731" lon="11.261037"><ele>204.5</ele><time>2026-03-27T13:23:34.705Z</time></trkpt><trkpt lat="43.2655908" lon="11.2609279"><ele>205.0</ele><time>2026-03-27T13:23:36.705Z</time></trkpt><trkpt lat="43.2656131" lon="11.260815"><ele>205.50000000000003</ele><time>2026-03-27T13:23:38.705Z</time></trkpt><trkpt lat="43.2656336" lon="11.2607147"><ele>206.0</ele><time>2026-03-27T13:23:40.706Z</time></trkpt><trkpt lat="43.2656666" lon="11.2606022"><ele>206.66666666666669</ele><time>2026-03-27T13:23:42.705Z</time></trkpt><trkpt lat="43.2657001" lon="11.2604854"><ele>207.33333333333334</ele><time>2026-03-27T13:23:44.705Z</time></trkpt><trkpt lat="43.2657345" lon="11.2603742"><ele>208.0</ele><time>2026-03-27T13:23:46.706Z</time></trkpt><trkpt lat="43.2657606" lon="11.2602548"><ele>208.66666666666669</ele><time>2026-03-27T13:23:48.705Z</time></trkpt><trkpt lat="43.2657887" lon="11.2601452"><ele>209.33333333333334</ele><time>2026-03-27T13:23:50.705Z</time></trkpt><trkpt lat="43.2658166" lon="11.2600362"><ele>210.0</ele><time>2026-03-27T13:23:52.706Z</time></trkpt><trkpt lat="43.2658498" lon="11.2599298"><ele>210.0</ele><time>2026-03-27T13:23:54.705Z</time></trkpt><trkpt lat="43.2658885" lon="11.2598156"><ele>210.0</ele><time>2026-03-27T13:23:56.706Z</time></trkpt><trkpt lat="43.2659341" lon="11.2597088"><ele>210.0</ele><time>2026-03-27T13:23:58.705Z</time></trkpt><trkpt lat="43.2659821" lon="11.2596031"><ele>210.0</ele><time>2026-03-27T13:24:00.705Z</time></trkpt><trkpt lat="43.2660385" lon="11.2594962"><ele>210.0</ele><time>2026-03-27T13:24:02.705Z</time></trkpt><trkpt lat="43.2661025" lon="11.2593938"><ele>209.8</ele><time>2026-03-27T13:24:04.706Z</time></trkpt><trkpt lat="43.2661613" lon="11.2592889"><ele>209.6</ele><time>2026-03-27T13:24:06.706Z</time></trkpt><trkpt lat="43.2662373" lon="11.2591993"><ele>209.39999999999998</ele><time>2026-03-27T13:24:08.705Z</time></trkpt><trkpt lat="43.2663158" lon="11.2590972"><ele>209.2</ele><time>2026-03-27T13:24:10.706Z</time></trkpt><trkpt lat="43.266393" lon="11.2590043"><ele>209.0</ele><time>2026-03-27T13:24:12.705Z</time></trkpt><trkpt lat="43.266465" lon="11.2589243"><ele>208.39999999999998</ele><time>2026-03-27T13:24:14.705Z</time></trkpt><trkpt lat="43.2665309" lon="11.2588383"><ele>207.8</ele><time>2026-03-27T13:24:16.706Z</time></trkpt><trkpt lat="43.2665918" lon="11.2587635"><ele>207.2</ele><time>2026-03-27T13:24:18.705Z</time></trkpt><trkpt lat="43.2666547" lon="11.2586737"><ele>206.60000000000002</ele><time>2026-03-27T13:24:20.706Z</time></trkpt><trkpt lat="43.2667171" lon="11.2585825"><ele>206.0</ele><time>2026-03-27T13:24:22.706Z</time></trkpt><trkpt lat="43.266784" lon="11.2584729"><ele>206.0</ele><time>2026-03-27T13:24:24.705Z</time></trkpt><trkpt lat="43.2668595" lon="11.2583724"><ele>206.0</ele><time>2026-03-27T13:24:26.705Z</time></trkpt><trkpt lat="43.2669406" lon="11.2582681"><ele>206.0</ele><time>2026-03-27T13:24:28.706Z</time></trkpt><trkpt lat="43.2670277" lon="11.2581596"><ele>206.0</ele><time>2026-03-27T13:24:30.705Z</time></trkpt><trkpt lat="43.2671068" lon="11.2580604"><ele>206.0</ele><time>2026-03-27T13:24:32.706Z</time></trkpt><trkpt lat="43.2671881" lon="11.2579673"><ele>206.0</ele><time>2026-03-27T13:24:34.705Z</time></trkpt><trkpt lat="43.2672696" lon="11.2578601"><ele>206.0</ele><time>2026-03-27T13:24:36.706Z</time></trkpt><trkpt lat="43.2673361" lon="11.2577263"><ele>206.0</ele><time>2026-03-27T13:24:38.706Z</time></trkpt><trkpt lat="43.2673654" lon="11.2575883"><ele>206.0</ele><time>2026-03-27T13:24:40.705Z</time></trkpt><trkpt lat="43.2673655" lon="11.2574401"><ele>206.0</ele><time>2026-03-27T13:24:42.706Z</time></trkpt><trkpt lat="43.2673859" lon="11.2572909"><ele>206.20000000000002</ele><time>2026-03-27T13:24:44.706Z</time></trkpt><trkpt lat="43.2674328" lon="11.2571451"><ele>206.4</ele><time>2026-03-27T13:24:46.705Z</time></trkpt><trkpt lat="43.2674831" lon="11.2570062"><ele>206.6</ele><time>2026-03-27T13:24:48.705Z</time></trkpt><trkpt lat="43.2675311" lon="11.2568647"><ele>206.8</ele><time>2026-03-27T13:24:50.706Z</time></trkpt><trkpt lat="43.2675729" lon="11.2567332"><ele>207.0</ele><time>2026-03-27T13:24:52.705Z</time></trkpt><trkpt lat="43.2676193" lon="11.2566146"><ele>207.0</ele><time>2026-03-27T13:24:54.705Z</time></trkpt><trkpt lat="43.2676646" lon="11.2564969"><ele>207.0</ele><time>2026-03-27T13:24:56.705Z</time></trkpt><trkpt lat="43.2677137" lon="11.2563892"><ele>207.0</ele><time>2026-03-27T13:24:58.706Z</time></trkpt><trkpt lat="43.2677701" lon="11.2562827"><ele>207.0</ele><time>2026-03-27T13:25:00.705Z</time></trkpt><trkpt lat="43.2678192" lon="11.2561847"><ele>207.0</ele><time>2026-03-27T13:25:02.705Z</time></trkpt><trkpt lat="43.267871" lon="11.256084"><ele>207.16666666666666</ele><time>2026-03-27T13:25:04.705Z</time></trkpt><trkpt lat="43.2679256" lon="11.2559812"><ele>207.33333333333331</ele><time>2026-03-27T13:25:06.705Z</time></trkpt><trkpt lat="43.2679769" lon="11.2558824"><ele>207.5</ele><time>2026-03-27T13:25:08.705Z</time></trkpt><trkpt lat="43.2680215" lon="11.2557855"><ele>207.66666666666666</ele><time>2026-03-27T13:25:10.705Z</time></trkpt><trkpt lat="43.2680658" lon="11.2556939"><ele>207.83333333333331</ele><time>2026-03-27T13:25:12.705Z</time></trkpt><trkpt lat="43.2681117" lon="11.2556043"><ele>208.0</ele><time>2026-03-27T13:25:14.705Z</time></trkpt><trkpt lat="43.2681571" lon="11.2555179"><ele>209.14285714285714</ele><time>2026-03-27T13:25:16.706Z</time></trkpt><trkpt lat="43.2681971" lon="11.2554354"><ele>210.2857142857143</ele><time>2026-03-27T13:25:18.706Z</time></trkpt><trkpt lat="43.2682327" lon="11.2553482"><ele>211.42857142857144</ele><time>2026-03-27T13:25:20.705Z</time></trkpt><trkpt lat="43.2682719" lon="11.2552689"><ele>212.57142857142856</ele><time>2026-03-27T13:25:22.705Z</time></trkpt><trkpt lat="43.2683069" lon="11.2551962"><ele>213.71428571428572</ele><time>2026-03-27T13:25:24.705Z</time></trkpt><trkpt lat="43.2683451" lon="11.2551259"><ele>214.85714285714286</ele><time>2026-03-27T13:25:26.705Z</time></trkpt><trkpt lat="43.2683886" lon="11.2550497"><ele>216.0</ele><time>2026-03-27T13:25:28.706Z</time></trkpt><trkpt lat="43.2684285" lon="11.2549692"><ele>216.0</ele><time>2026-03-27T13:25:30.705Z</time></trkpt><trkpt lat="43.2684625" lon="11.2548894"><ele>216.0</ele><time>2026-03-27T13:25:32.705Z</time></trkpt><trkpt lat="43.2685232" lon="11.2548019"><ele>216.0</ele><time>2026-03-27T13:25:35.705Z</time></trkpt><trkpt lat="43.2685775" lon="11.254724"><ele>216.0</ele><time>2026-03-27T13:25:38.705Z</time></trkpt><trkpt lat="43.2686262" lon="11.2546457"><ele>216.0</ele><time>2026-03-27T13:25:41.706Z</time></trkpt><trkpt lat="43.2686739" lon="11.254557"><ele>216.0</ele><time>2026-03-27T13:25:44.705Z</time></trkpt><trkpt lat="43.2687166" lon="11.2544592"><ele>216.33333333333334</ele><time>2026-03-27T13:25:47.705Z</time></trkpt><trkpt lat="43.2687692" lon="11.2544107"><ele>216.66666666666669</ele><time>2026-03-27T13:25:49.705Z</time></trkpt><trkpt lat="43.2688442" lon="11.2543343"><ele>217.0</ele><time>2026-03-27T13:25:52.705Z</time></trkpt><trkpt lat="43.2689161" lon="11.254255"><ele>217.33333333333334</ele><time>2026-03-27T13:25:55.706Z</time></trkpt><trkpt lat="43.2689748" lon="11.2541555"><ele>217.66666666666669</ele><time>2026-03-27T13:25:58.705Z</time></trkpt><trkpt lat="43.2690033" lon="11.2540736"><ele>218.0</ele><time>2026-03-27T13:26:00.706Z</time></trkpt><trkpt lat="43.2690164" lon="11.2539746"><ele>219.00000000000003</ele><time>2026-03-27T13:26:02.705Z</time></trkpt><trkpt lat="43.2690159" lon="11.253871"><ele>220.0</ele><time>2026-03-27T13:26:04.705Z</time></trkpt><trkpt lat="43.2690643" lon="11.2538111"><ele>221.0</ele><time>2026-03-27T13:26:05.705Z</time></trkpt><trkpt lat="43.2690753" lon="11.2537148"><ele>222.0</ele><time>2026-03-27T13:26:07.705Z</time></trkpt><trkpt lat="43.2691437" lon="11.2536351"><ele>223.00000000000003</ele><time>2026-03-27T13:26:09.705Z</time></trkpt><trkpt lat="43.2691581" lon="11.2535294"><ele>224.0</ele><time>2026-03-27T13:26:11.706Z</time></trkpt><trkpt lat="43.2690806" lon="11.253388"><ele>224.0</ele><time>2026-03-27T13:26:13.705Z</time></trkpt><trkpt lat="43.2690924" lon="11.2532838"><ele>224.0</ele><time>2026-03-27T13:26:15.706Z</time></trkpt><trkpt lat="43.2690916" lon="11.2531776"><ele>224.0</ele><time>2026-03-27T13:26:17.705Z</time></trkpt><trkpt lat="43.2691016" lon="11.2530763"><ele>224.0</ele><time>2026-03-27T13:26:19.705Z</time></trkpt><trkpt lat="43.2691217" lon="11.2529781"><ele>224.0</ele><time>2026-03-27T13:26:21.705Z</time></trkpt><trkpt lat="43.2691641" lon="11.2528978"><ele>224.0</ele><time>2026-03-27T13:26:23.705Z</time></trkpt><trkpt lat="43.2692019" lon="11.2528143"><ele>224.0</ele><time>2026-03-27T13:26:25.705Z</time></trkpt><trkpt lat="43.2692396" lon="11.2527384"><ele>224.0</ele><time>2026-03-27T13:26:27.705Z</time></trkpt><trkpt lat="43.2692891" lon="11.2526768"><ele>224.0</ele><time>2026-03-27T13:26:29.706Z</time></trkpt><trkpt lat="43.2693431" lon="11.2526294"><ele>224.0</ele><time>2026-03-27T13:26:32.705Z</time></trkpt><trkpt lat="43.2694032" lon="11.2525903"><ele>224.0</ele><time>2026-03-27T13:26:35.705Z</time></trkpt><trkpt lat="43.2694789" lon="11.2525609"><ele>224.0</ele><time>2026-03-27T13:26:38.706Z</time></trkpt><trkpt lat="43.2695626" lon="11.2525186"><ele>224.0</ele><time>2026-03-27T13:26:41.706Z</time></trkpt><trkpt lat="43.2696285" lon="11.252496"><ele>224.0</ele><time>2026-03-27T13:26:43.706Z</time></trkpt><trkpt lat="43.2696993" lon="11.2524735"><ele>223.83333333333334</ele><time>2026-03-27T13:26:45.705Z</time></trkpt><trkpt lat="43.269779" lon="11.2524642"><ele>223.66666666666669</ele><time>2026-03-27T13:26:47.706Z</time></trkpt><trkpt lat="43.2698693" lon="11.2524464"><ele>223.5</ele><time>2026-03-27T13:26:49.706Z</time></trkpt><trkpt lat="43.2699617" lon="11.2524288"><ele>223.33333333333331</ele><time>2026-03-27T13:26:51.706Z</time></trkpt><trkpt lat="43.2700531" lon="11.2524056"><ele>223.16666666666666</ele><time>2026-03-27T13:26:53.706Z</time></trkpt><trkpt lat="43.2701119" lon="11.2523565"><ele>223.0</ele><time>2026-03-27T13:26:56.705Z</time></trkpt><trkpt lat="43.2701826" lon="11.2523457"><ele>222.49999999999997</ele><time>2026-03-27T13:27:03.706Z</time></trkpt><trkpt lat="43.2701688" lon="11.2522472"><ele>222.0</ele><time>2026-03-27T13:27:06.705Z</time></trkpt><trkpt lat="43.2701518" lon="11.2521338"><ele>221.5</ele><time>2026-03-27T13:27:09.705Z</time></trkpt><trkpt lat="43.2701444" lon="11.2520372"><ele>221.0</ele><time>2026-03-27T13:27:11.706Z</time></trkpt><trkpt lat="43.2701285" lon="11.2519298"><ele>220.49999999999997</ele><time>2026-03-27T13:27:13.706Z</time></trkpt><trkpt lat="43.2701133" lon="11.2518092"><ele>220.0</ele><time>2026-03-27T13:27:15.705Z</time></trkpt><trkpt lat="43.2701148" lon="11.2516619"><ele>220.0</ele><time>2026-03-27T13:27:17.705Z</time></trkpt><trkpt lat="43.2701003" lon="11.2515236"><ele>220.0</ele><time>2026-03-27T13:27:19.706Z</time></trkpt><trkpt lat="43.2700969" lon="11.2513688"><ele>220.0</ele><time>2026-03-27T13:27:21.705Z</time></trkpt><trkpt lat="43.2700996" lon="11.2512152"><ele>220.0</ele><time>2026-03-27T13:27:23.705Z</time></trkpt><trkpt lat="43.2701162" lon="11.2510546"><ele>220.0</ele><time>2026-03-27T13:27:25.705Z</time></trkpt><trkpt lat="43.2701502" lon="11.2508967"><ele>219.16666666666666</ele><time>2026-03-27T13:27:27.706Z</time></trkpt><trkpt lat="43.2702104" lon="11.2507463"><ele>218.33333333333331</ele><time>2026-03-27T13:27:29.706Z</time></trkpt><trkpt lat="43.2702484" lon="11.2506723"><ele>217.5</ele><time>2026-03-27T13:27:30.705Z</time></trkpt><trkpt lat="43.2702927" lon="11.2505919"><ele>216.66666666666669</ele><time>2026-03-27T13:27:31.705Z</time></trkpt><trkpt lat="43.2703429" lon="11.2505187"><ele>215.83333333333334</ele><time>2026-03-27T13:27:32.705Z</time></trkpt><trkpt lat="43.2703946" lon="11.2504458"><ele>215.0</ele><time>2026-03-27T13:27:33.706Z</time></trkpt><trkpt lat="43.2704486" lon="11.2503739"><ele>214.83333333333334</ele><time>2026-03-27T13:27:34.705Z</time></trkpt><trkpt lat="43.2705055" lon="11.2503029"><ele>214.66666666666669</ele><time>2026-03-27T13:27:35.705Z</time></trkpt><trkpt lat="43.2705647" lon="11.2502346"><ele>214.5</ele><time>2026-03-27T13:27:36.705Z</time></trkpt><trkpt lat="43.2706241" lon="11.250162"><ele>214.33333333333331</ele><time>2026-03-27T13:27:37.705Z</time></trkpt><trkpt lat="43.2706827" lon="11.250095"><ele>214.16666666666666</ele><time>2026-03-27T13:27:38.706Z</time></trkpt><trkpt lat="43.2707423" lon="11.2500262"><ele>214.0</ele><time>2026-03-27T13:27:39.705Z</time></trkpt><trkpt lat="43.2707941" lon="11.2499537"><ele>214.00000000000003</ele><time>2026-03-27T13:27:40.705Z</time></trkpt><trkpt lat="43.2708518" lon="11.249897"><ele>214.0</ele><time>2026-03-27T13:27:41.705Z</time></trkpt><trkpt lat="43.2709051" lon="11.2498438"><ele>214.0</ele><time>2026-03-27T13:27:42.705Z</time></trkpt><trkpt lat="43.2709582" lon="11.2497918"><ele>214.0</ele><time>2026-03-27T13:27:43.705Z</time></trkpt><trkpt lat="43.2710104" lon="11.2497348"><ele>214.0</ele><time>2026-03-27T13:27:44.705Z</time></trkpt><trkpt lat="43.2710677" lon="11.2496785"><ele>214.00000000000003</ele><time>2026-03-27T13:27:45.705Z</time></trkpt><trkpt lat="43.2711167" lon="11.2496205"><ele>214.0</ele><time>2026-03-27T13:27:46.705Z</time></trkpt><trkpt lat="43.2711656" lon="11.2495603"><ele>214.00000000000003</ele><time>2026-03-27T13:27:47.706Z</time></trkpt><trkpt lat="43.2712193" lon="11.249498"><ele>214.0</ele><time>2026-03-27T13:27:48.705Z</time></trkpt><trkpt lat="43.2712704" lon="11.2494417"><ele>214.0</ele><time>2026-03-27T13:27:49.705Z</time></trkpt><trkpt lat="43.2713231" lon="11.2493804"><ele>214.0</ele><time>2026-03-27T13:27:50.705Z</time></trkpt><trkpt lat="43.2713721" lon="11.249323"><ele>214.0</ele><time>2026-03-27T13:27:51.705Z</time></trkpt><trkpt lat="43.2714244" lon="11.2492625"><ele>214.00000000000003</ele><time>2026-03-27T13:27:52.705Z</time></trkpt><trkpt lat="43.2714745" lon="11.2491958"><ele>214.0</ele><time>2026-03-27T13:27:53.706Z</time></trkpt><trkpt lat="43.2715256" lon="11.2491334"><ele>214.00000000000003</ele><time>2026-03-27T13:27:54.705Z</time></trkpt><trkpt lat="43.2715791" lon="11.249072"><ele>214.0</ele><time>2026-03-27T13:27:55.705Z</time></trkpt><trkpt lat="43.2716375" lon="11.2490046"><ele>214.0</ele><time>2026-03-27T13:27:56.706Z</time></trkpt><trkpt lat="43.2716918" lon="11.2489439"><ele>214.0</ele><time>2026-03-27T13:27:57.705Z</time></trkpt><trkpt lat="43.2717468" lon="11.2488803"><ele>214.0</ele><time>2026-03-27T13:27:58.705Z</time></trkpt><trkpt lat="43.2718058" lon="11.2488155"><ele>214.00000000000003</ele><time>2026-03-27T13:27:59.705Z</time></trkpt><trkpt lat="43.271865" lon="11.2487379"><ele>214.0</ele><time>2026-03-27T13:28:00.705Z</time></trkpt><trkpt lat="43.2719222" lon="11.2486688"><ele>213.00000000000003</ele><time>2026-03-27T13:28:01.706Z</time></trkpt><trkpt lat="43.2719828" lon="11.2486061"><ele>212.0</ele><time>2026-03-27T13:28:02.705Z</time></trkpt><trkpt lat="43.2720451" lon="11.2485337"><ele>211.0</ele><time>2026-03-27T13:28:03.705Z</time></trkpt><trkpt lat="43.2721019" lon="11.2484689"><ele>210.0</ele><time>2026-03-27T13:28:04.706Z</time></trkpt><trkpt lat="43.2721638" lon="11.2484136"><ele>209.0</ele><time>2026-03-27T13:28:05.705Z</time></trkpt><trkpt lat="43.2722231" lon="11.2483639"><ele>208.00000000000003</ele><time>2026-03-27T13:28:06.706Z</time></trkpt><trkpt lat="43.2722795" lon="11.2483237"><ele>207.0</ele><time>2026-03-27T13:28:07.705Z</time></trkpt><trkpt lat="43.272371" lon="11.2482476"><ele>206.66666666666666</ele><time>2026-03-27T13:28:09.705Z</time></trkpt><trkpt lat="43.2724279" lon="11.248185"><ele>206.33333333333331</ele><time>2026-03-27T13:28:11.705Z</time></trkpt><trkpt lat="43.2724904" lon="11.2481304"><ele>206.0</ele><time>2026-03-27T13:28:17.705Z</time></trkpt><trkpt lat="43.272545" lon="11.2480465"><ele>205.66666666666666</ele><time>2026-03-27T13:28:20.705Z</time></trkpt><trkpt lat="43.2726006" lon="11.2479795"><ele>205.33333333333331</ele><time>2026-03-27T13:28:22.706Z</time></trkpt><trkpt lat="43.2726614" lon="11.2479051"><ele>205.0</ele><time>2026-03-27T13:28:24.706Z</time></trkpt><trkpt lat="43.2727159" lon="11.2478173"><ele>204.4</ele><time>2026-03-27T13:28:26.706Z</time></trkpt><trkpt lat="43.272782" lon="11.2477177"><ele>203.8</ele><time>2026-03-27T13:28:28.705Z</time></trkpt><trkpt lat="43.272856" lon="11.2476236"><ele>203.2</ele><time>2026-03-27T13:28:30.705Z</time></trkpt><trkpt lat="43.2729385" lon="11.2475538"><ele>202.6</ele><time>2026-03-27T13:28:32.706Z</time></trkpt><trkpt lat="43.2730228" lon="11.2474738"><ele>202.0</ele><time>2026-03-27T13:28:34.706Z</time></trkpt><trkpt lat="43.2731095" lon="11.2473927"><ele>202.0</ele><time>2026-03-27T13:28:36.705Z</time></trkpt><trkpt lat="43.273203" lon="11.2473377"><ele>202.0</ele><time>2026-03-27T13:28:38.705Z</time></trkpt><trkpt lat="43.2732907" lon="11.2472748"><ele>202.0</ele><time>2026-03-27T13:28:40.705Z</time></trkpt><trkpt lat="43.2733894" lon="11.2472177"><ele>202.0</ele><time>2026-03-27T13:28:42.705Z</time></trkpt><trkpt lat="43.2734824" lon="11.2471595"><ele>202.0</ele><time>2026-03-27T13:28:44.705Z</time></trkpt><trkpt lat="43.2735754" lon="11.2470965"><ele>201.8</ele><time>2026-03-27T13:28:46.705Z</time></trkpt><trkpt lat="43.2736708" lon="11.2470491"><ele>201.6</ele><time>2026-03-27T13:28:48.705Z</time></trkpt><trkpt lat="43.2737606" lon="11.247004"><ele>201.4</ele><time>2026-03-27T13:28:50.705Z</time></trkpt><trkpt lat="43.2738524" lon="11.2469493"><ele>201.20000000000002</ele><time>2026-03-27T13:28:52.705Z</time></trkpt><trkpt lat="43.2739404" lon="11.2468997"><ele>201.0</ele><time>2026-03-27T13:28:54.706Z</time></trkpt><trkpt lat="43.2740251" lon="11.246857"><ele>201.60000000000002</ele><time>2026-03-27T13:28:56.706Z</time></trkpt><trkpt lat="43.2741105" lon="11.2468"><ele>202.2</ele><time>2026-03-27T13:28:58.705Z</time></trkpt><trkpt lat="43.2742073" lon="11.2467458"><ele>202.8</ele><time>2026-03-27T13:29:00.706Z</time></trkpt><trkpt lat="43.2743099" lon="11.2466871"><ele>203.39999999999998</ele><time>2026-03-27T13:29:02.706Z</time></trkpt><trkpt lat="43.2744126" lon="11.2466255"><ele>204.0</ele><time>2026-03-27T13:29:04.705Z</time></trkpt><trkpt lat="43.2745226" lon="11.246563"><ele>204.0</ele><time>2026-03-27T13:29:06.705Z</time></trkpt><trkpt lat="43.274623" lon="11.2465172"><ele>204.0</ele><time>2026-03-27T13:29:08.705Z</time></trkpt><trkpt lat="43.2747195" lon="11.2464589"><ele>204.0</ele><time>2026-03-27T13:29:10.705Z</time></trkpt><trkpt lat="43.274817" lon="11.2464008"><ele>204.0</ele><time>2026-03-27T13:29:12.706Z</time></trkpt><trkpt lat="43.2749159" lon="11.2463526"><ele>204.0</ele><time>2026-03-27T13:29:14.705Z</time></trkpt><trkpt lat="43.2750107" lon="11.2462982"><ele>204.39999999999998</ele><time>2026-03-27T13:29:16.705Z</time></trkpt><trkpt lat="43.2751002" lon="11.2462418"><ele>204.8</ele><time>2026-03-27T13:29:18.705Z</time></trkpt><trkpt lat="43.2751863" lon="11.2461736"><ele>205.2</ele><time>2026-03-27T13:29:20.705Z</time></trkpt><trkpt lat="43.2752759" lon="11.2461106"><ele>205.60000000000002</ele><time>2026-03-27T13:29:22.706Z</time></trkpt><trkpt lat="43.2753635" lon="11.2460262"><ele>206.0</ele><time>2026-03-27T13:29:24.705Z</time></trkpt><trkpt lat="43.2754379" lon="11.2459403"><ele>206.0</ele><time>2026-03-27T13:29:26.706Z</time></trkpt><trkpt lat="43.2755077" lon="11.2458314"><ele>206.0</ele><time>2026-03-27T13:29:28.706Z</time></trkpt><trkpt lat="43.2755663" lon="11.2457176"><ele>206.0</ele><time>2026-03-27T13:29:30.705Z</time></trkpt><trkpt lat="43.2756177" lon="11.2455928"><ele>206.0</ele><time>2026-03-27T13:29:32.705Z</time></trkpt><trkpt lat="43.275665" lon="11.2454726"><ele>206.0</ele><time>2026-03-27T13:29:34.705Z</time></trkpt><trkpt lat="43.2757102" lon="11.2453495"><ele>206.4</ele><time>2026-03-27T13:29:36.706Z</time></trkpt><trkpt lat="43.2757577" lon="11.2452183"><ele>206.8</ele><time>2026-03-27T13:29:38.706Z</time></trkpt><trkpt lat="43.275807" lon="11.2450878"><ele>207.20000000000002</ele><time>2026-03-27T13:29:40.706Z</time></trkpt><trkpt lat="43.2758539" lon="11.2449614"><ele>207.60000000000002</ele><time>2026-03-27T13:29:42.705Z</time></trkpt><trkpt lat="43.2758935" lon="11.2448304"><ele>208.0</ele><time>2026-03-27T13:29:44.705Z</time></trkpt><trkpt lat="43.2759437" lon="11.2447099"><ele>208.2</ele><time>2026-03-27T13:29:46.705Z</time></trkpt><trkpt lat="43.2759892" lon="11.2445814"><ele>208.4</ele><time>2026-03-27T13:29:48.705Z</time></trkpt><trkpt lat="43.2760373" lon="11.2444621"><ele>208.6</ele><time>2026-03-27T13:29:50.705Z</time></trkpt><trkpt lat="43.2760858" lon="11.2443407"><ele>208.79999999999998</ele><time>2026-03-27T13:29:52.705Z</time></trkpt><trkpt lat="43.2761452" lon="11.2442275"><ele>209.0</ele><time>2026-03-27T13:29:54.705Z</time></trkpt><trkpt lat="43.2762115" lon="11.2441117"><ele>209.0</ele><time>2026-03-27T13:29:56.705Z</time></trkpt><trkpt lat="43.2762829" lon="11.2440066"><ele>209.0</ele><time>2026-03-27T13:29:58.705Z</time></trkpt><trkpt lat="43.2763613" lon="11.243908"><ele>209.0</ele><time>2026-03-27T13:30:00.706Z</time></trkpt><trkpt lat="43.2764447" lon="11.2438239"><ele>209.0</ele><time>2026-03-27T13:30:02.706Z</time></trkpt><trkpt lat="43.2765305" lon="11.2437621"><ele>209.0</ele><time>2026-03-27T13:30:04.706Z</time></trkpt><trkpt lat="43.2766159" lon="11.2437096"><ele>209.79999999999998</ele><time>2026-03-27T13:30:06.705Z</time></trkpt><trkpt lat="43.2767011" lon="11.2436565"><ele>210.6</ele><time>2026-03-27T13:30:08.705Z</time></trkpt><trkpt lat="43.2767877" lon="11.2435907"><ele>211.4</ele><time>2026-03-27T13:30:10.706Z</time></trkpt><trkpt lat="43.2768754" lon="11.2435237"><ele>212.2</ele><time>2026-03-27T13:30:12.706Z</time></trkpt><trkpt lat="43.2769583" lon="11.2434701"><ele>213.0</ele><time>2026-03-27T13:30:14.706Z</time></trkpt><trkpt lat="43.2770498" lon="11.2433956"><ele>213.0</ele><time>2026-03-27T13:30:16.705Z</time></trkpt><trkpt lat="43.2771455" lon="11.2433352"><ele>213.0</ele><time>2026-03-27T13:30:18.705Z</time></trkpt><trkpt lat="43.2772347" lon="11.2432649"><ele>213.0</ele><time>2026-03-27T13:30:20.705Z</time></trkpt><trkpt lat="43.2773231" lon="11.2431893"><ele>213.0</ele><time>2026-03-27T13:30:22.705Z</time></trkpt><trkpt lat="43.2774067" lon="11.2431203"><ele>213.0</ele><time>2026-03-27T13:30:24.705Z</time></trkpt><trkpt lat="43.2774946" lon="11.2430492"><ele>212.66666666666666</ele><time>2026-03-27T13:30:26.705Z</time></trkpt><trkpt lat="43.2775909" lon="11.2429592"><ele>212.33333333333331</ele><time>2026-03-27T13:30:28.706Z</time></trkpt><trkpt lat="43.2776975" lon="11.2428827"><ele>212.0</ele><time>2026-03-27T13:30:30.705Z</time></trkpt><trkpt lat="43.2777532" lon="11.2428422"><ele>211.66666666666666</ele><time>2026-03-27T13:30:31.706Z</time></trkpt><trkpt lat="43.2778135" lon="11.2428019"><ele>211.33333333333331</ele><time>2026-03-27T13:30:32.705Z</time></trkpt><trkpt lat="43.2778722" lon="11.2427632"><ele>211.0</ele><time>2026-03-27T13:30:33.705Z</time></trkpt><trkpt lat="43.2779315" lon="11.2427166"><ele>211.0</ele><time>2026-03-27T13:30:34.705Z</time></trkpt><trkpt lat="43.2779945" lon="11.2426703"><ele>211.0</ele><time>2026-03-27T13:30:35.705Z</time></trkpt><trkpt lat="43.2780595" lon="11.2426202"><ele>211.0</ele><time>2026-03-27T13:30:36.705Z</time></trkpt><trkpt lat="43.2781233" lon="11.2425731"><ele>211.0</ele><time>2026-03-27T13:30:37.706Z</time></trkpt><trkpt lat="43.2781939" lon="11.2425353"><ele>211.0</ele><time>2026-03-27T13:30:38.706Z</time></trkpt><trkpt lat="43.2782596" lon="11.2424948"><ele>211.0</ele><time>2026-03-27T13:30:39.705Z</time></trkpt><trkpt lat="43.278326" lon="11.2424481"><ele>211.0</ele><time>2026-03-27T13:30:40.705Z</time></trkpt><trkpt lat="43.2783953" lon="11.2423973"><ele>209.99999999999997</ele><time>2026-03-27T13:30:41.706Z</time></trkpt><trkpt lat="43.278464" lon="11.2423491"><ele>209.0</ele><time>2026-03-27T13:30:42.705Z</time></trkpt><trkpt lat="43.2785318" lon="11.2423046"><ele>208.0</ele><time>2026-03-27T13:30:43.706Z</time></trkpt><trkpt lat="43.2785987" lon="11.2422539"><ele>207.0</ele><time>2026-03-27T13:30:44.705Z</time></trkpt><trkpt lat="43.278668" lon="11.2422055"><ele>205.99999999999997</ele><time>2026-03-27T13:30:45.705Z</time></trkpt><trkpt lat="43.2787389" lon="11.2421542"><ele>205.0</ele><time>2026-03-27T13:30:46.705Z</time></trkpt><trkpt lat="43.2788084" lon="11.2421143"><ele>204.66666666666666</ele><time>2026-03-27T13:30:47.705Z</time></trkpt><trkpt lat="43.2788769" lon="11.2420625"><ele>204.33333333333331</ele><time>2026-03-27T13:30:48.705Z</time></trkpt><trkpt lat="43.2789481" lon="11.242014"><ele>204.0</ele><time>2026-03-27T13:30:49.705Z</time></trkpt><trkpt lat="43.2790154" lon="11.2419679"><ele>203.66666666666669</ele><time>2026-03-27T13:30:50.706Z</time></trkpt><trkpt lat="43.2790853" lon="11.2419164"><ele>203.33333333333334</ele><time>2026-03-27T13:30:51.706Z</time></trkpt><trkpt lat="43.2791544" lon="11.2418697"><ele>203.0</ele><time>2026-03-27T13:30:52.705Z</time></trkpt><trkpt lat="43.2792234" lon="11.2418208"><ele>203.00000000000003</ele><time>2026-03-27T13:30:53.705Z</time></trkpt><trkpt lat="43.2792919" lon="11.2417714"><ele>203.0</ele><time>2026-03-27T13:30:54.705Z</time></trkpt><trkpt lat="43.2793593" lon="11.2417174"><ele>203.0</ele><time>2026-03-27T13:30:55.706Z</time></trkpt><trkpt lat="43.2794284" lon="11.2416722"><ele>203.0</ele><time>2026-03-27T13:30:56.705Z</time></trkpt><trkpt lat="43.2794964" lon="11.2416257"><ele>203.00000000000003</ele><time>2026-03-27T13:30:57.705Z</time></trkpt><trkpt lat="43.2795638" lon="11.2415783"><ele>203.0</ele><time>2026-03-27T13:30:58.706Z</time></trkpt><trkpt lat="43.2796305" lon="11.2415321"><ele>203.0</ele><time>2026-03-27T13:30:59.705Z</time></trkpt><trkpt lat="43.2796961" lon="11.2414868"><ele>203.0</ele><time>2026-03-27T13:31:00.705Z</time></trkpt><trkpt lat="43.2797594" lon="11.2414446"><ele>203.0</ele><time>2026-03-27T13:31:01.705Z</time></trkpt><trkpt lat="43.2798264" lon="11.2414032"><ele>203.0</ele><time>2026-03-27T13:31:02.706Z</time></trkpt><trkpt lat="43.2798876" lon="11.2413579"><ele>203.0</ele><time>2026-03-27T13:31:03.706Z</time></trkpt><trkpt lat="43.2799497" lon="11.2413187"><ele>203.0</ele><time>2026-03-27T13:31:04.705Z</time></trkpt><trkpt lat="43.2800153" lon="11.241282"><ele>203.0</ele><time>2026-03-27T13:31:05.705Z</time></trkpt><trkpt lat="43.2800835" lon="11.2412548"><ele>203.0</ele><time>2026-03-27T13:31:06.705Z</time></trkpt><trkpt lat="43.2801497" lon="11.2412258"><ele>203.0</ele><time>2026-03-27T13:31:07.705Z</time></trkpt><trkpt lat="43.2802168" lon="11.2411999"><ele>203.0</ele><time>2026-03-27T13:31:08.706Z</time></trkpt><trkpt lat="43.2802837" lon="11.2411808"><ele>203.0</ele><time>2026-03-27T13:31:09.705Z</time></trkpt><trkpt lat="43.2803498" lon="11.2411553"><ele>203.0</ele><time>2026-03-27T13:31:10.706Z</time></trkpt><trkpt lat="43.2804141" lon="11.2411309"><ele>203.0</ele><time>2026-03-27T13:31:11.705Z</time></trkpt><trkpt lat="43.2804761" lon="11.2411107"><ele>203.0</ele><time>2026-03-27T13:31:12.706Z</time></trkpt><trkpt lat="43.2805392" lon="11.2410872"><ele>203.16666666666669</ele><time>2026-03-27T13:31:13.705Z</time></trkpt><trkpt lat="43.280604" lon="11.2410662"><ele>203.33333333333334</ele><time>2026-03-27T13:31:14.705Z</time></trkpt><trkpt lat="43.2806667" lon="11.2410385"><ele>203.5</ele><time>2026-03-27T13:31:15.705Z</time></trkpt><trkpt lat="43.2807895" lon="11.2409994"><ele>203.66666666666669</ele><time>2026-03-27T13:31:17.705Z</time></trkpt><trkpt lat="43.2809093" lon="11.2409542"><ele>203.83333333333334</ele><time>2026-03-27T13:31:19.705Z</time></trkpt><trkpt lat="43.2809721" lon="11.2409352"><ele>204.0</ele><time>2026-03-27T13:31:20.706Z</time></trkpt><trkpt lat="43.2810905" lon="11.2408968"><ele>204.0</ele><time>2026-03-27T13:31:22.705Z</time></trkpt><trkpt lat="43.2812032" lon="11.2408571"><ele>204.0</ele><time>2026-03-27T13:31:24.705Z</time></trkpt><trkpt lat="43.2813103" lon="11.2408208"><ele>204.0</ele><time>2026-03-27T13:31:26.705Z</time></trkpt><trkpt lat="43.2814113" lon="11.2407917"><ele>204.0</ele><time>2026-03-27T13:31:28.705Z</time></trkpt><trkpt lat="43.2815113" lon="11.2407528"><ele>204.0</ele><time>2026-03-27T13:31:30.705Z</time></trkpt><trkpt lat="43.2816098" lon="11.2407234"><ele>204.39999999999998</ele><time>2026-03-27T13:31:32.706Z</time></trkpt><trkpt lat="43.2817066" lon="11.240686"><ele>204.8</ele><time>2026-03-27T13:31:34.705Z</time></trkpt><trkpt lat="43.2817961" lon="11.2406536"><ele>205.2</ele><time>2026-03-27T13:31:36.706Z</time></trkpt><trkpt lat="43.2818898" lon="11.2406199"><ele>205.60000000000002</ele><time>2026-03-27T13:31:38.705Z</time></trkpt><trkpt lat="43.2819846" lon="11.2405814"><ele>206.0</ele><time>2026-03-27T13:31:40.705Z</time></trkpt><trkpt lat="43.2820885" lon="11.2405112"><ele>205.83333333333334</ele><time>2026-03-27T13:31:42.705Z</time></trkpt><trkpt lat="43.2821894" lon="11.2404161"><ele>205.66666666666669</ele><time>2026-03-27T13:31:44.706Z</time></trkpt><trkpt lat="43.282239" lon="11.2403621"><ele>205.5</ele><time>2026-03-27T13:31:45.705Z</time></trkpt><trkpt lat="43.2822882" lon="11.2403025"><ele>205.33333333333331</ele><time>2026-03-27T13:31:46.705Z</time></trkpt><trkpt lat="43.2823367" lon="11.2402401"><ele>205.16666666666666</ele><time>2026-03-27T13:31:47.705Z</time></trkpt><trkpt lat="43.282379" lon="11.2401695"><ele>205.0</ele><time>2026-03-27T13:31:48.706Z</time></trkpt><trkpt lat="43.2824226" lon="11.2400949"><ele>204.99999999999997</ele><time>2026-03-27T13:31:49.705Z</time></trkpt><trkpt lat="43.2824646" lon="11.2400214"><ele>205.0</ele><time>2026-03-27T13:31:50.705Z</time></trkpt><trkpt lat="43.2825054" lon="11.2399519"><ele>205.0</ele><time>2026-03-27T13:31:51.706Z</time></trkpt><trkpt lat="43.2825424" lon="11.2398813"><ele>205.0</ele><time>2026-03-27T13:31:52.705Z</time></trkpt><trkpt lat="43.2826202" lon="11.2397453"><ele>204.99999999999997</ele><time>2026-03-27T13:31:54.706Z</time></trkpt><trkpt lat="43.2826944" lon="11.2396102"><ele>205.0</ele><time>2026-03-27T13:31:56.705Z</time></trkpt><trkpt lat="43.2827624" lon="11.2394742"><ele>205.0</ele><time>2026-03-27T13:31:58.705Z</time></trkpt><trkpt lat="43.2828288" lon="11.2393458"><ele>205.0</ele><time>2026-03-27T13:32:00.705Z</time></trkpt><trkpt lat="43.2828965" lon="11.2392169"><ele>205.0</ele><time>2026-03-27T13:32:02.705Z</time></trkpt><trkpt lat="43.2829542" lon="11.2390849"><ele>205.0</ele><time>2026-03-27T13:32:04.705Z</time></trkpt><trkpt lat="43.2830179" lon="11.2389551"><ele>205.16666666666666</ele><time>2026-03-27T13:32:06.705Z</time></trkpt><trkpt lat="43.2830823" lon="11.2388372"><ele>205.33333333333331</ele><time>2026-03-27T13:32:08.706Z</time></trkpt><trkpt lat="43.2831493" lon="11.2387522"><ele>205.5</ele><time>2026-03-27T13:32:10.706Z</time></trkpt><trkpt lat="43.2832055" lon="11.2386591"><ele>205.66666666666669</ele><time>2026-03-27T13:32:12.705Z</time></trkpt><trkpt lat="43.2832467" lon="11.2385624"><ele>205.83333333333334</ele><time>2026-03-27T13:32:14.705Z</time></trkpt><trkpt lat="43.2832327" lon="11.238455"><ele>206.0</ele><time>2026-03-27T13:32:16.706Z</time></trkpt><trkpt lat="43.2831831" lon="11.2383464"><ele>206.20000000000002</ele><time>2026-03-27T13:32:18.706Z</time></trkpt><trkpt lat="43.28313" lon="11.2382418"><ele>206.4</ele><time>2026-03-27T13:32:20.705Z</time></trkpt><trkpt lat="43.283085" lon="11.2381216"><ele>206.6</ele><time>2026-03-27T13:32:22.705Z</time></trkpt><trkpt lat="43.2830467" lon="11.2379984"><ele>206.8</ele><time>2026-03-27T13:32:24.706Z</time></trkpt><trkpt lat="43.2830101" lon="11.2378604"><ele>207.0</ele><time>2026-03-27T13:32:26.705Z</time></trkpt><trkpt lat="43.2829716" lon="11.2377287"><ele>207.0</ele><time>2026-03-27T13:32:28.705Z</time></trkpt><trkpt lat="43.2829342" lon="11.2375968"><ele>207.0</ele><time>2026-03-27T13:32:30.705Z</time></trkpt><trkpt lat="43.282897" lon="11.2374702"><ele>207.0</ele><time>2026-03-27T13:32:32.705Z</time></trkpt><trkpt lat="43.2828599" lon="11.2373327"><ele>207.0</ele><time>2026-03-27T13:32:34.706Z</time></trkpt><trkpt lat="43.2828215" lon="11.2372005"><ele>207.0</ele><time>2026-03-27T13:32:36.705Z</time></trkpt><trkpt lat="43.2827794" lon="11.23707"><ele>207.39999999999998</ele><time>2026-03-27T13:32:38.705Z</time></trkpt><trkpt lat="43.2827366" lon="11.2369427"><ele>207.79999999999998</ele><time>2026-03-27T13:32:40.706Z</time></trkpt><trkpt lat="43.2827011" lon="11.2368089"><ele>208.2</ele><time>2026-03-27T13:32:42.705Z</time></trkpt><trkpt lat="43.2826697" lon="11.2366773"><ele>208.6</ele><time>2026-03-27T13:32:44.706Z</time></trkpt><trkpt lat="43.2826373" lon="11.2365488"><ele>209.0</ele><time>2026-03-27T13:32:46.705Z</time></trkpt><trkpt lat="43.2825996" lon="11.2364258"><ele>209.6</ele><time>2026-03-27T13:32:48.705Z</time></trkpt><trkpt lat="43.2825658" lon="11.236301"><ele>210.2</ele><time>2026-03-27T13:32:50.705Z</time></trkpt><trkpt lat="43.2825276" lon="11.2361756"><ele>210.79999999999998</ele><time>2026-03-27T13:32:52.706Z</time></trkpt><trkpt lat="43.282493" lon="11.2360401"><ele>211.39999999999998</ele><time>2026-03-27T13:32:54.705Z</time></trkpt><trkpt lat="43.282453" lon="11.23592"><ele>212.0</ele><time>2026-03-27T13:32:56.705Z</time></trkpt><trkpt lat="43.2824138" lon="11.2357996"><ele>212.0</ele><time>2026-03-27T13:32:58.705Z</time></trkpt><trkpt lat="43.2823767" lon="11.2356713"><ele>212.0</ele><time>2026-03-27T13:33:00.705Z</time></trkpt><trkpt lat="43.2823437" lon="11.2355421"><ele>212.0</ele><time>2026-03-27T13:33:02.705Z</time></trkpt><trkpt lat="43.2823091" lon="11.2354186"><ele>212.0</ele><time>2026-03-27T13:33:04.705Z</time></trkpt><trkpt lat="43.2822733" lon="11.2352896"><ele>212.0</ele><time>2026-03-27T13:33:06.706Z</time></trkpt><trkpt lat="43.282238" lon="11.2351587"><ele>212.6</ele><time>2026-03-27T13:33:08.705Z</time></trkpt><trkpt lat="43.2822016" lon="11.2350341"><ele>213.2</ele><time>2026-03-27T13:33:10.706Z</time></trkpt><trkpt lat="43.2821634" lon="11.2349043"><ele>213.8</ele><time>2026-03-27T13:33:12.705Z</time></trkpt><trkpt lat="43.282127" lon="11.2347863"><ele>214.4</ele><time>2026-03-27T13:33:14.705Z</time></trkpt><trkpt lat="43.2820993" lon="11.2346524"><ele>215.0</ele><time>2026-03-27T13:33:16.706Z</time></trkpt><trkpt lat="43.2820615" lon="11.2345277"><ele>215.4</ele><time>2026-03-27T13:33:18.705Z</time></trkpt><trkpt lat="43.2820202" lon="11.2344105"><ele>215.8</ele><time>2026-03-27T13:33:20.706Z</time></trkpt><trkpt lat="43.2819783" lon="11.2342898"><ele>216.2</ele><time>2026-03-27T13:33:22.705Z</time></trkpt><trkpt lat="43.2819247" lon="11.2341808"><ele>216.6</ele><time>2026-03-27T13:33:24.706Z</time></trkpt><trkpt lat="43.2818613" lon="11.234079"><ele>217.0</ele><time>2026-03-27T13:33:26.705Z</time></trkpt><trkpt lat="43.2817874" lon="11.2339864"><ele>217.2</ele><time>2026-03-27T13:33:28.705Z</time></trkpt><trkpt lat="43.2817096" lon="11.2339121"><ele>217.39999999999998</ele><time>2026-03-27T13:33:30.705Z</time></trkpt><trkpt lat="43.2816208" lon="11.2338488"><ele>217.60000000000002</ele><time>2026-03-27T13:33:32.705Z</time></trkpt><trkpt lat="43.2815271" lon="11.233787"><ele>217.8</ele><time>2026-03-27T13:33:34.706Z</time></trkpt><trkpt lat="43.2814253" lon="11.2337427"><ele>218.0</ele><time>2026-03-27T13:33:36.706Z</time></trkpt><trkpt lat="43.2813236" lon="11.2337039"><ele>217.4</ele><time>2026-03-27T13:33:38.705Z</time></trkpt><trkpt lat="43.2812218" lon="11.2336731"><ele>216.8</ele><time>2026-03-27T13:33:40.705Z</time></trkpt><trkpt lat="43.2811137" lon="11.2336554"><ele>216.2</ele><time>2026-03-27T13:33:42.706Z</time></trkpt><trkpt lat="43.281006" lon="11.2336394"><ele>215.6</ele><time>2026-03-27T13:33:44.706Z</time></trkpt><trkpt lat="43.2808979" lon="11.2336384"><ele>215.0</ele><time>2026-03-27T13:33:46.705Z</time></trkpt><trkpt lat="43.2807913" lon="11.233623"><ele>215.0</ele><time>2026-03-27T13:33:48.705Z</time></trkpt><trkpt lat="43.2806824" lon="11.2336161"><ele>215.0</ele><time>2026-03-27T13:33:50.705Z</time></trkpt><trkpt lat="43.2805769" lon="11.2336126"><ele>215.0</ele><time>2026-03-27T13:33:52.705Z</time></trkpt><trkpt lat="43.2804736" lon="11.2336067"><ele>215.0</ele><time>2026-03-27T13:33:54.705Z</time></trkpt><trkpt lat="43.2803721" lon="11.2335943"><ele>215.0</ele><time>2026-03-27T13:33:56.706Z</time></trkpt><trkpt lat="43.2802682" lon="11.2335859"><ele>215.6</ele><time>2026-03-27T13:33:58.706Z</time></trkpt><trkpt lat="43.2801714" lon="11.2335846"><ele>216.2</ele><time>2026-03-27T13:34:00.706Z</time></trkpt><trkpt lat="43.2800781" lon="11.2335795"><ele>216.8</ele><time>2026-03-27T13:34:02.705Z</time></trkpt><trkpt lat="43.2799847" lon="11.2335752"><ele>217.4</ele><time>2026-03-27T13:34:04.705Z</time></trkpt><trkpt lat="43.2798931" lon="11.2335653"><ele>218.0</ele><time>2026-03-27T13:34:06.705Z</time></trkpt><trkpt lat="43.2798037" lon="11.2335568"><ele>219.00000000000003</ele><time>2026-03-27T13:34:08.705Z</time></trkpt><trkpt lat="43.2797142" lon="11.2335462"><ele>220.0</ele><time>2026-03-27T13:34:10.705Z</time></trkpt><trkpt lat="43.2796267" lon="11.2335365"><ele>221.0</ele><time>2026-03-27T13:34:12.706Z</time></trkpt><trkpt lat="43.2795408" lon="11.2335294"><ele>222.0</ele><time>2026-03-27T13:34:14.705Z</time></trkpt><trkpt lat="43.2794557" lon="11.2335252"><ele>223.00000000000003</ele><time>2026-03-27T13:34:16.706Z</time></trkpt><trkpt lat="43.2793705" lon="11.2335177"><ele>224.0</ele><time>2026-03-27T13:34:18.705Z</time></trkpt><trkpt lat="43.2792857" lon="11.233513"><ele>224.00000000000003</ele><time>2026-03-27T13:34:20.706Z</time></trkpt><trkpt lat="43.2791997" lon="11.2335053"><ele>224.0</ele><time>2026-03-27T13:34:22.705Z</time></trkpt><trkpt lat="43.279113" lon="11.2335009"><ele>224.0</ele><time>2026-03-27T13:34:24.706Z</time></trkpt><trkpt lat="43.2790252" lon="11.233497"><ele>224.0</ele><time>2026-03-27T13:34:26.705Z</time></trkpt><trkpt lat="43.2789397" lon="11.233495"><ele>224.00000000000003</ele><time>2026-03-27T13:34:28.706Z</time></trkpt><trkpt lat="43.2788567" lon="11.2334886"><ele>224.0</ele><time>2026-03-27T13:34:30.705Z</time></trkpt><trkpt lat="43.2787723" lon="11.2334839"><ele>224.33333333333334</ele><time>2026-03-27T13:34:32.706Z</time></trkpt><trkpt lat="43.2786895" lon="11.2334805"><ele>224.66666666666669</ele><time>2026-03-27T13:34:34.705Z</time></trkpt><trkpt lat="43.2786069" lon="11.2334743"><ele>225.0</ele><time>2026-03-27T13:34:36.705Z</time></trkpt><trkpt lat="43.2785273" lon="11.2334707"><ele>225.33333333333331</ele><time>2026-03-27T13:34:38.705Z</time></trkpt><trkpt lat="43.278448" lon="11.2334671"><ele>225.66666666666666</ele><time>2026-03-27T13:34:40.705Z</time></trkpt><trkpt lat="43.2783692" lon="11.2334515"><ele>226.0</ele><time>2026-03-27T13:34:42.705Z</time></trkpt><trkpt lat="43.2782907" lon="11.2334333"><ele>225.99999999999997</ele><time>2026-03-27T13:34:44.706Z</time></trkpt><trkpt lat="43.278217" lon="11.2334027"><ele>226.0</ele><time>2026-03-27T13:34:46.705Z</time></trkpt><trkpt lat="43.2781488" lon="11.2333685"><ele>226.0</ele><time>2026-03-27T13:34:48.706Z</time></trkpt><trkpt lat="43.2780913" lon="11.2333247"><ele>226.0</ele><time>2026-03-27T13:34:50.705Z</time></trkpt><trkpt lat="43.2780247" lon="11.2332415"><ele>225.99999999999997</ele><time>2026-03-27T13:34:53.705Z</time></trkpt><trkpt lat="43.2779667" lon="11.233153"><ele>226.0</ele><time>2026-03-27T13:34:56.706Z</time></trkpt><trkpt lat="43.2779155" lon="11.2330623"><ele>228.16666666666666</ele><time>2026-03-27T13:34:59.705Z</time></trkpt><trkpt lat="43.2778719" lon="11.2329621"><ele>230.33333333333331</ele><time>2026-03-27T13:35:02.705Z</time></trkpt><trkpt lat="43.2778381" lon="11.2328543"><ele>232.5</ele><time>2026-03-27T13:35:05.706Z</time></trkpt><trkpt lat="43.2778168" lon="11.2327299"><ele>234.66666666666669</ele><time>2026-03-27T13:35:08.705Z</time></trkpt><trkpt lat="43.2778058" lon="11.2326017"><ele>236.83333333333334</ele><time>2026-03-27T13:35:11.706Z</time></trkpt><trkpt lat="43.277801" lon="11.2325146"><ele>239.0</ele><time>2026-03-27T13:35:13.706Z</time></trkpt><trkpt lat="43.2777882" lon="11.2323986"><ele>239.66666666666669</ele><time>2026-03-27T13:35:16.706Z</time></trkpt><trkpt lat="43.2777782" lon="11.232292"><ele>240.33333333333334</ele><time>2026-03-27T13:35:19.705Z</time></trkpt><trkpt lat="43.2777664" lon="11.2321772"><ele>241.0</ele><time>2026-03-27T13:35:22.706Z</time></trkpt><trkpt lat="43.2777547" lon="11.2320651"><ele>241.66666666666669</ele><time>2026-03-27T13:35:25.705Z</time></trkpt><trkpt lat="43.2777432" lon="11.231951"><ele>242.33333333333334</ele><time>2026-03-27T13:35:28.706Z</time></trkpt><trkpt lat="43.2777302" lon="11.231847"><ele>243.0</ele><time>2026-03-27T13:35:31.705Z</time></trkpt><trkpt lat="43.2777141" lon="11.2317461"><ele>243.0</ele><time>2026-03-27T13:35:34.706Z</time></trkpt><trkpt lat="43.2777025" lon="11.2316421"><ele>243.0</ele><time>2026-03-27T13:35:37.706Z</time></trkpt><trkpt lat="43.277692" lon="11.2315383"><ele>243.0</ele><time>2026-03-27T13:35:40.705Z</time></trkpt><trkpt lat="43.2776732" lon="11.2314259"><ele>243.0</ele><time>2026-03-27T13:35:43.706Z</time></trkpt><trkpt lat="43.277655" lon="11.231309"><ele>243.0</ele><time>2026-03-27T13:35:46.705Z</time></trkpt><trkpt lat="43.2776516" lon="11.2311859"><ele>243.0</ele><time>2026-03-27T13:35:49.705Z</time></trkpt><trkpt lat="43.2776457" lon="11.2310944"><ele>243.0</ele><time>2026-03-27T13:35:51.705Z</time></trkpt><trkpt lat="43.277639" lon="11.231006"><ele>243.0</ele><time>2026-03-27T13:35:53.706Z</time></trkpt><trkpt lat="43.2776298" lon="11.2309153"><ele>243.0</ele><time>2026-03-27T13:35:55.705Z</time></trkpt><trkpt lat="43.2776215" lon="11.2308282"><ele>243.0</ele><time>2026-03-27T13:35:57.705Z</time></trkpt><trkpt lat="43.2776234" lon="11.2307011"><ele>243.0</ele><time>2026-03-27T13:36:00.705Z</time></trkpt><trkpt lat="43.2776325" lon="11.2306155"><ele>243.0</ele><time>2026-03-27T13:36:02.705Z</time></trkpt><trkpt lat="43.2776413" lon="11.2304932"><ele>243.0</ele><time>2026-03-27T13:36:05.705Z</time></trkpt><trkpt lat="43.2776435" lon="11.230369"><ele>243.33333333333334</ele><time>2026-03-27T13:36:08.706Z</time></trkpt><trkpt lat="43.2776465" lon="11.2302533"><ele>243.66666666666669</ele><time>2026-03-27T13:36:11.705Z</time></trkpt><trkpt lat="43.2776514" lon="11.2301375"><ele>244.0</ele><time>2026-03-27T13:36:14.706Z</time></trkpt><trkpt lat="43.2776624" lon="11.2300332"><ele>244.33333333333334</ele><time>2026-03-27T13:36:17.706Z</time></trkpt><trkpt lat="43.2776734" lon="11.2299354"><ele>244.66666666666669</ele><time>2026-03-27T13:36:20.705Z</time></trkpt><trkpt lat="43.2776889" lon="11.2298275"><ele>245.0</ele><time>2026-03-27T13:36:23.706Z</time></trkpt><trkpt lat="43.2777029" lon="11.2297219"><ele>246.00000000000003</ele><time>2026-03-27T13:36:26.705Z</time></trkpt><trkpt lat="43.2777152" lon="11.2296097"><ele>247.0</ele><time>2026-03-27T13:36:29.705Z</time></trkpt><trkpt lat="43.2777255" lon="11.2294943"><ele>248.0</ele><time>2026-03-27T13:36:32.706Z</time></trkpt><trkpt lat="43.2777337" lon="11.2293862"><ele>249.0</ele><time>2026-03-27T13:36:35.705Z</time></trkpt><trkpt lat="43.2777474" lon="11.2292804"><ele>250.00000000000003</ele><time>2026-03-27T13:36:38.705Z</time></trkpt><trkpt lat="43.277756" lon="11.2291748"><ele>251.0</ele><time>2026-03-27T13:36:41.706Z</time></trkpt><trkpt lat="43.2777601" lon="11.2290595"><ele>251.33333333333334</ele><time>2026-03-27T13:36:44.705Z</time></trkpt><trkpt lat="43.2777672" lon="11.2289421"><ele>251.66666666666669</ele><time>2026-03-27T13:36:47.705Z</time></trkpt><trkpt lat="43.2777686" lon="11.2288236"><ele>252.0</ele><time>2026-03-27T13:36:50.705Z</time></trkpt><trkpt lat="43.2777708" lon="11.2287103"><ele>252.33333333333331</ele><time>2026-03-27T13:36:53.705Z</time></trkpt><trkpt lat="43.2777709" lon="11.2285964"><ele>252.66666666666666</ele><time>2026-03-27T13:36:56.705Z</time></trkpt><trkpt lat="43.277777" lon="11.2284962"><ele>253.0</ele><time>2026-03-27T13:37:00.706Z</time></trkpt><trkpt lat="43.2777794" lon="11.2283953"><ele>252.99999999999997</ele><time>2026-03-27T13:37:04.705Z</time></trkpt><trkpt lat="43.2777654" lon="11.2283098"><ele>253.0</ele><time>2026-03-27T13:37:07.705Z</time></trkpt><trkpt lat="43.2777022" lon="11.2282491"><ele>253.0</ele><time>2026-03-27T13:37:11.706Z</time></trkpt><trkpt lat="43.2776167" lon="11.228272"><ele>253.0</ele><time>2026-03-27T13:37:14.705Z</time></trkpt><trkpt lat="43.2775491" lon="11.2282736"><ele>252.99999999999997</ele><time>2026-03-27T13:37:16.705Z</time></trkpt><trkpt lat="43.277484" lon="11.2282809"><ele>253.0</ele><time>2026-03-27T13:37:18.705Z</time></trkpt><trkpt lat="43.2773926" lon="11.2282872"><ele>253.00000000000003</ele><time>2026-03-27T13:37:21.705Z</time></trkpt><trkpt lat="43.2773257" lon="11.2282939"><ele>253.0</ele><time>2026-03-27T13:37:23.705Z</time></trkpt><trkpt lat="43.277259" lon="11.2283015"><ele>253.00000000000003</ele><time>2026-03-27T13:37:25.705Z</time></trkpt><trkpt lat="43.2771927" lon="11.2283094"><ele>253.00000000000003</ele><time>2026-03-27T13:37:27.705Z</time></trkpt><trkpt lat="43.2771249" lon="11.2283199"><ele>253.0</ele><time>2026-03-27T13:37:29.705Z</time></trkpt><trkpt lat="43.2770555" lon="11.2283279"><ele>253.00000000000003</ele><time>2026-03-27T13:37:31.705Z</time></trkpt><trkpt lat="43.2769854" lon="11.2283316"><ele>253.00000000000003</ele><time>2026-03-27T13:37:33.706Z</time></trkpt><trkpt lat="43.2768929" lon="11.2283387"><ele>253.16666666666666</ele><time>2026-03-27T13:37:36.705Z</time></trkpt><trkpt lat="43.2768257" lon="11.228316"><ele>253.33333333333331</ele><time>2026-03-27T13:37:38.706Z</time></trkpt><trkpt lat="43.2767524" lon="11.2282695"><ele>253.5</ele><time>2026-03-27T13:37:40.705Z</time></trkpt><trkpt lat="43.2766736" lon="11.2282139"><ele>253.66666666666669</ele><time>2026-03-27T13:37:42.706Z</time></trkpt><trkpt lat="43.2765823" lon="11.2281509"><ele>253.83333333333334</ele><time>2026-03-27T13:37:44.705Z</time></trkpt><trkpt lat="43.2764895" lon="11.2280814"><ele>254.0</ele><time>2026-03-27T13:37:46.705Z</time></trkpt><trkpt lat="43.2763797" lon="11.2280037"><ele>254.0</ele><time>2026-03-27T13:37:48.705Z</time></trkpt><trkpt lat="43.2763215" lon="11.2279555"><ele>254.0</ele><time>2026-03-27T13:37:49.706Z</time></trkpt><trkpt lat="43.2762622" lon="11.227906"><ele>254.0</ele><time>2026-03-27T13:37:50.705Z</time></trkpt><trkpt lat="43.2762051" lon="11.2278469"><ele>254.0</ele><time>2026-03-27T13:37:51.705Z</time></trkpt><trkpt lat="43.2761406" lon="11.2277935"><ele>254.0</ele><time>2026-03-27T13:37:52.706Z</time></trkpt><trkpt lat="43.2760735" lon="11.2277438"><ele>254.0</ele><time>2026-03-27T13:37:53.705Z</time></trkpt><trkpt lat="43.2760061" lon="11.2276924"><ele>254.0</ele><time>2026-03-27T13:37:54.706Z</time></trkpt><trkpt lat="43.2759327" lon="11.2276324"><ele>254.00000000000003</ele><time>2026-03-27T13:37:55.705Z</time></trkpt><trkpt lat="43.275857" lon="11.2275759"><ele>254.0</ele><time>2026-03-27T13:37:56.705Z</time></trkpt><trkpt lat="43.2757836" lon="11.2275128"><ele>254.0</ele><time>2026-03-27T13:37:57.705Z</time></trkpt><trkpt lat="43.2757033" lon="11.2274491"><ele>254.0</ele><time>2026-03-27T13:37:58.706Z</time></trkpt><trkpt lat="43.2756277" lon="11.2273899"><ele>254.00000000000003</ele><time>2026-03-27T13:37:59.705Z</time></trkpt><trkpt lat="43.2755486" lon="11.2273276"><ele>254.0</ele><time>2026-03-27T13:38:00.706Z</time></trkpt><trkpt lat="43.2754698" lon="11.2272691"><ele>253.0</ele><time>2026-03-27T13:38:01.705Z</time></trkpt><trkpt lat="43.2753909" lon="11.2272021"><ele>251.99999999999997</ele><time>2026-03-27T13:38:02.705Z</time></trkpt><trkpt lat="43.275307" lon="11.2271421"><ele>250.99999999999997</ele><time>2026-03-27T13:38:03.705Z</time></trkpt><trkpt lat="43.2752197" lon="11.2270831"><ele>250.0</ele><time>2026-03-27T13:38:04.705Z</time></trkpt><trkpt lat="43.275138" lon="11.227021"><ele>249.0</ele><time>2026-03-27T13:38:05.705Z</time></trkpt><trkpt lat="43.2750613" lon="11.2269438"><ele>249.0</ele><time>2026-03-27T13:38:06.705Z</time></trkpt><trkpt lat="43.2749815" lon="11.2268678"><ele>248.99999999999997</ele><time>2026-03-27T13:38:07.705Z</time></trkpt><trkpt lat="43.2748979" lon="11.2268042"><ele>248.99999999999997</ele><time>2026-03-27T13:38:08.705Z</time></trkpt><trkpt lat="43.2748106" lon="11.226742"><ele>249.0</ele><time>2026-03-27T13:38:09.706Z</time></trkpt><trkpt lat="43.2747235" lon="11.226691"><ele>249.0</ele><time>2026-03-27T13:38:10.705Z</time></trkpt><trkpt lat="43.2746317" lon="11.2266451"><ele>247.79999999999998</ele><time>2026-03-27T13:38:11.705Z</time></trkpt><trkpt lat="43.2745365" lon="11.226621"><ele>246.59999999999997</ele><time>2026-03-27T13:38:12.705Z</time></trkpt><trkpt lat="43.2744411" lon="11.2266119"><ele>245.4</ele><time>2026-03-27T13:38:13.705Z</time></trkpt><trkpt lat="43.2743444" lon="11.2266032"><ele>244.2</ele><time>2026-03-27T13:38:14.705Z</time></trkpt><trkpt lat="43.2742507" lon="11.226602"><ele>243.0</ele><time>2026-03-27T13:38:15.705Z</time></trkpt><trkpt lat="43.2741518" lon="11.2265961"><ele>243.0</ele><time>2026-03-27T13:38:16.705Z</time></trkpt><trkpt lat="43.2740536" lon="11.2265952"><ele>243.0</ele><time>2026-03-27T13:38:17.705Z</time></trkpt><trkpt lat="43.2739525" lon="11.2265884"><ele>243.0</ele><time>2026-03-27T13:38:18.706Z</time></trkpt><trkpt lat="43.2738503" lon="11.2265901"><ele>243.0</ele><time>2026-03-27T13:38:19.705Z</time></trkpt><trkpt lat="43.2737468" lon="11.2265913"><ele>243.0</ele><time>2026-03-27T13:38:20.705Z</time></trkpt><trkpt lat="43.2736437" lon="11.2265878"><ele>242.0</ele><time>2026-03-27T13:38:21.705Z</time></trkpt><trkpt lat="43.2735379" lon="11.2265856"><ele>241.0</ele><time>2026-03-27T13:38:22.705Z</time></trkpt><trkpt lat="43.2734368" lon="11.2265773"><ele>240.0</ele><time>2026-03-27T13:38:23.705Z</time></trkpt><trkpt lat="43.2733359" lon="11.2265732"><ele>239.0</ele><time>2026-03-27T13:38:24.706Z</time></trkpt><trkpt lat="43.2732408" lon="11.2265564"><ele>238.0</ele><time>2026-03-27T13:38:25.706Z</time></trkpt><trkpt lat="43.2731428" lon="11.2265583"><ele>238.0</ele><time>2026-03-27T13:38:26.706Z</time></trkpt><trkpt lat="43.2730426" lon="11.226556"><ele>238.0</ele><time>2026-03-27T13:38:27.705Z</time></trkpt><trkpt lat="43.2729475" lon="11.2265569"><ele>238.0</ele><time>2026-03-27T13:38:28.705Z</time></trkpt><trkpt lat="43.2728554" lon="11.2265645"><ele>238.0</ele><time>2026-03-27T13:38:29.706Z</time></trkpt><trkpt lat="43.2727667" lon="11.2265752"><ele>238.0</ele><time>2026-03-27T13:38:30.706Z</time></trkpt><trkpt lat="43.2726807" lon="11.2265943"><ele>237.99999999999997</ele><time>2026-03-27T13:38:31.705Z</time></trkpt><trkpt lat="43.2725946" lon="11.2266127"><ele>238.0</ele><time>2026-03-27T13:38:32.705Z</time></trkpt><trkpt lat="43.2725084" lon="11.2266246"><ele>238.0</ele><time>2026-03-27T13:38:33.705Z</time></trkpt><trkpt lat="43.2724233" lon="11.2266445"><ele>238.0</ele><time>2026-03-27T13:38:34.705Z</time></trkpt><trkpt lat="43.2723411" lon="11.2266606"><ele>237.99999999999997</ele><time>2026-03-27T13:38:35.705Z</time></trkpt><trkpt lat="43.272263" lon="11.2266753"><ele>238.0</ele><time>2026-03-27T13:38:36.705Z</time></trkpt><trkpt lat="43.2721865" lon="11.2266965"><ele>238.14285714285714</ele><time>2026-03-27T13:38:37.705Z</time></trkpt><trkpt lat="43.2721097" lon="11.2267146"><ele>238.28571428571428</ele><time>2026-03-27T13:38:38.705Z</time></trkpt><trkpt lat="43.2720369" lon="11.226733"><ele>238.42857142857144</ele><time>2026-03-27T13:38:39.705Z</time></trkpt><trkpt lat="43.271963" lon="11.2267504"><ele>238.57142857142858</ele><time>2026-03-27T13:38:40.705Z</time></trkpt><trkpt lat="43.27189" lon="11.2267726"><ele>238.71428571428572</ele><time>2026-03-27T13:38:41.705Z</time></trkpt><trkpt lat="43.271815" lon="11.2267881"><ele>238.8571428571429</ele><time>2026-03-27T13:38:42.705Z</time></trkpt><trkpt lat="43.2717451" lon="11.2268015"><ele>239.00000000000003</ele><time>2026-03-27T13:38:43.706Z</time></trkpt><trkpt lat="43.2716742" lon="11.2268216"><ele>239.00000000000003</ele><time>2026-03-27T13:38:44.705Z</time></trkpt><trkpt lat="43.2716057" lon="11.2268333"><ele>239.0</ele><time>2026-03-27T13:38:45.706Z</time></trkpt><trkpt lat="43.2715343" lon="11.2268519"><ele>239.00000000000003</ele><time>2026-03-27T13:38:46.705Z</time></trkpt><trkpt lat="43.2714653" lon="11.2268668"><ele>239.00000000000003</ele><time>2026-03-27T13:38:47.705Z</time></trkpt><trkpt lat="43.2713971" lon="11.2268818"><ele>239.0</ele><time>2026-03-27T13:38:48.705Z</time></trkpt><trkpt lat="43.2713285" lon="11.2268979"><ele>239.00000000000003</ele><time>2026-03-27T13:38:49.705Z</time></trkpt><trkpt lat="43.2712629" lon="11.2269145"><ele>239.00000000000003</ele><time>2026-03-27T13:38:50.705Z</time></trkpt><trkpt lat="43.2711981" lon="11.2269363"><ele>239.2</ele><time>2026-03-27T13:38:51.706Z</time></trkpt><trkpt lat="43.2711343" lon="11.2269663"><ele>239.39999999999998</ele><time>2026-03-27T13:38:52.705Z</time></trkpt><trkpt lat="43.2710198" lon="11.2270283"><ele>239.6</ele><time>2026-03-27T13:38:54.705Z</time></trkpt><trkpt lat="43.2709146" lon="11.2271043"><ele>239.8</ele><time>2026-03-27T13:38:56.706Z</time></trkpt><trkpt lat="43.2708146" lon="11.2272023"><ele>240.0</ele><time>2026-03-27T13:38:58.706Z</time></trkpt><trkpt lat="43.2707242" lon="11.2273143"><ele>240.0</ele><time>2026-03-27T13:39:00.706Z</time></trkpt><trkpt lat="43.2706323" lon="11.2274256"><ele>240.0</ele><time>2026-03-27T13:39:02.705Z</time></trkpt><trkpt lat="43.2705463" lon="11.2275377"><ele>240.0</ele><time>2026-03-27T13:39:04.705Z</time></trkpt><trkpt lat="43.2704593" lon="11.2276584"><ele>240.0</ele><time>2026-03-27T13:39:06.706Z</time></trkpt><trkpt lat="43.2703707" lon="11.227771"><ele>240.25</ele><time>2026-03-27T13:39:08.706Z</time></trkpt><trkpt lat="43.2702842" lon="11.227879"><ele>240.5</ele><time>2026-03-27T13:39:10.706Z</time></trkpt><trkpt lat="43.2702063" lon="11.2279714"><ele>240.75</ele><time>2026-03-27T13:39:12.705Z</time></trkpt><trkpt lat="43.2701268" lon="11.2280878"><ele>241.0</ele><time>2026-03-27T13:39:14.705Z</time></trkpt><trkpt lat="43.2700373" lon="11.228198"><ele>241.0</ele><time>2026-03-27T13:39:16.706Z</time></trkpt><trkpt lat="43.2699523" lon="11.2282977"><ele>241.0</ele><time>2026-03-27T13:39:18.705Z</time></trkpt><trkpt lat="43.2698697" lon="11.2284228"><ele>241.0</ele><time>2026-03-27T13:39:20.705Z</time></trkpt><trkpt lat="43.2697829" lon="11.2285375"><ele>241.0</ele><time>2026-03-27T13:39:22.705Z</time></trkpt><trkpt lat="43.2696966" lon="11.2286284"><ele>240.85714285714286</ele><time>2026-03-27T13:39:24.705Z</time></trkpt><trkpt lat="43.2696446" lon="11.2286845"><ele>240.71428571428572</ele><time>2026-03-27T13:39:25.706Z</time></trkpt><trkpt lat="43.2695858" lon="11.2287452"><ele>240.57142857142858</ele><time>2026-03-27T13:39:26.706Z</time></trkpt><trkpt lat="43.2695264" lon="11.228801"><ele>240.42857142857144</ele><time>2026-03-27T13:39:27.706Z</time></trkpt><trkpt lat="43.2694673" lon="11.2288568"><ele>240.28571428571428</ele><time>2026-03-27T13:39:28.705Z</time></trkpt><trkpt lat="43.269405" lon="11.2289066"><ele>240.14285714285717</ele><time>2026-03-27T13:39:29.706Z</time></trkpt><trkpt lat="43.2693395" lon="11.2289543"><ele>240.0</ele><time>2026-03-27T13:39:30.705Z</time></trkpt><trkpt lat="43.2692727" lon="11.2289959"><ele>239.83333333333334</ele><time>2026-03-27T13:39:31.706Z</time></trkpt><trkpt lat="43.2692009" lon="11.2290477"><ele>239.66666666666669</ele><time>2026-03-27T13:39:32.706Z</time></trkpt><trkpt lat="43.2691267" lon="11.2290919"><ele>239.5</ele><time>2026-03-27T13:39:33.705Z</time></trkpt><trkpt lat="43.2690478" lon="11.229138"><ele>239.33333333333334</ele><time>2026-03-27T13:39:34.706Z</time></trkpt><trkpt lat="43.2689668" lon="11.2291807"><ele>239.16666666666669</ele><time>2026-03-27T13:39:35.705Z</time></trkpt><trkpt lat="43.2688876" lon="11.2292238"><ele>239.0</ele><time>2026-03-27T13:39:36.705Z</time></trkpt><trkpt lat="43.2688044" lon="11.2292654"><ele>239.0</ele><time>2026-03-27T13:39:37.706Z</time></trkpt><trkpt lat="43.268718" lon="11.2293079"><ele>238.99999999999997</ele><time>2026-03-27T13:39:38.706Z</time></trkpt><trkpt lat="43.2686314" lon="11.2293541"><ele>238.99999999999997</ele><time>2026-03-27T13:39:39.705Z</time></trkpt><trkpt lat="43.2685421" lon="11.2293992"><ele>239.0</ele><time>2026-03-27T13:39:40.705Z</time></trkpt><trkpt lat="43.2684526" lon="11.2294455"><ele>239.0</ele><time>2026-03-27T13:39:41.705Z</time></trkpt><trkpt lat="43.2683617" lon="11.2294917"><ele>239.0</ele><time>2026-03-27T13:39:42.705Z</time></trkpt><trkpt lat="43.2682716" lon="11.2295413"><ele>238.99999999999997</ele><time>2026-03-27T13:39:43.706Z</time></trkpt><trkpt lat="43.2681767" lon="11.2295919"><ele>238.99999999999997</ele><time>2026-03-27T13:39:44.706Z</time></trkpt><trkpt lat="43.2680801" lon="11.2296398"><ele>239.0</ele><time>2026-03-27T13:39:45.705Z</time></trkpt><trkpt lat="43.2679834" lon="11.2296891"><ele>239.0</ele><time>2026-03-27T13:39:46.705Z</time></trkpt><trkpt lat="43.2678892" lon="11.2297372"><ele>238.79999999999998</ele><time>2026-03-27T13:39:47.706Z</time></trkpt><trkpt lat="43.2677926" lon="11.2297871"><ele>238.59999999999997</ele><time>2026-03-27T13:39:48.706Z</time></trkpt><trkpt lat="43.2676913" lon="11.2298386"><ele>238.4</ele><time>2026-03-27T13:39:49.705Z</time></trkpt><trkpt lat="43.267591" lon="11.2299012"><ele>238.2</ele><time>2026-03-27T13:39:50.705Z</time></trkpt><trkpt lat="43.2674952" lon="11.2299581"><ele>238.0</ele><time>2026-03-27T13:39:51.705Z</time></trkpt><trkpt lat="43.2674032" lon="11.2300552"><ele>236.75</ele><time>2026-03-27T13:39:52.706Z</time></trkpt><trkpt lat="43.2673135" lon="11.2301523"><ele>235.5</ele><time>2026-03-27T13:39:53.705Z</time></trkpt><trkpt lat="43.267222" lon="11.2302622"><ele>234.25</ele><time>2026-03-27T13:39:54.705Z</time></trkpt><trkpt lat="43.2671328" lon="11.2303662"><ele>233.0</ele><time>2026-03-27T13:39:55.705Z</time></trkpt><trkpt lat="43.2670428" lon="11.2304745"><ele>232.25</ele><time>2026-03-27T13:39:56.705Z</time></trkpt><trkpt lat="43.2669509" lon="11.2305847"><ele>231.5</ele><time>2026-03-27T13:39:57.706Z</time></trkpt><trkpt lat="43.2668546" lon="11.2306955"><ele>230.75</ele><time>2026-03-27T13:39:58.705Z</time></trkpt><trkpt lat="43.2667582" lon="11.23081"><ele>230.0</ele><time>2026-03-27T13:39:59.705Z</time></trkpt><trkpt lat="43.2666568" lon="11.2309233"><ele>228.75</ele><time>2026-03-27T13:40:00.705Z</time></trkpt><trkpt lat="43.2665581" lon="11.2310395"><ele>227.5</ele><time>2026-03-27T13:40:01.706Z</time></trkpt><trkpt lat="43.2664564" lon="11.2311563"><ele>226.25</ele><time>2026-03-27T13:40:02.706Z</time></trkpt><trkpt lat="43.2663512" lon="11.2312775"><ele>225.0</ele><time>2026-03-27T13:40:03.706Z</time></trkpt><trkpt lat="43.2662482" lon="11.2313997"><ele>223.25</ele><time>2026-03-27T13:40:04.705Z</time></trkpt><trkpt lat="43.2661425" lon="11.2315158"><ele>221.5</ele><time>2026-03-27T13:40:05.705Z</time></trkpt><trkpt lat="43.2660368" lon="11.2316449"><ele>219.75</ele><time>2026-03-27T13:40:06.706Z</time></trkpt><trkpt lat="43.2659336" lon="11.2317666"><ele>218.0</ele><time>2026-03-27T13:40:07.705Z</time></trkpt><trkpt lat="43.2658288" lon="11.2318952"><ele>218.0</ele><time>2026-03-27T13:40:08.705Z</time></trkpt><trkpt lat="43.2657247" lon="11.2320205"><ele>218.0</ele><time>2026-03-27T13:40:09.705Z</time></trkpt><trkpt lat="43.26562" lon="11.2321521"><ele>218.0</ele><time>2026-03-27T13:40:10.706Z</time></trkpt><trkpt lat="43.265515" lon="11.2322757"><ele>218.0</ele><time>2026-03-27T13:40:11.705Z</time></trkpt><trkpt lat="43.2654111" lon="11.2323969"><ele>216.0</ele><time>2026-03-27T13:40:12.706Z</time></trkpt><trkpt lat="43.2653014" lon="11.2325165"><ele>214.0</ele><time>2026-03-27T13:40:13.705Z</time></trkpt><trkpt lat="43.2651931" lon="11.2326372"><ele>212.0</ele><time>2026-03-27T13:40:14.705Z</time></trkpt><trkpt lat="43.2650839" lon="11.2327616"><ele>210.0</ele><time>2026-03-27T13:40:15.705Z</time></trkpt><trkpt lat="43.2649752" lon="11.2328952"><ele>210.0</ele><time>2026-03-27T13:40:16.705Z</time></trkpt><trkpt lat="43.2648671" lon="11.2330224"><ele>210.0</ele><time>2026-03-27T13:40:17.705Z</time></trkpt><trkpt lat="43.2647608" lon="11.2331422"><ele>210.0</ele><time>2026-03-27T13:40:18.706Z</time></trkpt><trkpt lat="43.2646588" lon="11.2332584"><ele>210.0</ele><time>2026-03-27T13:40:19.705Z</time></trkpt><trkpt lat="43.2645629" lon="11.2333665"><ele>209.2</ele><time>2026-03-27T13:40:20.706Z</time></trkpt><trkpt lat="43.2644747" lon="11.2334716"><ele>208.4</ele><time>2026-03-27T13:40:21.706Z</time></trkpt><trkpt lat="43.264391" lon="11.2335629"><ele>207.60000000000002</ele><time>2026-03-27T13:40:22.705Z</time></trkpt><trkpt lat="43.2643158" lon="11.2336464"><ele>206.8</ele><time>2026-03-27T13:40:23.705Z</time></trkpt><trkpt lat="43.2642412" lon="11.2337141"><ele>206.0</ele><time>2026-03-27T13:40:24.706Z</time></trkpt><trkpt lat="43.2641684" lon="11.2337599"><ele>206.00000000000003</ele><time>2026-03-27T13:40:25.705Z</time></trkpt><trkpt lat="43.2640626" lon="11.2337841"><ele>206.0</ele><time>2026-03-27T13:40:27.705Z</time></trkpt><trkpt lat="43.2639951" lon="11.2337801"><ele>206.0</ele><time>2026-03-27T13:40:30.705Z</time></trkpt><trkpt lat="43.2639324" lon="11.2337501"><ele>206.0</ele><time>2026-03-27T13:40:35.705Z</time></trkpt><trkpt lat="43.2638772" lon="11.233683"><ele>206.00000000000003</ele><time>2026-03-27T13:40:39.705Z</time></trkpt><trkpt lat="43.2638258" lon="11.2335978"><ele>206.0</ele><time>2026-03-27T13:40:42.705Z</time></trkpt><trkpt lat="43.2637859" lon="11.2335178"><ele>207.16666666666669</ele><time>2026-03-27T13:40:44.705Z</time></trkpt><trkpt lat="43.2637398" lon="11.233438"><ele>208.33333333333334</ele><time>2026-03-27T13:40:46.705Z</time></trkpt><trkpt lat="43.2636913" lon="11.2333568"><ele>209.5</ele><time>2026-03-27T13:40:48.705Z</time></trkpt><trkpt lat="43.2636431" lon="11.2332713"><ele>210.66666666666669</ele><time>2026-03-27T13:40:50.705Z</time></trkpt><trkpt lat="43.2635881" lon="11.233192"><ele>211.83333333333334</ele><time>2026-03-27T13:40:53.705Z</time></trkpt><trkpt lat="43.2635048" lon="11.2332131"><ele>213.0</ele><time>2026-03-27T13:40:56.706Z</time></trkpt><trkpt lat="43.263466" lon="11.2332853"><ele>213.0</ele><time>2026-03-27T13:40:58.705Z</time></trkpt><trkpt lat="43.2634279" lon="11.2333664"><ele>213.0</ele><time>2026-03-27T13:41:00.705Z</time></trkpt><trkpt lat="43.263385" lon="11.2334645"><ele>213.0</ele><time>2026-03-27T13:41:02.705Z</time></trkpt><trkpt lat="43.2633437" lon="11.233567"><ele>213.0</ele><time>2026-03-27T13:41:04.705Z</time></trkpt><trkpt lat="43.2632997" lon="11.2336729"><ele>213.0</ele><time>2026-03-27T13:41:06.705Z</time></trkpt><trkpt lat="43.2632353" lon="11.2337823"><ele>213.0</ele><time>2026-03-27T13:41:08.706Z</time></trkpt><trkpt lat="43.263164" lon="11.2339185"><ele>212.28571428571428</ele><time>2026-03-27T13:41:10.705Z</time></trkpt><trkpt lat="43.2631189" lon="11.2339835"><ele>211.57142857142856</ele><time>2026-03-27T13:41:11.705Z</time></trkpt><trkpt lat="43.2630729" lon="11.2340544"><ele>210.85714285714283</ele><time>2026-03-27T13:41:12.706Z</time></trkpt><trkpt lat="43.2630293" lon="11.2341323"><ele>210.14285714285714</ele><time>2026-03-27T13:41:13.705Z</time></trkpt><trkpt lat="43.2629795" lon="11.234212"><ele>209.42857142857144</ele><time>2026-03-27T13:41:14.706Z</time></trkpt><trkpt lat="43.2629356" lon="11.2342955"><ele>208.7142857142857</ele><time>2026-03-27T13:41:15.706Z</time></trkpt><trkpt lat="43.2628796" lon="11.2343675"><ele>208.0</ele><time>2026-03-27T13:41:16.705Z</time></trkpt><trkpt lat="43.2628162" lon="11.2344482"><ele>207.33333333333331</ele><time>2026-03-27T13:41:17.705Z</time></trkpt><trkpt lat="43.262751" lon="11.2345225"><ele>206.66666666666666</ele><time>2026-03-27T13:41:18.705Z</time></trkpt><trkpt lat="43.2626857" lon="11.2345916"><ele>206.0</ele><time>2026-03-27T13:41:19.705Z</time></trkpt><trkpt lat="43.2626052" lon="11.2346607"><ele>205.33333333333331</ele><time>2026-03-27T13:41:20.706Z</time></trkpt><trkpt lat="43.2625221" lon="11.2347177"><ele>204.66666666666666</ele><time>2026-03-27T13:41:21.705Z</time></trkpt><trkpt lat="43.262435" lon="11.2347667"><ele>204.0</ele><time>2026-03-27T13:41:22.705Z</time></trkpt><trkpt lat="43.2623419" lon="11.2348127"><ele>202.6</ele><time>2026-03-27T13:41:23.706Z</time></trkpt><trkpt lat="43.2622466" lon="11.2348571"><ele>201.2</ele><time>2026-03-27T13:41:24.705Z</time></trkpt><trkpt lat="43.2621463" lon="11.2348902"><ele>199.79999999999998</ele><time>2026-03-27T13:41:25.706Z</time></trkpt><trkpt lat="43.2620457" lon="11.2349434"><ele>198.39999999999998</ele><time>2026-03-27T13:41:26.706Z</time></trkpt><trkpt lat="43.2619513" lon="11.2349765"><ele>197.0</ele><time>2026-03-27T13:41:27.705Z</time></trkpt><trkpt lat="43.2618549" lon="11.2350022"><ele>197.0</ele><time>2026-03-27T13:41:28.705Z</time></trkpt><trkpt lat="43.2617527" lon="11.2350575"><ele>197.0</ele><time>2026-03-27T13:41:29.705Z</time></trkpt><trkpt lat="43.2616522" lon="11.2351157"><ele>197.0</ele><time>2026-03-27T13:41:30.705Z</time></trkpt><trkpt lat="43.2615557" lon="11.2351629"><ele>197.0</ele><time>2026-03-27T13:41:31.705Z</time></trkpt><trkpt lat="43.2614562" lon="11.2352228"><ele>197.0</ele><time>2026-03-27T13:41:32.706Z</time></trkpt><trkpt lat="43.2613551" lon="11.2352927"><ele>196.0</ele><time>2026-03-27T13:41:33.706Z</time></trkpt><trkpt lat="43.2612544" lon="11.2353558"><ele>195.0</ele><time>2026-03-27T13:41:34.706Z</time></trkpt><trkpt lat="43.2611466" lon="11.2354272"><ele>194.0</ele><time>2026-03-27T13:41:35.705Z</time></trkpt><trkpt lat="43.2610358" lon="11.2354981"><ele>193.0</ele><time>2026-03-27T13:41:36.705Z</time></trkpt><trkpt lat="43.2609232" lon="11.2355706"><ele>193.0</ele><time>2026-03-27T13:41:37.705Z</time></trkpt><trkpt lat="43.2608124" lon="11.2356348"><ele>193.0</ele><time>2026-03-27T13:41:38.705Z</time></trkpt><trkpt lat="43.2607012" lon="11.2356969"><ele>193.0</ele><time>2026-03-27T13:41:39.705Z</time></trkpt><trkpt lat="43.2605879" lon="11.2357599"><ele>193.0</ele><time>2026-03-27T13:41:40.705Z</time></trkpt><trkpt lat="43.2604735" lon="11.2358227"><ele>192.0</ele><time>2026-03-27T13:41:41.705Z</time></trkpt><trkpt lat="43.2603591" lon="11.2358932"><ele>191.0</ele><time>2026-03-27T13:41:42.705Z</time></trkpt><trkpt lat="43.2602443" lon="11.2359599"><ele>190.0</ele><time>2026-03-27T13:41:43.705Z</time></trkpt><trkpt lat="43.2601282" lon="11.2360216"><ele>189.0</ele><time>2026-03-27T13:41:44.705Z</time></trkpt><trkpt lat="43.2600147" lon="11.2360847"><ele>189.0</ele><time>2026-03-27T13:41:45.705Z</time></trkpt><trkpt lat="43.2598998" lon="11.2361478"><ele>189.0</ele><time>2026-03-27T13:41:46.705Z</time></trkpt><trkpt lat="43.2597838" lon="11.2362131"><ele>189.0</ele><time>2026-03-27T13:41:47.705Z</time></trkpt><trkpt lat="43.2596712" lon="11.2362864"><ele>189.0</ele><time>2026-03-27T13:41:48.705Z</time></trkpt><trkpt lat="43.2595616" lon="11.2363562"><ele>188.75</ele><time>2026-03-27T13:41:49.705Z</time></trkpt><trkpt lat="43.25946" lon="11.2364279"><ele>188.5</ele><time>2026-03-27T13:41:50.705Z</time></trkpt><trkpt lat="43.2593643" lon="11.2365066"><ele>188.25</ele><time>2026-03-27T13:41:51.706Z</time></trkpt><trkpt lat="43.2592731" lon="11.2365966"><ele>188.0</ele><time>2026-03-27T13:41:52.705Z</time></trkpt><trkpt lat="43.2591879" lon="11.2367064"><ele>188.0</ele><time>2026-03-27T13:41:53.706Z</time></trkpt><trkpt lat="43.259107" lon="11.2368269"><ele>188.0</ele><time>2026-03-27T13:41:54.705Z</time></trkpt><trkpt lat="43.2590271" lon="11.2369461"><ele>188.0</ele><time>2026-03-27T13:41:55.705Z</time></trkpt><trkpt lat="43.2589482" lon="11.2370582"><ele>188.0</ele><time>2026-03-27T13:41:56.705Z</time></trkpt><trkpt lat="43.2588663" lon="11.237171"><ele>187.75</ele><time>2026-03-27T13:41:57.705Z</time></trkpt><trkpt lat="43.2587828" lon="11.2372874"><ele>187.5</ele><time>2026-03-27T13:41:58.706Z</time></trkpt><trkpt lat="43.2587013" lon="11.237415"><ele>187.25</ele><time>2026-03-27T13:41:59.705Z</time></trkpt><trkpt lat="43.2586195" lon="11.2375286"><ele>187.0</ele><time>2026-03-27T13:42:00.705Z</time></trkpt><trkpt lat="43.258538" lon="11.2376404"><ele>187.0</ele><time>2026-03-27T13:42:01.706Z</time></trkpt><trkpt lat="43.2584564" lon="11.2377613"><ele>187.0</ele><time>2026-03-27T13:42:02.705Z</time></trkpt><trkpt lat="43.2583742" lon="11.2378845"><ele>187.0</ele><time>2026-03-27T13:42:03.705Z</time></trkpt><trkpt lat="43.2582937" lon="11.2380092"><ele>187.0</ele><time>2026-03-27T13:42:04.706Z</time></trkpt><trkpt lat="43.2582185" lon="11.2381262"><ele>187.0</ele><time>2026-03-27T13:42:05.705Z</time></trkpt><trkpt lat="43.25814" lon="11.2382354"><ele>187.0</ele><time>2026-03-27T13:42:06.705Z</time></trkpt><trkpt lat="43.258065" lon="11.238357"><ele>187.0</ele><time>2026-03-27T13:42:07.705Z</time></trkpt><trkpt lat="43.2579841" lon="11.2384751"><ele>187.0</ele><time>2026-03-27T13:42:08.706Z</time></trkpt><trkpt lat="43.257903" lon="11.2385958"><ele>187.0</ele><time>2026-03-27T13:42:09.706Z</time></trkpt><trkpt lat="43.257819" lon="11.2386956"><ele>187.0</ele><time>2026-03-27T13:42:10.706Z</time></trkpt><trkpt lat="43.2577345" lon="11.2388071"><ele>187.0</ele><time>2026-03-27T13:42:11.706Z</time></trkpt><trkpt lat="43.2576534" lon="11.238913"><ele>187.0</ele><time>2026-03-27T13:42:12.705Z</time></trkpt><trkpt lat="43.2575692" lon="11.2390295"><ele>186.75</ele><time>2026-03-27T13:42:13.705Z</time></trkpt><trkpt lat="43.2574842" lon="11.2391401"><ele>186.5</ele><time>2026-03-27T13:42:14.705Z</time></trkpt><trkpt lat="43.2574005" lon="11.2392502"><ele>186.25</ele><time>2026-03-27T13:42:15.705Z</time></trkpt><trkpt lat="43.2573173" lon="11.2393477"><ele>186.0</ele><time>2026-03-27T13:42:16.705Z</time></trkpt><trkpt lat="43.2572336" lon="11.2394486"><ele>186.0</ele><time>2026-03-27T13:42:17.705Z</time></trkpt><trkpt lat="43.2571503" lon="11.2395465"><ele>186.0</ele><time>2026-03-27T13:42:18.705Z</time></trkpt><trkpt lat="43.2570694" lon="11.2396543"><ele>186.0</ele><time>2026-03-27T13:42:19.705Z</time></trkpt><trkpt lat="43.2569908" lon="11.2397636"><ele>186.0</ele><time>2026-03-27T13:42:20.705Z</time></trkpt><trkpt lat="43.2569197" lon="11.2398619"><ele>186.0</ele><time>2026-03-27T13:42:21.706Z</time></trkpt><trkpt lat="43.2568457" lon="11.2399671"><ele>186.20000000000002</ele><time>2026-03-27T13:42:22.706Z</time></trkpt><trkpt lat="43.2567742" lon="11.2400673"><ele>186.4</ele><time>2026-03-27T13:42:23.705Z</time></trkpt><trkpt lat="43.2566959" lon="11.2401599"><ele>186.6</ele><time>2026-03-27T13:42:24.706Z</time></trkpt><trkpt lat="43.2566199" lon="11.2402415"><ele>186.8</ele><time>2026-03-27T13:42:25.705Z</time></trkpt><trkpt lat="43.2565423" lon="11.2403244"><ele>187.0</ele><time>2026-03-27T13:42:26.705Z</time></trkpt><trkpt lat="43.2564614" lon="11.2404049"><ele>186.8</ele><time>2026-03-27T13:42:27.705Z</time></trkpt><trkpt lat="43.2563853" lon="11.2404869"><ele>186.6</ele><time>2026-03-27T13:42:28.705Z</time></trkpt><trkpt lat="43.2563105" lon="11.2405671"><ele>186.4</ele><time>2026-03-27T13:42:29.706Z</time></trkpt><trkpt lat="43.2562352" lon="11.2406382"><ele>186.20000000000002</ele><time>2026-03-27T13:42:30.705Z</time></trkpt><trkpt lat="43.2561623" lon="11.2407003"><ele>186.0</ele><time>2026-03-27T13:42:31.705Z</time></trkpt><trkpt lat="43.2560864" lon="11.2407757"><ele>186.0</ele><time>2026-03-27T13:42:32.706Z</time></trkpt><trkpt lat="43.2560117" lon="11.240853"><ele>186.0</ele><time>2026-03-27T13:42:33.705Z</time></trkpt><trkpt lat="43.2559406" lon="11.2409202"><ele>186.0</ele><time>2026-03-27T13:42:34.705Z</time></trkpt><trkpt lat="43.2558702" lon="11.2409949"><ele>186.0</ele><time>2026-03-27T13:42:35.705Z</time></trkpt><trkpt lat="43.2557983" lon="11.2410735"><ele>186.0</ele><time>2026-03-27T13:42:36.705Z</time></trkpt><trkpt lat="43.2557282" lon="11.2411305"><ele>186.0</ele><time>2026-03-27T13:42:37.705Z</time></trkpt><trkpt lat="43.2556593" lon="11.2411854"><ele>185.83333333333334</ele><time>2026-03-27T13:42:38.705Z</time></trkpt><trkpt lat="43.2555908" lon="11.2412547"><ele>185.66666666666666</ele><time>2026-03-27T13:42:39.705Z</time></trkpt><trkpt lat="43.2555239" lon="11.2413142"><ele>185.5</ele><time>2026-03-27T13:42:40.706Z</time></trkpt><trkpt lat="43.2554549" lon="11.24137"><ele>185.33333333333331</ele><time>2026-03-27T13:42:41.706Z</time></trkpt><trkpt lat="43.2553897" lon="11.2414262"><ele>185.16666666666666</ele><time>2026-03-27T13:42:42.706Z</time></trkpt><trkpt lat="43.2553293" lon="11.2414964"><ele>185.0</ele><time>2026-03-27T13:42:43.705Z</time></trkpt><trkpt lat="43.2552669" lon="11.2415446"><ele>184.99999999999997</ele><time>2026-03-27T13:42:44.706Z</time></trkpt><trkpt lat="43.255205" lon="11.2415998"><ele>185.0</ele><time>2026-03-27T13:42:45.705Z</time></trkpt><trkpt lat="43.2551443" lon="11.2416523"><ele>185.0</ele><time>2026-03-27T13:42:46.705Z</time></trkpt><trkpt lat="43.2550799" lon="11.2417104"><ele>185.0</ele><time>2026-03-27T13:42:47.706Z</time></trkpt><trkpt lat="43.2550214" lon="11.2417607"><ele>185.0</ele><time>2026-03-27T13:42:48.706Z</time></trkpt><trkpt lat="43.2549648" lon="11.2418171"><ele>184.99999999999997</ele><time>2026-03-27T13:42:49.705Z</time></trkpt><trkpt lat="43.2549077" lon="11.2418765"><ele>185.0</ele><time>2026-03-27T13:42:50.706Z</time></trkpt><trkpt lat="43.2548461" lon="11.2419257"><ele>185.0</ele><time>2026-03-27T13:42:51.705Z</time></trkpt><trkpt lat="43.2547887" lon="11.2419866"><ele>185.0</ele><time>2026-03-27T13:42:52.705Z</time></trkpt><trkpt lat="43.2547361" lon="11.2420535"><ele>185.0</ele><time>2026-03-27T13:42:53.705Z</time></trkpt><trkpt lat="43.2546769" lon="11.2421158"><ele>185.0</ele><time>2026-03-27T13:42:54.705Z</time></trkpt><trkpt lat="43.2546164" lon="11.2421836"><ele>185.0</ele><time>2026-03-27T13:42:55.705Z</time></trkpt><trkpt lat="43.2545556" lon="11.242254"><ele>185.0</ele><time>2026-03-27T13:42:56.706Z</time></trkpt><trkpt lat="43.2544976" lon="11.2423233"><ele>185.0</ele><time>2026-03-27T13:42:57.705Z</time></trkpt><trkpt lat="43.2544372" lon="11.2423937"><ele>185.0</ele><time>2026-03-27T13:42:58.705Z</time></trkpt><trkpt lat="43.2543774" lon="11.2424751"><ele>185.0</ele><time>2026-03-27T13:42:59.705Z</time></trkpt><trkpt lat="43.2543218" lon="11.242535"><ele>185.0</ele><time>2026-03-27T13:43:00.705Z</time></trkpt><trkpt lat="43.2542661" lon="11.2426046"><ele>185.0</ele><time>2026-03-27T13:43:01.705Z</time></trkpt><trkpt lat="43.2542158" lon="11.2426767"><ele>185.0</ele><time>2026-03-27T13:43:02.705Z</time></trkpt><trkpt lat="43.2541618" lon="11.2427491"><ele>184.99999999999997</ele><time>2026-03-27T13:43:03.705Z</time></trkpt><trkpt lat="43.2541096" lon="11.2428218"><ele>185.0</ele><time>2026-03-27T13:43:04.705Z</time></trkpt><trkpt lat="43.254067" lon="11.2428909"><ele>185.0</ele><time>2026-03-27T13:43:05.705Z</time></trkpt><trkpt lat="43.2540263" lon="11.2429639"><ele>185.0</ele><time>2026-03-27T13:43:06.705Z</time></trkpt><trkpt lat="43.2539825" lon="11.2430439"><ele>185.0</ele><time>2026-03-27T13:43:07.705Z</time></trkpt><trkpt lat="43.2539491" lon="11.2431286"><ele>184.99999999999997</ele><time>2026-03-27T13:43:08.705Z</time></trkpt><trkpt lat="43.2539095" lon="11.243209"><ele>185.0</ele><time>2026-03-27T13:43:09.705Z</time></trkpt><trkpt lat="43.253877" lon="11.2432955"><ele>185.14285714285714</ele><time>2026-03-27T13:43:10.705Z</time></trkpt><trkpt lat="43.2538503" lon="11.2433921"><ele>185.28571428571428</ele><time>2026-03-27T13:43:11.705Z</time></trkpt><trkpt lat="43.2538199" lon="11.2434812"><ele>185.42857142857144</ele><time>2026-03-27T13:43:12.705Z</time></trkpt><trkpt lat="43.2537924" lon="11.2435692"><ele>185.57142857142856</ele><time>2026-03-27T13:43:13.705Z</time></trkpt><trkpt lat="43.2537686" lon="11.2436581"><ele>185.71428571428572</ele><time>2026-03-27T13:43:14.705Z</time></trkpt><trkpt lat="43.2537492" lon="11.2437498"><ele>185.85714285714286</ele><time>2026-03-27T13:43:15.705Z</time></trkpt><trkpt lat="43.2537266" lon="11.243845"><ele>186.0</ele><time>2026-03-27T13:43:16.705Z</time></trkpt><trkpt lat="43.2537054" lon="11.2439386"><ele>186.00000000000003</ele><time>2026-03-27T13:43:17.705Z</time></trkpt><trkpt lat="43.2536815" lon="11.2440293"><ele>186.0</ele><time>2026-03-27T13:43:18.705Z</time></trkpt><trkpt lat="43.2536606" lon="11.2441157"><ele>186.0</ele><time>2026-03-27T13:43:19.705Z</time></trkpt><trkpt lat="43.2536391" lon="11.2442048"><ele>186.0</ele><time>2026-03-27T13:43:20.705Z</time></trkpt><trkpt lat="43.2536216" lon="11.2442947"><ele>186.0</ele><time>2026-03-27T13:43:21.705Z</time></trkpt><trkpt lat="43.2536066" lon="11.2443891"><ele>186.00000000000003</ele><time>2026-03-27T13:43:22.706Z</time></trkpt><trkpt lat="43.2535886" lon="11.2444772"><ele>186.0</ele><time>2026-03-27T13:43:23.706Z</time></trkpt><trkpt lat="43.25357" lon="11.2445695"><ele>186.0</ele><time>2026-03-27T13:43:24.705Z</time></trkpt><trkpt lat="43.253554" lon="11.2446605"><ele>186.0</ele><time>2026-03-27T13:43:25.706Z</time></trkpt><trkpt lat="43.2535436" lon="11.2447552"><ele>186.0</ele><time>2026-03-27T13:43:26.705Z</time></trkpt><trkpt lat="43.2535358" lon="11.2448471"><ele>186.0</ele><time>2026-03-27T13:43:27.705Z</time></trkpt><trkpt lat="43.2535237" lon="11.2449383"><ele>186.0</ele><time>2026-03-27T13:43:28.705Z</time></trkpt><trkpt lat="43.2535147" lon="11.2450292"><ele>186.0</ele><time>2026-03-27T13:43:29.706Z</time></trkpt><trkpt lat="43.253485" lon="11.2451903"><ele>186.0</ele><time>2026-03-27T13:43:31.705Z</time></trkpt><trkpt lat="43.2534608" lon="11.245354"><ele>186.0</ele><time>2026-03-27T13:43:33.705Z</time></trkpt><trkpt lat="43.2534508" lon="11.245441"><ele>186.0</ele><time>2026-03-27T13:43:34.706Z</time></trkpt><trkpt lat="43.2534319" lon="11.2455977"><ele>186.0</ele><time>2026-03-27T13:43:36.705Z</time></trkpt><trkpt lat="43.2534081" lon="11.2457495"><ele>186.0</ele><time>2026-03-27T13:43:38.705Z</time></trkpt><trkpt lat="43.2533601" lon="11.2458865"><ele>186.0</ele><time>2026-03-27T13:43:40.705Z</time></trkpt><trkpt lat="43.2532809" lon="11.2459954"><ele>186.0</ele><time>2026-03-27T13:43:42.705Z</time></trkpt><trkpt lat="43.2531844" lon="11.2460728"><ele>186.0</ele><time>2026-03-27T13:43:44.705Z</time></trkpt><trkpt lat="43.2530768" lon="11.2461114"><ele>186.0</ele><time>2026-03-27T13:43:46.705Z</time></trkpt><trkpt lat="43.2529617" lon="11.2461581"><ele>185.83333333333334</ele><time>2026-03-27T13:43:48.705Z</time></trkpt><trkpt lat="43.252899" lon="11.2461817"><ele>185.66666666666666</ele><time>2026-03-27T13:43:49.706Z</time></trkpt><trkpt lat="43.2528394" lon="11.2462115"><ele>185.5</ele><time>2026-03-27T13:43:50.705Z</time></trkpt><trkpt lat="43.252723" lon="11.2462596"><ele>185.33333333333331</ele><time>2026-03-27T13:43:52.705Z</time></trkpt><trkpt lat="43.2526625" lon="11.2462849"><ele>185.16666666666666</ele><time>2026-03-27T13:43:53.706Z</time></trkpt><trkpt lat="43.2525512" lon="11.2463372"><ele>185.0</ele><time>2026-03-27T13:43:55.705Z</time></trkpt><trkpt lat="43.2524323" lon="11.2463751"><ele>185.0</ele><time>2026-03-27T13:43:57.706Z</time></trkpt><trkpt lat="43.2523722" lon="11.2464049"><ele>185.0</ele><time>2026-03-27T13:43:58.705Z</time></trkpt><trkpt lat="43.2522495" lon="11.2464583"><ele>185.0</ele><time>2026-03-27T13:44:00.706Z</time></trkpt><trkpt lat="43.2521872" lon="11.246487"><ele>185.0</ele><time>2026-03-27T13:44:01.705Z</time></trkpt><trkpt lat="43.2520658" lon="11.2465298"><ele>185.0</ele><time>2026-03-27T13:44:03.705Z</time></trkpt><trkpt lat="43.2520009" lon="11.2465609"><ele>184.83333333333331</ele><time>2026-03-27T13:44:04.705Z</time></trkpt><trkpt lat="43.2518813" lon="11.2466266"><ele>184.66666666666666</ele><time>2026-03-27T13:44:06.706Z</time></trkpt><trkpt lat="43.2518273" lon="11.2466799"><ele>184.5</ele><time>2026-03-27T13:44:07.706Z</time></trkpt><trkpt lat="43.251774" lon="11.2467354"><ele>184.33333333333334</ele><time>2026-03-27T13:44:08.705Z</time></trkpt><trkpt lat="43.2516819" lon="11.2468366"><ele>184.16666666666669</ele><time>2026-03-27T13:44:10.705Z</time></trkpt><trkpt lat="43.2516325" lon="11.2468982"><ele>184.0</ele><time>2026-03-27T13:44:11.706Z</time></trkpt><trkpt lat="43.2515284" lon="11.2470003"><ele>184.0</ele><time>2026-03-27T13:44:13.705Z</time></trkpt><trkpt lat="43.2514783" lon="11.2470562"><ele>184.0</ele><time>2026-03-27T13:44:14.705Z</time></trkpt><trkpt lat="43.251429" lon="11.2471157"><ele>184.0</ele><time>2026-03-27T13:44:15.705Z</time></trkpt><trkpt lat="43.2513799" lon="11.2471796"><ele>184.0</ele><time>2026-03-27T13:44:16.705Z</time></trkpt><trkpt lat="43.2513331" lon="11.2472407"><ele>184.0</ele><time>2026-03-27T13:44:17.705Z</time></trkpt><trkpt lat="43.2512869" lon="11.2473039"><ele>184.0</ele><time>2026-03-27T13:44:18.705Z</time></trkpt><trkpt lat="43.2512429" lon="11.2473767"><ele>184.0</ele><time>2026-03-27T13:44:19.705Z</time></trkpt><trkpt lat="43.2511951" lon="11.2474469"><ele>184.39999999999998</ele><time>2026-03-27T13:44:20.705Z</time></trkpt><trkpt lat="43.2511052" lon="11.2475744"><ele>184.8</ele><time>2026-03-27T13:44:22.705Z</time></trkpt><trkpt lat="43.2510565" lon="11.2476415"><ele>185.2</ele><time>2026-03-27T13:44:23.705Z</time></trkpt><trkpt lat="43.2510093" lon="11.2477113"><ele>185.60000000000002</ele><time>2026-03-27T13:44:24.705Z</time></trkpt><trkpt lat="43.2509649" lon="11.2477795"><ele>186.0</ele><time>2026-03-27T13:44:25.706Z</time></trkpt><trkpt lat="43.2508814" lon="11.2478907"><ele>186.0</ele><time>2026-03-27T13:44:27.706Z</time></trkpt><trkpt lat="43.2507826" lon="11.2479987"><ele>186.0</ele><time>2026-03-27T13:44:29.705Z</time></trkpt><trkpt lat="43.2507346" lon="11.248061"><ele>186.0</ele><time>2026-03-27T13:44:30.706Z</time></trkpt><trkpt lat="43.2506842" lon="11.2481272"><ele>186.0</ele><time>2026-03-27T13:44:31.705Z</time></trkpt><trkpt lat="43.25064" lon="11.248196"><ele>186.0</ele><time>2026-03-27T13:44:32.705Z</time></trkpt><trkpt lat="43.2505929" lon="11.2482617"><ele>186.0</ele><time>2026-03-27T13:44:33.705Z</time></trkpt><trkpt lat="43.250546" lon="11.2483222"><ele>185.8</ele><time>2026-03-27T13:44:34.705Z</time></trkpt><trkpt lat="43.2504988" lon="11.2483864"><ele>185.60000000000002</ele><time>2026-03-27T13:44:35.706Z</time></trkpt><trkpt lat="43.2504521" lon="11.2484558"><ele>185.4</ele><time>2026-03-27T13:44:36.705Z</time></trkpt><trkpt lat="43.2503644" lon="11.2485599"><ele>185.2</ele><time>2026-03-27T13:44:38.705Z</time></trkpt><trkpt lat="43.2502733" lon="11.2486667"><ele>185.0</ele><time>2026-03-27T13:44:40.706Z</time></trkpt><trkpt lat="43.2501831" lon="11.2487787"><ele>185.0</ele><time>2026-03-27T13:44:42.706Z</time></trkpt><trkpt lat="43.250132" lon="11.2488447"><ele>185.0</ele><time>2026-03-27T13:44:43.705Z</time></trkpt><trkpt lat="43.2500923" lon="11.248912"><ele>185.0</ele><time>2026-03-27T13:44:44.706Z</time></trkpt><trkpt lat="43.2500409" lon="11.2489785"><ele>185.0</ele><time>2026-03-27T13:44:45.705Z</time></trkpt><trkpt lat="43.2499531" lon="11.2490984"><ele>185.0</ele><time>2026-03-27T13:44:47.706Z</time></trkpt><trkpt lat="43.2499053" lon="11.2491618"><ele>185.0</ele><time>2026-03-27T13:44:48.705Z</time></trkpt><trkpt lat="43.2498537" lon="11.2492218"><ele>185.0</ele><time>2026-03-27T13:44:49.705Z</time></trkpt><trkpt lat="43.2497707" lon="11.2493349"><ele>185.0</ele><time>2026-03-27T13:44:51.706Z</time></trkpt><trkpt lat="43.249721" lon="11.249396"><ele>185.0</ele><time>2026-03-27T13:44:52.705Z</time></trkpt><trkpt lat="43.2496748" lon="11.2494623"><ele>185.0</ele><time>2026-03-27T13:44:53.705Z</time></trkpt><trkpt lat="43.2496283" lon="11.2495251"><ele>185.0</ele><time>2026-03-27T13:44:54.705Z</time></trkpt><trkpt lat="43.2495428" lon="11.2496453"><ele>185.0</ele><time>2026-03-27T13:44:56.705Z</time></trkpt><trkpt lat="43.2494632" lon="11.2497661"><ele>185.2</ele><time>2026-03-27T13:44:58.705Z</time></trkpt><trkpt lat="43.2494152" lon="11.2498973"><ele>185.4</ele><time>2026-03-27T13:45:00.705Z</time></trkpt><trkpt lat="43.2493858" lon="11.2500389"><ele>185.60000000000002</ele><time>2026-03-27T13:45:02.706Z</time></trkpt><trkpt lat="43.2493485" lon="11.2501601"><ele>185.8</ele><time>2026-03-27T13:45:04.705Z</time></trkpt><trkpt lat="43.2492745" lon="11.2502391"><ele>186.0</ele><time>2026-03-27T13:45:06.705Z</time></trkpt><trkpt lat="43.2491735" lon="11.2502832"><ele>186.0</ele><time>2026-03-27T13:45:08.706Z</time></trkpt><trkpt lat="43.2490614" lon="11.2503265"><ele>186.0</ele><time>2026-03-27T13:45:10.705Z</time></trkpt><trkpt lat="43.2489523" lon="11.2503605"><ele>186.0</ele><time>2026-03-27T13:45:12.706Z</time></trkpt><trkpt lat="43.2488427" lon="11.2503755"><ele>186.0</ele><time>2026-03-27T13:45:14.705Z</time></trkpt><trkpt lat="43.2487294" lon="11.250397"><ele>185.8</ele><time>2026-03-27T13:45:16.705Z</time></trkpt><trkpt lat="43.2486201" lon="11.250422"><ele>185.60000000000002</ele><time>2026-03-27T13:45:18.705Z</time></trkpt><trkpt lat="43.2485101" lon="11.2504503"><ele>185.4</ele><time>2026-03-27T13:45:20.705Z</time></trkpt><trkpt lat="43.2484006" lon="11.2504721"><ele>185.2</ele><time>2026-03-27T13:45:22.705Z</time></trkpt><trkpt lat="43.248293" lon="11.2504953"><ele>185.0</ele><time>2026-03-27T13:45:24.705Z</time></trkpt><trkpt lat="43.2481828" lon="11.2505208"><ele>184.75</ele><time>2026-03-27T13:45:26.705Z</time></trkpt><trkpt lat="43.2480712" lon="11.2505502"><ele>184.5</ele><time>2026-03-27T13:45:28.705Z</time></trkpt><trkpt lat="43.2479572" lon="11.2505689"><ele>184.25</ele><time>2026-03-27T13:45:30.706Z</time></trkpt><trkpt lat="43.247844" lon="11.2505922"><ele>184.0</ele><time>2026-03-27T13:45:32.705Z</time></trkpt><trkpt lat="43.2477351" lon="11.2506313"><ele>184.0</ele><time>2026-03-27T13:45:34.705Z</time></trkpt><trkpt lat="43.2476203" lon="11.2506444"><ele>184.0</ele><time>2026-03-27T13:45:36.705Z</time></trkpt><trkpt lat="43.2475" lon="11.250678"><ele>184.0</ele><time>2026-03-27T13:45:38.705Z</time></trkpt><trkpt lat="43.2473797" lon="11.2506972"><ele>184.0</ele><time>2026-03-27T13:45:40.706Z</time></trkpt><trkpt lat="43.2472572" lon="11.2507127"><ele>183.79999999999998</ele><time>2026-03-27T13:45:42.705Z</time></trkpt><trkpt lat="43.2471356" lon="11.2507345"><ele>183.6</ele><time>2026-03-27T13:45:44.706Z</time></trkpt><trkpt lat="43.2470738" lon="11.2507583"><ele>183.4</ele><time>2026-03-27T13:45:45.705Z</time></trkpt><trkpt lat="43.2469749" lon="11.2508379"><ele>183.2</ele><time>2026-03-27T13:45:47.706Z</time></trkpt><trkpt lat="43.2469126" lon="11.250991"><ele>183.0</ele><time>2026-03-27T13:45:49.705Z</time></trkpt><trkpt lat="43.2469036" lon="11.2510827"><ele>183.0</ele><time>2026-03-27T13:45:50.705Z</time></trkpt><trkpt lat="43.246906" lon="11.251176"><ele>183.0</ele><time>2026-03-27T13:45:51.705Z</time></trkpt><trkpt lat="43.2469116" lon="11.2512648"><ele>183.0</ele><time>2026-03-27T13:45:52.706Z</time></trkpt><trkpt lat="43.2469269" lon="11.2513532"><ele>183.0</ele><time>2026-03-27T13:45:53.706Z</time></trkpt><trkpt lat="43.2469369" lon="11.2514471"><ele>183.0</ele><time>2026-03-27T13:45:54.705Z</time></trkpt><trkpt lat="43.2469555" lon="11.2515335"><ele>183.0</ele><time>2026-03-27T13:45:55.705Z</time></trkpt><trkpt lat="43.2469666" lon="11.2516193"><ele>183.0</ele><time>2026-03-27T13:45:56.706Z</time></trkpt><trkpt lat="43.2469829" lon="11.2517076"><ele>182.83333333333334</ele><time>2026-03-27T13:45:57.705Z</time></trkpt><trkpt lat="43.2469997" lon="11.251793"><ele>182.66666666666666</ele><time>2026-03-27T13:45:58.706Z</time></trkpt><trkpt lat="43.2470143" lon="11.2518825"><ele>182.5</ele><time>2026-03-27T13:45:59.705Z</time></trkpt><trkpt lat="43.2470317" lon="11.2519685"><ele>182.33333333333331</ele><time>2026-03-27T13:46:00.705Z</time></trkpt><trkpt lat="43.2470481" lon="11.252055"><ele>182.16666666666666</ele><time>2026-03-27T13:46:01.705Z</time></trkpt><trkpt lat="43.2470808" lon="11.2522186"><ele>182.0</ele><time>2026-03-27T13:46:03.705Z</time></trkpt><trkpt lat="43.2471055" lon="11.2523673"><ele>181.8</ele><time>2026-03-27T13:46:05.706Z</time></trkpt><trkpt lat="43.2471248" lon="11.2525137"><ele>181.6</ele><time>2026-03-27T13:46:07.706Z</time></trkpt><trkpt lat="43.2471391" lon="11.2526568"><ele>181.4</ele><time>2026-03-27T13:46:09.705Z</time></trkpt><trkpt lat="43.2471401" lon="11.2527947"><ele>181.20000000000002</ele><time>2026-03-27T13:46:11.706Z</time></trkpt><trkpt lat="43.2471422" lon="11.2529322"><ele>181.0</ele><time>2026-03-27T13:46:13.705Z</time></trkpt><trkpt lat="43.2471444" lon="11.253068"><ele>181.0</ele><time>2026-03-27T13:46:15.705Z</time></trkpt><trkpt lat="43.247145" lon="11.2531883"><ele>181.0</ele><time>2026-03-27T13:46:17.705Z</time></trkpt><trkpt lat="43.247155" lon="11.2533058"><ele>181.0</ele><time>2026-03-27T13:46:19.705Z</time></trkpt><trkpt lat="43.2471546" lon="11.253428"><ele>181.0</ele><time>2026-03-27T13:46:21.705Z</time></trkpt><trkpt lat="43.2471525" lon="11.2535515"><ele>181.0</ele><time>2026-03-27T13:46:23.705Z</time></trkpt><trkpt lat="43.247157" lon="11.2536748"><ele>181.0</ele><time>2026-03-27T13:46:25.705Z</time></trkpt><trkpt lat="43.2471603" lon="11.253806"><ele>181.0</ele><time>2026-03-27T13:46:27.705Z</time></trkpt><trkpt lat="43.2471567" lon="11.2539387"><ele>181.0</ele><time>2026-03-27T13:46:29.705Z</time></trkpt><trkpt lat="43.2471625" lon="11.2540661"><ele>181.0</ele><time>2026-03-27T13:46:31.705Z</time></trkpt><trkpt lat="43.2471653" lon="11.254185"><ele>181.0</ele><time>2026-03-27T13:46:33.706Z</time></trkpt><trkpt lat="43.2471655" lon="11.2543023"><ele>181.0</ele><time>2026-03-27T13:46:35.706Z</time></trkpt><trkpt lat="43.2471664" lon="11.2544227"><ele>181.0</ele><time>2026-03-27T13:46:37.705Z</time></trkpt><trkpt lat="43.2471688" lon="11.2545504"><ele>181.0</ele><time>2026-03-27T13:46:39.706Z</time></trkpt><trkpt lat="43.2471724" lon="11.2546731"><ele>181.0</ele><time>2026-03-27T13:46:41.705Z</time></trkpt><trkpt lat="43.2471785" lon="11.254789"><ele>181.0</ele><time>2026-03-27T13:46:43.706Z</time></trkpt><trkpt lat="43.2471795" lon="11.254906"><ele>181.0</ele><time>2026-03-27T13:46:45.706Z</time></trkpt><trkpt lat="43.2471791" lon="11.2550218"><ele>181.0</ele><time>2026-03-27T13:46:47.705Z</time></trkpt><trkpt lat="43.247182" lon="11.2551418"><ele>181.0</ele><time>2026-03-27T13:46:49.705Z</time></trkpt><trkpt lat="43.2471841" lon="11.255261"><ele>181.16666666666669</ele><time>2026-03-27T13:46:51.705Z</time></trkpt><trkpt lat="43.2471895" lon="11.2553752"><ele>181.33333333333334</ele><time>2026-03-27T13:46:53.705Z</time></trkpt><trkpt lat="43.2471936" lon="11.2554938"><ele>181.5</ele><time>2026-03-27T13:46:55.706Z</time></trkpt><trkpt lat="43.2472002" lon="11.2556132"><ele>181.66666666666666</ele><time>2026-03-27T13:46:57.705Z</time></trkpt><trkpt lat="43.2471986" lon="11.2557383"><ele>181.83333333333331</ele><time>2026-03-27T13:46:59.705Z</time></trkpt><trkpt lat="43.2471848" lon="11.2558651"><ele>182.0</ele><time>2026-03-27T13:47:01.705Z</time></trkpt><trkpt lat="43.2471446" lon="11.2559715"><ele>182.0</ele><time>2026-03-27T13:47:03.705Z</time></trkpt><trkpt lat="43.247082" lon="11.2560596"><ele>182.0</ele><time>2026-03-27T13:47:05.705Z</time></trkpt><trkpt lat="43.2470075" lon="11.256148"><ele>182.0</ele><time>2026-03-27T13:47:07.705Z</time></trkpt><trkpt lat="43.2469324" lon="11.2562475"><ele>182.0</ele><time>2026-03-27T13:47:09.706Z</time></trkpt><trkpt lat="43.2468587" lon="11.2563303"><ele>182.0</ele><time>2026-03-27T13:47:11.706Z</time></trkpt><trkpt lat="43.2467935" lon="11.2564226"><ele>182.0</ele><time>2026-03-27T13:47:13.706Z</time></trkpt><trkpt lat="43.246723" lon="11.2564995"><ele>182.0</ele><time>2026-03-27T13:47:15.705Z</time></trkpt><trkpt lat="43.2466431" lon="11.2566026"><ele>182.0</ele><time>2026-03-27T13:47:17.705Z</time></trkpt><trkpt lat="43.2465675" lon="11.2566982"><ele>182.0</ele><time>2026-03-27T13:47:19.705Z</time></trkpt><trkpt lat="43.2464937" lon="11.2567961"><ele>182.0</ele><time>2026-03-27T13:47:21.705Z</time></trkpt><trkpt lat="43.2464181" lon="11.2569014"><ele>182.0</ele><time>2026-03-27T13:47:23.705Z</time></trkpt><trkpt lat="43.2463332" lon="11.2569928"><ele>182.0</ele><time>2026-03-27T13:47:25.705Z</time></trkpt><trkpt lat="43.2462544" lon="11.2571016"><ele>182.0</ele><time>2026-03-27T13:47:27.705Z</time></trkpt><trkpt lat="43.2461658" lon="11.2572092"><ele>182.0</ele><time>2026-03-27T13:47:29.705Z</time></trkpt><trkpt lat="43.2460778" lon="11.2573123"><ele>182.2</ele><time>2026-03-27T13:47:31.705Z</time></trkpt><trkpt lat="43.2459958" lon="11.2574081"><ele>182.39999999999998</ele><time>2026-03-27T13:47:33.705Z</time></trkpt><trkpt lat="43.2459101" lon="11.2575169"><ele>182.60000000000002</ele><time>2026-03-27T13:47:35.705Z</time></trkpt><trkpt lat="43.245826" lon="11.257614"><ele>182.8</ele><time>2026-03-27T13:47:37.705Z</time></trkpt><trkpt lat="43.245746" lon="11.2577131"><ele>183.0</ele><time>2026-03-27T13:47:39.705Z</time></trkpt><trkpt lat="43.2456585" lon="11.2578231"><ele>182.8</ele><time>2026-03-27T13:47:41.705Z</time></trkpt><trkpt lat="43.2455762" lon="11.2579205"><ele>182.60000000000002</ele><time>2026-03-27T13:47:43.705Z</time></trkpt><trkpt lat="43.2455008" lon="11.2580039"><ele>182.39999999999998</ele><time>2026-03-27T13:47:45.705Z</time></trkpt><trkpt lat="43.2454119" lon="11.2581068"><ele>182.2</ele><time>2026-03-27T13:47:47.705Z</time></trkpt><trkpt lat="43.2453333" lon="11.2582075"><ele>182.0</ele><time>2026-03-27T13:47:49.706Z</time></trkpt><trkpt lat="43.2452509" lon="11.2583109"><ele>182.0</ele><time>2026-03-27T13:47:51.706Z</time></trkpt><trkpt lat="43.2451663" lon="11.2584196"><ele>182.0</ele><time>2026-03-27T13:47:53.705Z</time></trkpt><trkpt lat="43.245084" lon="11.2585195"><ele>182.0</ele><time>2026-03-27T13:47:55.705Z</time></trkpt><trkpt lat="43.2450098" lon="11.2586231"><ele>182.0</ele><time>2026-03-27T13:47:57.705Z</time></trkpt><trkpt lat="43.2449318" lon="11.2587416"><ele>182.0</ele><time>2026-03-27T13:47:59.705Z</time></trkpt><trkpt lat="43.2448587" lon="11.2588713"><ele>182.5</ele><time>2026-03-27T13:48:01.705Z</time></trkpt><trkpt lat="43.2447872" lon="11.2589997"><ele>183.0</ele><time>2026-03-27T13:48:03.705Z</time></trkpt><trkpt lat="43.2447172" lon="11.259132"><ele>183.5</ele><time>2026-03-27T13:48:05.706Z</time></trkpt><trkpt lat="43.2446431" lon="11.2592621"><ele>184.0</ele><time>2026-03-27T13:48:07.705Z</time></trkpt><trkpt lat="43.2445639" lon="11.2593576"><ele>184.0</ele><time>2026-03-27T13:48:09.705Z</time></trkpt><trkpt lat="43.244469" lon="11.2594255"><ele>184.0</ele><time>2026-03-27T13:48:11.705Z</time></trkpt><trkpt lat="43.2443603" lon="11.2594684"><ele>184.0</ele><time>2026-03-27T13:48:13.705Z</time></trkpt><trkpt lat="43.2442976" lon="11.2594861"><ele>184.0</ele><time>2026-03-27T13:48:14.705Z</time></trkpt><trkpt lat="43.2442372" lon="11.259512"><ele>184.0</ele><time>2026-03-27T13:48:15.706Z</time></trkpt><trkpt lat="43.2441206" lon="11.2595288"><ele>184.0</ele><time>2026-03-27T13:48:17.706Z</time></trkpt><trkpt lat="43.2440002" lon="11.2595519"><ele>184.0</ele><time>2026-03-27T13:48:19.706Z</time></trkpt><trkpt lat="43.2438779" lon="11.2595779"><ele>184.0</ele><time>2026-03-27T13:48:21.705Z</time></trkpt><trkpt lat="43.2437515" lon="11.2595939"><ele>184.0</ele><time>2026-03-27T13:48:23.705Z</time></trkpt><trkpt lat="43.243627" lon="11.2596136"><ele>183.83333333333334</ele><time>2026-03-27T13:48:25.705Z</time></trkpt><trkpt lat="43.2435015" lon="11.2596336"><ele>183.66666666666669</ele><time>2026-03-27T13:48:27.705Z</time></trkpt><trkpt lat="43.2434388" lon="11.2596483"><ele>183.5</ele><time>2026-03-27T13:48:28.706Z</time></trkpt><trkpt lat="43.2433162" lon="11.2596645"><ele>183.33333333333334</ele><time>2026-03-27T13:48:30.706Z</time></trkpt><trkpt lat="43.2432524" lon="11.2596789"><ele>183.16666666666666</ele><time>2026-03-27T13:48:31.705Z</time></trkpt><trkpt lat="43.2431881" lon="11.2596913"><ele>183.0</ele><time>2026-03-27T13:48:32.705Z</time></trkpt><trkpt lat="43.2431228" lon="11.259708"><ele>183.0</ele><time>2026-03-27T13:48:33.706Z</time></trkpt><trkpt lat="43.2430566" lon="11.2597187"><ele>183.0</ele><time>2026-03-27T13:48:34.705Z</time></trkpt><trkpt lat="43.2429904" lon="11.2597286"><ele>183.0</ele><time>2026-03-27T13:48:35.705Z</time></trkpt><trkpt lat="43.2429254" lon="11.2597345"><ele>183.0</ele><time>2026-03-27T13:48:36.705Z</time></trkpt><trkpt lat="43.2428603" lon="11.2597492"><ele>183.0</ele><time>2026-03-27T13:48:37.705Z</time></trkpt><trkpt lat="43.2427926" lon="11.2597717"><ele>183.0</ele><time>2026-03-27T13:48:38.705Z</time></trkpt><trkpt lat="43.242726" lon="11.2597852"><ele>183.0</ele><time>2026-03-27T13:48:39.705Z</time></trkpt><trkpt lat="43.2426613" lon="11.2598017"><ele>183.0</ele><time>2026-03-27T13:48:40.706Z</time></trkpt><trkpt lat="43.2425978" lon="11.2598147"><ele>183.0</ele><time>2026-03-27T13:48:41.706Z</time></trkpt><trkpt lat="43.242536" lon="11.2598326"><ele>183.0</ele><time>2026-03-27T13:48:42.705Z</time></trkpt><trkpt lat="43.2424732" lon="11.25985"><ele>183.0</ele><time>2026-03-27T13:48:43.705Z</time></trkpt><trkpt lat="43.2424082" lon="11.2598652"><ele>183.0</ele><time>2026-03-27T13:48:44.706Z</time></trkpt><trkpt lat="43.242345" lon="11.2598833"><ele>183.0</ele><time>2026-03-27T13:48:45.706Z</time></trkpt><trkpt lat="43.2422803" lon="11.2598989"><ele>183.0</ele><time>2026-03-27T13:48:46.705Z</time></trkpt><trkpt lat="43.2422138" lon="11.2599161"><ele>182.8</ele><time>2026-03-27T13:48:47.706Z</time></trkpt><trkpt lat="43.2420873" lon="11.2599486"><ele>182.60000000000002</ele><time>2026-03-27T13:48:49.705Z</time></trkpt><trkpt lat="43.242024" lon="11.2599612"><ele>182.39999999999998</ele><time>2026-03-27T13:48:50.705Z</time></trkpt><trkpt lat="43.2419569" lon="11.2599763"><ele>182.2</ele><time>2026-03-27T13:48:51.706Z</time></trkpt><trkpt lat="43.2418925" lon="11.2599893"><ele>182.0</ele><time>2026-03-27T13:48:52.705Z</time></trkpt><trkpt lat="43.2417647" lon="11.2599986"><ele>182.0</ele><time>2026-03-27T13:48:54.706Z</time></trkpt><trkpt lat="43.241702" lon="11.2600228"><ele>182.0</ele><time>2026-03-27T13:48:55.705Z</time></trkpt><trkpt lat="43.2416323" lon="11.2600322"><ele>182.0</ele><time>2026-03-27T13:48:56.706Z</time></trkpt><trkpt lat="43.2415647" lon="11.2600576"><ele>182.0</ele><time>2026-03-27T13:48:57.706Z</time></trkpt><trkpt lat="43.2414976" lon="11.2600755"><ele>182.0</ele><time>2026-03-27T13:48:58.705Z</time></trkpt><trkpt lat="43.2414295" lon="11.2600946"><ele>182.0</ele><time>2026-03-27T13:48:59.706Z</time></trkpt><trkpt lat="43.241363" lon="11.2601075"><ele>182.0</ele><time>2026-03-27T13:49:00.705Z</time></trkpt><trkpt lat="43.2412983" lon="11.2601229"><ele>181.85714285714286</ele><time>2026-03-27T13:49:01.705Z</time></trkpt><trkpt lat="43.2412356" lon="11.2601323"><ele>181.71428571428572</ele><time>2026-03-27T13:49:02.706Z</time></trkpt><trkpt lat="43.2411717" lon="11.2601421"><ele>181.57142857142856</ele><time>2026-03-27T13:49:03.706Z</time></trkpt><trkpt lat="43.2411046" lon="11.2601619"><ele>181.42857142857144</ele><time>2026-03-27T13:49:04.705Z</time></trkpt><trkpt lat="43.2410378" lon="11.2601799"><ele>181.28571428571428</ele><time>2026-03-27T13:49:05.705Z</time></trkpt><trkpt lat="43.2409703" lon="11.2601918"><ele>181.14285714285714</ele><time>2026-03-27T13:49:06.706Z</time></trkpt><trkpt lat="43.2409026" lon="11.260212"><ele>181.0</ele><time>2026-03-27T13:49:07.705Z</time></trkpt><trkpt lat="43.2408368" lon="11.2602256"><ele>181.0</ele><time>2026-03-27T13:49:08.705Z</time></trkpt><trkpt lat="43.2407704" lon="11.2602461"><ele>181.0</ele><time>2026-03-27T13:49:09.705Z</time></trkpt><trkpt lat="43.2407049" lon="11.2602617"><ele>181.0</ele><time>2026-03-27T13:49:10.706Z</time></trkpt><trkpt lat="43.2406367" lon="11.2602769"><ele>181.0</ele><time>2026-03-27T13:49:11.705Z</time></trkpt><trkpt lat="43.2405715" lon="11.260297"><ele>181.0</ele><time>2026-03-27T13:49:12.706Z</time></trkpt><trkpt lat="43.2405054" lon="11.260307"><ele>181.0</ele><time>2026-03-27T13:49:13.705Z</time></trkpt><trkpt lat="43.24044" lon="11.260322"><ele>181.0</ele><time>2026-03-27T13:49:14.706Z</time></trkpt><trkpt lat="43.2403743" lon="11.260342"><ele>181.0</ele><time>2026-03-27T13:49:15.705Z</time></trkpt><trkpt lat="43.2403085" lon="11.2603554"><ele>181.0</ele><time>2026-03-27T13:49:16.706Z</time></trkpt><trkpt lat="43.2401865" lon="11.2603767"><ele>181.0</ele><time>2026-03-27T13:49:18.705Z</time></trkpt><trkpt lat="43.2400714" lon="11.2603971"><ele>181.0</ele><time>2026-03-27T13:49:20.706Z</time></trkpt><trkpt lat="43.2399556" lon="11.2604379"><ele>181.0</ele><time>2026-03-27T13:49:22.705Z</time></trkpt><trkpt lat="43.2398454" lon="11.2604602"><ele>181.20000000000002</ele><time>2026-03-27T13:49:24.705Z</time></trkpt><trkpt lat="43.2397345" lon="11.260484"><ele>181.4</ele><time>2026-03-27T13:49:26.706Z</time></trkpt><trkpt lat="43.2396263" lon="11.2605245"><ele>181.6</ele><time>2026-03-27T13:49:28.706Z</time></trkpt><trkpt lat="43.239526" lon="11.2605397"><ele>181.8</ele><time>2026-03-27T13:49:30.706Z</time></trkpt><trkpt lat="43.2394155" lon="11.2605693"><ele>182.0</ele><time>2026-03-27T13:49:32.705Z</time></trkpt><trkpt lat="43.2393134" lon="11.2606081"><ele>182.2</ele><time>2026-03-27T13:49:34.705Z</time></trkpt><trkpt lat="43.2392074" lon="11.2606429"><ele>182.39999999999998</ele><time>2026-03-27T13:49:36.706Z</time></trkpt><trkpt lat="43.2391049" lon="11.2606763"><ele>182.60000000000002</ele><time>2026-03-27T13:49:38.705Z</time></trkpt><trkpt lat="43.2390117" lon="11.2606982"><ele>182.8</ele><time>2026-03-27T13:49:40.706Z</time></trkpt><trkpt lat="43.238912" lon="11.2607274"><ele>183.0</ele><time>2026-03-27T13:49:42.706Z</time></trkpt><trkpt lat="43.2388209" lon="11.2607612"><ele>182.60000000000002</ele><time>2026-03-27T13:49:44.705Z</time></trkpt><trkpt lat="43.2387308" lon="11.2607909"><ele>182.20000000000002</ele><time>2026-03-27T13:49:46.706Z</time></trkpt><trkpt lat="43.2386326" lon="11.2608311"><ele>181.8</ele><time>2026-03-27T13:49:48.705Z</time></trkpt><trkpt lat="43.2385325" lon="11.2608637"><ele>181.4</ele><time>2026-03-27T13:49:50.706Z</time></trkpt><trkpt lat="43.2384352" lon="11.2608916"><ele>181.0</ele><time>2026-03-27T13:49:52.705Z</time></trkpt><trkpt lat="43.2383323" lon="11.2609328"><ele>181.0</ele><time>2026-03-27T13:49:54.705Z</time></trkpt><trkpt lat="43.2382302" lon="11.2609822"><ele>181.0</ele><time>2026-03-27T13:49:56.706Z</time></trkpt><trkpt lat="43.2381302" lon="11.2610406"><ele>181.0</ele><time>2026-03-27T13:49:58.705Z</time></trkpt><trkpt lat="43.2380282" lon="11.2610916"><ele>181.0</ele><time>2026-03-27T13:50:00.705Z</time></trkpt><trkpt lat="43.2379235" lon="11.2611317"><ele>181.0</ele><time>2026-03-27T13:50:02.705Z</time></trkpt><trkpt lat="43.2378226" lon="11.261187"><ele>181.16666666666669</ele><time>2026-03-27T13:50:04.705Z</time></trkpt><trkpt lat="43.2377337" lon="11.2612421"><ele>181.33333333333334</ele><time>2026-03-27T13:50:06.705Z</time></trkpt><trkpt lat="43.2376842" lon="11.2613393"><ele>181.5</ele><time>2026-03-27T13:50:09.706Z</time></trkpt><trkpt lat="43.2377022" lon="11.2614585"><ele>181.66666666666666</ele><time>2026-03-27T13:50:12.705Z</time></trkpt><trkpt lat="43.2377353" lon="11.2615651"><ele>181.83333333333331</ele><time>2026-03-27T13:50:14.705Z</time></trkpt><trkpt lat="43.237769" lon="11.2616758"><ele>182.0</ele><time>2026-03-27T13:50:16.705Z</time></trkpt><trkpt lat="43.2378194" lon="11.2618006"><ele>182.0</ele><time>2026-03-27T13:50:18.705Z</time></trkpt><trkpt lat="43.2378593" lon="11.2619069"><ele>182.0</ele><time>2026-03-27T13:50:20.706Z</time></trkpt><trkpt lat="43.2378965" lon="11.2620331"><ele>182.0</ele><time>2026-03-27T13:50:22.706Z</time></trkpt><trkpt lat="43.237928" lon="11.2621578"><ele>182.0</ele><time>2026-03-27T13:50:24.705Z</time></trkpt><trkpt lat="43.2379736" lon="11.2622709"><ele>182.0</ele><time>2026-03-27T13:50:26.705Z</time></trkpt><trkpt lat="43.2380157" lon="11.2623773"><ele>181.8</ele><time>2026-03-27T13:50:28.706Z</time></trkpt><trkpt lat="43.2380603" lon="11.2624827"><ele>181.6</ele><time>2026-03-27T13:50:30.705Z</time></trkpt><trkpt lat="43.2380992" lon="11.2625989"><ele>181.4</ele><time>2026-03-27T13:50:32.706Z</time></trkpt><trkpt lat="43.2381333" lon="11.2627361"><ele>181.20000000000002</ele><time>2026-03-27T13:50:34.705Z</time></trkpt><trkpt lat="43.2381743" lon="11.2628583"><ele>181.0</ele><time>2026-03-27T13:50:36.705Z</time></trkpt><trkpt lat="43.2382106" lon="11.2629764"><ele>181.0</ele><time>2026-03-27T13:50:38.705Z</time></trkpt><trkpt lat="43.2382538" lon="11.2630804"><ele>181.0</ele><time>2026-03-27T13:50:40.705Z</time></trkpt><trkpt lat="43.2382921" lon="11.2631879"><ele>181.0</ele><time>2026-03-27T13:50:42.705Z</time></trkpt><trkpt lat="43.2383321" lon="11.263295"><ele>181.0</ele><time>2026-03-27T13:50:44.706Z</time></trkpt><trkpt lat="43.2383654" lon="11.2634085"><ele>181.0</ele><time>2026-03-27T13:50:46.705Z</time></trkpt><trkpt lat="43.2383966" lon="11.2635397"><ele>181.0</ele><time>2026-03-27T13:50:48.706Z</time></trkpt><trkpt lat="43.2384387" lon="11.2636479"><ele>181.0</ele><time>2026-03-27T13:50:50.705Z</time></trkpt><trkpt lat="43.2384846" lon="11.2637584"><ele>181.0</ele><time>2026-03-27T13:50:52.705Z</time></trkpt><trkpt lat="43.2385239" lon="11.263888"><ele>181.0</ele><time>2026-03-27T13:50:54.705Z</time></trkpt><trkpt lat="43.2385644" lon="11.2640026"><ele>181.0</ele><time>2026-03-27T13:50:56.705Z</time></trkpt><trkpt lat="43.2386038" lon="11.2641135"><ele>181.0</ele><time>2026-03-27T13:50:58.706Z</time></trkpt><trkpt lat="43.2386422" lon="11.2642358"><ele>181.0</ele><time>2026-03-27T13:51:00.705Z</time></trkpt><trkpt lat="43.2386873" lon="11.2643593"><ele>181.0</ele><time>2026-03-27T13:51:02.705Z</time></trkpt><trkpt lat="43.2387246" lon="11.2644976"><ele>181.0</ele><time>2026-03-27T13:51:04.705Z</time></trkpt><trkpt lat="43.2387652" lon="11.2646298"><ele>181.0</ele><time>2026-03-27T13:51:06.705Z</time></trkpt><trkpt lat="43.2387981" lon="11.2647567"><ele>181.0</ele><time>2026-03-27T13:51:08.705Z</time></trkpt><trkpt lat="43.2388368" lon="11.2648662"><ele>181.0</ele><time>2026-03-27T13:51:10.705Z</time></trkpt><trkpt lat="43.2388736" lon="11.2649763"><ele>181.0</ele><time>2026-03-27T13:51:12.705Z</time></trkpt><trkpt lat="43.2389169" lon="11.2650766"><ele>181.0</ele><time>2026-03-27T13:51:14.705Z</time></trkpt><trkpt lat="43.2389502" lon="11.265178"><ele>181.0</ele><time>2026-03-27T13:51:16.705Z</time></trkpt><trkpt lat="43.2389792" lon="11.2652909"><ele>181.0</ele><time>2026-03-27T13:51:18.705Z</time></trkpt><trkpt lat="43.2390136" lon="11.2653982"><ele>181.0</ele><time>2026-03-27T13:51:20.705Z</time></trkpt><trkpt lat="43.2390537" lon="11.2654998"><ele>181.0</ele><time>2026-03-27T13:51:22.705Z</time></trkpt><trkpt lat="43.2390905" lon="11.2655998"><ele>181.0</ele><time>2026-03-27T13:51:24.705Z</time></trkpt><trkpt lat="43.2391312" lon="11.2656883"><ele>181.0</ele><time>2026-03-27T13:51:26.705Z</time></trkpt><trkpt lat="43.2391728" lon="11.2657779"><ele>181.0</ele><time>2026-03-27T13:51:28.705Z</time></trkpt><trkpt lat="43.2392235" lon="11.2658536"><ele>181.0</ele><time>2026-03-27T13:51:30.706Z</time></trkpt><trkpt lat="43.2392885" lon="11.2659267"><ele>181.4</ele><time>2026-03-27T13:51:32.706Z</time></trkpt><trkpt lat="43.2393644" lon="11.2660221"><ele>181.8</ele><time>2026-03-27T13:51:34.706Z</time></trkpt><trkpt lat="43.2394496" lon="11.2660996"><ele>182.20000000000002</ele><time>2026-03-27T13:51:36.705Z</time></trkpt><trkpt lat="43.239532" lon="11.2661813"><ele>182.60000000000002</ele><time>2026-03-27T13:51:38.705Z</time></trkpt><trkpt lat="43.2396189" lon="11.2662548"><ele>183.0</ele><time>2026-03-27T13:51:40.706Z</time></trkpt><trkpt lat="43.2396996" lon="11.2663434"><ele>183.0</ele><time>2026-03-27T13:51:42.706Z</time></trkpt><trkpt lat="43.2397847" lon="11.2664275"><ele>183.0</ele><time>2026-03-27T13:51:44.706Z</time></trkpt><trkpt lat="43.2398647" lon="11.2665055"><ele>183.0</ele><time>2026-03-27T13:51:46.705Z</time></trkpt><trkpt lat="43.2399459" lon="11.2665812"><ele>183.0</ele><time>2026-03-27T13:51:48.705Z</time></trkpt><trkpt lat="43.2400271" lon="11.266659"><ele>183.0</ele><time>2026-03-27T13:51:50.706Z</time></trkpt><trkpt lat="43.2401069" lon="11.2667378"><ele>182.8</ele><time>2026-03-27T13:51:52.706Z</time></trkpt><trkpt lat="43.2401905" lon="11.2668098"><ele>182.60000000000002</ele><time>2026-03-27T13:51:54.706Z</time></trkpt><trkpt lat="43.2402719" lon="11.2668874"><ele>182.39999999999998</ele><time>2026-03-27T13:51:56.705Z</time></trkpt><trkpt lat="43.2403531" lon="11.2669701"><ele>182.2</ele><time>2026-03-27T13:51:58.705Z</time></trkpt><trkpt lat="43.2404431" lon="11.2670525"><ele>182.0</ele><time>2026-03-27T13:52:00.705Z</time></trkpt><trkpt lat="43.2405288" lon="11.2671211"><ele>182.0</ele><time>2026-03-27T13:52:02.705Z</time></trkpt><trkpt lat="43.2406161" lon="11.2671807"><ele>182.0</ele><time>2026-03-27T13:52:04.705Z</time></trkpt><trkpt lat="43.240691" lon="11.2672715"><ele>182.0</ele><time>2026-03-27T13:52:06.705Z</time></trkpt><trkpt lat="43.240776" lon="11.2673481"><ele>182.0</ele><time>2026-03-27T13:52:08.705Z</time></trkpt><trkpt lat="43.2408567" lon="11.2674241"><ele>182.0</ele><time>2026-03-27T13:52:10.705Z</time></trkpt><trkpt lat="43.2409344" lon="11.2675001"><ele>182.2</ele><time>2026-03-27T13:52:12.706Z</time></trkpt><trkpt lat="43.2410174" lon="11.2675782"><ele>182.39999999999998</ele><time>2026-03-27T13:52:14.705Z</time></trkpt><trkpt lat="43.2410972" lon="11.2676456"><ele>182.60000000000002</ele><time>2026-03-27T13:52:16.705Z</time></trkpt><trkpt lat="43.2411746" lon="11.2677275"><ele>182.8</ele><time>2026-03-27T13:52:18.705Z</time></trkpt><trkpt lat="43.2412533" lon="11.2678057"><ele>183.0</ele><time>2026-03-27T13:52:20.706Z</time></trkpt><trkpt lat="43.2413332" lon="11.2678706"><ele>183.0</ele><time>2026-03-27T13:52:22.705Z</time></trkpt><trkpt lat="43.2414143" lon="11.2679381"><ele>183.0</ele><time>2026-03-27T13:52:24.705Z</time></trkpt><trkpt lat="43.2414973" lon="11.2680165"><ele>183.0</ele><time>2026-03-27T13:52:26.705Z</time></trkpt><trkpt lat="43.2415723" lon="11.2680964"><ele>183.0</ele><time>2026-03-27T13:52:28.706Z</time></trkpt><trkpt lat="43.2416521" lon="11.2681763"><ele>183.0</ele><time>2026-03-27T13:52:30.706Z</time></trkpt><trkpt lat="43.2417318" lon="11.2682458"><ele>183.0</ele><time>2026-03-27T13:52:32.705Z</time></trkpt><trkpt lat="43.2418144" lon="11.2683115"><ele>183.0</ele><time>2026-03-27T13:52:34.705Z</time></trkpt><trkpt lat="43.2418997" lon="11.2683646"><ele>183.0</ele><time>2026-03-27T13:52:36.706Z</time></trkpt><trkpt lat="43.2419762" lon="11.2684344"><ele>183.0</ele><time>2026-03-27T13:52:38.705Z</time></trkpt><trkpt lat="43.2420552" lon="11.2685069"><ele>183.0</ele><time>2026-03-27T13:52:40.705Z</time></trkpt><trkpt lat="43.2421317" lon="11.268569"><ele>183.0</ele><time>2026-03-27T13:52:42.705Z</time></trkpt><trkpt lat="43.2422032" lon="11.2686476"><ele>183.0</ele><time>2026-03-27T13:52:44.706Z</time></trkpt><trkpt lat="43.2422742" lon="11.2687225"><ele>183.0</ele><time>2026-03-27T13:52:46.706Z</time></trkpt><trkpt lat="43.2423463" lon="11.2688008"><ele>183.0</ele><time>2026-03-27T13:52:48.706Z</time></trkpt><trkpt lat="43.2424275" lon="11.2688842"><ele>183.0</ele><time>2026-03-27T13:52:50.706Z</time></trkpt><trkpt lat="43.2424958" lon="11.2689344"><ele>183.16666666666666</ele><time>2026-03-27T13:52:52.705Z</time></trkpt><trkpt lat="43.2425686" lon="11.2689866"><ele>183.33333333333334</ele><time>2026-03-27T13:52:54.705Z</time></trkpt><trkpt lat="43.2426344" lon="11.2690673"><ele>183.5</ele><time>2026-03-27T13:52:56.705Z</time></trkpt><trkpt lat="43.2427072" lon="11.269128"><ele>183.66666666666669</ele><time>2026-03-27T13:52:58.705Z</time></trkpt><trkpt lat="43.2427763" lon="11.2691976"><ele>183.83333333333334</ele><time>2026-03-27T13:53:00.706Z</time></trkpt><trkpt lat="43.2428485" lon="11.2692707"><ele>184.0</ele><time>2026-03-27T13:53:02.705Z</time></trkpt><trkpt lat="43.2429196" lon="11.2693403"><ele>184.0</ele><time>2026-03-27T13:53:04.705Z</time></trkpt><trkpt lat="43.2429889" lon="11.2694122"><ele>184.0</ele><time>2026-03-27T13:53:06.705Z</time></trkpt><trkpt lat="43.2430586" lon="11.2694838"><ele>184.0</ele><time>2026-03-27T13:53:08.705Z</time></trkpt><trkpt lat="43.2431261" lon="11.2695598"><ele>184.0</ele><time>2026-03-27T13:53:10.705Z</time></trkpt><trkpt lat="43.2431963" lon="11.2696324"><ele>184.0</ele><time>2026-03-27T13:53:12.705Z</time></trkpt><trkpt lat="43.2432672" lon="11.2697064"><ele>184.0</ele><time>2026-03-27T13:53:14.706Z</time></trkpt><trkpt lat="43.2433391" lon="11.2697795"><ele>184.0</ele><time>2026-03-27T13:53:16.705Z</time></trkpt><trkpt lat="43.2434172" lon="11.2698442"><ele>184.0</ele><time>2026-03-27T13:53:18.706Z</time></trkpt><trkpt lat="43.2434936" lon="11.2699113"><ele>184.0</ele><time>2026-03-27T13:53:20.705Z</time></trkpt><trkpt lat="43.2435692" lon="11.2699731"><ele>184.0</ele><time>2026-03-27T13:53:22.705Z</time></trkpt><trkpt lat="43.2436398" lon="11.270049"><ele>184.0</ele><time>2026-03-27T13:53:24.705Z</time></trkpt><trkpt lat="43.243708" lon="11.2701213"><ele>184.0</ele><time>2026-03-27T13:53:26.705Z</time></trkpt><trkpt lat="43.2437782" lon="11.2701966"><ele>184.0</ele><time>2026-03-27T13:53:28.705Z</time></trkpt><trkpt lat="43.243851" lon="11.2702646"><ele>184.0</ele><time>2026-03-27T13:53:30.706Z</time></trkpt><trkpt lat="43.2439201" lon="11.2703351"><ele>184.0</ele><time>2026-03-27T13:53:32.706Z</time></trkpt><trkpt lat="43.2439878" lon="11.2704029"><ele>184.0</ele><time>2026-03-27T13:53:34.705Z</time></trkpt><trkpt lat="43.2440562" lon="11.2704707"><ele>184.0</ele><time>2026-03-27T13:53:36.706Z</time></trkpt><trkpt lat="43.244124" lon="11.270535"><ele>184.0</ele><time>2026-03-27T13:53:38.705Z</time></trkpt><trkpt lat="43.24419" lon="11.2705934"><ele>184.57142857142858</ele><time>2026-03-27T13:53:40.705Z</time></trkpt><trkpt lat="43.2442557" lon="11.2706494"><ele>185.14285714285714</ele><time>2026-03-27T13:53:42.705Z</time></trkpt><trkpt lat="43.2443199" lon="11.2707105"><ele>185.71428571428572</ele><time>2026-03-27T13:53:44.705Z</time></trkpt><trkpt lat="43.244378" lon="11.2707716"><ele>186.28571428571428</ele><time>2026-03-27T13:53:46.705Z</time></trkpt><trkpt lat="43.2444363" lon="11.2708301"><ele>186.85714285714283</ele><time>2026-03-27T13:53:48.705Z</time></trkpt><trkpt lat="43.244494" lon="11.2708797"><ele>187.42857142857142</ele><time>2026-03-27T13:53:50.705Z</time></trkpt><trkpt lat="43.2445527" lon="11.2709264"><ele>188.0</ele><time>2026-03-27T13:53:52.706Z</time></trkpt><trkpt lat="43.2446143" lon="11.2709693"><ele>188.0</ele><time>2026-03-27T13:53:54.705Z</time></trkpt><trkpt lat="43.2446736" lon="11.2710168"><ele>188.0</ele><time>2026-03-27T13:53:56.705Z</time></trkpt><trkpt lat="43.2447292" lon="11.2710683"><ele>188.0</ele><time>2026-03-27T13:53:58.706Z</time></trkpt><trkpt lat="43.2447836" lon="11.2711232"><ele>188.0</ele><time>2026-03-27T13:54:00.706Z</time></trkpt><trkpt lat="43.2448386" lon="11.2711759"><ele>188.0</ele><time>2026-03-27T13:54:02.705Z</time></trkpt><trkpt lat="43.2448964" lon="11.2712231"><ele>188.0</ele><time>2026-03-27T13:54:04.705Z</time></trkpt><trkpt lat="43.2449548" lon="11.2712698"><ele>188.0</ele><time>2026-03-27T13:54:06.705Z</time></trkpt><trkpt lat="43.245009" lon="11.2713161"><ele>188.83333333333331</ele><time>2026-03-27T13:54:08.705Z</time></trkpt><trkpt lat="43.2450616" lon="11.2713708"><ele>189.66666666666666</ele><time>2026-03-27T13:54:10.705Z</time></trkpt><trkpt lat="43.2451147" lon="11.2714226"><ele>190.5</ele><time>2026-03-27T13:54:12.705Z</time></trkpt><trkpt lat="43.2451853" lon="11.2714875"><ele>191.33333333333331</ele><time>2026-03-27T13:54:15.705Z</time></trkpt><trkpt lat="43.2452525" lon="11.27155"><ele>192.16666666666666</ele><time>2026-03-27T13:54:18.705Z</time></trkpt><trkpt lat="43.2453139" lon="11.2716245"><ele>193.0</ele><time>2026-03-27T13:54:21.705Z</time></trkpt><trkpt lat="43.245387" lon="11.2716854"><ele>193.16666666666666</ele><time>2026-03-27T13:54:24.705Z</time></trkpt><trkpt lat="43.2454584" lon="11.2717488"><ele>193.33333333333331</ele><time>2026-03-27T13:54:27.705Z</time></trkpt><trkpt lat="43.2455301" lon="11.2718211"><ele>193.5</ele><time>2026-03-27T13:54:30.705Z</time></trkpt><trkpt lat="43.2455983" lon="11.2718995"><ele>193.66666666666669</ele><time>2026-03-27T13:54:33.706Z</time></trkpt><trkpt lat="43.2456744" lon="11.2719639"><ele>193.83333333333334</ele><time>2026-03-27T13:54:36.706Z</time></trkpt><trkpt lat="43.2457426" lon="11.2720257"><ele>194.0</ele><time>2026-03-27T13:54:39.705Z</time></trkpt><trkpt lat="43.2458113" lon="11.272089"><ele>194.83333333333334</ele><time>2026-03-27T13:54:42.706Z</time></trkpt><trkpt lat="43.2458824" lon="11.2721476"><ele>195.66666666666669</ele><time>2026-03-27T13:54:45.705Z</time></trkpt><trkpt lat="43.2459515" lon="11.2722105"><ele>196.5</ele><time>2026-03-27T13:54:48.706Z</time></trkpt><trkpt lat="43.2460191" lon="11.272279"><ele>197.33333333333331</ele><time>2026-03-27T13:54:51.705Z</time></trkpt><trkpt lat="43.2460944" lon="11.27234"><ele>198.16666666666666</ele><time>2026-03-27T13:54:54.705Z</time></trkpt><trkpt lat="43.2461719" lon="11.2723949"><ele>199.0</ele><time>2026-03-27T13:54:57.705Z</time></trkpt><trkpt lat="43.2462424" lon="11.2724667"><ele>199.42857142857142</ele><time>2026-03-27T13:55:00.705Z</time></trkpt><trkpt lat="43.2462975" lon="11.2725167"><ele>199.85714285714286</ele><time>2026-03-27T13:55:02.705Z</time></trkpt><trkpt lat="43.2463585" lon="11.2725666"><ele>200.28571428571428</ele><time>2026-03-27T13:55:04.705Z</time></trkpt><trkpt lat="43.2464169" lon="11.2726273"><ele>200.71428571428572</ele><time>2026-03-27T13:55:06.705Z</time></trkpt><trkpt lat="43.246478" lon="11.2726867"><ele>201.14285714285714</ele><time>2026-03-27T13:55:08.705Z</time></trkpt><trkpt lat="43.2465327" lon="11.2727474"><ele>201.57142857142856</ele><time>2026-03-27T13:55:10.706Z</time></trkpt><trkpt lat="43.2465916" lon="11.2728025"><ele>202.0</ele><time>2026-03-27T13:55:12.705Z</time></trkpt><trkpt lat="43.246647" lon="11.272854"><ele>202.16666666666666</ele><time>2026-03-27T13:55:14.705Z</time></trkpt><trkpt lat="43.2467018" lon="11.2729079"><ele>202.33333333333331</ele><time>2026-03-27T13:55:16.706Z</time></trkpt><trkpt lat="43.2467779" lon="11.2729903"><ele>202.5</ele><time>2026-03-27T13:55:19.705Z</time></trkpt><trkpt lat="43.2468542" lon="11.2730603"><ele>202.66666666666669</ele><time>2026-03-27T13:55:22.705Z</time></trkpt><trkpt lat="43.2469289" lon="11.2731272"><ele>202.83333333333334</ele><time>2026-03-27T13:55:25.705Z</time></trkpt><trkpt lat="43.2469838" lon="11.2731711"><ele>203.0</ele><time>2026-03-27T13:55:27.705Z</time></trkpt><trkpt lat="43.2470362" lon="11.2732248"><ele>203.71428571428572</ele><time>2026-03-27T13:55:29.705Z</time></trkpt><trkpt lat="43.247089" lon="11.2732783"><ele>204.42857142857144</ele><time>2026-03-27T13:55:31.705Z</time></trkpt><trkpt lat="43.2471423" lon="11.2733357"><ele>205.14285714285714</ele><time>2026-03-27T13:55:33.705Z</time></trkpt><trkpt lat="43.2471913" lon="11.2733916"><ele>205.85714285714286</ele><time>2026-03-27T13:55:35.706Z</time></trkpt><trkpt lat="43.2472477" lon="11.273445"><ele>206.57142857142858</ele><time>2026-03-27T13:55:37.706Z</time></trkpt><trkpt lat="43.2473022" lon="11.2734994"><ele>207.28571428571428</ele><time>2026-03-27T13:55:39.705Z</time></trkpt><trkpt lat="43.2473574" lon="11.2735452"><ele>208.0</ele><time>2026-03-27T13:55:41.706Z</time></trkpt><trkpt lat="43.2474122" lon="11.2735966"><ele>208.14285714285714</ele><time>2026-03-27T13:55:43.705Z</time></trkpt><trkpt lat="43.247468" lon="11.273646"><ele>208.2857142857143</ele><time>2026-03-27T13:55:45.705Z</time></trkpt><trkpt lat="43.2475214" lon="11.273699"><ele>208.42857142857144</ele><time>2026-03-27T13:55:47.705Z</time></trkpt><trkpt lat="43.2475789" lon="11.2737478"><ele>208.57142857142856</ele><time>2026-03-27T13:55:49.705Z</time></trkpt><trkpt lat="43.2476348" lon="11.2738054"><ele>208.71428571428572</ele><time>2026-03-27T13:55:51.705Z</time></trkpt><trkpt lat="43.2476936" lon="11.2738626"><ele>208.85714285714286</ele><time>2026-03-27T13:55:53.706Z</time></trkpt><trkpt lat="43.2477443" lon="11.2739149"><ele>209.0</ele><time>2026-03-27T13:55:55.706Z</time></trkpt><trkpt lat="43.2478198" lon="11.2739834"><ele>209.00000000000003</ele><time>2026-03-27T13:55:58.705Z</time></trkpt><trkpt lat="43.2478747" lon="11.274032"><ele>209.0</ele><time>2026-03-27T13:56:00.705Z</time></trkpt><trkpt lat="43.2479343" lon="11.2740882"><ele>209.0</ele><time>2026-03-27T13:56:02.705Z</time></trkpt><trkpt lat="43.2480003" lon="11.2741495"><ele>209.0</ele><time>2026-03-27T13:56:04.705Z</time></trkpt><trkpt lat="43.2481002" lon="11.2741847"><ele>209.00000000000003</ele><time>2026-03-27T13:56:06.705Z</time></trkpt><trkpt lat="43.248179" lon="11.2742668"><ele>209.0</ele><time>2026-03-27T13:56:08.705Z</time></trkpt><trkpt lat="43.2482533" lon="11.2743488"><ele>209.0</ele><time>2026-03-27T13:56:10.706Z</time></trkpt><trkpt lat="43.2483419" lon="11.2744263"><ele>209.0</ele><time>2026-03-27T13:56:12.705Z</time></trkpt><trkpt lat="43.2484307" lon="11.2745043"><ele>209.0</ele><time>2026-03-27T13:56:14.705Z</time></trkpt><trkpt lat="43.248523" lon="11.2745846"><ele>209.0</ele><time>2026-03-27T13:56:16.705Z</time></trkpt><trkpt lat="43.2486154" lon="11.274657"><ele>209.0</ele><time>2026-03-27T13:56:18.706Z</time></trkpt><trkpt lat="43.24871" lon="11.2747352"><ele>208.25</ele><time>2026-03-27T13:56:20.705Z</time></trkpt><trkpt lat="43.2488046" lon="11.2748214"><ele>207.5</ele><time>2026-03-27T13:56:22.706Z</time></trkpt><trkpt lat="43.2489014" lon="11.2749043"><ele>206.75</ele><time>2026-03-27T13:56:24.705Z</time></trkpt><trkpt lat="43.2489977" lon="11.2749919"><ele>206.0</ele><time>2026-03-27T13:56:26.705Z</time></trkpt><trkpt lat="43.2491034" lon="11.2750611"><ele>206.0</ele><time>2026-03-27T13:56:28.706Z</time></trkpt><trkpt lat="43.2491992" lon="11.2751365"><ele>206.0</ele><time>2026-03-27T13:56:30.705Z</time></trkpt><trkpt lat="43.2492967" lon="11.275206"><ele>206.0</ele><time>2026-03-27T13:56:32.705Z</time></trkpt><trkpt lat="43.2493898" lon="11.2752768"><ele>206.0</ele><time>2026-03-27T13:56:34.705Z</time></trkpt><trkpt lat="43.2494748" lon="11.2753574"><ele>206.0</ele><time>2026-03-27T13:56:36.705Z</time></trkpt><trkpt lat="43.2495586" lon="11.2754507"><ele>206.0</ele><time>2026-03-27T13:56:38.705Z</time></trkpt><trkpt lat="43.2496527" lon="11.2755519"><ele>206.0</ele><time>2026-03-27T13:56:40.706Z</time></trkpt><trkpt lat="43.2497512" lon="11.2756379"><ele>206.0</ele><time>2026-03-27T13:56:42.705Z</time></trkpt><trkpt lat="43.2498421" lon="11.2757448"><ele>206.0</ele><time>2026-03-27T13:56:44.705Z</time></trkpt><trkpt lat="43.2499329" lon="11.2758473"><ele>205.8</ele><time>2026-03-27T13:56:46.705Z</time></trkpt><trkpt lat="43.2500268" lon="11.2759417"><ele>205.60000000000002</ele><time>2026-03-27T13:56:48.705Z</time></trkpt><trkpt lat="43.2501112" lon="11.2760445"><ele>205.4</ele><time>2026-03-27T13:56:50.705Z</time></trkpt><trkpt lat="43.2501948" lon="11.2761374"><ele>205.2</ele><time>2026-03-27T13:56:52.706Z</time></trkpt><trkpt lat="43.2502765" lon="11.2762214"><ele>205.0</ele><time>2026-03-27T13:56:54.706Z</time></trkpt><trkpt lat="43.2503545" lon="11.2763158"><ele>205.0</ele><time>2026-03-27T13:56:56.705Z</time></trkpt><trkpt lat="43.2504244" lon="11.2764113"><ele>205.0</ele><time>2026-03-27T13:56:58.706Z</time></trkpt><trkpt lat="43.2504959" lon="11.2765007"><ele>205.0</ele><time>2026-03-27T13:57:00.705Z</time></trkpt><trkpt lat="43.250562" lon="11.2765943"><ele>205.0</ele><time>2026-03-27T13:57:02.705Z</time></trkpt><trkpt lat="43.2506242" lon="11.2766722"><ele>205.0</ele><time>2026-03-27T13:57:04.705Z</time></trkpt><trkpt lat="43.2506856" lon="11.2767411"><ele>205.85714285714286</ele><time>2026-03-27T13:57:06.705Z</time></trkpt><trkpt lat="43.2507413" lon="11.2768011"><ele>206.7142857142857</ele><time>2026-03-27T13:57:08.705Z</time></trkpt><trkpt lat="43.2507907" lon="11.2768659"><ele>207.57142857142856</ele><time>2026-03-27T13:57:10.705Z</time></trkpt><trkpt lat="43.2508435" lon="11.2769272"><ele>208.42857142857144</ele><time>2026-03-27T13:57:12.705Z</time></trkpt><trkpt lat="43.250893" lon="11.2769932"><ele>209.28571428571428</ele><time>2026-03-27T13:57:14.706Z</time></trkpt><trkpt lat="43.2509412" lon="11.2770532"><ele>210.14285714285714</ele><time>2026-03-27T13:57:16.705Z</time></trkpt><trkpt lat="43.2509915" lon="11.2771116"><ele>211.0</ele><time>2026-03-27T13:57:18.705Z</time></trkpt><trkpt lat="43.2510361" lon="11.2771761"><ele>211.0</ele><time>2026-03-27T13:57:20.705Z</time></trkpt><trkpt lat="43.2511064" lon="11.2772568"><ele>211.0</ele><time>2026-03-27T13:57:23.705Z</time></trkpt><trkpt lat="43.2511485" lon="11.2773226"><ele>211.0</ele><time>2026-03-27T13:57:25.706Z</time></trkpt><trkpt lat="43.2511952" lon="11.2773884"><ele>211.0</ele><time>2026-03-27T13:57:27.705Z</time></trkpt><trkpt lat="43.2512451" lon="11.2774526"><ele>211.0</ele><time>2026-03-27T13:57:29.705Z</time></trkpt><trkpt lat="43.2512932" lon="11.2775186"><ele>211.0</ele><time>2026-03-27T13:57:31.705Z</time></trkpt><trkpt lat="43.2513398" lon="11.2775907"><ele>211.0</ele><time>2026-03-27T13:57:33.705Z</time></trkpt><trkpt lat="43.2513859" lon="11.2776649"><ele>210.85714285714286</ele><time>2026-03-27T13:57:35.705Z</time></trkpt><trkpt lat="43.2514348" lon="11.2777398"><ele>210.71428571428572</ele><time>2026-03-27T13:57:37.705Z</time></trkpt><trkpt lat="43.2514869" lon="11.2778111"><ele>210.57142857142856</ele><time>2026-03-27T13:57:39.706Z</time></trkpt><trkpt lat="43.2515403" lon="11.2778844"><ele>210.42857142857144</ele><time>2026-03-27T13:57:41.705Z</time></trkpt><trkpt lat="43.2515921" lon="11.2779586"><ele>210.28571428571428</ele><time>2026-03-27T13:57:43.705Z</time></trkpt><trkpt lat="43.2516447" lon="11.2780306"><ele>210.14285714285714</ele><time>2026-03-27T13:57:45.705Z</time></trkpt><trkpt lat="43.2516982" lon="11.2780986"><ele>210.0</ele><time>2026-03-27T13:57:47.705Z</time></trkpt><trkpt lat="43.2517504" lon="11.2781636"><ele>210.71428571428572</ele><time>2026-03-27T13:57:49.705Z</time></trkpt><trkpt lat="43.2517986" lon="11.278235"><ele>211.42857142857144</ele><time>2026-03-27T13:57:51.705Z</time></trkpt><trkpt lat="43.2518518" lon="11.2782979"><ele>212.14285714285714</ele><time>2026-03-27T13:57:53.705Z</time></trkpt><trkpt lat="43.2519017" lon="11.2783631"><ele>212.85714285714286</ele><time>2026-03-27T13:57:55.705Z</time></trkpt><trkpt lat="43.2519497" lon="11.2784251"><ele>213.57142857142858</ele><time>2026-03-27T13:57:57.705Z</time></trkpt><trkpt lat="43.252016" lon="11.2785081"><ele>214.28571428571428</ele><time>2026-03-27T13:58:00.705Z</time></trkpt><trkpt lat="43.2520732" lon="11.2785876"><ele>215.0</ele><time>2026-03-27T13:58:03.705Z</time></trkpt><trkpt lat="43.2521343" lon="11.2786631"><ele>215.00000000000003</ele><time>2026-03-27T13:58:06.706Z</time></trkpt><trkpt lat="43.2521943" lon="11.2787404"><ele>215.0</ele><time>2026-03-27T13:58:09.705Z</time></trkpt><trkpt lat="43.2522563" lon="11.2788147"><ele>215.0</ele><time>2026-03-27T13:58:12.705Z</time></trkpt><trkpt lat="43.2523151" lon="11.2789001"><ele>215.0</ele><time>2026-03-27T13:58:15.705Z</time></trkpt><trkpt lat="43.2523697" lon="11.2789832"><ele>215.00000000000003</ele><time>2026-03-27T13:58:18.706Z</time></trkpt><trkpt lat="43.2524269" lon="11.2790567"><ele>215.0</ele><time>2026-03-27T13:58:21.705Z</time></trkpt><trkpt lat="43.2524774" lon="11.279137"><ele>216.50000000000003</ele><time>2026-03-27T13:58:24.705Z</time></trkpt><trkpt lat="43.2525285" lon="11.2792157"><ele>218.0</ele><time>2026-03-27T13:58:27.706Z</time></trkpt><trkpt lat="43.2525774" lon="11.2792924"><ele>219.5</ele><time>2026-03-27T13:58:30.706Z</time></trkpt><trkpt lat="43.2526227" lon="11.2793767"><ele>221.0</ele><time>2026-03-27T13:58:33.706Z</time></trkpt><trkpt lat="43.2526737" lon="11.2794567"><ele>222.50000000000003</ele><time>2026-03-27T13:58:36.705Z</time></trkpt><trkpt lat="43.2527197" lon="11.2795455"><ele>224.0</ele><time>2026-03-27T13:58:39.705Z</time></trkpt><trkpt lat="43.2527632" lon="11.2796292"><ele>224.00000000000003</ele><time>2026-03-27T13:58:42.705Z</time></trkpt><trkpt lat="43.2528043" lon="11.279712"><ele>224.0</ele><time>2026-03-27T13:58:45.705Z</time></trkpt><trkpt lat="43.2528468" lon="11.2797994"><ele>224.0</ele><time>2026-03-27T13:58:48.705Z</time></trkpt><trkpt lat="43.252891" lon="11.2798887"><ele>224.0</ele><time>2026-03-27T13:58:51.705Z</time></trkpt><trkpt lat="43.2529313" lon="11.2799909"><ele>224.00000000000003</ele><time>2026-03-27T13:58:54.705Z</time></trkpt><trkpt lat="43.2529708" lon="11.2800977"><ele>224.0</ele><time>2026-03-27T13:58:57.705Z</time></trkpt><trkpt lat="43.2530106" lon="11.2801998"><ele>223.83333333333334</ele><time>2026-03-27T13:59:00.705Z</time></trkpt><trkpt lat="43.2530513" lon="11.2803067"><ele>223.66666666666669</ele><time>2026-03-27T13:59:03.705Z</time></trkpt><trkpt lat="43.2530818" lon="11.280421"><ele>223.5</ele><time>2026-03-27T13:59:06.706Z</time></trkpt><trkpt lat="43.2531143" lon="11.2805266"><ele>223.33333333333331</ele><time>2026-03-27T13:59:09.705Z</time></trkpt><trkpt lat="43.2531497" lon="11.2806388"><ele>223.16666666666666</ele><time>2026-03-27T13:59:12.705Z</time></trkpt><trkpt lat="43.2531857" lon="11.2807483"><ele>223.0</ele><time>2026-03-27T13:59:15.705Z</time></trkpt><trkpt lat="43.2532236" lon="11.2808583"><ele>224.16666666666666</ele><time>2026-03-27T13:59:18.705Z</time></trkpt><trkpt lat="43.253266" lon="11.2809637"><ele>225.33333333333331</ele><time>2026-03-27T13:59:21.705Z</time></trkpt><trkpt lat="43.2533026" lon="11.2810663"><ele>226.5</ele><time>2026-03-27T13:59:24.706Z</time></trkpt><trkpt lat="43.2533317" lon="11.2811816"><ele>227.66666666666669</ele><time>2026-03-27T13:59:27.705Z</time></trkpt><trkpt lat="43.2533665" lon="11.2812881"><ele>228.83333333333334</ele><time>2026-03-27T13:59:30.706Z</time></trkpt><trkpt lat="43.2534062" lon="11.2813909"><ele>230.0</ele><time>2026-03-27T13:59:33.706Z</time></trkpt><trkpt lat="43.2534397" lon="11.2814996"><ele>231.33333333333334</ele><time>2026-03-27T13:59:36.706Z</time></trkpt><trkpt lat="43.2534741" lon="11.2816089"><ele>232.66666666666669</ele><time>2026-03-27T13:59:39.705Z</time></trkpt><trkpt lat="43.2535116" lon="11.2817218"><ele>234.0</ele><time>2026-03-27T13:59:42.705Z</time></trkpt><trkpt lat="43.2535374" lon="11.2818026"><ele>235.33333333333331</ele><time>2026-03-27T13:59:44.706Z</time></trkpt><trkpt lat="43.2535679" lon="11.2818863"><ele>236.66666666666666</ele><time>2026-03-27T13:59:46.705Z</time></trkpt><trkpt lat="43.2535989" lon="11.2819772"><ele>238.0</ele><time>2026-03-27T13:59:48.706Z</time></trkpt><trkpt lat="43.2536341" lon="11.2820629"><ele>237.99999999999997</ele><time>2026-03-27T13:59:50.706Z</time></trkpt><trkpt lat="43.2536745" lon="11.2821477"><ele>238.0</ele><time>2026-03-27T13:59:52.705Z</time></trkpt><trkpt lat="43.2537189" lon="11.2822262"><ele>238.0</ele><time>2026-03-27T13:59:54.705Z</time></trkpt><trkpt lat="43.2537725" lon="11.2822881"><ele>238.0</ele><time>2026-03-27T13:59:56.705Z</time></trkpt><trkpt lat="43.2538266" lon="11.282361"><ele>237.99999999999997</ele><time>2026-03-27T13:59:58.705Z</time></trkpt><trkpt lat="43.2538887" lon="11.2824336"><ele>238.0</ele><time>2026-03-27T14:00:00.705Z</time></trkpt><trkpt lat="43.2539543" lon="11.2825008"><ele>237.83333333333331</ele><time>2026-03-27T14:00:02.705Z</time></trkpt><trkpt lat="43.2540202" lon="11.2825747"><ele>237.66666666666666</ele><time>2026-03-27T14:00:04.706Z</time></trkpt><trkpt lat="43.2540876" lon="11.2826522"><ele>237.5</ele><time>2026-03-27T14:00:06.706Z</time></trkpt><trkpt lat="43.2541602" lon="11.2827347"><ele>237.33333333333331</ele><time>2026-03-27T14:00:08.705Z</time></trkpt><trkpt lat="43.2542151" lon="11.2828209"><ele>237.16666666666666</ele><time>2026-03-27T14:00:10.705Z</time></trkpt><trkpt lat="43.2542862" lon="11.2828855"><ele>237.0</ele><time>2026-03-27T14:00:12.705Z</time></trkpt><trkpt lat="43.2543389" lon="11.2829593"><ele>237.0</ele><time>2026-03-27T14:00:14.706Z</time></trkpt><trkpt lat="43.2544024" lon="11.2830302"><ele>237.0</ele><time>2026-03-27T14:00:16.705Z</time></trkpt><trkpt lat="43.2544695" lon="11.283106"><ele>237.0</ele><time>2026-03-27T14:00:18.706Z</time></trkpt><trkpt lat="43.2545377" lon="11.2831794"><ele>237.0</ele><time>2026-03-27T14:00:20.706Z</time></trkpt><trkpt lat="43.2546045" lon="11.283258"><ele>237.0</ele><time>2026-03-27T14:00:22.705Z</time></trkpt><trkpt lat="43.2546705" lon="11.2833379"><ele>237.0</ele><time>2026-03-27T14:00:24.705Z</time></trkpt><trkpt lat="43.2547326" lon="11.2834172"><ele>238.5</ele><time>2026-03-27T14:00:26.705Z</time></trkpt><trkpt lat="43.2547916" lon="11.283498"><ele>240.0</ele><time>2026-03-27T14:00:28.705Z</time></trkpt><trkpt lat="43.2548499" lon="11.2835818"><ele>241.5</ele><time>2026-03-27T14:00:30.705Z</time></trkpt><trkpt lat="43.2548943" lon="11.2836773"><ele>243.0</ele><time>2026-03-27T14:00:32.705Z</time></trkpt><trkpt lat="43.2549388" lon="11.2837709"><ele>244.5</ele><time>2026-03-27T14:00:34.705Z</time></trkpt><trkpt lat="43.254996" lon="11.2838548"><ele>246.0</ele><time>2026-03-27T14:00:36.706Z</time></trkpt><trkpt lat="43.255054" lon="11.2839373"><ele>246.16666666666666</ele><time>2026-03-27T14:00:38.705Z</time></trkpt><trkpt lat="43.2551151" lon="11.2840172"><ele>246.33333333333331</ele><time>2026-03-27T14:00:40.705Z</time></trkpt><trkpt lat="43.2551746" lon="11.2841031"><ele>246.5</ele><time>2026-03-27T14:00:42.705Z</time></trkpt><trkpt lat="43.2552337" lon="11.2841891"><ele>246.66666666666666</ele><time>2026-03-27T14:00:44.705Z</time></trkpt><trkpt lat="43.2552907" lon="11.2842701"><ele>246.83333333333331</ele><time>2026-03-27T14:00:46.705Z</time></trkpt><trkpt lat="43.2553457" lon="11.2843553"><ele>247.0</ele><time>2026-03-27T14:00:48.705Z</time></trkpt><trkpt lat="43.2554009" lon="11.2844302"><ele>247.0</ele><time>2026-03-27T14:00:50.706Z</time></trkpt><trkpt lat="43.255454" lon="11.2844931"><ele>247.0</ele><time>2026-03-27T14:00:52.705Z</time></trkpt><trkpt lat="43.2554968" lon="11.2845567"><ele>247.0</ele><time>2026-03-27T14:00:54.705Z</time></trkpt><trkpt lat="43.2555525" lon="11.28463"><ele>247.0</ele><time>2026-03-27T14:00:57.705Z</time></trkpt><trkpt lat="43.2556115" lon="11.2846752"><ele>247.0</ele><time>2026-03-27T14:01:01.705Z</time></trkpt><trkpt lat="43.2556165" lon="11.2847726"><ele>247.0</ele><time>2026-03-27T14:01:05.706Z</time></trkpt><trkpt lat="43.2555478" lon="11.2848022"><ele>247.0</ele><time>2026-03-27T14:01:09.705Z</time></trkpt><trkpt lat="43.2554902" lon="11.2847568"><ele>246.99999999999997</ele><time>2026-03-27T14:02:32.705Z</time></trkpt><trkpt lat="43.2554481" lon="11.2846757"><ele>247.0</ele><time>2026-03-27T14:02:35.705Z</time></trkpt><trkpt lat="43.2553573" lon="11.2846296"><ele>247.0</ele><time>2026-03-27T14:02:38.705Z</time></trkpt><trkpt lat="43.2552825" lon="11.2845997"><ele>247.0</ele><time>2026-03-27T14:02:40.705Z</time></trkpt><trkpt lat="43.2551898" lon="11.2845735"><ele>246.99999999999997</ele><time>2026-03-27T14:02:42.705Z</time></trkpt><trkpt lat="43.2550906" lon="11.2845326"><ele>247.0</ele><time>2026-03-27T14:02:44.705Z</time></trkpt><trkpt lat="43.2549841" lon="11.2844863"><ele>247.0</ele><time>2026-03-27T14:02:46.705Z</time></trkpt><trkpt lat="43.2549231" lon="11.2844597"><ele>247.0</ele><time>2026-03-27T14:02:47.705Z</time></trkpt><trkpt lat="43.2548604" lon="11.2844443"><ele>247.0</ele><time>2026-03-27T14:02:48.706Z</time></trkpt><trkpt lat="43.2547922" lon="11.2844289"><ele>247.0</ele><time>2026-03-27T14:02:49.705Z</time></trkpt><trkpt lat="43.2547253" lon="11.2844159"><ele>247.0</ele><time>2026-03-27T14:02:50.706Z</time></trkpt><trkpt lat="43.2546532" lon="11.2844027"><ele>247.0</ele><time>2026-03-27T14:02:51.705Z</time></trkpt><trkpt lat="43.254574" lon="11.2843906"><ele>247.0</ele><time>2026-03-27T14:02:52.705Z</time></trkpt><trkpt lat="43.2545005" lon="11.2843807"><ele>246.49999999999997</ele><time>2026-03-27T14:02:53.705Z</time></trkpt><trkpt lat="43.254417" lon="11.2843765"><ele>246.0</ele><time>2026-03-27T14:02:54.705Z</time></trkpt><trkpt lat="43.2543315" lon="11.2843653"><ele>245.5</ele><time>2026-03-27T14:02:55.705Z</time></trkpt><trkpt lat="43.2542475" lon="11.2843572"><ele>245.0</ele><time>2026-03-27T14:02:56.705Z</time></trkpt><trkpt lat="43.2541568" lon="11.2843534"><ele>244.49999999999997</ele><time>2026-03-27T14:02:57.705Z</time></trkpt><trkpt lat="43.2540681" lon="11.2843515"><ele>244.0</ele><time>2026-03-27T14:02:58.705Z</time></trkpt><trkpt lat="43.2539746" lon="11.2843532"><ele>242.39999999999998</ele><time>2026-03-27T14:02:59.705Z</time></trkpt><trkpt lat="43.2538838" lon="11.284344"><ele>240.79999999999998</ele><time>2026-03-27T14:03:00.705Z</time></trkpt><trkpt lat="43.253793" lon="11.2843363"><ele>239.20000000000002</ele><time>2026-03-27T14:03:01.705Z</time></trkpt><trkpt lat="43.2537006" lon="11.2843288"><ele>237.60000000000002</ele><time>2026-03-27T14:03:02.705Z</time></trkpt><trkpt lat="43.2536059" lon="11.2843253"><ele>236.0</ele><time>2026-03-27T14:03:03.706Z</time></trkpt><trkpt lat="43.2535178" lon="11.2843202"><ele>236.00000000000003</ele><time>2026-03-27T14:03:04.705Z</time></trkpt><trkpt lat="43.2534291" lon="11.2843145"><ele>236.0</ele><time>2026-03-27T14:03:05.706Z</time></trkpt><trkpt lat="43.253338" lon="11.2843225"><ele>236.0</ele><time>2026-03-27T14:03:06.705Z</time></trkpt><trkpt lat="43.2532483" lon="11.2843268"><ele>236.0</ele><time>2026-03-27T14:03:07.705Z</time></trkpt><trkpt lat="43.2531631" lon="11.2843359"><ele>236.00000000000003</ele><time>2026-03-27T14:03:08.706Z</time></trkpt><trkpt lat="43.253081" lon="11.2843413"><ele>236.0</ele><time>2026-03-27T14:03:09.705Z</time></trkpt><trkpt lat="43.2529984" lon="11.2843505"><ele>236.00000000000003</ele><time>2026-03-27T14:03:10.706Z</time></trkpt><trkpt lat="43.2529145" lon="11.2843654"><ele>236.0</ele><time>2026-03-27T14:03:11.705Z</time></trkpt><trkpt lat="43.2528352" lon="11.284382"><ele>236.0</ele><time>2026-03-27T14:03:12.706Z</time></trkpt><trkpt lat="43.2527544" lon="11.2843989"><ele>236.0</ele><time>2026-03-27T14:03:13.705Z</time></trkpt><trkpt lat="43.2526708" lon="11.2844109"><ele>236.00000000000003</ele><time>2026-03-27T14:03:14.706Z</time></trkpt><trkpt lat="43.2525905" lon="11.2844228"><ele>236.0</ele><time>2026-03-27T14:03:15.705Z</time></trkpt><trkpt lat="43.2525133" lon="11.284432"><ele>236.0</ele><time>2026-03-27T14:03:16.705Z</time></trkpt><trkpt lat="43.2524358" lon="11.2844499"><ele>236.0</ele><time>2026-03-27T14:03:17.705Z</time></trkpt><trkpt lat="43.2523625" lon="11.2844671"><ele>236.0</ele><time>2026-03-27T14:03:18.705Z</time></trkpt><trkpt lat="43.2522889" lon="11.2844759"><ele>236.0</ele><time>2026-03-27T14:03:19.706Z</time></trkpt><trkpt lat="43.2522169" lon="11.2844893"><ele>236.0</ele><time>2026-03-27T14:03:20.706Z</time></trkpt><trkpt lat="43.2521473" lon="11.2845042"><ele>236.0</ele><time>2026-03-27T14:03:21.705Z</time></trkpt><trkpt lat="43.252076" lon="11.2845181"><ele>236.0</ele><time>2026-03-27T14:03:22.705Z</time></trkpt><trkpt lat="43.2520086" lon="11.2845271"><ele>236.14285714285714</ele><time>2026-03-27T14:03:23.705Z</time></trkpt><trkpt lat="43.2519396" lon="11.2845391"><ele>236.28571428571428</ele><time>2026-03-27T14:03:24.706Z</time></trkpt><trkpt lat="43.2518715" lon="11.284559"><ele>236.42857142857142</ele><time>2026-03-27T14:03:25.706Z</time></trkpt><trkpt lat="43.2518051" lon="11.2845738"><ele>236.57142857142856</ele><time>2026-03-27T14:03:26.705Z</time></trkpt><trkpt lat="43.2517362" lon="11.2845847"><ele>236.71428571428572</ele><time>2026-03-27T14:03:27.705Z</time></trkpt><trkpt lat="43.2516691" lon="11.2845911"><ele>236.85714285714283</ele><time>2026-03-27T14:03:28.705Z</time></trkpt><trkpt lat="43.2516052" lon="11.2846238"><ele>236.99999999999997</ele><time>2026-03-27T14:03:29.705Z</time></trkpt><trkpt lat="43.2515489" lon="11.2846713"><ele>237.0</ele><time>2026-03-27T14:03:30.706Z</time></trkpt><trkpt lat="43.2514997" lon="11.284736"><ele>237.0</ele><time>2026-03-27T14:03:31.705Z</time></trkpt><trkpt lat="43.2514196" lon="11.284853"><ele>237.0</ele><time>2026-03-27T14:03:33.705Z</time></trkpt><trkpt lat="43.2513461" lon="11.284963"><ele>237.0</ele><time>2026-03-27T14:03:35.705Z</time></trkpt><trkpt lat="43.2512739" lon="11.2850206"><ele>237.0</ele><time>2026-03-27T14:03:37.706Z</time></trkpt><trkpt lat="43.2512073" lon="11.2850964"><ele>236.6</ele><time>2026-03-27T14:03:39.705Z</time></trkpt><trkpt lat="43.251134" lon="11.285208"><ele>236.2</ele><time>2026-03-27T14:03:41.706Z</time></trkpt><trkpt lat="43.251053" lon="11.2853189"><ele>235.8</ele><time>2026-03-27T14:03:43.706Z</time></trkpt><trkpt lat="43.2509897" lon="11.2854123"><ele>235.4</ele><time>2026-03-27T14:03:45.705Z</time></trkpt><trkpt lat="43.2509179" lon="11.2854874"><ele>235.0</ele><time>2026-03-27T14:03:47.705Z</time></trkpt><trkpt lat="43.2508415" lon="11.2855815"><ele>234.8</ele><time>2026-03-27T14:03:49.705Z</time></trkpt><trkpt lat="43.2507616" lon="11.2856664"><ele>234.6</ele><time>2026-03-27T14:03:51.705Z</time></trkpt><trkpt lat="43.2506982" lon="11.2857445"><ele>234.39999999999998</ele><time>2026-03-27T14:03:53.705Z</time></trkpt><trkpt lat="43.2506427" lon="11.2858131"><ele>234.2</ele><time>2026-03-27T14:03:55.705Z</time></trkpt><trkpt lat="43.2505714" lon="11.2858774"><ele>234.0</ele><time>2026-03-27T14:03:57.705Z</time></trkpt><trkpt lat="43.2504821" lon="11.2859668"><ele>234.0</ele><time>2026-03-27T14:03:59.705Z</time></trkpt><trkpt lat="43.2503919" lon="11.2860414"><ele>234.0</ele><time>2026-03-27T14:04:01.705Z</time></trkpt><trkpt lat="43.2502875" lon="11.286124"><ele>234.0</ele><time>2026-03-27T14:04:03.705Z</time></trkpt><trkpt lat="43.2502288" lon="11.2861659"><ele>234.0</ele><time>2026-03-27T14:04:04.705Z</time></trkpt><trkpt lat="43.2501703" lon="11.2862006"><ele>234.0</ele><time>2026-03-27T14:04:05.705Z</time></trkpt><trkpt lat="43.2501083" lon="11.2862399"><ele>234.0</ele><time>2026-03-27T14:04:06.705Z</time></trkpt><trkpt lat="43.2500461" lon="11.286268"><ele>234.0</ele><time>2026-03-27T14:04:07.705Z</time></trkpt><trkpt lat="43.2499844" lon="11.2862937"><ele>234.00000000000003</ele><time>2026-03-27T14:04:08.706Z</time></trkpt><trkpt lat="43.2499197" lon="11.2863177"><ele>234.0</ele><time>2026-03-27T14:04:09.705Z</time></trkpt><trkpt lat="43.2498553" lon="11.2863394"><ele>234.0</ele><time>2026-03-27T14:04:10.705Z</time></trkpt><trkpt lat="43.2497895" lon="11.2863593"><ele>234.00000000000003</ele><time>2026-03-27T14:04:11.705Z</time></trkpt><trkpt lat="43.2497242" lon="11.2863757"><ele>234.0</ele><time>2026-03-27T14:04:12.705Z</time></trkpt><trkpt lat="43.2496611" lon="11.286385"><ele>234.0</ele><time>2026-03-27T14:04:13.705Z</time></trkpt><trkpt lat="43.2495961" lon="11.2864019"><ele>234.2</ele><time>2026-03-27T14:04:14.705Z</time></trkpt><trkpt lat="43.2494795" lon="11.2864306"><ele>234.39999999999998</ele><time>2026-03-27T14:04:16.706Z</time></trkpt><trkpt lat="43.2493685" lon="11.2864428"><ele>234.6</ele><time>2026-03-27T14:04:18.705Z</time></trkpt><trkpt lat="43.2492617" lon="11.2864448"><ele>234.8</ele><time>2026-03-27T14:04:20.705Z</time></trkpt><trkpt lat="43.2491492" lon="11.2864574"><ele>235.0</ele><time>2026-03-27T14:04:22.705Z</time></trkpt><trkpt lat="43.24904" lon="11.2864734"><ele>235.0</ele><time>2026-03-27T14:04:24.705Z</time></trkpt><trkpt lat="43.2489318" lon="11.2864811"><ele>235.0</ele><time>2026-03-27T14:04:26.705Z</time></trkpt><trkpt lat="43.2488204" lon="11.2864929"><ele>235.0</ele><time>2026-03-27T14:04:28.705Z</time></trkpt><trkpt lat="43.2487005" lon="11.2865024"><ele>235.0</ele><time>2026-03-27T14:04:30.705Z</time></trkpt><trkpt lat="43.2486375" lon="11.2865023"><ele>235.0</ele><time>2026-03-27T14:04:31.706Z</time></trkpt><trkpt lat="43.2485719" lon="11.2865011"><ele>235.0</ele><time>2026-03-27T14:04:32.705Z</time></trkpt><trkpt lat="43.2485036" lon="11.2864927"><ele>234.99999999999997</ele><time>2026-03-27T14:04:33.705Z</time></trkpt><trkpt lat="43.2484318" lon="11.2864774"><ele>235.0</ele><time>2026-03-27T14:04:34.705Z</time></trkpt><trkpt lat="43.2483618" lon="11.2864614"><ele>235.0</ele><time>2026-03-27T14:04:35.705Z</time></trkpt><trkpt lat="43.2482874" lon="11.286437"><ele>234.99999999999997</ele><time>2026-03-27T14:04:36.705Z</time></trkpt><trkpt lat="43.2482131" lon="11.286415"><ele>235.0</ele><time>2026-03-27T14:04:37.706Z</time></trkpt><trkpt lat="43.2481393" lon="11.2863914"><ele>235.0</ele><time>2026-03-27T14:04:38.705Z</time></trkpt><trkpt lat="43.2480031" lon="11.2863927"><ele>235.33333333333331</ele><time>2026-03-27T14:04:40.705Z</time></trkpt><trkpt lat="43.247871" lon="11.2864451"><ele>235.66666666666666</ele><time>2026-03-27T14:04:42.705Z</time></trkpt><trkpt lat="43.2478046" lon="11.2864748"><ele>236.0</ele><time>2026-03-27T14:04:43.705Z</time></trkpt><trkpt lat="43.2477358" lon="11.2865112"><ele>236.33333333333331</ele><time>2026-03-27T14:04:44.705Z</time></trkpt><trkpt lat="43.2476676" lon="11.2865449"><ele>236.66666666666666</ele><time>2026-03-27T14:04:45.705Z</time></trkpt><trkpt lat="43.2476021" lon="11.2865811"><ele>237.0</ele><time>2026-03-27T14:04:46.705Z</time></trkpt><trkpt lat="43.2475428" lon="11.2866108"><ele>237.0</ele><time>2026-03-27T14:04:47.705Z</time></trkpt><trkpt lat="43.2474804" lon="11.2866413"><ele>237.0</ele><time>2026-03-27T14:04:48.706Z</time></trkpt><trkpt lat="43.2473633" lon="11.2866878"><ele>237.0</ele><time>2026-03-27T14:04:50.705Z</time></trkpt><trkpt lat="43.2472529" lon="11.2867587"><ele>237.0</ele><time>2026-03-27T14:04:52.705Z</time></trkpt><trkpt lat="43.2471543" lon="11.2868131"><ele>237.0</ele><time>2026-03-27T14:04:54.705Z</time></trkpt><trkpt lat="43.2470547" lon="11.2868679"><ele>237.0</ele><time>2026-03-27T14:04:56.706Z</time></trkpt><trkpt lat="43.2469452" lon="11.2869481"><ele>237.0</ele><time>2026-03-27T14:04:58.705Z</time></trkpt><trkpt lat="43.2468868" lon="11.286991"><ele>237.0</ele><time>2026-03-27T14:04:59.705Z</time></trkpt><trkpt lat="43.2468293" lon="11.2870454"><ele>237.0</ele><time>2026-03-27T14:05:00.705Z</time></trkpt><trkpt lat="43.2467709" lon="11.2871109"><ele>237.0</ele><time>2026-03-27T14:05:01.705Z</time></trkpt><trkpt lat="43.2467177" lon="11.2871766"><ele>237.0</ele><time>2026-03-27T14:05:02.705Z</time></trkpt><trkpt lat="43.2466663" lon="11.2872458"><ele>236.71428571428567</ele><time>2026-03-27T14:05:03.705Z</time></trkpt><trkpt lat="43.2466072" lon="11.2873033"><ele>236.42857142857142</ele><time>2026-03-27T14:05:04.706Z</time></trkpt><trkpt lat="43.2465548" lon="11.2873688"><ele>236.1428571428571</ele><time>2026-03-27T14:05:05.705Z</time></trkpt><trkpt lat="43.2464946" lon="11.2874254"><ele>235.85714285714283</ele><time>2026-03-27T14:05:06.706Z</time></trkpt><trkpt lat="43.2464341" lon="11.2874709"><ele>235.57142857142856</ele><time>2026-03-27T14:05:07.706Z</time></trkpt><trkpt lat="43.246373" lon="11.2875122"><ele>235.28571428571428</ele><time>2026-03-27T14:05:08.705Z</time></trkpt><trkpt lat="43.2463112" lon="11.2875583"><ele>235.0</ele><time>2026-03-27T14:05:09.705Z</time></trkpt><trkpt lat="43.2462483" lon="11.2876013"><ele>234.85714285714283</ele><time>2026-03-27T14:05:10.706Z</time></trkpt><trkpt lat="43.2461859" lon="11.2876517"><ele>234.7142857142857</ele><time>2026-03-27T14:05:11.706Z</time></trkpt><trkpt lat="43.2461214" lon="11.2876996"><ele>234.57142857142856</ele><time>2026-03-27T14:05:12.706Z</time></trkpt><trkpt lat="43.2460617" lon="11.2877468"><ele>234.42857142857144</ele><time>2026-03-27T14:05:13.706Z</time></trkpt><trkpt lat="43.246" lon="11.2877912"><ele>234.2857142857143</ele><time>2026-03-27T14:05:14.705Z</time></trkpt><trkpt lat="43.2459376" lon="11.2878348"><ele>234.14285714285717</ele><time>2026-03-27T14:05:15.706Z</time></trkpt><trkpt lat="43.2458824" lon="11.2878808"><ele>234.0</ele><time>2026-03-27T14:05:16.705Z</time></trkpt><trkpt lat="43.2458238" lon="11.2879258"><ele>234.0</ele><time>2026-03-27T14:05:17.705Z</time></trkpt><trkpt lat="43.2457651" lon="11.2879632"><ele>234.0</ele><time>2026-03-27T14:05:18.706Z</time></trkpt><trkpt lat="43.2457088" lon="11.28801"><ele>234.0</ele><time>2026-03-27T14:05:19.705Z</time></trkpt><trkpt lat="43.2456528" lon="11.2880539"><ele>234.0</ele><time>2026-03-27T14:05:20.705Z</time></trkpt><trkpt lat="43.2455529" lon="11.2881292"><ele>234.0</ele><time>2026-03-27T14:05:22.706Z</time></trkpt><trkpt lat="43.2454584" lon="11.2881894"><ele>234.0</ele><time>2026-03-27T14:05:24.706Z</time></trkpt><trkpt lat="43.2453518" lon="11.2882455"><ele>234.16666666666666</ele><time>2026-03-27T14:05:26.706Z</time></trkpt><trkpt lat="43.2452469" lon="11.2882602"><ele>234.33333333333331</ele><time>2026-03-27T14:05:28.705Z</time></trkpt><trkpt lat="43.2451279" lon="11.2883027"><ele>234.5</ele><time>2026-03-27T14:05:30.706Z</time></trkpt><trkpt lat="43.2450622" lon="11.288322"><ele>234.66666666666666</ele><time>2026-03-27T14:05:31.706Z</time></trkpt><trkpt lat="43.2449941" lon="11.2883338"><ele>234.83333333333331</ele><time>2026-03-27T14:05:32.706Z</time></trkpt><trkpt lat="43.2449258" lon="11.2883471"><ele>235.0</ele><time>2026-03-27T14:05:33.705Z</time></trkpt><trkpt lat="43.244859" lon="11.288366"><ele>235.14285714285714</ele><time>2026-03-27T14:05:34.705Z</time></trkpt><trkpt lat="43.2447915" lon="11.2883767"><ele>235.28571428571428</ele><time>2026-03-27T14:05:35.706Z</time></trkpt><trkpt lat="43.2447246" lon="11.2883922"><ele>235.42857142857142</ele><time>2026-03-27T14:05:36.705Z</time></trkpt><trkpt lat="43.2446605" lon="11.2883953"><ele>235.57142857142856</ele><time>2026-03-27T14:05:37.705Z</time></trkpt><trkpt lat="43.2445926" lon="11.2884062"><ele>235.71428571428572</ele><time>2026-03-27T14:05:38.705Z</time></trkpt><trkpt lat="43.2445242" lon="11.2884228"><ele>235.85714285714283</ele><time>2026-03-27T14:05:39.705Z</time></trkpt><trkpt lat="43.244456" lon="11.2884424"><ele>236.0</ele><time>2026-03-27T14:05:40.705Z</time></trkpt><trkpt lat="43.2443904" lon="11.2884635"><ele>236.00000000000003</ele><time>2026-03-27T14:05:41.705Z</time></trkpt><trkpt lat="43.2443239" lon="11.2884895"><ele>236.0</ele><time>2026-03-27T14:05:42.706Z</time></trkpt><trkpt lat="43.2442014" lon="11.28852"><ele>236.0</ele><time>2026-03-27T14:05:44.705Z</time></trkpt><trkpt lat="43.2441364" lon="11.2885442"><ele>236.0</ele><time>2026-03-27T14:05:45.705Z</time></trkpt><trkpt lat="43.2440733" lon="11.288561"><ele>236.00000000000003</ele><time>2026-03-27T14:05:46.705Z</time></trkpt><trkpt lat="43.2440106" lon="11.2885805"><ele>236.0</ele><time>2026-03-27T14:05:47.705Z</time></trkpt><trkpt lat="43.2439469" lon="11.2885975"><ele>235.83333333333334</ele><time>2026-03-27T14:05:48.706Z</time></trkpt><trkpt lat="43.2438212" lon="11.2886322"><ele>235.66666666666669</ele><time>2026-03-27T14:05:50.705Z</time></trkpt><trkpt lat="43.2437573" lon="11.2886488"><ele>235.5</ele><time>2026-03-27T14:05:51.706Z</time></trkpt><trkpt lat="43.2436885" lon="11.2886609"><ele>235.33333333333331</ele><time>2026-03-27T14:05:52.705Z</time></trkpt><trkpt lat="43.2436187" lon="11.288671"><ele>235.16666666666666</ele><time>2026-03-27T14:05:53.706Z</time></trkpt><trkpt lat="43.2435479" lon="11.2886816"><ele>235.0</ele><time>2026-03-27T14:05:54.705Z</time></trkpt><trkpt lat="43.243477" lon="11.2886792"><ele>235.0</ele><time>2026-03-27T14:05:55.705Z</time></trkpt><trkpt lat="43.2434025" lon="11.2886971"><ele>234.99999999999997</ele><time>2026-03-27T14:05:56.705Z</time></trkpt><trkpt lat="43.2433298" lon="11.2887129"><ele>235.0</ele><time>2026-03-27T14:05:57.705Z</time></trkpt><trkpt lat="43.243264" lon="11.2887124"><ele>235.0</ele><time>2026-03-27T14:05:58.705Z</time></trkpt><trkpt lat="43.2431969" lon="11.2887122"><ele>234.99999999999997</ele><time>2026-03-27T14:05:59.705Z</time></trkpt><trkpt lat="43.2431341" lon="11.2887193"><ele>235.0</ele><time>2026-03-27T14:06:00.705Z</time></trkpt><trkpt lat="43.2430668" lon="11.2887243"><ele>235.0</ele><time>2026-03-27T14:06:01.706Z</time></trkpt><trkpt lat="43.2429417" lon="11.2887403"><ele>234.99999999999997</ele><time>2026-03-27T14:06:03.705Z</time></trkpt><trkpt lat="43.2428154" lon="11.28875"><ele>235.0</ele><time>2026-03-27T14:06:05.705Z</time></trkpt><trkpt lat="43.2427507" lon="11.288756"><ele>235.0</ele><time>2026-03-27T14:06:06.705Z</time></trkpt><trkpt lat="43.242681" lon="11.2887587"><ele>235.0</ele><time>2026-03-27T14:06:07.706Z</time></trkpt><trkpt lat="43.2426104" lon="11.2887682"><ele>234.99999999999997</ele><time>2026-03-27T14:06:08.706Z</time></trkpt><trkpt lat="43.2425373" lon="11.2887855"><ele>235.0</ele><time>2026-03-27T14:06:09.706Z</time></trkpt><trkpt lat="43.2424627" lon="11.2887962"><ele>234.99999999999997</ele><time>2026-03-27T14:06:10.705Z</time></trkpt><trkpt lat="43.2423874" lon="11.2888153"><ele>235.0</ele><time>2026-03-27T14:06:11.705Z</time></trkpt><trkpt lat="43.2423129" lon="11.2888327"><ele>235.0</ele><time>2026-03-27T14:06:12.705Z</time></trkpt><trkpt lat="43.2422362" lon="11.2888568"><ele>235.0</ele><time>2026-03-27T14:06:13.706Z</time></trkpt><trkpt lat="43.2421604" lon="11.2888888"><ele>234.99999999999997</ele><time>2026-03-27T14:06:14.705Z</time></trkpt><trkpt lat="43.2420838" lon="11.288913"><ele>235.0</ele><time>2026-03-27T14:06:15.705Z</time></trkpt><trkpt lat="43.2420033" lon="11.2889447"><ele>235.0</ele><time>2026-03-27T14:06:16.705Z</time></trkpt><trkpt lat="43.2419243" lon="11.2889697"><ele>234.99999999999997</ele><time>2026-03-27T14:06:17.706Z</time></trkpt><trkpt lat="43.2418528" lon="11.2890118"><ele>235.0</ele><time>2026-03-27T14:06:18.706Z</time></trkpt><trkpt lat="43.2417823" lon="11.2890659"><ele>235.0</ele><time>2026-03-27T14:06:19.706Z</time></trkpt><trkpt lat="43.2417262" lon="11.2891086"><ele>234.99999999999997</ele><time>2026-03-27T14:06:20.705Z</time></trkpt><trkpt lat="43.2416711" lon="11.2891534"><ele>235.0</ele><time>2026-03-27T14:06:21.706Z</time></trkpt><trkpt lat="43.2416174" lon="11.2892037"><ele>235.0</ele><time>2026-03-27T14:06:22.705Z</time></trkpt><trkpt lat="43.2415546" lon="11.2892659"><ele>234.99999999999997</ele><time>2026-03-27T14:06:23.706Z</time></trkpt><trkpt lat="43.2414961" lon="11.289325"><ele>235.0</ele><time>2026-03-27T14:06:24.705Z</time></trkpt><trkpt lat="43.2414325" lon="11.2893966"><ele>235.0</ele><time>2026-03-27T14:06:25.705Z</time></trkpt><trkpt lat="43.2413779" lon="11.2894653"><ele>235.0</ele><time>2026-03-27T14:06:26.705Z</time></trkpt><trkpt lat="43.2413142" lon="11.2895376"><ele>234.99999999999997</ele><time>2026-03-27T14:06:27.705Z</time></trkpt><trkpt lat="43.2412555" lon="11.2896058"><ele>235.0</ele><time>2026-03-27T14:06:28.705Z</time></trkpt><trkpt lat="43.2411881" lon="11.2896866"><ele>233.99999999999997</ele><time>2026-03-27T14:06:29.705Z</time></trkpt><trkpt lat="43.2411219" lon="11.2897622"><ele>233.0</ele><time>2026-03-27T14:06:30.705Z</time></trkpt><trkpt lat="43.2410567" lon="11.2898408"><ele>232.0</ele><time>2026-03-27T14:06:31.705Z</time></trkpt><trkpt lat="43.2409825" lon="11.2899262"><ele>231.0</ele><time>2026-03-27T14:06:32.705Z</time></trkpt><trkpt lat="43.2409163" lon="11.2899946"><ele>229.99999999999997</ele><time>2026-03-27T14:06:33.705Z</time></trkpt><trkpt lat="43.2408389" lon="11.2900684"><ele>229.0</ele><time>2026-03-27T14:06:34.705Z</time></trkpt><trkpt lat="43.2407586" lon="11.2901392"><ele>229.0</ele><time>2026-03-27T14:06:35.705Z</time></trkpt><trkpt lat="43.2406751" lon="11.2901973"><ele>228.99999999999997</ele><time>2026-03-27T14:06:36.705Z</time></trkpt><trkpt lat="43.2405892" lon="11.2902572"><ele>228.99999999999997</ele><time>2026-03-27T14:06:37.705Z</time></trkpt><trkpt lat="43.2405023" lon="11.2903102"><ele>229.0</ele><time>2026-03-27T14:06:38.705Z</time></trkpt><trkpt lat="43.2404166" lon="11.290361"><ele>229.0</ele><time>2026-03-27T14:06:39.705Z</time></trkpt><trkpt lat="43.2403275" lon="11.2904097"><ele>228.49999999999997</ele><time>2026-03-27T14:06:40.705Z</time></trkpt><trkpt lat="43.2402444" lon="11.2904459"><ele>228.0</ele><time>2026-03-27T14:06:41.706Z</time></trkpt><trkpt lat="43.2401611" lon="11.2904836"><ele>227.5</ele><time>2026-03-27T14:06:42.705Z</time></trkpt><trkpt lat="43.2400828" lon="11.2905321"><ele>227.0</ele><time>2026-03-27T14:06:43.705Z</time></trkpt><trkpt lat="43.240007" lon="11.29057"><ele>226.49999999999997</ele><time>2026-03-27T14:06:44.705Z</time></trkpt><trkpt lat="43.2399278" lon="11.2906097"><ele>226.0</ele><time>2026-03-27T14:06:45.705Z</time></trkpt><trkpt lat="43.2398525" lon="11.2906483"><ele>226.57142857142858</ele><time>2026-03-27T14:06:46.706Z</time></trkpt><trkpt lat="43.2397827" lon="11.2906806"><ele>227.1428571428571</ele><time>2026-03-27T14:06:47.706Z</time></trkpt><trkpt lat="43.2397127" lon="11.2907068"><ele>227.7142857142857</ele><time>2026-03-27T14:06:48.705Z</time></trkpt><trkpt lat="43.239643" lon="11.2907374"><ele>228.28571428571428</ele><time>2026-03-27T14:06:49.706Z</time></trkpt><trkpt lat="43.2395766" lon="11.2907681"><ele>228.85714285714283</ele><time>2026-03-27T14:06:50.705Z</time></trkpt><trkpt lat="43.2395142" lon="11.2908005"><ele>229.4285714285714</ele><time>2026-03-27T14:06:51.705Z</time></trkpt><trkpt lat="43.2394504" lon="11.2908378"><ele>229.99999999999997</ele><time>2026-03-27T14:06:52.705Z</time></trkpt><trkpt lat="43.2393284" lon="11.2908956"><ele>230.0</ele><time>2026-03-27T14:06:54.706Z</time></trkpt><trkpt lat="43.2392162" lon="11.2909636"><ele>230.0</ele><time>2026-03-27T14:06:56.706Z</time></trkpt><trkpt lat="43.2391058" lon="11.2910218"><ele>230.0</ele><time>2026-03-27T14:06:58.705Z</time></trkpt><trkpt lat="43.2390013" lon="11.2910735"><ele>230.0</ele><time>2026-03-27T14:07:00.705Z</time></trkpt><trkpt lat="43.2388897" lon="11.29112"><ele>230.16666666666669</ele><time>2026-03-27T14:07:02.705Z</time></trkpt><trkpt lat="43.2387781" lon="11.2911614"><ele>230.33333333333334</ele><time>2026-03-27T14:07:04.706Z</time></trkpt><trkpt lat="43.2387156" lon="11.2911848"><ele>230.5</ele><time>2026-03-27T14:07:05.706Z</time></trkpt><trkpt lat="43.2386543" lon="11.2912051"><ele>230.66666666666669</ele><time>2026-03-27T14:07:06.705Z</time></trkpt><trkpt lat="43.2385868" lon="11.2912274"><ele>230.83333333333334</ele><time>2026-03-27T14:07:07.705Z</time></trkpt><trkpt lat="43.2385203" lon="11.2912506"><ele>231.0</ele><time>2026-03-27T14:07:08.705Z</time></trkpt><trkpt lat="43.2384553" lon="11.2912792"><ele>231.0</ele><time>2026-03-27T14:07:09.705Z</time></trkpt><trkpt lat="43.2383876" lon="11.2913072"><ele>231.0</ele><time>2026-03-27T14:07:10.705Z</time></trkpt><trkpt lat="43.2383193" lon="11.2913365"><ele>231.0</ele><time>2026-03-27T14:07:11.706Z</time></trkpt><trkpt lat="43.2382549" lon="11.2913656"><ele>231.0</ele><time>2026-03-27T14:07:12.705Z</time></trkpt><trkpt lat="43.2381914" lon="11.291395"><ele>231.0</ele><time>2026-03-27T14:07:13.705Z</time></trkpt><trkpt lat="43.2381235" lon="11.2914271"><ele>231.0</ele><time>2026-03-27T14:07:14.706Z</time></trkpt><trkpt lat="43.2380541" lon="11.2914616"><ele>231.0</ele><time>2026-03-27T14:07:15.706Z</time></trkpt><trkpt lat="43.2379846" lon="11.2915002"><ele>230.16666666666666</ele><time>2026-03-27T14:07:16.705Z</time></trkpt><trkpt lat="43.2379102" lon="11.2915459"><ele>229.33333333333331</ele><time>2026-03-27T14:07:17.706Z</time></trkpt><trkpt lat="43.237835" lon="11.2915832"><ele>228.5</ele><time>2026-03-27T14:07:18.705Z</time></trkpt><trkpt lat="43.2377625" lon="11.2916382"><ele>227.66666666666666</ele><time>2026-03-27T14:07:19.706Z</time></trkpt><trkpt lat="43.2376814" lon="11.2916876"><ele>226.83333333333331</ele><time>2026-03-27T14:07:20.706Z</time></trkpt><trkpt lat="43.2376018" lon="11.2917443"><ele>226.0</ele><time>2026-03-27T14:07:21.705Z</time></trkpt><trkpt lat="43.2375183" lon="11.2917948"><ele>226.0</ele><time>2026-03-27T14:07:22.706Z</time></trkpt><trkpt lat="43.2374321" lon="11.2918403"><ele>226.00000000000003</ele><time>2026-03-27T14:07:23.705Z</time></trkpt><trkpt lat="43.2373436" lon="11.2918841"><ele>226.00000000000003</ele><time>2026-03-27T14:07:24.706Z</time></trkpt><trkpt lat="43.2372564" lon="11.2919292"><ele>226.0</ele><time>2026-03-27T14:07:25.705Z</time></trkpt><trkpt lat="43.2371662" lon="11.2919717"><ele>226.0</ele><time>2026-03-27T14:07:26.705Z</time></trkpt><trkpt lat="43.2370773" lon="11.2920154"><ele>225.0</ele><time>2026-03-27T14:07:27.705Z</time></trkpt><trkpt lat="43.2369859" lon="11.2920562"><ele>224.00000000000003</ele><time>2026-03-27T14:07:28.705Z</time></trkpt><trkpt lat="43.2369003" lon="11.2921049"><ele>223.00000000000003</ele><time>2026-03-27T14:07:29.706Z</time></trkpt><trkpt lat="43.2368146" lon="11.2921445"><ele>222.0</ele><time>2026-03-27T14:07:30.705Z</time></trkpt><trkpt lat="43.2367276" lon="11.2921849"><ele>221.0</ele><time>2026-03-27T14:07:31.706Z</time></trkpt><trkpt lat="43.2366426" lon="11.2922238"><ele>220.83333333333334</ele><time>2026-03-27T14:07:32.706Z</time></trkpt><trkpt lat="43.2365547" lon="11.2922583"><ele>220.66666666666669</ele><time>2026-03-27T14:07:33.705Z</time></trkpt><trkpt lat="43.2364692" lon="11.2922979"><ele>220.5</ele><time>2026-03-27T14:07:34.705Z</time></trkpt><trkpt lat="43.2363833" lon="11.2923308"><ele>220.33333333333331</ele><time>2026-03-27T14:07:35.705Z</time></trkpt><trkpt lat="43.2362992" lon="11.2923572"><ele>220.16666666666666</ele><time>2026-03-27T14:07:36.705Z</time></trkpt><trkpt lat="43.2362175" lon="11.2923774"><ele>220.0</ele><time>2026-03-27T14:07:37.705Z</time></trkpt><trkpt lat="43.2361381" lon="11.292405"><ele>220.57142857142856</ele><time>2026-03-27T14:07:38.705Z</time></trkpt><trkpt lat="43.2360616" lon="11.2924311"><ele>221.14285714285714</ele><time>2026-03-27T14:07:39.705Z</time></trkpt><trkpt lat="43.2359879" lon="11.2924528"><ele>221.71428571428572</ele><time>2026-03-27T14:07:40.705Z</time></trkpt><trkpt lat="43.2359164" lon="11.2924772"><ele>222.28571428571428</ele><time>2026-03-27T14:07:41.705Z</time></trkpt><trkpt lat="43.2358426" lon="11.2925003"><ele>222.85714285714286</ele><time>2026-03-27T14:07:42.705Z</time></trkpt><trkpt lat="43.2357773" lon="11.2925193"><ele>223.42857142857142</ele><time>2026-03-27T14:07:43.705Z</time></trkpt><trkpt lat="43.2357127" lon="11.2925424"><ele>224.0</ele><time>2026-03-27T14:07:44.706Z</time></trkpt><trkpt lat="43.2356498" lon="11.2925598"><ele>224.39999999999998</ele><time>2026-03-27T14:07:45.706Z</time></trkpt><trkpt lat="43.2355329" lon="11.2925765"><ele>224.79999999999998</ele><time>2026-03-27T14:07:47.705Z</time></trkpt><trkpt lat="43.2354195" lon="11.2926036"><ele>225.20000000000002</ele><time>2026-03-27T14:07:49.705Z</time></trkpt><trkpt lat="43.2353097" lon="11.292603"><ele>225.60000000000002</ele><time>2026-03-27T14:07:51.706Z</time></trkpt><trkpt lat="43.2352031" lon="11.2926085"><ele>226.0</ele><time>2026-03-27T14:07:53.706Z</time></trkpt><trkpt lat="43.2350893" lon="11.2926087"><ele>226.0</ele><time>2026-03-27T14:07:55.706Z</time></trkpt><trkpt lat="43.2349764" lon="11.2925898"><ele>226.0</ele><time>2026-03-27T14:07:57.705Z</time></trkpt><trkpt lat="43.2348691" lon="11.2925605"><ele>226.0</ele><time>2026-03-27T14:07:59.705Z</time></trkpt><trkpt lat="43.2347586" lon="11.2925254"><ele>226.0</ele><time>2026-03-27T14:08:01.706Z</time></trkpt><trkpt lat="43.2346503" lon="11.2924769"><ele>225.5</ele><time>2026-03-27T14:08:03.705Z</time></trkpt><trkpt lat="43.2345379" lon="11.2924281"><ele>225.0</ele><time>2026-03-27T14:08:05.705Z</time></trkpt><trkpt lat="43.2344251" lon="11.2923709"><ele>224.5</ele><time>2026-03-27T14:08:07.706Z</time></trkpt><trkpt lat="43.2343151" lon="11.2923161"><ele>224.0</ele><time>2026-03-27T14:08:09.705Z</time></trkpt><trkpt lat="43.2342012" lon="11.292277"><ele>224.0</ele><time>2026-03-27T14:08:11.705Z</time></trkpt><trkpt lat="43.2340963" lon="11.2922276"><ele>224.0</ele><time>2026-03-27T14:08:13.705Z</time></trkpt><trkpt lat="43.233987" lon="11.2921874"><ele>224.0</ele><time>2026-03-27T14:08:15.705Z</time></trkpt><trkpt lat="43.2338771" lon="11.2921356"><ele>224.0</ele><time>2026-03-27T14:08:17.705Z</time></trkpt><trkpt lat="43.2337697" lon="11.292085"><ele>225.25</ele><time>2026-03-27T14:08:19.706Z</time></trkpt><trkpt lat="43.2336627" lon="11.2920331"><ele>226.5</ele><time>2026-03-27T14:08:21.705Z</time></trkpt><trkpt lat="43.2335562" lon="11.2919861"><ele>227.75</ele><time>2026-03-27T14:08:23.705Z</time></trkpt><trkpt lat="43.2334501" lon="11.2919257"><ele>229.0</ele><time>2026-03-27T14:08:25.705Z</time></trkpt><trkpt lat="43.2333441" lon="11.2918863"><ele>229.0</ele><time>2026-03-27T14:08:27.705Z</time></trkpt><trkpt lat="43.2332335" lon="11.2918507"><ele>228.99999999999997</ele><time>2026-03-27T14:08:29.705Z</time></trkpt><trkpt lat="43.2331321" lon="11.2918031"><ele>228.99999999999997</ele><time>2026-03-27T14:08:31.706Z</time></trkpt><trkpt lat="43.2330293" lon="11.2917427"><ele>229.0</ele><time>2026-03-27T14:08:33.705Z</time></trkpt><trkpt lat="43.2329275" lon="11.2916935"><ele>229.0</ele><time>2026-03-27T14:08:35.705Z</time></trkpt><trkpt lat="43.2328265" lon="11.2916418"><ele>229.2</ele><time>2026-03-27T14:08:37.706Z</time></trkpt><trkpt lat="43.2327267" lon="11.2915965"><ele>229.39999999999998</ele><time>2026-03-27T14:08:39.705Z</time></trkpt><trkpt lat="43.2326293" lon="11.2915496"><ele>229.6</ele><time>2026-03-27T14:08:41.705Z</time></trkpt><trkpt lat="43.2325389" lon="11.2914693"><ele>229.8</ele><time>2026-03-27T14:08:43.705Z</time></trkpt><trkpt lat="43.2324468" lon="11.291396"><ele>230.0</ele><time>2026-03-27T14:08:45.705Z</time></trkpt><trkpt lat="43.2323642" lon="11.2913182"><ele>230.6</ele><time>2026-03-27T14:08:47.705Z</time></trkpt><trkpt lat="43.2322762" lon="11.291253"><ele>231.2</ele><time>2026-03-27T14:08:49.705Z</time></trkpt><trkpt lat="43.2322017" lon="11.291172"><ele>231.8</ele><time>2026-03-27T14:08:51.705Z</time></trkpt><trkpt lat="43.2321172" lon="11.2910858"><ele>232.4</ele><time>2026-03-27T14:08:53.705Z</time></trkpt><trkpt lat="43.2320349" lon="11.2909955"><ele>233.0</ele><time>2026-03-27T14:08:55.705Z</time></trkpt><trkpt lat="43.2319427" lon="11.2909413"><ele>233.0</ele><time>2026-03-27T14:08:57.705Z</time></trkpt><trkpt lat="43.2318525" lon="11.2908736"><ele>233.0</ele><time>2026-03-27T14:08:59.705Z</time></trkpt><trkpt lat="43.231762" lon="11.2908152"><ele>233.0</ele><time>2026-03-27T14:09:01.705Z</time></trkpt><trkpt lat="43.2316659" lon="11.2907533"><ele>233.0</ele><time>2026-03-27T14:09:03.705Z</time></trkpt><trkpt lat="43.2315635" lon="11.2906984"><ele>233.0</ele><time>2026-03-27T14:09:05.705Z</time></trkpt><trkpt lat="43.2314647" lon="11.2906316"><ele>233.0</ele><time>2026-03-27T14:09:07.705Z</time></trkpt><trkpt lat="43.2313618" lon="11.2905629"><ele>233.0</ele><time>2026-03-27T14:09:09.705Z</time></trkpt><trkpt lat="43.2312683" lon="11.2904922"><ele>233.0</ele><time>2026-03-27T14:09:11.705Z</time></trkpt><trkpt lat="43.2311693" lon="11.2904304"><ele>233.0</ele><time>2026-03-27T14:09:13.705Z</time></trkpt><trkpt lat="43.2310719" lon="11.2903605"><ele>233.0</ele><time>2026-03-27T14:09:15.706Z</time></trkpt><trkpt lat="43.2309817" lon="11.2903098"><ele>233.0</ele><time>2026-03-27T14:09:17.705Z</time></trkpt><trkpt lat="43.2308885" lon="11.290249"><ele>233.0</ele><time>2026-03-27T14:09:19.705Z</time></trkpt><trkpt lat="43.2307946" lon="11.2902075"><ele>233.0</ele><time>2026-03-27T14:09:21.705Z</time></trkpt><trkpt lat="43.2306979" lon="11.2901687"><ele>233.0</ele><time>2026-03-27T14:09:23.705Z</time></trkpt><trkpt lat="43.2305947" lon="11.2901256"><ele>233.0</ele><time>2026-03-27T14:09:25.706Z</time></trkpt><trkpt lat="43.2304867" lon="11.2900959"><ele>233.16666666666669</ele><time>2026-03-27T14:09:27.705Z</time></trkpt><trkpt lat="43.2303708" lon="11.2900607"><ele>233.33333333333334</ele><time>2026-03-27T14:09:29.706Z</time></trkpt><trkpt lat="43.2302485" lon="11.2900285"><ele>233.5</ele><time>2026-03-27T14:09:31.706Z</time></trkpt><trkpt lat="43.2301832" lon="11.2900158"><ele>233.66666666666669</ele><time>2026-03-27T14:09:32.705Z</time></trkpt><trkpt lat="43.2301207" lon="11.2900045"><ele>233.83333333333334</ele><time>2026-03-27T14:09:33.705Z</time></trkpt><trkpt lat="43.2300565" lon="11.289997"><ele>234.0</ele><time>2026-03-27T14:09:34.705Z</time></trkpt><trkpt lat="43.2299868" lon="11.2899896"><ele>234.0</ele><time>2026-03-27T14:09:35.705Z</time></trkpt><trkpt lat="43.2299154" lon="11.2899851"><ele>234.00000000000003</ele><time>2026-03-27T14:09:36.705Z</time></trkpt><trkpt lat="43.2298485" lon="11.2899774"><ele>234.0</ele><time>2026-03-27T14:09:37.706Z</time></trkpt><trkpt lat="43.2297811" lon="11.2899618"><ele>234.0</ele><time>2026-03-27T14:09:38.705Z</time></trkpt><trkpt lat="43.229713" lon="11.2899463"><ele>234.00000000000003</ele><time>2026-03-27T14:09:39.705Z</time></trkpt><trkpt lat="43.2296485" lon="11.2899333"><ele>234.0</ele><time>2026-03-27T14:09:40.705Z</time></trkpt><trkpt lat="43.2295838" lon="11.2899154"><ele>234.0</ele><time>2026-03-27T14:09:41.705Z</time></trkpt><trkpt lat="43.229518" lon="11.2899021"><ele>233.85714285714286</ele><time>2026-03-27T14:09:42.705Z</time></trkpt><trkpt lat="43.2294478" lon="11.2898866"><ele>233.71428571428572</ele><time>2026-03-27T14:09:43.705Z</time></trkpt><trkpt lat="43.2293836" lon="11.2898681"><ele>233.57142857142858</ele><time>2026-03-27T14:09:44.705Z</time></trkpt><trkpt lat="43.2293105" lon="11.2898601"><ele>233.42857142857144</ele><time>2026-03-27T14:09:45.705Z</time></trkpt><trkpt lat="43.2292427" lon="11.2898445"><ele>233.28571428571428</ele><time>2026-03-27T14:09:46.706Z</time></trkpt><trkpt lat="43.2291718" lon="11.2898273"><ele>233.14285714285717</ele><time>2026-03-27T14:09:47.705Z</time></trkpt><trkpt lat="43.229099" lon="11.2898123"><ele>233.0</ele><time>2026-03-27T14:09:48.705Z</time></trkpt><trkpt lat="43.2290287" lon="11.2897906"><ele>232.42857142857144</ele><time>2026-03-27T14:09:49.705Z</time></trkpt><trkpt lat="43.2289585" lon="11.2897709"><ele>231.85714285714283</ele><time>2026-03-27T14:09:50.705Z</time></trkpt><trkpt lat="43.2288841" lon="11.2897589"><ele>231.28571428571428</ele><time>2026-03-27T14:09:51.706Z</time></trkpt><trkpt lat="43.2288076" lon="11.289744"><ele>230.71428571428572</ele><time>2026-03-27T14:09:52.706Z</time></trkpt><trkpt lat="43.2287361" lon="11.2897207"><ele>230.14285714285717</ele><time>2026-03-27T14:09:53.705Z</time></trkpt><trkpt lat="43.2286634" lon="11.2897099"><ele>229.57142857142856</ele><time>2026-03-27T14:09:54.705Z</time></trkpt><trkpt lat="43.2285899" lon="11.2896947"><ele>229.0</ele><time>2026-03-27T14:09:55.706Z</time></trkpt><trkpt lat="43.2285095" lon="11.2896831"><ele>228.99999999999997</ele><time>2026-03-27T14:09:56.705Z</time></trkpt><trkpt lat="43.2284334" lon="11.2896655"><ele>229.0</ele><time>2026-03-27T14:09:57.705Z</time></trkpt><trkpt lat="43.228354" lon="11.2896594"><ele>229.0</ele><time>2026-03-27T14:09:58.705Z</time></trkpt><trkpt lat="43.2282736" lon="11.2896525"><ele>229.0</ele><time>2026-03-27T14:09:59.705Z</time></trkpt><trkpt lat="43.2281926" lon="11.2896488"><ele>228.99999999999997</ele><time>2026-03-27T14:10:00.706Z</time></trkpt><trkpt lat="43.2281113" lon="11.2896396"><ele>229.0</ele><time>2026-03-27T14:10:01.705Z</time></trkpt><trkpt lat="43.2280341" lon="11.2896356"><ele>228.66666666666666</ele><time>2026-03-27T14:10:02.705Z</time></trkpt><trkpt lat="43.2279555" lon="11.2896321"><ele>228.33333333333331</ele><time>2026-03-27T14:10:03.706Z</time></trkpt><trkpt lat="43.2278756" lon="11.2896228"><ele>228.0</ele><time>2026-03-27T14:10:04.705Z</time></trkpt><trkpt lat="43.2277986" lon="11.2896226"><ele>227.66666666666669</ele><time>2026-03-27T14:10:05.705Z</time></trkpt><trkpt lat="43.2277157" lon="11.2896214"><ele>227.33333333333334</ele><time>2026-03-27T14:10:06.705Z</time></trkpt><trkpt lat="43.2276373" lon="11.2896157"><ele>227.0</ele><time>2026-03-27T14:10:07.705Z</time></trkpt><trkpt lat="43.2275588" lon="11.2896084"><ele>227.00000000000003</ele><time>2026-03-27T14:10:08.706Z</time></trkpt><trkpt lat="43.2274823" lon="11.2895954"><ele>227.0</ele><time>2026-03-27T14:10:09.706Z</time></trkpt><trkpt lat="43.227403" lon="11.2895949"><ele>227.0</ele><time>2026-03-27T14:10:10.705Z</time></trkpt><trkpt lat="43.2273291" lon="11.2895816"><ele>227.0</ele><time>2026-03-27T14:10:11.705Z</time></trkpt><trkpt lat="43.2272514" lon="11.2895771"><ele>227.00000000000003</ele><time>2026-03-27T14:10:12.705Z</time></trkpt><trkpt lat="43.2271763" lon="11.2895681"><ele>227.0</ele><time>2026-03-27T14:10:13.705Z</time></trkpt><trkpt lat="43.2271021" lon="11.2895556"><ele>227.00000000000003</ele><time>2026-03-27T14:10:14.705Z</time></trkpt><trkpt lat="43.2270266" lon="11.2895505"><ele>227.0</ele><time>2026-03-27T14:10:15.705Z</time></trkpt><trkpt lat="43.226956" lon="11.2895318"><ele>227.0</ele><time>2026-03-27T14:10:16.706Z</time></trkpt><trkpt lat="43.2268782" lon="11.2895161"><ele>227.0</ele><time>2026-03-27T14:10:17.705Z</time></trkpt><trkpt lat="43.2268013" lon="11.2894987"><ele>227.00000000000003</ele><time>2026-03-27T14:10:18.705Z</time></trkpt><trkpt lat="43.2267226" lon="11.2894732"><ele>227.0</ele><time>2026-03-27T14:10:19.705Z</time></trkpt><trkpt lat="43.2266451" lon="11.2894371"><ele>227.00000000000003</ele><time>2026-03-27T14:10:20.706Z</time></trkpt><trkpt lat="43.2265678" lon="11.2893987"><ele>227.0</ele><time>2026-03-27T14:10:21.705Z</time></trkpt><trkpt lat="43.2264942" lon="11.2893506"><ele>227.0</ele><time>2026-03-27T14:10:22.706Z</time></trkpt><trkpt lat="43.2264191" lon="11.2893009"><ele>227.0</ele><time>2026-03-27T14:10:23.705Z</time></trkpt><trkpt lat="43.2263479" lon="11.2892402"><ele>227.00000000000003</ele><time>2026-03-27T14:10:24.705Z</time></trkpt><trkpt lat="43.2262829" lon="11.2891733"><ele>227.0</ele><time>2026-03-27T14:10:25.705Z</time></trkpt><trkpt lat="43.2262119" lon="11.2891133"><ele>226.66666666666669</ele><time>2026-03-27T14:10:26.706Z</time></trkpt><trkpt lat="43.2261415" lon="11.289057"><ele>226.33333333333334</ele><time>2026-03-27T14:10:27.705Z</time></trkpt><trkpt lat="43.2260738" lon="11.2889981"><ele>226.0</ele><time>2026-03-27T14:10:28.706Z</time></trkpt><trkpt lat="43.2260059" lon="11.2889313"><ele>225.66666666666669</ele><time>2026-03-27T14:10:29.705Z</time></trkpt><trkpt lat="43.2259347" lon="11.2888703"><ele>225.33333333333334</ele><time>2026-03-27T14:10:30.705Z</time></trkpt><trkpt lat="43.2258657" lon="11.288807"><ele>225.0</ele><time>2026-03-27T14:10:31.705Z</time></trkpt><trkpt lat="43.2257916" lon="11.2887457"><ele>225.0</ele><time>2026-03-27T14:10:32.705Z</time></trkpt><trkpt lat="43.2257203" lon="11.2886847"><ele>225.0</ele><time>2026-03-27T14:10:33.705Z</time></trkpt><trkpt lat="43.2256519" lon="11.2886097"><ele>225.0</ele><time>2026-03-27T14:10:34.706Z</time></trkpt><trkpt lat="43.2255779" lon="11.2885407"><ele>225.0</ele><time>2026-03-27T14:10:35.705Z</time></trkpt><trkpt lat="43.225509" lon="11.2884584"><ele>225.0</ele><time>2026-03-27T14:10:36.705Z</time></trkpt><trkpt lat="43.2254342" lon="11.288388"><ele>225.0</ele><time>2026-03-27T14:10:37.705Z</time></trkpt><trkpt lat="43.2253573" lon="11.2883171"><ele>224.8</ele><time>2026-03-27T14:10:38.705Z</time></trkpt><trkpt lat="43.2252812" lon="11.2882542"><ele>224.6</ele><time>2026-03-27T14:10:39.706Z</time></trkpt><trkpt lat="43.2252126" lon="11.2881765"><ele>224.39999999999998</ele><time>2026-03-27T14:10:40.706Z</time></trkpt><trkpt lat="43.2251403" lon="11.288112"><ele>224.2</ele><time>2026-03-27T14:10:41.705Z</time></trkpt><trkpt lat="43.2250645" lon="11.2880418"><ele>224.0</ele><time>2026-03-27T14:10:42.705Z</time></trkpt><trkpt lat="43.2249886" lon="11.2879643"><ele>223.6</ele><time>2026-03-27T14:10:43.706Z</time></trkpt><trkpt lat="43.2249102" lon="11.2878996"><ele>223.2</ele><time>2026-03-27T14:10:44.705Z</time></trkpt><trkpt lat="43.2248357" lon="11.2878184"><ele>222.79999999999998</ele><time>2026-03-27T14:10:45.705Z</time></trkpt><trkpt lat="43.2247595" lon="11.2877498"><ele>222.39999999999998</ele><time>2026-03-27T14:10:46.705Z</time></trkpt><trkpt lat="43.2246843" lon="11.287685"><ele>222.0</ele><time>2026-03-27T14:10:47.705Z</time></trkpt><trkpt lat="43.2246131" lon="11.2875993"><ele>222.0</ele><time>2026-03-27T14:10:48.705Z</time></trkpt><trkpt lat="43.2245359" lon="11.2875374"><ele>222.0</ele><time>2026-03-27T14:10:49.706Z</time></trkpt><trkpt lat="43.2244577" lon="11.2874653"><ele>222.0</ele><time>2026-03-27T14:10:50.705Z</time></trkpt><trkpt lat="43.2243872" lon="11.2873835"><ele>222.0</ele><time>2026-03-27T14:10:51.705Z</time></trkpt><trkpt lat="43.2243128" lon="11.2873072"><ele>222.0</ele><time>2026-03-27T14:10:52.706Z</time></trkpt><trkpt lat="43.224234" lon="11.2872369"><ele>221.6</ele><time>2026-03-27T14:10:53.705Z</time></trkpt><trkpt lat="43.2241547" lon="11.2871673"><ele>221.2</ele><time>2026-03-27T14:10:54.705Z</time></trkpt><trkpt lat="43.2240762" lon="11.287098"><ele>220.8</ele><time>2026-03-27T14:10:55.705Z</time></trkpt><trkpt lat="43.2239982" lon="11.2870285"><ele>220.4</ele><time>2026-03-27T14:10:56.705Z</time></trkpt><trkpt lat="43.2239261" lon="11.2869515"><ele>220.0</ele><time>2026-03-27T14:10:57.705Z</time></trkpt><trkpt lat="43.2238435" lon="11.2868771"><ele>219.8</ele><time>2026-03-27T14:10:58.705Z</time></trkpt><trkpt lat="43.2237675" lon="11.2867887"><ele>219.6</ele><time>2026-03-27T14:10:59.705Z</time></trkpt><trkpt lat="43.2236809" lon="11.2867097"><ele>219.39999999999998</ele><time>2026-03-27T14:11:00.705Z</time></trkpt><trkpt lat="43.2235989" lon="11.2866391"><ele>219.2</ele><time>2026-03-27T14:11:01.706Z</time></trkpt><trkpt lat="43.2235191" lon="11.2865523"><ele>219.0</ele><time>2026-03-27T14:11:02.705Z</time></trkpt><trkpt lat="43.2234363" lon="11.2864711"><ele>218.0</ele><time>2026-03-27T14:11:03.705Z</time></trkpt><trkpt lat="43.2233545" lon="11.2863932"><ele>216.99999999999997</ele><time>2026-03-27T14:11:04.706Z</time></trkpt><trkpt lat="43.2232773" lon="11.2863089"><ele>215.99999999999997</ele><time>2026-03-27T14:11:05.705Z</time></trkpt><trkpt lat="43.223197" lon="11.2862365"><ele>215.0</ele><time>2026-03-27T14:11:06.705Z</time></trkpt><trkpt lat="43.2231166" lon="11.2861675"><ele>214.0</ele><time>2026-03-27T14:11:07.705Z</time></trkpt><trkpt lat="43.2230541" lon="11.2860979"><ele>214.00000000000003</ele><time>2026-03-27T14:11:08.706Z</time></trkpt><trkpt lat="43.2229945" lon="11.2860336"><ele>214.0</ele><time>2026-03-27T14:11:09.706Z</time></trkpt><trkpt lat="43.2229338" lon="11.2859835"><ele>214.0</ele><time>2026-03-27T14:11:10.705Z</time></trkpt><trkpt lat="43.2228762" lon="11.2859381"><ele>214.0</ele><time>2026-03-27T14:11:11.705Z</time></trkpt><trkpt lat="43.2228035" lon="11.2859105"><ele>214.0</ele><time>2026-03-27T14:11:13.706Z</time></trkpt><trkpt lat="43.2227308" lon="11.2859416"><ele>214.00000000000003</ele><time>2026-03-27T14:11:16.705Z</time></trkpt><trkpt lat="43.2226658" lon="11.2859722"><ele>214.0</ele><time>2026-03-27T14:13:50.705Z</time></trkpt><trkpt lat="43.2226013" lon="11.2860704"><ele>213.99999999999997</ele><time>2026-03-27T14:13:54.706Z</time></trkpt><trkpt lat="43.2225372" lon="11.2861605"><ele>214.0</ele><time>2026-03-27T14:13:56.706Z</time></trkpt><trkpt lat="43.2224624" lon="11.2862795"><ele>214.0</ele><time>2026-03-27T14:13:58.705Z</time></trkpt><trkpt lat="43.2224151" lon="11.2863455"><ele>214.0</ele><time>2026-03-27T14:13:59.705Z</time></trkpt><trkpt lat="43.2223631" lon="11.2864159"><ele>213.99999999999997</ele><time>2026-03-27T14:14:00.705Z</time></trkpt><trkpt lat="43.2223053" lon="11.2864936"><ele>214.0</ele><time>2026-03-27T14:14:01.705Z</time></trkpt><trkpt lat="43.2222436" lon="11.2865795"><ele>212.39999999999998</ele><time>2026-03-27T14:14:02.705Z</time></trkpt><trkpt lat="43.2221813" lon="11.2866715"><ele>210.79999999999998</ele><time>2026-03-27T14:14:03.706Z</time></trkpt><trkpt lat="43.2221136" lon="11.2867626"><ele>209.2</ele><time>2026-03-27T14:14:04.706Z</time></trkpt><trkpt lat="43.2220474" lon="11.2868565"><ele>207.60000000000002</ele><time>2026-03-27T14:14:05.706Z</time></trkpt><trkpt lat="43.2219757" lon="11.2869519"><ele>206.0</ele><time>2026-03-27T14:14:06.705Z</time></trkpt><trkpt lat="43.2219023" lon="11.2870487"><ele>206.0</ele><time>2026-03-27T14:14:07.705Z</time></trkpt><trkpt lat="43.2218314" lon="11.287149"><ele>206.0</ele><time>2026-03-27T14:14:08.706Z</time></trkpt><trkpt lat="43.2217559" lon="11.2872533"><ele>206.0</ele><time>2026-03-27T14:14:09.705Z</time></trkpt><trkpt lat="43.2216748" lon="11.2873575"><ele>206.0</ele><time>2026-03-27T14:14:10.705Z</time></trkpt><trkpt lat="43.2216023" lon="11.2874586"><ele>206.0</ele><time>2026-03-27T14:14:11.706Z</time></trkpt><trkpt lat="43.2215192" lon="11.2875637"><ele>205.20000000000002</ele><time>2026-03-27T14:14:12.705Z</time></trkpt><trkpt lat="43.2214364" lon="11.2876705"><ele>204.4</ele><time>2026-03-27T14:14:13.705Z</time></trkpt><trkpt lat="43.2213568" lon="11.2877744"><ele>203.6</ele><time>2026-03-27T14:14:14.705Z</time></trkpt><trkpt lat="43.2212766" lon="11.2878847"><ele>202.8</ele><time>2026-03-27T14:14:15.705Z</time></trkpt><trkpt lat="43.2211963" lon="11.2879922"><ele>202.0</ele><time>2026-03-27T14:14:16.706Z</time></trkpt><trkpt lat="43.2211174" lon="11.2881044"><ele>201.6</ele><time>2026-03-27T14:14:17.706Z</time></trkpt><trkpt lat="43.2210374" lon="11.2882122"><ele>201.2</ele><time>2026-03-27T14:14:18.706Z</time></trkpt><trkpt lat="43.2209604" lon="11.2883217"><ele>200.8</ele><time>2026-03-27T14:14:19.705Z</time></trkpt><trkpt lat="43.2208808" lon="11.2884237"><ele>200.4</ele><time>2026-03-27T14:14:20.705Z</time></trkpt><trkpt lat="43.22081" lon="11.288525"><ele>200.0</ele><time>2026-03-27T14:14:21.705Z</time></trkpt><trkpt lat="43.2207364" lon="11.2886214"><ele>200.0</ele><time>2026-03-27T14:14:22.705Z</time></trkpt><trkpt lat="43.2206666" lon="11.2887107"><ele>200.0</ele><time>2026-03-27T14:14:23.706Z</time></trkpt><trkpt lat="43.2205961" lon="11.2887971"><ele>200.0</ele><time>2026-03-27T14:14:24.705Z</time></trkpt><trkpt lat="43.2205282" lon="11.2888812"><ele>200.0</ele><time>2026-03-27T14:14:25.705Z</time></trkpt><trkpt lat="43.2204674" lon="11.2889613"><ele>200.0</ele><time>2026-03-27T14:14:26.706Z</time></trkpt><trkpt lat="43.2204071" lon="11.2890468"><ele>200.00000000000003</ele><time>2026-03-27T14:14:27.705Z</time></trkpt><trkpt lat="43.22035" lon="11.2891213"><ele>200.0</ele><time>2026-03-27T14:14:28.705Z</time></trkpt><trkpt lat="43.220297" lon="11.2891949"><ele>200.0</ele><time>2026-03-27T14:14:29.705Z</time></trkpt><trkpt lat="43.2202467" lon="11.2892612"><ele>200.0</ele><time>2026-03-27T14:14:30.705Z</time></trkpt><trkpt lat="43.2201975" lon="11.2893168"><ele>200.00000000000003</ele><time>2026-03-27T14:14:31.705Z</time></trkpt><trkpt lat="43.220116" lon="11.2894196"><ele>200.0</ele><time>2026-03-27T14:14:33.706Z</time></trkpt><trkpt lat="43.2200591" lon="11.2895123"><ele>200.00000000000003</ele><time>2026-03-27T14:14:35.706Z</time></trkpt><trkpt lat="43.2200203" lon="11.2895906"><ele>200.0</ele><time>2026-03-27T14:14:37.706Z</time></trkpt><trkpt lat="43.2200007" lon="11.2897135"><ele>200.0</ele><time>2026-03-27T14:14:40.706Z</time></trkpt><trkpt lat="43.2200133" lon="11.2898301"><ele>200.0</ele><time>2026-03-27T14:14:43.705Z</time></trkpt><trkpt lat="43.2200353" lon="11.2899481"><ele>200.00000000000003</ele><time>2026-03-27T14:14:46.705Z</time></trkpt><trkpt lat="43.2200593" lon="11.2900626"><ele>200.0</ele><time>2026-03-27T14:14:49.705Z</time></trkpt><trkpt lat="43.2200709" lon="11.2901688"><ele>200.83333333333334</ele><time>2026-03-27T14:14:52.705Z</time></trkpt><trkpt lat="43.2200875" lon="11.2902721"><ele>201.66666666666669</ele><time>2026-03-27T14:14:55.705Z</time></trkpt><trkpt lat="43.2201006" lon="11.2903716"><ele>202.5</ele><time>2026-03-27T14:14:58.705Z</time></trkpt><trkpt lat="43.2201002" lon="11.2904896"><ele>203.33333333333331</ele><time>2026-03-27T14:15:02.705Z</time></trkpt><trkpt lat="43.2201182" lon="11.2905835"><ele>204.16666666666666</ele><time>2026-03-27T14:15:05.706Z</time></trkpt><trkpt lat="43.2201181" lon="11.2906961"><ele>205.0</ele><time>2026-03-27T14:15:09.705Z</time></trkpt><trkpt lat="43.2201424" lon="11.2908044"><ele>205.42857142857144</ele><time>2026-03-27T14:15:13.705Z</time></trkpt><trkpt lat="43.2201786" lon="11.2909087"><ele>205.85714285714283</ele><time>2026-03-27T14:15:17.705Z</time></trkpt><trkpt lat="43.2202334" lon="11.2909936"><ele>206.28571428571428</ele><time>2026-03-27T14:15:21.705Z</time></trkpt><trkpt lat="43.2202603" lon="11.2910781"><ele>206.71428571428572</ele><time>2026-03-27T14:15:24.705Z</time></trkpt><trkpt lat="43.2203014" lon="11.2911529"><ele>207.14285714285717</ele><time>2026-03-27T14:15:27.706Z</time></trkpt><trkpt lat="43.220343" lon="11.291222"><ele>207.57142857142856</ele><time>2026-03-27T14:15:30.705Z</time></trkpt><trkpt lat="43.2203874" lon="11.2913145"><ele>208.0</ele><time>2026-03-27T14:15:34.706Z</time></trkpt><trkpt lat="43.2204224" lon="11.2913877"><ele>209.14285714285714</ele><time>2026-03-27T14:15:37.705Z</time></trkpt><trkpt lat="43.2204371" lon="11.2914809"><ele>210.2857142857143</ele><time>2026-03-27T14:15:40.705Z</time></trkpt><trkpt lat="43.2204331" lon="11.2915746"><ele>211.42857142857144</ele><time>2026-03-27T14:15:43.706Z</time></trkpt><trkpt lat="43.220442" lon="11.291661"><ele>212.57142857142856</ele><time>2026-03-27T14:15:46.705Z</time></trkpt><trkpt lat="43.2204362" lon="11.2917661"><ele>213.71428571428572</ele><time>2026-03-27T14:15:49.705Z</time></trkpt><trkpt lat="43.2204288" lon="11.29187"><ele>214.85714285714286</ele><time>2026-03-27T14:15:52.705Z</time></trkpt><trkpt lat="43.2204199" lon="11.2919773"><ele>216.0</ele><time>2026-03-27T14:15:55.706Z</time></trkpt><trkpt lat="43.220408" lon="11.2920808"><ele>216.0</ele><time>2026-03-27T14:15:58.706Z</time></trkpt><trkpt lat="43.2204023" lon="11.2921848"><ele>216.0</ele><time>2026-03-27T14:16:01.705Z</time></trkpt><trkpt lat="43.2203886" lon="11.2922825"><ele>216.0</ele><time>2026-03-27T14:16:04.706Z</time></trkpt><trkpt lat="43.2203752" lon="11.2923904"><ele>216.0</ele><time>2026-03-27T14:16:07.705Z</time></trkpt><trkpt lat="43.2203576" lon="11.2924945"><ele>216.0</ele><time>2026-03-27T14:16:10.705Z</time></trkpt><trkpt lat="43.2203279" lon="11.2925865"><ele>216.0</ele><time>2026-03-27T14:16:13.705Z</time></trkpt><trkpt lat="43.2202941" lon="11.2926681"><ele>216.0</ele><time>2026-03-27T14:16:16.705Z</time></trkpt><trkpt lat="43.2202529" lon="11.2927528"><ele>216.5</ele><time>2026-03-27T14:16:19.706Z</time></trkpt><trkpt lat="43.2202046" lon="11.2928386"><ele>217.0</ele><time>2026-03-27T14:16:22.705Z</time></trkpt><trkpt lat="43.2201458" lon="11.2929315"><ele>217.5</ele><time>2026-03-27T14:16:25.706Z</time></trkpt><trkpt lat="43.2200839" lon="11.2930278"><ele>218.0</ele><time>2026-03-27T14:16:28.705Z</time></trkpt><trkpt lat="43.2200147" lon="11.2931135"><ele>218.5</ele><time>2026-03-27T14:16:31.706Z</time></trkpt><trkpt lat="43.2199512" lon="11.2931903"><ele>219.0</ele><time>2026-03-27T14:16:34.705Z</time></trkpt><trkpt lat="43.2198761" lon="11.2932655"><ele>220.57142857142858</ele><time>2026-03-27T14:16:37.705Z</time></trkpt><trkpt lat="43.2197969" lon="11.293327"><ele>222.1428571428571</ele><time>2026-03-27T14:16:40.706Z</time></trkpt><trkpt lat="43.2197393" lon="11.293364"><ele>223.7142857142857</ele><time>2026-03-27T14:16:42.705Z</time></trkpt><trkpt lat="43.2196566" lon="11.2934172"><ele>225.28571428571428</ele><time>2026-03-27T14:16:45.705Z</time></trkpt><trkpt lat="43.2196" lon="11.2934568"><ele>226.85714285714283</ele><time>2026-03-27T14:16:47.705Z</time></trkpt><trkpt lat="43.2195406" lon="11.2935022"><ele>228.4285714285714</ele><time>2026-03-27T14:16:49.705Z</time></trkpt><trkpt lat="43.2194829" lon="11.2935464"><ele>229.99999999999997</ele><time>2026-03-27T14:16:51.705Z</time></trkpt><trkpt lat="43.2194282" lon="11.2935915"><ele>229.99999999999997</ele><time>2026-03-27T14:16:53.705Z</time></trkpt><trkpt lat="43.2193729" lon="11.2936429"><ele>230.0</ele><time>2026-03-27T14:16:55.705Z</time></trkpt><trkpt lat="43.2193186" lon="11.2937048"><ele>229.99999999999997</ele><time>2026-03-27T14:16:57.706Z</time></trkpt><trkpt lat="43.2192671" lon="11.2937695"><ele>229.99999999999997</ele><time>2026-03-27T14:16:59.705Z</time></trkpt><trkpt lat="43.21922" lon="11.2938422"><ele>230.0</ele><time>2026-03-27T14:17:01.705Z</time></trkpt><trkpt lat="43.2191772" lon="11.2939215"><ele>229.99999999999997</ele><time>2026-03-27T14:17:03.706Z</time></trkpt><trkpt lat="43.219133" lon="11.2940043"><ele>229.99999999999997</ele><time>2026-03-27T14:17:05.706Z</time></trkpt><trkpt lat="43.2190871" lon="11.2940843"><ele>229.16666666666669</ele><time>2026-03-27T14:17:07.705Z</time></trkpt><trkpt lat="43.2190393" lon="11.294164"><ele>228.33333333333334</ele><time>2026-03-27T14:17:09.705Z</time></trkpt><trkpt lat="43.2189955" lon="11.2942472"><ele>227.5</ele><time>2026-03-27T14:17:11.705Z</time></trkpt><trkpt lat="43.2189421" lon="11.2943311"><ele>226.66666666666669</ele><time>2026-03-27T14:17:13.706Z</time></trkpt><trkpt lat="43.2188929" lon="11.2944199"><ele>225.83333333333334</ele><time>2026-03-27T14:17:15.705Z</time></trkpt><trkpt lat="43.2188467" lon="11.2945104"><ele>225.0</ele><time>2026-03-27T14:17:17.705Z</time></trkpt><trkpt lat="43.2188003" lon="11.2945966"><ele>225.66666666666666</ele><time>2026-03-27T14:17:19.706Z</time></trkpt><trkpt lat="43.2187559" lon="11.2946902"><ele>226.33333333333331</ele><time>2026-03-27T14:17:21.705Z</time></trkpt><trkpt lat="43.2187042" lon="11.2947842"><ele>227.0</ele><time>2026-03-27T14:17:23.705Z</time></trkpt><trkpt lat="43.21865" lon="11.2948921"><ele>227.66666666666666</ele><time>2026-03-27T14:17:25.705Z</time></trkpt><trkpt lat="43.2186002" lon="11.2949979"><ele>228.33333333333331</ele><time>2026-03-27T14:17:27.705Z</time></trkpt><trkpt lat="43.2185512" lon="11.2950959"><ele>229.0</ele><time>2026-03-27T14:17:29.705Z</time></trkpt><trkpt lat="43.2185038" lon="11.295194"><ele>228.99999999999997</ele><time>2026-03-27T14:17:31.705Z</time></trkpt><trkpt lat="43.2184611" lon="11.2952957"><ele>229.0</ele><time>2026-03-27T14:17:33.705Z</time></trkpt><trkpt lat="43.2184243" lon="11.2954036"><ele>229.0</ele><time>2026-03-27T14:17:35.705Z</time></trkpt><trkpt lat="43.218393" lon="11.2955096"><ele>229.0</ele><time>2026-03-27T14:17:37.706Z</time></trkpt><trkpt lat="43.2183757" lon="11.2956335"><ele>228.99999999999997</ele><time>2026-03-27T14:17:39.706Z</time></trkpt><trkpt lat="43.2183628" lon="11.2957633"><ele>229.0</ele><time>2026-03-27T14:17:41.705Z</time></trkpt><trkpt lat="43.2183575" lon="11.2958994"><ele>228.79999999999998</ele><time>2026-03-27T14:17:43.705Z</time></trkpt><trkpt lat="43.2183534" lon="11.2960353"><ele>228.59999999999997</ele><time>2026-03-27T14:17:45.705Z</time></trkpt><trkpt lat="43.2183459" lon="11.2961708"><ele>228.4</ele><time>2026-03-27T14:17:47.705Z</time></trkpt><trkpt lat="43.2183411" lon="11.2962941"><ele>228.2</ele><time>2026-03-27T14:17:49.705Z</time></trkpt><trkpt lat="43.2183333" lon="11.2964191"><ele>228.0</ele><time>2026-03-27T14:17:51.705Z</time></trkpt><trkpt lat="43.2183233" lon="11.2965331"><ele>228.66666666666666</ele><time>2026-03-27T14:17:53.705Z</time></trkpt><trkpt lat="43.2183006" lon="11.296648"><ele>229.33333333333331</ele><time>2026-03-27T14:17:56.705Z</time></trkpt><trkpt lat="43.2182663" lon="11.2967521"><ele>230.0</ele><time>2026-03-27T14:17:59.705Z</time></trkpt><trkpt lat="43.2182318" lon="11.2968582"><ele>230.66666666666666</ele><time>2026-03-27T14:18:02.705Z</time></trkpt><trkpt lat="43.2182088" lon="11.2969624"><ele>231.33333333333331</ele><time>2026-03-27T14:18:05.705Z</time></trkpt><trkpt lat="43.2181956" lon="11.2970589"><ele>232.0</ele><time>2026-03-27T14:18:08.705Z</time></trkpt><trkpt lat="43.2181984" lon="11.2971702"><ele>233.14285714285717</ele><time>2026-03-27T14:18:11.705Z</time></trkpt><trkpt lat="43.2182067" lon="11.2972767"><ele>234.28571428571428</ele><time>2026-03-27T14:18:14.705Z</time></trkpt><trkpt lat="43.2182319" lon="11.2973763"><ele>235.42857142857144</ele><time>2026-03-27T14:18:17.705Z</time></trkpt><trkpt lat="43.2182671" lon="11.2974506"><ele>236.57142857142858</ele><time>2026-03-27T14:18:20.705Z</time></trkpt><trkpt lat="43.2183004" lon="11.2975363"><ele>237.71428571428572</ele><time>2026-03-27T14:18:23.705Z</time></trkpt><trkpt lat="43.2183304" lon="11.2976181"><ele>238.85714285714286</ele><time>2026-03-27T14:18:26.705Z</time></trkpt><trkpt lat="43.2183597" lon="11.2977199"><ele>240.0</ele><time>2026-03-27T14:18:30.705Z</time></trkpt><trkpt lat="43.2183642" lon="11.2978071"><ele>240.0</ele><time>2026-03-27T14:18:33.705Z</time></trkpt><trkpt lat="43.2183647" lon="11.2979117"><ele>240.0</ele><time>2026-03-27T14:18:37.705Z</time></trkpt><trkpt lat="43.2183375" lon="11.2980044"><ele>240.0</ele><time>2026-03-27T14:18:41.706Z</time></trkpt><trkpt lat="43.2182725" lon="11.298065"><ele>240.0</ele><time>2026-03-27T14:18:45.705Z</time></trkpt><trkpt lat="43.218205" lon="11.2980618"><ele>240.0</ele><time>2026-03-27T14:18:49.705Z</time></trkpt><trkpt lat="43.2181354" lon="11.2980126"><ele>240.0</ele><time>2026-03-27T14:18:53.705Z</time></trkpt><trkpt lat="43.218078" lon="11.2979482"><ele>240.0</ele><time>2026-03-27T14:18:57.706Z</time></trkpt><trkpt lat="43.2180219" lon="11.2978838"><ele>241.42857142857144</ele><time>2026-03-27T14:19:01.706Z</time></trkpt><trkpt lat="43.2179588" lon="11.2978503"><ele>242.85714285714283</ele><time>2026-03-27T14:19:04.705Z</time></trkpt><trkpt lat="43.2178975" lon="11.2978042"><ele>244.28571428571428</ele><time>2026-03-27T14:19:07.705Z</time></trkpt><trkpt lat="43.2178396" lon="11.2977689"><ele>245.71428571428572</ele><time>2026-03-27T14:19:10.705Z</time></trkpt><trkpt lat="43.2177684" lon="11.2977143"><ele>247.14285714285717</ele><time>2026-03-27T14:19:14.706Z</time></trkpt><trkpt lat="43.2177099" lon="11.2976708"><ele>248.57142857142856</ele><time>2026-03-27T14:19:17.705Z</time></trkpt><trkpt lat="43.2176488" lon="11.2976275"><ele>250.0</ele><time>2026-03-27T14:19:20.705Z</time></trkpt><trkpt lat="43.2175745" lon="11.2975732"><ele>250.0</ele><time>2026-03-27T14:19:24.705Z</time></trkpt><trkpt lat="43.2175181" lon="11.2975267"><ele>250.0</ele><time>2026-03-27T14:19:27.705Z</time></trkpt><trkpt lat="43.2174593" lon="11.2974863"><ele>250.0</ele><time>2026-03-27T14:19:30.705Z</time></trkpt><trkpt lat="43.2174029" lon="11.2974379"><ele>250.0</ele><time>2026-03-27T14:19:33.705Z</time></trkpt><trkpt lat="43.2173423" lon="11.2973973"><ele>250.0</ele><time>2026-03-27T14:19:36.706Z</time></trkpt><trkpt lat="43.2172782" lon="11.2973651"><ele>250.0</ele><time>2026-03-27T14:19:39.706Z</time></trkpt><trkpt lat="43.2172144" lon="11.2973571"><ele>250.0</ele><time>2026-03-27T14:19:42.705Z</time></trkpt><trkpt lat="43.2171343" lon="11.297383"><ele>250.66666666666666</ele><time>2026-03-27T14:19:46.705Z</time></trkpt><trkpt lat="43.2170742" lon="11.2974564"><ele>251.33333333333331</ele><time>2026-03-27T14:19:50.706Z</time></trkpt><trkpt lat="43.2170349" lon="11.2975569"><ele>252.0</ele><time>2026-03-27T14:19:54.705Z</time></trkpt><trkpt lat="43.2170105" lon="11.2976577"><ele>252.66666666666669</ele><time>2026-03-27T14:19:58.705Z</time></trkpt><trkpt lat="43.2169793" lon="11.2977562"><ele>253.33333333333334</ele><time>2026-03-27T14:20:02.705Z</time></trkpt><trkpt lat="43.2169347" lon="11.2978332"><ele>254.0</ele><time>2026-03-27T14:20:05.705Z</time></trkpt><trkpt lat="43.2168757" lon="11.2979025"><ele>254.0</ele><time>2026-03-27T14:20:09.706Z</time></trkpt><trkpt lat="43.2168039" lon="11.2979472"><ele>254.0</ele><time>2026-03-27T14:20:13.705Z</time></trkpt><trkpt lat="43.2167404" lon="11.2979502"><ele>254.0</ele><time>2026-03-27T14:20:16.706Z</time></trkpt><trkpt lat="43.2166673" lon="11.2979396"><ele>254.0</ele><time>2026-03-27T14:20:19.705Z</time></trkpt><trkpt lat="43.2165944" lon="11.2979009"><ele>254.0</ele><time>2026-03-27T14:20:22.705Z</time></trkpt><trkpt lat="43.2165441" lon="11.2978387"><ele>254.0</ele><time>2026-03-27T14:20:25.706Z</time></trkpt><trkpt lat="43.2164957" lon="11.297769"><ele>254.0</ele><time>2026-03-27T14:20:28.705Z</time></trkpt><trkpt lat="43.2164496" lon="11.2976978"><ele>253.85714285714286</ele><time>2026-03-27T14:20:31.706Z</time></trkpt><trkpt lat="43.2163857" lon="11.2976496"><ele>253.71428571428572</ele><time>2026-03-27T14:20:34.706Z</time></trkpt><trkpt lat="43.2163125" lon="11.2976324"><ele>253.57142857142858</ele><time>2026-03-27T14:20:37.705Z</time></trkpt><trkpt lat="43.2162401" lon="11.2976434"><ele>253.42857142857144</ele><time>2026-03-27T14:20:40.705Z</time></trkpt><trkpt lat="43.2161706" lon="11.2976797"><ele>253.28571428571428</ele><time>2026-03-27T14:20:43.706Z</time></trkpt><trkpt lat="43.2161104" lon="11.2977373"><ele>253.14285714285717</ele><time>2026-03-27T14:20:46.706Z</time></trkpt><trkpt lat="43.2160552" lon="11.2978022"><ele>253.00000000000003</ele><time>2026-03-27T14:20:49.705Z</time></trkpt><trkpt lat="43.2159988" lon="11.2978761"><ele>253.00000000000003</ele><time>2026-03-27T14:20:52.705Z</time></trkpt><trkpt lat="43.2159501" lon="11.2979624"><ele>253.0</ele><time>2026-03-27T14:20:55.705Z</time></trkpt><trkpt lat="43.2159085" lon="11.2980487"><ele>253.00000000000003</ele><time>2026-03-27T14:20:58.706Z</time></trkpt><trkpt lat="43.2158748" lon="11.29813"><ele>253.00000000000003</ele><time>2026-03-27T14:21:01.705Z</time></trkpt><trkpt lat="43.2158336" lon="11.2982085"><ele>253.0</ele><time>2026-03-27T14:21:04.706Z</time></trkpt><trkpt lat="43.2157901" lon="11.2982955"><ele>253.00000000000003</ele><time>2026-03-27T14:21:07.705Z</time></trkpt><trkpt lat="43.2157405" lon="11.2983736"><ele>253.00000000000003</ele><time>2026-03-27T14:21:10.706Z</time></trkpt><trkpt lat="43.2156949" lon="11.2984564"><ele>254.33333333333331</ele><time>2026-03-27T14:21:13.705Z</time></trkpt><trkpt lat="43.2156588" lon="11.2985404"><ele>255.66666666666666</ele><time>2026-03-27T14:21:16.705Z</time></trkpt><trkpt lat="43.2156149" lon="11.2986255"><ele>257.0</ele><time>2026-03-27T14:21:19.705Z</time></trkpt><trkpt lat="43.2155615" lon="11.2987115"><ele>258.3333333333333</ele><time>2026-03-27T14:21:22.705Z</time></trkpt><trkpt lat="43.21551" lon="11.2987976"><ele>259.6666666666667</ele><time>2026-03-27T14:21:25.705Z</time></trkpt><trkpt lat="43.2154549" lon="11.2988801"><ele>261.0</ele><time>2026-03-27T14:21:28.705Z</time></trkpt><trkpt lat="43.2153954" lon="11.2989548"><ele>262.14285714285717</ele><time>2026-03-27T14:21:31.705Z</time></trkpt><trkpt lat="43.2153407" lon="11.2990272"><ele>263.2857142857143</ele><time>2026-03-27T14:21:34.706Z</time></trkpt><trkpt lat="43.2152863" lon="11.2991072"><ele>264.42857142857144</ele><time>2026-03-27T14:21:37.705Z</time></trkpt><trkpt lat="43.2152344" lon="11.2991866"><ele>265.57142857142856</ele><time>2026-03-27T14:21:40.705Z</time></trkpt><trkpt lat="43.2151845" lon="11.2992616"><ele>266.7142857142857</ele><time>2026-03-27T14:21:43.705Z</time></trkpt><trkpt lat="43.215134" lon="11.2993364"><ele>267.8571428571429</ele><time>2026-03-27T14:21:46.705Z</time></trkpt><trkpt lat="43.2150939" lon="11.2994038"><ele>269.0</ele><time>2026-03-27T14:21:49.706Z</time></trkpt><trkpt lat="43.2150572" lon="11.2994886"><ele>269.0</ele><time>2026-03-27T14:21:52.705Z</time></trkpt><trkpt lat="43.2150108" lon="11.2995699"><ele>269.0</ele><time>2026-03-27T14:21:55.705Z</time></trkpt><trkpt lat="43.2149679" lon="11.2996387"><ele>269.0</ele><time>2026-03-27T14:21:58.705Z</time></trkpt><trkpt lat="43.2149225" lon="11.2997155"><ele>269.0</ele><time>2026-03-27T14:22:01.705Z</time></trkpt><trkpt lat="43.2148718" lon="11.2997881"><ele>269.0</ele><time>2026-03-27T14:22:04.705Z</time></trkpt><trkpt lat="43.2148289" lon="11.2998699"><ele>269.0</ele><time>2026-03-27T14:22:07.705Z</time></trkpt><trkpt lat="43.2147846" lon="11.2999485"><ele>269.0</ele><time>2026-03-27T14:22:10.705Z</time></trkpt><trkpt lat="43.2147439" lon="11.3000192"><ele>269.57142857142856</ele><time>2026-03-27T14:22:13.706Z</time></trkpt><trkpt lat="43.2147049" lon="11.3000995"><ele>270.14285714285717</ele><time>2026-03-27T14:22:16.705Z</time></trkpt><trkpt lat="43.2146594" lon="11.3001929"><ele>270.7142857142857</ele><time>2026-03-27T14:22:20.705Z</time></trkpt><trkpt lat="43.2146278" lon="11.300276"><ele>271.2857142857143</ele><time>2026-03-27T14:22:23.706Z</time></trkpt><trkpt lat="43.2145974" lon="11.3003562"><ele>271.8571428571429</ele><time>2026-03-27T14:22:26.705Z</time></trkpt><trkpt lat="43.214574" lon="11.3004429"><ele>272.42857142857144</ele><time>2026-03-27T14:22:29.705Z</time></trkpt><trkpt lat="43.2145448" lon="11.3005243"><ele>273.0</ele><time>2026-03-27T14:22:32.706Z</time></trkpt><trkpt lat="43.2145105" lon="11.3006224"><ele>274.6666666666667</ele><time>2026-03-27T14:22:36.706Z</time></trkpt><trkpt lat="43.2144719" lon="11.3007126"><ele>276.3333333333333</ele><time>2026-03-27T14:22:40.705Z</time></trkpt><trkpt lat="43.2144422" lon="11.3007901"><ele>278.0</ele><time>2026-03-27T14:22:43.705Z</time></trkpt><trkpt lat="43.21441" lon="11.3008892"><ele>279.66666666666663</ele><time>2026-03-27T14:22:47.705Z</time></trkpt><trkpt lat="43.2143783" lon="11.3009809"><ele>281.3333333333333</ele><time>2026-03-27T14:22:51.705Z</time></trkpt><trkpt lat="43.214347" lon="11.301089"><ele>283.0</ele><time>2026-03-27T14:22:55.706Z</time></trkpt><trkpt lat="43.2143101" lon="11.3011935"><ele>283.0</ele><time>2026-03-27T14:22:59.705Z</time></trkpt><trkpt lat="43.2142897" lon="11.3012804"><ele>283.0</ele><time>2026-03-27T14:23:02.706Z</time></trkpt><trkpt lat="43.2143052" lon="11.3013823"><ele>283.0</ele><time>2026-03-27T14:23:06.706Z</time></trkpt><trkpt lat="43.2143773" lon="11.3014227"><ele>283.0</ele><time>2026-03-27T14:23:10.705Z</time></trkpt><trkpt lat="43.2144557" lon="11.3013902"><ele>283.0</ele><time>2026-03-27T14:23:14.705Z</time></trkpt><trkpt lat="43.2145029" lon="11.3013198"><ele>283.0</ele><time>2026-03-27T14:23:17.706Z</time></trkpt><trkpt lat="43.2145482" lon="11.3012398"><ele>283.0</ele><time>2026-03-27T14:23:20.705Z</time></trkpt><trkpt lat="43.2145924" lon="11.3011604"><ele>283.0</ele><time>2026-03-27T14:23:23.705Z</time></trkpt><trkpt lat="43.2146393" lon="11.3010776"><ele>283.0</ele><time>2026-03-27T14:23:26.705Z</time></trkpt><trkpt lat="43.2146929" lon="11.3010029"><ele>283.0</ele><time>2026-03-27T14:23:29.705Z</time></trkpt><trkpt lat="43.214747" lon="11.3009281"><ele>283.0</ele><time>2026-03-27T14:23:32.706Z</time></trkpt><trkpt lat="43.2148087" lon="11.300864"><ele>283.0</ele><time>2026-03-27T14:23:35.705Z</time></trkpt><trkpt lat="43.2148718" lon="11.3008155"><ele>283.0</ele><time>2026-03-27T14:23:38.705Z</time></trkpt><trkpt lat="43.2149475" lon="11.3007885"><ele>284.8571428571429</ele><time>2026-03-27T14:23:41.705Z</time></trkpt><trkpt lat="43.2150191" lon="11.3007655"><ele>286.7142857142857</ele><time>2026-03-27T14:23:44.705Z</time></trkpt><trkpt lat="43.2150924" lon="11.3007582"><ele>288.57142857142856</ele><time>2026-03-27T14:23:47.705Z</time></trkpt><trkpt lat="43.2151636" lon="11.3007659"><ele>290.42857142857144</ele><time>2026-03-27T14:23:50.706Z</time></trkpt><trkpt lat="43.2152409" lon="11.3007923"><ele>292.2857142857143</ele><time>2026-03-27T14:23:54.706Z</time></trkpt><trkpt lat="43.2153029" lon="11.3008326"><ele>294.14285714285717</ele><time>2026-03-27T14:23:57.706Z</time></trkpt><trkpt lat="43.2153513" lon="11.3008991"><ele>296.0</ele><time>2026-03-27T14:24:00.705Z</time></trkpt><trkpt lat="43.2153881" lon="11.3009941"><ele>296.0</ele><time>2026-03-27T14:24:04.705Z</time></trkpt><trkpt lat="43.2153884" lon="11.3011073"><ele>296.0</ele><time>2026-03-27T14:24:08.706Z</time></trkpt><trkpt lat="43.2153814" lon="11.3012031"><ele>296.0</ele><time>2026-03-27T14:24:11.706Z</time></trkpt><trkpt lat="43.2153725" lon="11.3012964"><ele>296.0</ele><time>2026-03-27T14:24:14.705Z</time></trkpt><trkpt lat="43.2153637" lon="11.3013884"><ele>296.0</ele><time>2026-03-27T14:24:17.706Z</time></trkpt><trkpt lat="43.2153615" lon="11.3014835"><ele>296.0</ele><time>2026-03-27T14:24:20.705Z</time></trkpt><trkpt lat="43.2153703" lon="11.3015794"><ele>296.0</ele><time>2026-03-27T14:24:23.705Z</time></trkpt><trkpt lat="43.215401" lon="11.3016556"><ele>297.83333333333337</ele><time>2026-03-27T14:24:26.706Z</time></trkpt><trkpt lat="43.2154538" lon="11.3017256"><ele>299.6666666666667</ele><time>2026-03-27T14:24:30.706Z</time></trkpt><trkpt lat="43.2155302" lon="11.3017479"><ele>301.5</ele><time>2026-03-27T14:24:34.706Z</time></trkpt><trkpt lat="43.2156124" lon="11.3017515"><ele>303.3333333333333</ele><time>2026-03-27T14:24:38.705Z</time></trkpt><trkpt lat="43.2156899" lon="11.3017504"><ele>305.16666666666663</ele><time>2026-03-27T14:24:41.705Z</time></trkpt><trkpt lat="43.2157625" lon="11.3017424"><ele>307.0</ele><time>2026-03-27T14:24:44.705Z</time></trkpt><trkpt lat="43.215836" lon="11.3017388"><ele>307.1428571428571</ele><time>2026-03-27T14:24:47.705Z</time></trkpt><trkpt lat="43.2159091" lon="11.3017369"><ele>307.2857142857143</ele><time>2026-03-27T14:24:50.705Z</time></trkpt><trkpt lat="43.2159768" lon="11.3017465"><ele>307.42857142857144</ele><time>2026-03-27T14:24:53.705Z</time></trkpt><trkpt lat="43.2160413" lon="11.3017639"><ele>307.57142857142856</ele><time>2026-03-27T14:24:56.706Z</time></trkpt><trkpt lat="43.2161092" lon="11.3017977"><ele>307.7142857142857</ele><time>2026-03-27T14:24:59.705Z</time></trkpt><trkpt lat="43.2161797" lon="11.301836"><ele>307.85714285714283</ele><time>2026-03-27T14:25:02.705Z</time></trkpt><trkpt lat="43.2162447" lon="11.3018704"><ele>308.0</ele><time>2026-03-27T14:25:05.705Z</time></trkpt><trkpt lat="43.2163123" lon="11.3019081"><ele>308.0</ele><time>2026-03-27T14:25:08.705Z</time></trkpt><trkpt lat="43.2163791" lon="11.3019475"><ele>308.0</ele><time>2026-03-27T14:25:11.705Z</time></trkpt><trkpt lat="43.2164494" lon="11.3019875"><ele>308.0</ele><time>2026-03-27T14:25:14.705Z</time></trkpt><trkpt lat="43.2165158" lon="11.3020238"><ele>308.0</ele><time>2026-03-27T14:25:17.706Z</time></trkpt><trkpt lat="43.2165847" lon="11.3020564"><ele>308.0</ele><time>2026-03-27T14:25:20.706Z</time></trkpt><trkpt lat="43.2166558" lon="11.3020831"><ele>308.0</ele><time>2026-03-27T14:25:23.705Z</time></trkpt><trkpt lat="43.2167207" lon="11.3021195"><ele>308.0</ele><time>2026-03-27T14:25:26.705Z</time></trkpt><trkpt lat="43.2167787" lon="11.3021632"><ele>307.57142857142856</ele><time>2026-03-27T14:25:29.705Z</time></trkpt><trkpt lat="43.2168282" lon="11.3022308"><ele>307.1428571428571</ele><time>2026-03-27T14:25:32.705Z</time></trkpt><trkpt lat="43.2168534" lon="11.3023157"><ele>306.7142857142857</ele><time>2026-03-27T14:25:35.705Z</time></trkpt><trkpt lat="43.2168576" lon="11.3024134"><ele>306.2857142857143</ele><time>2026-03-27T14:25:38.705Z</time></trkpt><trkpt lat="43.2168227" lon="11.3025148"><ele>305.85714285714283</ele><time>2026-03-27T14:25:41.706Z</time></trkpt><trkpt lat="43.216774" lon="11.3025934"><ele>305.42857142857144</ele><time>2026-03-27T14:25:44.705Z</time></trkpt><trkpt lat="43.2167161" lon="11.3026554"><ele>305.0</ele><time>2026-03-27T14:25:47.706Z</time></trkpt><trkpt lat="43.216657" lon="11.3026914"><ele>306.5714285714286</ele><time>2026-03-27T14:25:50.706Z</time></trkpt><trkpt lat="43.2165939" lon="11.3027129"><ele>308.1428571428571</ele><time>2026-03-27T14:25:53.705Z</time></trkpt><trkpt lat="43.2165275" lon="11.3027305"><ele>309.7142857142857</ele><time>2026-03-27T14:25:56.706Z</time></trkpt><trkpt lat="43.2164591" lon="11.3027446"><ele>311.28571428571433</ele><time>2026-03-27T14:25:59.706Z</time></trkpt><trkpt lat="43.2163881" lon="11.3027411"><ele>312.8571428571429</ele><time>2026-03-27T14:26:02.705Z</time></trkpt><trkpt lat="43.2163171" lon="11.3027364"><ele>314.42857142857144</ele><time>2026-03-27T14:26:05.705Z</time></trkpt><trkpt lat="43.2162466" lon="11.3027427"><ele>316.0</ele><time>2026-03-27T14:26:08.705Z</time></trkpt><trkpt lat="43.2161758" lon="11.3027708"><ele>316.66666666666663</ele><time>2026-03-27T14:26:11.706Z</time></trkpt><trkpt lat="43.2161098" lon="11.3027911"><ele>317.3333333333333</ele><time>2026-03-27T14:26:14.705Z</time></trkpt><trkpt lat="43.2160351" lon="11.302807"><ele>318.0</ele><time>2026-03-27T14:26:17.705Z</time></trkpt><trkpt lat="43.2159649" lon="11.3028422"><ele>318.6666666666667</ele><time>2026-03-27T14:26:20.705Z</time></trkpt><trkpt lat="43.2158931" lon="11.3028766"><ele>319.33333333333337</ele><time>2026-03-27T14:26:23.706Z</time></trkpt><trkpt lat="43.2158182" lon="11.3029188"><ele>320.0</ele><time>2026-03-27T14:26:26.705Z</time></trkpt><trkpt lat="43.2157465" lon="11.3029653"><ele>320.0</ele><time>2026-03-27T14:26:29.705Z</time></trkpt><trkpt lat="43.2156829" lon="11.3030061"><ele>320.0</ele><time>2026-03-27T14:26:32.705Z</time></trkpt><trkpt lat="43.2156097" lon="11.3030575"><ele>320.0</ele><time>2026-03-27T14:26:35.705Z</time></trkpt><trkpt lat="43.2155443" lon="11.3031101"><ele>320.0</ele><time>2026-03-27T14:26:38.706Z</time></trkpt><trkpt lat="43.2154813" lon="11.3031639"><ele>320.0</ele><time>2026-03-27T14:26:41.705Z</time></trkpt><trkpt lat="43.2154196" lon="11.3032122"><ele>320.0</ele><time>2026-03-27T14:26:44.705Z</time></trkpt><trkpt lat="43.2153567" lon="11.3032593"><ele>320.0</ele><time>2026-03-27T14:26:47.706Z</time></trkpt><trkpt lat="43.2153" lon="11.3033195"><ele>321.0</ele><time>2026-03-27T14:26:50.706Z</time></trkpt><trkpt lat="43.2152429" lon="11.3033874"><ele>322.0</ele><time>2026-03-27T14:26:53.705Z</time></trkpt><trkpt lat="43.2151881" lon="11.3034619"><ele>323.0</ele><time>2026-03-27T14:26:56.705Z</time></trkpt><trkpt lat="43.2151486" lon="11.3035506"><ele>324.0</ele><time>2026-03-27T14:26:59.706Z</time></trkpt><trkpt lat="43.2151112" lon="11.3036398"><ele>325.0</ele><time>2026-03-27T14:27:02.706Z</time></trkpt><trkpt lat="43.2150832" lon="11.303736"><ele>326.0</ele><time>2026-03-27T14:27:05.705Z</time></trkpt><trkpt lat="43.2150636" lon="11.303835"><ele>327.42857142857144</ele><time>2026-03-27T14:27:08.705Z</time></trkpt><trkpt lat="43.2150533" lon="11.3039327"><ele>328.85714285714283</ele><time>2026-03-27T14:27:11.705Z</time></trkpt><trkpt lat="43.2150506" lon="11.3040234"><ele>330.2857142857143</ele><time>2026-03-27T14:27:14.706Z</time></trkpt><trkpt lat="43.2150531" lon="11.3041145"><ele>331.7142857142857</ele><time>2026-03-27T14:27:17.706Z</time></trkpt><trkpt lat="43.2150516" lon="11.3042079"><ele>333.1428571428571</ele><time>2026-03-27T14:27:20.705Z</time></trkpt><trkpt lat="43.2150573" lon="11.3043027"><ele>334.57142857142856</ele><time>2026-03-27T14:27:23.706Z</time></trkpt><trkpt lat="43.2150667" lon="11.3043951"><ele>336.0</ele><time>2026-03-27T14:27:26.705Z</time></trkpt><trkpt lat="43.2150773" lon="11.3044884"><ele>336.0</ele><time>2026-03-27T14:27:29.705Z</time></trkpt><trkpt lat="43.2150856" lon="11.3045952"><ele>336.0</ele><time>2026-03-27T14:27:32.706Z</time></trkpt><trkpt lat="43.2150828" lon="11.3047055"><ele>336.0</ele><time>2026-03-27T14:27:35.706Z</time></trkpt><trkpt lat="43.2150743" lon="11.304816"><ele>336.0</ele><time>2026-03-27T14:27:38.705Z</time></trkpt><trkpt lat="43.2150637" lon="11.3049187"><ele>336.0</ele><time>2026-03-27T14:27:41.705Z</time></trkpt><trkpt lat="43.2150428" lon="11.3050308"><ele>336.0</ele><time>2026-03-27T14:27:44.705Z</time></trkpt><trkpt lat="43.2150209" lon="11.3051416"><ele>337.0</ele><time>2026-03-27T14:27:47.705Z</time></trkpt><trkpt lat="43.2150014" lon="11.3052539"><ele>338.0</ele><time>2026-03-27T14:27:50.705Z</time></trkpt><trkpt lat="43.2149798" lon="11.3053626"><ele>339.0</ele><time>2026-03-27T14:27:53.706Z</time></trkpt><trkpt lat="43.2149769" lon="11.3054716"><ele>340.0</ele><time>2026-03-27T14:27:56.705Z</time></trkpt><trkpt lat="43.2149892" lon="11.3055854"><ele>341.0</ele><time>2026-03-27T14:27:59.706Z</time></trkpt><trkpt lat="43.2150118" lon="11.3056907"><ele>342.0</ele><time>2026-03-27T14:28:02.705Z</time></trkpt><trkpt lat="43.2150449" lon="11.3057809"><ele>342.6666666666667</ele><time>2026-03-27T14:28:05.705Z</time></trkpt><trkpt lat="43.2150819" lon="11.3058737"><ele>343.3333333333333</ele><time>2026-03-27T14:28:08.705Z</time></trkpt><trkpt lat="43.2151223" lon="11.3059838"><ele>344.0</ele><time>2026-03-27T14:28:11.705Z</time></trkpt><trkpt lat="43.2151387" lon="11.3060679"><ele>344.66666666666663</ele><time>2026-03-27T14:28:13.706Z</time></trkpt><trkpt lat="43.2151528" lon="11.3061902"><ele>345.3333333333333</ele><time>2026-03-27T14:28:16.706Z</time></trkpt><trkpt lat="43.215172" lon="11.306305"><ele>346.0</ele><time>2026-03-27T14:28:19.705Z</time></trkpt><trkpt lat="43.2151945" lon="11.3064265"><ele>347.0</ele><time>2026-03-27T14:28:22.705Z</time></trkpt><trkpt lat="43.2152163" lon="11.3065347"><ele>348.0</ele><time>2026-03-27T14:28:25.705Z</time></trkpt><trkpt lat="43.2152533" lon="11.3066509"><ele>349.0</ele><time>2026-03-27T14:28:28.705Z</time></trkpt><trkpt lat="43.2152763" lon="11.3067338"><ele>350.0</ele><time>2026-03-27T14:28:30.705Z</time></trkpt><trkpt lat="43.215296" lon="11.3068159"><ele>351.0</ele><time>2026-03-27T14:28:32.705Z</time></trkpt><trkpt lat="43.2153194" lon="11.3069391"><ele>352.0</ele><time>2026-03-27T14:28:35.705Z</time></trkpt><trkpt lat="43.2153341" lon="11.3070249"><ele>352.0</ele><time>2026-03-27T14:28:37.705Z</time></trkpt><trkpt lat="43.2153516" lon="11.3071497"><ele>352.0</ele><time>2026-03-27T14:28:40.706Z</time></trkpt><trkpt lat="43.2153677" lon="11.30727"><ele>352.0</ele><time>2026-03-27T14:28:43.705Z</time></trkpt><trkpt lat="43.2153778" lon="11.3074041"><ele>352.0</ele><time>2026-03-27T14:28:46.705Z</time></trkpt><trkpt lat="43.2153831" lon="11.3075056"><ele>352.0</ele><time>2026-03-27T14:28:48.706Z</time></trkpt><trkpt lat="43.2153882" lon="11.3076086"><ele>352.0</ele><time>2026-03-27T14:28:50.705Z</time></trkpt><trkpt lat="43.2153907" lon="11.3077088"><ele>352.16666666666663</ele><time>2026-03-27T14:28:52.705Z</time></trkpt><trkpt lat="43.2153934" lon="11.3078113"><ele>352.3333333333333</ele><time>2026-03-27T14:28:54.705Z</time></trkpt><trkpt lat="43.2153983" lon="11.3079111"><ele>352.5</ele><time>2026-03-27T14:28:56.705Z</time></trkpt><trkpt lat="43.2154019" lon="11.308018"><ele>352.6666666666667</ele><time>2026-03-27T14:28:58.705Z</time></trkpt><trkpt lat="43.2154095" lon="11.3081239"><ele>352.83333333333337</ele><time>2026-03-27T14:29:00.705Z</time></trkpt><trkpt lat="43.2154219" lon="11.3082299"><ele>353.0</ele><time>2026-03-27T14:29:02.705Z</time></trkpt><trkpt lat="43.2154389" lon="11.3083366"><ele>353.0</ele><time>2026-03-27T14:29:04.706Z</time></trkpt><trkpt lat="43.2154559" lon="11.308437"><ele>353.0</ele><time>2026-03-27T14:29:06.705Z</time></trkpt><trkpt lat="43.2154717" lon="11.3085301"><ele>353.0</ele><time>2026-03-27T14:29:08.705Z</time></trkpt><trkpt lat="43.2154959" lon="11.3086108"><ele>353.0</ele><time>2026-03-27T14:29:10.705Z</time></trkpt><trkpt lat="43.2155199" lon="11.3086929"><ele>353.0</ele><time>2026-03-27T14:29:12.706Z</time></trkpt><trkpt lat="43.2155455" lon="11.3087768"><ele>353.0</ele><time>2026-03-27T14:29:14.705Z</time></trkpt><trkpt lat="43.2155698" lon="11.308864"><ele>353.0</ele><time>2026-03-27T14:29:16.706Z</time></trkpt><trkpt lat="43.215594" lon="11.3089532"><ele>353.0</ele><time>2026-03-27T14:29:18.705Z</time></trkpt><trkpt lat="43.2156114" lon="11.3090416"><ele>353.0</ele><time>2026-03-27T14:29:20.705Z</time></trkpt><trkpt lat="43.2156265" lon="11.309127"><ele>353.0</ele><time>2026-03-27T14:29:22.705Z</time></trkpt><trkpt lat="43.2156479" lon="11.309211"><ele>353.0</ele><time>2026-03-27T14:29:24.706Z</time></trkpt><trkpt lat="43.2156598" lon="11.3093018"><ele>353.0</ele><time>2026-03-27T14:29:26.705Z</time></trkpt><trkpt lat="43.2156701" lon="11.3093946"><ele>353.0</ele><time>2026-03-27T14:29:28.705Z</time></trkpt><trkpt lat="43.2156818" lon="11.309483"><ele>353.0</ele><time>2026-03-27T14:29:30.706Z</time></trkpt><trkpt lat="43.2156928" lon="11.3096077"><ele>352.85714285714283</ele><time>2026-03-27T14:29:33.705Z</time></trkpt><trkpt lat="43.2157004" lon="11.3096947"><ele>352.7142857142857</ele><time>2026-03-27T14:29:35.705Z</time></trkpt><trkpt lat="43.2157172" lon="11.3097792"><ele>352.57142857142856</ele><time>2026-03-27T14:29:37.705Z</time></trkpt><trkpt lat="43.2157377" lon="11.3098669"><ele>352.42857142857144</ele><time>2026-03-27T14:29:39.705Z</time></trkpt><trkpt lat="43.2157726" lon="11.309948"><ele>352.2857142857143</ele><time>2026-03-27T14:29:41.706Z</time></trkpt><trkpt lat="43.2158138" lon="11.3100225"><ele>352.14285714285717</ele><time>2026-03-27T14:29:43.705Z</time></trkpt><trkpt lat="43.2158676" lon="11.3100892"><ele>352.0</ele><time>2026-03-27T14:29:45.705Z</time></trkpt><trkpt lat="43.2159245" lon="11.3101538"><ele>352.7142857142857</ele><time>2026-03-27T14:29:47.705Z</time></trkpt><trkpt lat="43.2159756" lon="11.310221"><ele>353.42857142857144</ele><time>2026-03-27T14:29:49.705Z</time></trkpt><trkpt lat="43.2160301" lon="11.3102787"><ele>354.1428571428571</ele><time>2026-03-27T14:29:51.706Z</time></trkpt><trkpt lat="43.2160915" lon="11.3103363"><ele>354.8571428571429</ele><time>2026-03-27T14:29:53.705Z</time></trkpt><trkpt lat="43.216149" lon="11.3103918"><ele>355.57142857142856</ele><time>2026-03-27T14:29:55.705Z</time></trkpt><trkpt lat="43.2162059" lon="11.3104545"><ele>356.2857142857143</ele><time>2026-03-27T14:29:57.706Z</time></trkpt><trkpt lat="43.2162709" lon="11.3105052"><ele>357.0</ele><time>2026-03-27T14:29:59.706Z</time></trkpt><trkpt lat="43.216326" lon="11.310549"><ele>357.2857142857143</ele><time>2026-03-27T14:30:01.705Z</time></trkpt><trkpt lat="43.2163869" lon="11.3105995"><ele>357.57142857142856</ele><time>2026-03-27T14:30:03.705Z</time></trkpt><trkpt lat="43.2164528" lon="11.3106483"><ele>357.8571428571429</ele><time>2026-03-27T14:30:05.705Z</time></trkpt><trkpt lat="43.2165196" lon="11.3106794"><ele>358.1428571428571</ele><time>2026-03-27T14:30:07.705Z</time></trkpt><trkpt lat="43.2165809" lon="11.310714"><ele>358.42857142857144</ele><time>2026-03-27T14:30:09.706Z</time></trkpt><trkpt lat="43.2166508" lon="11.3107387"><ele>358.7142857142857</ele><time>2026-03-27T14:30:11.705Z</time></trkpt><trkpt lat="43.2167209" lon="11.3107932"><ele>359.0</ele><time>2026-03-27T14:30:13.706Z</time></trkpt><trkpt lat="43.2168026" lon="11.3108497"><ele>359.33333333333337</ele><time>2026-03-27T14:30:15.705Z</time></trkpt><trkpt lat="43.2168752" lon="11.3108943"><ele>359.6666666666667</ele><time>2026-03-27T14:30:17.705Z</time></trkpt><trkpt lat="43.2169498" lon="11.3109379"><ele>360.0</ele><time>2026-03-27T14:30:19.705Z</time></trkpt><trkpt lat="43.2170142" lon="11.3109447"><ele>360.3333333333333</ele><time>2026-03-27T14:30:20.705Z</time></trkpt><trkpt lat="43.2171103" lon="11.3109809"><ele>360.66666666666663</ele><time>2026-03-27T14:30:22.706Z</time></trkpt><trkpt lat="43.2171902" lon="11.3110058"><ele>361.0</ele><time>2026-03-27T14:30:24.706Z</time></trkpt><trkpt lat="43.2172863" lon="11.3110701"><ele>360.8</ele><time>2026-03-27T14:30:26.705Z</time></trkpt><trkpt lat="43.2173722" lon="11.3111343"><ele>360.6</ele><time>2026-03-27T14:30:28.705Z</time></trkpt><trkpt lat="43.21747" lon="11.3111948"><ele>360.4</ele><time>2026-03-27T14:30:30.705Z</time></trkpt><trkpt lat="43.2175627" lon="11.3112628"><ele>360.2</ele><time>2026-03-27T14:30:32.705Z</time></trkpt><trkpt lat="43.21767" lon="11.3113046"><ele>360.0</ele><time>2026-03-27T14:30:34.705Z</time></trkpt><trkpt lat="43.2177642" lon="11.3113864"><ele>360.3333333333333</ele><time>2026-03-27T14:30:36.705Z</time></trkpt><trkpt lat="43.2178156" lon="11.3114911"><ele>360.6666666666667</ele><time>2026-03-27T14:30:38.705Z</time></trkpt><trkpt lat="43.2179033" lon="11.311578"><ele>361.0</ele><time>2026-03-27T14:30:40.705Z</time></trkpt><trkpt lat="43.2179341" lon="11.3116905"><ele>361.33333333333337</ele><time>2026-03-27T14:30:42.705Z</time></trkpt><trkpt lat="43.2179636" lon="11.3118059"><ele>361.6666666666667</ele><time>2026-03-27T14:30:44.705Z</time></trkpt><trkpt lat="43.2179917" lon="11.3118964"><ele>362.0</ele><time>2026-03-27T14:30:46.705Z</time></trkpt><trkpt lat="43.2179813" lon="11.3119868"><ele>362.0</ele><time>2026-03-27T14:30:48.706Z</time></trkpt><trkpt lat="43.2179945" lon="11.3120743"><ele>362.0</ele><time>2026-03-27T14:30:50.705Z</time></trkpt><trkpt lat="43.2180093" lon="11.3121637"><ele>362.0</ele><time>2026-03-27T14:30:52.705Z</time></trkpt><trkpt lat="43.218025" lon="11.3122742"><ele>362.0</ele><time>2026-03-27T14:30:55.705Z</time></trkpt><trkpt lat="43.2180205" lon="11.3124016"><ele>362.0</ele><time>2026-03-27T14:30:58.705Z</time></trkpt><trkpt lat="43.2180202" lon="11.3124907"><ele>362.0</ele><time>2026-03-27T14:31:00.706Z</time></trkpt><trkpt lat="43.218009" lon="11.312607"><ele>362.20000000000005</ele><time>2026-03-27T14:31:03.705Z</time></trkpt><trkpt lat="43.2180057" lon="11.3127245"><ele>362.4</ele><time>2026-03-27T14:31:06.705Z</time></trkpt><trkpt lat="43.2179972" lon="11.3128505"><ele>362.6</ele><time>2026-03-27T14:31:09.705Z</time></trkpt><trkpt lat="43.2179992" lon="11.3129779"><ele>362.79999999999995</ele><time>2026-03-27T14:31:12.705Z</time></trkpt><trkpt lat="43.2179963" lon="11.3131012"><ele>363.0</ele><time>2026-03-27T14:31:15.706Z</time></trkpt><trkpt lat="43.2179871" lon="11.3132262"><ele>363.71428571428567</ele><time>2026-03-27T14:31:18.705Z</time></trkpt><trkpt lat="43.2179787" lon="11.3133219"><ele>364.42857142857144</ele><time>2026-03-27T14:31:20.706Z</time></trkpt><trkpt lat="43.2179793" lon="11.3134177"><ele>365.1428571428571</ele><time>2026-03-27T14:31:22.705Z</time></trkpt><trkpt lat="43.2179683" lon="11.3135183"><ele>365.85714285714283</ele><time>2026-03-27T14:31:24.705Z</time></trkpt><trkpt lat="43.2179604" lon="11.3136104"><ele>366.57142857142856</ele><time>2026-03-27T14:31:26.705Z</time></trkpt><trkpt lat="43.2179567" lon="11.3137024"><ele>367.2857142857143</ele><time>2026-03-27T14:31:28.705Z</time></trkpt><trkpt lat="43.2179499" lon="11.3138064"><ele>368.0</ele><time>2026-03-27T14:31:30.706Z</time></trkpt><trkpt lat="43.2179461" lon="11.3139176"><ele>368.5</ele><time>2026-03-27T14:31:32.705Z</time></trkpt><trkpt lat="43.21793" lon="11.3140179"><ele>369.0</ele><time>2026-03-27T14:31:34.706Z</time></trkpt><trkpt lat="43.217906" lon="11.3141232"><ele>369.5</ele><time>2026-03-27T14:31:36.705Z</time></trkpt><trkpt lat="43.2178767" lon="11.3142307"><ele>370.0</ele><time>2026-03-27T14:31:38.705Z</time></trkpt><trkpt lat="43.2178575" lon="11.3143364"><ele>370.5</ele><time>2026-03-27T14:31:40.705Z</time></trkpt><trkpt lat="43.2178521" lon="11.3144366"><ele>371.0</ele><time>2026-03-27T14:31:42.706Z</time></trkpt><trkpt lat="43.2178507" lon="11.3145374"><ele>371.0</ele><time>2026-03-27T14:31:44.705Z</time></trkpt><trkpt lat="43.2178675" lon="11.3146471"><ele>371.0</ele><time>2026-03-27T14:31:46.706Z</time></trkpt><trkpt lat="43.2178883" lon="11.3147536"><ele>371.0</ele><time>2026-03-27T14:31:48.705Z</time></trkpt><trkpt lat="43.217913" lon="11.3148539"><ele>371.0</ele><time>2026-03-27T14:31:50.706Z</time></trkpt><trkpt lat="43.217928" lon="11.3149457"><ele>371.0</ele><time>2026-03-27T14:31:52.705Z</time></trkpt><trkpt lat="43.2179489" lon="11.3150451"><ele>371.0</ele><time>2026-03-27T14:31:54.705Z</time></trkpt><trkpt lat="43.2179558" lon="11.3151432"><ele>371.0</ele><time>2026-03-27T14:31:56.705Z</time></trkpt><trkpt lat="43.2179708" lon="11.3152562"><ele>371.0</ele><time>2026-03-27T14:31:58.705Z</time></trkpt><trkpt lat="43.2179847" lon="11.3153565"><ele>371.0</ele><time>2026-03-27T14:32:00.706Z</time></trkpt><trkpt lat="43.2180048" lon="11.3154595"><ele>371.0</ele><time>2026-03-27T14:32:02.706Z</time></trkpt><trkpt lat="43.2180323" lon="11.3155613"><ele>371.0</ele><time>2026-03-27T14:32:04.706Z</time></trkpt><trkpt lat="43.2180651" lon="11.3156613"><ele>371.0</ele><time>2026-03-27T14:32:06.705Z</time></trkpt><trkpt lat="43.2180909" lon="11.3157845"><ele>370.4</ele><time>2026-03-27T14:32:08.705Z</time></trkpt><trkpt lat="43.2181066" lon="11.315918"><ele>369.8</ele><time>2026-03-27T14:32:10.705Z</time></trkpt><trkpt lat="43.2181146" lon="11.316083"><ele>369.2</ele><time>2026-03-27T14:32:12.705Z</time></trkpt><trkpt lat="43.2181321" lon="11.3161701"><ele>368.59999999999997</ele><time>2026-03-27T14:32:13.705Z</time></trkpt><trkpt lat="43.2181596" lon="11.3163506"><ele>368.0</ele><time>2026-03-27T14:32:15.705Z</time></trkpt><trkpt lat="43.21816" lon="11.316447"><ele>366.83333333333337</ele><time>2026-03-27T14:32:16.705Z</time></trkpt><trkpt lat="43.2181504" lon="11.31655"><ele>365.6666666666667</ele><time>2026-03-27T14:32:17.705Z</time></trkpt><trkpt lat="43.2181279" lon="11.3166319"><ele>364.5</ele><time>2026-03-27T14:32:18.705Z</time></trkpt><trkpt lat="43.2181043" lon="11.3167204"><ele>363.3333333333333</ele><time>2026-03-27T14:32:19.705Z</time></trkpt><trkpt lat="43.2180838" lon="11.3168099"><ele>362.16666666666663</ele><time>2026-03-27T14:32:20.705Z</time></trkpt><trkpt lat="43.2180617" lon="11.3168992"><ele>361.0</ele><time>2026-03-27T14:32:21.705Z</time></trkpt><trkpt lat="43.2179915" lon="11.3170396"><ele>361.0</ele><time>2026-03-27T14:32:23.705Z</time></trkpt><trkpt lat="43.2179661" lon="11.3171302"><ele>361.0</ele><time>2026-03-27T14:32:24.705Z</time></trkpt><trkpt lat="43.217915" lon="11.3172515"><ele>361.0</ele><time>2026-03-27T14:32:26.705Z</time></trkpt><trkpt lat="43.2178722" lon="11.3173843"><ele>361.0</ele><time>2026-03-27T14:32:28.705Z</time></trkpt><trkpt lat="43.217834" lon="11.3175121"><ele>361.0</ele><time>2026-03-27T14:32:30.705Z</time></trkpt><trkpt lat="43.2178077" lon="11.3176275"><ele>361.6</ele><time>2026-03-27T14:32:32.705Z</time></trkpt><trkpt lat="43.2177689" lon="11.3177305"><ele>362.20000000000005</ele><time>2026-03-27T14:32:34.706Z</time></trkpt><trkpt lat="43.2177291" lon="11.317851"><ele>362.79999999999995</ele><time>2026-03-27T14:32:36.705Z</time></trkpt><trkpt lat="43.2177002" lon="11.317973"><ele>363.4</ele><time>2026-03-27T14:32:38.705Z</time></trkpt><trkpt lat="43.2176901" lon="11.3181058"><ele>364.0</ele><time>2026-03-27T14:32:40.705Z</time></trkpt><trkpt lat="43.2176609" lon="11.3182502"><ele>364.4</ele><time>2026-03-27T14:32:42.705Z</time></trkpt><trkpt lat="43.2176335" lon="11.3183787"><ele>364.79999999999995</ele><time>2026-03-27T14:32:44.705Z</time></trkpt><trkpt lat="43.217631" lon="11.3185073"><ele>365.20000000000005</ele><time>2026-03-27T14:32:46.706Z</time></trkpt><trkpt lat="43.2176168" lon="11.3186351"><ele>365.6</ele><time>2026-03-27T14:32:48.705Z</time></trkpt><trkpt lat="43.2176017" lon="11.3187789"><ele>366.0</ele><time>2026-03-27T14:32:50.705Z</time></trkpt><trkpt lat="43.2175924" lon="11.3189098"><ele>366.0</ele><time>2026-03-27T14:32:52.706Z</time></trkpt><trkpt lat="43.2176029" lon="11.3190516"><ele>366.0</ele><time>2026-03-27T14:32:54.705Z</time></trkpt><trkpt lat="43.2176061" lon="11.319209"><ele>366.0</ele><time>2026-03-27T14:32:56.705Z</time></trkpt><trkpt lat="43.2176243" lon="11.3193318"><ele>366.0</ele><time>2026-03-27T14:32:58.705Z</time></trkpt><trkpt lat="43.2176328" lon="11.3194646"><ele>366.0</ele><time>2026-03-27T14:33:00.705Z</time></trkpt><trkpt lat="43.2176401" lon="11.3195926"><ele>366.0</ele><time>2026-03-27T14:33:02.706Z</time></trkpt><trkpt lat="43.2176454" lon="11.3197094"><ele>366.0</ele><time>2026-03-27T14:33:04.705Z</time></trkpt><trkpt lat="43.2176642" lon="11.3198204"><ele>366.0</ele><time>2026-03-27T14:33:06.706Z</time></trkpt><trkpt lat="43.2176731" lon="11.3199234"><ele>366.0</ele><time>2026-03-27T14:33:08.706Z</time></trkpt><trkpt lat="43.2176819" lon="11.3200349"><ele>366.0</ele><time>2026-03-27T14:33:10.705Z</time></trkpt><trkpt lat="43.2176867" lon="11.3201562"><ele>366.0</ele><time>2026-03-27T14:33:12.706Z</time></trkpt><trkpt lat="43.2176983" lon="11.3202762"><ele>366.3333333333333</ele><time>2026-03-27T14:33:14.705Z</time></trkpt><trkpt lat="43.2177066" lon="11.3203773"><ele>366.6666666666667</ele><time>2026-03-27T14:33:16.706Z</time></trkpt><trkpt lat="43.2177147" lon="11.320504"><ele>367.0</ele><time>2026-03-27T14:33:19.705Z</time></trkpt><trkpt lat="43.217723" lon="11.3206328"><ele>367.33333333333337</ele><time>2026-03-27T14:33:22.706Z</time></trkpt><trkpt lat="43.2177255" lon="11.3207224"><ele>367.6666666666667</ele><time>2026-03-27T14:33:24.705Z</time></trkpt><trkpt lat="43.2177326" lon="11.3208192"><ele>368.0</ele><time>2026-03-27T14:33:26.705Z</time></trkpt><trkpt lat="43.2177184" lon="11.3209293"><ele>368.59999999999997</ele><time>2026-03-27T14:33:28.705Z</time></trkpt><trkpt lat="43.2176862" lon="11.3210614"><ele>369.2</ele><time>2026-03-27T14:33:30.705Z</time></trkpt><trkpt lat="43.217633" lon="11.3211803"><ele>369.8</ele><time>2026-03-27T14:33:32.705Z</time></trkpt><trkpt lat="43.2175398" lon="11.3212912"><ele>370.4</ele><time>2026-03-27T14:33:34.706Z</time></trkpt><trkpt lat="43.2174763" lon="11.3213344"><ele>371.0</ele><time>2026-03-27T14:33:35.705Z</time></trkpt><trkpt lat="43.2174077" lon="11.3213704"><ele>371.0</ele><time>2026-03-27T14:33:36.705Z</time></trkpt><trkpt lat="43.217334" lon="11.3213966"><ele>371.0</ele><time>2026-03-27T14:33:37.706Z</time></trkpt><trkpt lat="43.2172594" lon="11.3213986"><ele>371.0</ele><time>2026-03-27T14:33:38.705Z</time></trkpt><trkpt lat="43.2171859" lon="11.3214022"><ele>371.0</ele><time>2026-03-27T14:33:39.705Z</time></trkpt><trkpt lat="43.2171152" lon="11.3213762"><ele>371.0</ele><time>2026-03-27T14:33:40.705Z</time></trkpt><trkpt lat="43.2170437" lon="11.3213155"><ele>371.0</ele><time>2026-03-27T14:33:41.706Z</time></trkpt><trkpt lat="43.2169718" lon="11.3212636"><ele>370.1666666666667</ele><time>2026-03-27T14:33:42.705Z</time></trkpt><trkpt lat="43.2169017" lon="11.3211918"><ele>369.33333333333337</ele><time>2026-03-27T14:33:43.706Z</time></trkpt><trkpt lat="43.2168363" lon="11.32113"><ele>368.5</ele><time>2026-03-27T14:33:44.706Z</time></trkpt><trkpt lat="43.2167744" lon="11.3210575"><ele>367.6666666666667</ele><time>2026-03-27T14:33:45.705Z</time></trkpt><trkpt lat="43.2167162" lon="11.3209731"><ele>366.8333333333333</ele><time>2026-03-27T14:33:46.705Z</time></trkpt><trkpt lat="43.2166638" lon="11.3209044"><ele>366.0</ele><time>2026-03-27T14:33:47.705Z</time></trkpt><trkpt lat="43.2166089" lon="11.320859"><ele>366.0</ele><time>2026-03-27T14:33:48.705Z</time></trkpt><trkpt lat="43.2165432" lon="11.3208256"><ele>366.0</ele><time>2026-03-27T14:33:49.705Z</time></trkpt><trkpt lat="43.2164705" lon="11.3208206"><ele>366.0</ele><time>2026-03-27T14:33:50.705Z</time></trkpt><trkpt lat="43.2163604" lon="11.3208833"><ele>366.0</ele><time>2026-03-27T14:33:52.706Z</time></trkpt><trkpt lat="43.21632" lon="11.3209661"><ele>366.0</ele><time>2026-03-27T14:33:53.705Z</time></trkpt><trkpt lat="43.2162986" lon="11.3210736"><ele>366.0</ele><time>2026-03-27T14:33:54.705Z</time></trkpt><trkpt lat="43.2162844" lon="11.3211812"><ele>365.0</ele><time>2026-03-27T14:33:55.706Z</time></trkpt><trkpt lat="43.2162895" lon="11.3213034"><ele>364.0</ele><time>2026-03-27T14:33:56.705Z</time></trkpt><trkpt lat="43.2162976" lon="11.3214159"><ele>363.0</ele><time>2026-03-27T14:33:57.705Z</time></trkpt><trkpt lat="43.2163169" lon="11.3215344"><ele>362.0</ele><time>2026-03-27T14:33:58.705Z</time></trkpt><trkpt lat="43.2163353" lon="11.3216474"><ele>361.0</ele><time>2026-03-27T14:33:59.705Z</time></trkpt><trkpt lat="43.2163545" lon="11.3217587"><ele>360.0</ele><time>2026-03-27T14:34:00.705Z</time></trkpt><trkpt lat="43.2163796" lon="11.3218683"><ele>360.1666666666667</ele><time>2026-03-27T14:34:01.705Z</time></trkpt><trkpt lat="43.2164022" lon="11.3219845"><ele>360.3333333333333</ele><time>2026-03-27T14:34:02.705Z</time></trkpt><trkpt lat="43.216439" lon="11.3220922"><ele>360.5</ele><time>2026-03-27T14:34:03.705Z</time></trkpt><trkpt lat="43.2164961" lon="11.3221953"><ele>360.66666666666663</ele><time>2026-03-27T14:34:04.705Z</time></trkpt><trkpt lat="43.2165594" lon="11.3222837"><ele>360.8333333333333</ele><time>2026-03-27T14:34:05.705Z</time></trkpt><trkpt lat="43.2166187" lon="11.3223663"><ele>361.0</ele><time>2026-03-27T14:34:06.706Z</time></trkpt><trkpt lat="43.2166808" lon="11.3224532"><ele>359.66666666666663</ele><time>2026-03-27T14:34:07.705Z</time></trkpt><trkpt lat="43.2167304" lon="11.3225481"><ele>358.3333333333333</ele><time>2026-03-27T14:34:08.706Z</time></trkpt><trkpt lat="43.2167839" lon="11.3226237"><ele>357.0</ele><time>2026-03-27T14:34:09.705Z</time></trkpt><trkpt lat="43.2168418" lon="11.3226852"><ele>355.6666666666667</ele><time>2026-03-27T14:34:10.705Z</time></trkpt><trkpt lat="43.2169108" lon="11.322773"><ele>354.33333333333337</ele><time>2026-03-27T14:34:12.706Z</time></trkpt><trkpt lat="43.2169703" lon="11.3228461"><ele>353.0</ele><time>2026-03-27T14:34:14.706Z</time></trkpt><trkpt lat="43.2170189" lon="11.3229159"><ele>353.0</ele><time>2026-03-27T14:34:17.705Z</time></trkpt><trkpt lat="43.217048" lon="11.3230033"><ele>353.0</ele><time>2026-03-27T14:34:22.706Z</time></trkpt><trkpt lat="43.2170782" lon="11.3230976"><ele>353.0</ele><time>2026-03-27T14:34:29.706Z</time></trkpt><trkpt lat="43.2171456" lon="11.3231473"><ele>353.0</ele><time>2026-03-27T14:34:31.706Z</time></trkpt><trkpt lat="43.2172198" lon="11.3231868"><ele>353.0</ele><time>2026-03-27T14:34:33.705Z</time></trkpt><trkpt lat="43.2172986" lon="11.3232252"><ele>353.0</ele><time>2026-03-27T14:34:35.706Z</time></trkpt><trkpt lat="43.2173798" lon="11.3232674"><ele>351.79999999999995</ele><time>2026-03-27T14:34:37.705Z</time></trkpt><trkpt lat="43.2174615" lon="11.3233318"><ele>350.6</ele><time>2026-03-27T14:34:39.706Z</time></trkpt><trkpt lat="43.2175309" lon="11.3234093"><ele>349.4</ele><time>2026-03-27T14:34:41.705Z</time></trkpt><trkpt lat="43.2176126" lon="11.3234795"><ele>348.20000000000005</ele><time>2026-03-27T14:34:43.705Z</time></trkpt><trkpt lat="43.2176857" lon="11.32354"><ele>347.0</ele><time>2026-03-27T14:34:45.705Z</time></trkpt><trkpt lat="43.2177738" lon="11.3235863"><ele>347.0</ele><time>2026-03-27T14:34:47.705Z</time></trkpt><trkpt lat="43.2178714" lon="11.3236471"><ele>347.0</ele><time>2026-03-27T14:34:49.705Z</time></trkpt><trkpt lat="43.2179784" lon="11.3237086"><ele>347.0</ele><time>2026-03-27T14:34:51.705Z</time></trkpt><trkpt lat="43.2180439" lon="11.3237367"><ele>347.0</ele><time>2026-03-27T14:34:52.705Z</time></trkpt><trkpt lat="43.2181575" lon="11.3238331"><ele>347.0</ele><time>2026-03-27T14:34:54.705Z</time></trkpt><trkpt lat="43.2182125" lon="11.3238965"><ele>344.8</ele><time>2026-03-27T14:34:55.705Z</time></trkpt><trkpt lat="43.2182997" lon="11.3240258"><ele>342.6</ele><time>2026-03-27T14:34:57.705Z</time></trkpt><trkpt lat="43.2183466" lon="11.3240966"><ele>340.40000000000003</ele><time>2026-03-27T14:34:58.705Z</time></trkpt><trkpt lat="43.2184083" lon="11.3242352"><ele>338.20000000000005</ele><time>2026-03-27T14:35:00.705Z</time></trkpt><trkpt lat="43.2184715" lon="11.3243826"><ele>336.0</ele><time>2026-03-27T14:35:02.705Z</time></trkpt><trkpt lat="43.2185263" lon="11.3245434"><ele>336.0</ele><time>2026-03-27T14:35:04.706Z</time></trkpt><trkpt lat="43.2185536" lon="11.324682"><ele>336.0</ele><time>2026-03-27T14:35:06.705Z</time></trkpt><trkpt lat="43.2185833" lon="11.3248284"><ele>336.0</ele><time>2026-03-27T14:35:08.705Z</time></trkpt><trkpt lat="43.2186121" lon="11.3249291"><ele>336.0</ele><time>2026-03-27T14:35:10.705Z</time></trkpt><trkpt lat="43.2186661" lon="11.324985"><ele>336.0</ele><time>2026-03-27T14:35:12.706Z</time></trkpt><trkpt lat="43.2187227" lon="11.3249437"><ele>336.0</ele><time>2026-03-27T14:35:15.705Z</time></trkpt><trkpt lat="43.2187097" lon="11.324852"><ele>336.0</ele><time>2026-03-27T14:35:43.705Z</time></trkpt><trkpt lat="43.218692" lon="11.3247517"><ele>336.0</ele><time>2026-03-27T14:35:49.705Z</time></trkpt><trkpt lat="43.218677" lon="11.3246456"><ele>336.0</ele><time>2026-03-27T14:35:54.705Z</time></trkpt><trkpt lat="43.2186818" lon="11.3245564"><ele>336.0</ele><time>2026-03-27T14:35:57.706Z</time></trkpt><trkpt lat="43.2187165" lon="11.3244734"><ele>336.0</ele><time>2026-03-27T14:36:00.705Z</time></trkpt><trkpt lat="43.2187537" lon="11.3243678"><ele>336.0</ele><time>2026-03-27T14:36:03.705Z</time></trkpt><trkpt lat="43.2188071" lon="11.3243173"><ele>336.0</ele><time>2026-03-27T14:36:05.705Z</time></trkpt><trkpt lat="43.2188665" lon="11.3242632"><ele>336.0</ele><time>2026-03-27T14:36:07.705Z</time></trkpt><trkpt lat="43.2189179" lon="11.3241788"><ele>336.0</ele><time>2026-03-27T14:36:09.705Z</time></trkpt><trkpt lat="43.218958" lon="11.3240939"><ele>336.0</ele><time>2026-03-27T14:36:11.706Z</time></trkpt><trkpt lat="43.2190119" lon="11.3240205"><ele>336.0</ele><time>2026-03-27T14:36:13.706Z</time></trkpt><trkpt lat="43.2190724" lon="11.323957"><ele>336.0</ele><time>2026-03-27T14:36:15.705Z</time></trkpt><trkpt lat="43.2191254" lon="11.3238996"><ele>336.0</ele><time>2026-03-27T14:36:17.705Z</time></trkpt><trkpt lat="43.219178" lon="11.3238489"><ele>336.0</ele><time>2026-03-27T14:36:19.706Z</time></trkpt><trkpt lat="43.2192307" lon="11.3237989"><ele>336.6666666666667</ele><time>2026-03-27T14:36:21.705Z</time></trkpt><trkpt lat="43.2192896" lon="11.323742"><ele>337.3333333333333</ele><time>2026-03-27T14:36:23.706Z</time></trkpt><trkpt lat="43.2193641" lon="11.3236719"><ele>338.0</ele><time>2026-03-27T14:36:26.706Z</time></trkpt><trkpt lat="43.2194284" lon="11.3236027"><ele>338.66666666666663</ele><time>2026-03-27T14:36:29.706Z</time></trkpt><trkpt lat="43.2194941" lon="11.3235269"><ele>339.3333333333333</ele><time>2026-03-27T14:36:32.705Z</time></trkpt><trkpt lat="43.2195745" lon="11.3234613"><ele>340.0</ele><time>2026-03-27T14:36:35.705Z</time></trkpt><trkpt lat="43.2196293" lon="11.3234165"><ele>340.0</ele><time>2026-03-27T14:36:37.705Z</time></trkpt><trkpt lat="43.2197114" lon="11.3233496"><ele>340.0</ele><time>2026-03-27T14:36:40.706Z</time></trkpt><trkpt lat="43.2197893" lon="11.32328"><ele>340.0</ele><time>2026-03-27T14:36:43.705Z</time></trkpt><trkpt lat="43.2198542" lon="11.3231888"><ele>340.0</ele><time>2026-03-27T14:36:46.706Z</time></trkpt><trkpt lat="43.2199104" lon="11.3230887"><ele>340.0</ele><time>2026-03-27T14:36:49.705Z</time></trkpt><trkpt lat="43.2199475" lon="11.3230171"><ele>340.0</ele><time>2026-03-27T14:36:51.705Z</time></trkpt><trkpt lat="43.2199819" lon="11.3229447"><ele>339.5714285714286</ele><time>2026-03-27T14:36:53.705Z</time></trkpt><trkpt lat="43.2200163" lon="11.3228662"><ele>339.1428571428571</ele><time>2026-03-27T14:36:55.705Z</time></trkpt><trkpt lat="43.2200516" lon="11.3227888"><ele>338.7142857142857</ele><time>2026-03-27T14:36:57.705Z</time></trkpt><trkpt lat="43.2200687" lon="11.3227018"><ele>338.28571428571433</ele><time>2026-03-27T14:36:59.705Z</time></trkpt><trkpt lat="43.2200615" lon="11.3226138"><ele>337.8571428571429</ele><time>2026-03-27T14:37:01.706Z</time></trkpt><trkpt lat="43.220027" lon="11.3225147"><ele>337.42857142857144</ele><time>2026-03-27T14:37:04.706Z</time></trkpt><trkpt lat="43.2199777" lon="11.322443"><ele>337.0</ele><time>2026-03-27T14:37:06.705Z</time></trkpt><trkpt lat="43.2199346" lon="11.322371"><ele>337.00000000000006</ele><time>2026-03-27T14:37:09.705Z</time></trkpt><trkpt lat="43.2198613" lon="11.3223082"><ele>337.0</ele><time>2026-03-27T14:37:13.705Z</time></trkpt><trkpt lat="43.2197944" lon="11.3222731"><ele>337.0</ele><time>2026-03-27T14:37:16.705Z</time></trkpt><trkpt lat="43.2197303" lon="11.322301"><ele>337.0</ele><time>2026-03-27T14:37:21.705Z</time></trkpt><trkpt lat="43.2196829" lon="11.32239"><ele>337.0</ele><time>2026-03-27T14:37:26.706Z</time></trkpt><trkpt lat="43.2196478" lon="11.3224698"><ele>337.00000000000006</ele><time>2026-03-27T14:37:29.706Z</time></trkpt><trkpt lat="43.2195985" lon="11.3225452"><ele>337.0</ele><time>2026-03-27T14:37:33.705Z</time></trkpt><trkpt lat="43.2195546" lon="11.3226188"><ele>337.0</ele><time>2026-03-27T14:37:38.706Z</time></trkpt><trkpt lat="43.2195674" lon="11.3225228"><ele>337.0</ele><time>2026-03-27T14:37:44.705Z</time></trkpt><trkpt lat="43.219611" lon="11.3224506"><ele>337.0</ele><time>2026-03-27T14:37:49.706Z</time></trkpt><trkpt lat="43.2196718" lon="11.3223884"><ele>337.0</ele><time>2026-03-27T14:37:53.705Z</time></trkpt><trkpt lat="43.2197179" lon="11.3223036"><ele>337.0</ele><time>2026-03-27T14:37:56.706Z</time></trkpt><trkpt lat="43.2197561" lon="11.3222249"><ele>337.0</ele><time>2026-03-27T14:37:58.706Z</time></trkpt><trkpt lat="43.2198529" lon="11.322243"><ele>337.0</ele><time>2026-03-27T14:38:01.706Z</time></trkpt><trkpt lat="43.2199246" lon="11.3223257"><ele>337.0</ele><time>2026-03-27T14:38:03.705Z</time></trkpt><trkpt lat="43.2199837" lon="11.3224547"><ele>337.0</ele><time>2026-03-27T14:38:05.705Z</time></trkpt><trkpt lat="43.2200565" lon="11.3225669"><ele>337.0</ele><time>2026-03-27T14:38:07.705Z</time></trkpt><trkpt lat="43.2200682" lon="11.3226643"><ele>337.0</ele><time>2026-03-27T14:38:09.705Z</time></trkpt><trkpt lat="43.220048" lon="11.3227981"><ele>337.0</ele><time>2026-03-27T14:38:11.705Z</time></trkpt><trkpt lat="43.2200037" lon="11.3229175"><ele>337.0</ele><time>2026-03-27T14:38:13.706Z</time></trkpt><trkpt lat="43.21996" lon="11.3230229"><ele>337.0</ele><time>2026-03-27T14:38:15.705Z</time></trkpt><trkpt lat="43.2199032" lon="11.323155"><ele>337.0</ele><time>2026-03-27T14:38:17.705Z</time></trkpt><trkpt lat="43.2198457" lon="11.323255"><ele>337.0</ele><time>2026-03-27T14:38:19.705Z</time></trkpt><trkpt lat="43.2197668" lon="11.3233458"><ele>337.75</ele><time>2026-03-27T14:38:21.705Z</time></trkpt><trkpt lat="43.2196618" lon="11.323421"><ele>338.5</ele><time>2026-03-27T14:38:23.705Z</time></trkpt><trkpt lat="43.2195614" lon="11.3235083"><ele>339.25</ele><time>2026-03-27T14:38:25.706Z</time></trkpt><trkpt lat="43.2194553" lon="11.3235822"><ele>340.0</ele><time>2026-03-27T14:38:27.705Z</time></trkpt><trkpt lat="43.2193535" lon="11.3236834"><ele>340.0</ele><time>2026-03-27T14:38:29.705Z</time></trkpt><trkpt lat="43.2192849" lon="11.3237431"><ele>340.0</ele><time>2026-03-27T14:38:30.705Z</time></trkpt><trkpt lat="43.2192247" lon="11.3237921"><ele>340.0</ele><time>2026-03-27T14:38:31.706Z</time></trkpt><trkpt lat="43.2191599" lon="11.3238493"><ele>340.0</ele><time>2026-03-27T14:38:32.706Z</time></trkpt><trkpt lat="43.2191028" lon="11.3239057"><ele>340.0</ele><time>2026-03-27T14:38:33.706Z</time></trkpt><trkpt lat="43.2190473" lon="11.3239605"><ele>340.0</ele><time>2026-03-27T14:38:34.705Z</time></trkpt><trkpt lat="43.2189981" lon="11.3240283"><ele>340.0</ele><time>2026-03-27T14:38:35.705Z</time></trkpt><trkpt lat="43.218935" lon="11.3241639"><ele>339.3333333333333</ele><time>2026-03-27T14:38:37.706Z</time></trkpt><trkpt lat="43.2188917" lon="11.3242427"><ele>338.66666666666663</ele><time>2026-03-27T14:38:38.706Z</time></trkpt><trkpt lat="43.2187974" lon="11.324352"><ele>338.0</ele><time>2026-03-27T14:38:40.706Z</time></trkpt><trkpt lat="43.2187534" lon="11.3244182"><ele>337.3333333333333</ele><time>2026-03-27T14:38:41.705Z</time></trkpt><trkpt lat="43.2186774" lon="11.3245439"><ele>336.6666666666667</ele><time>2026-03-27T14:38:43.705Z</time></trkpt><trkpt lat="43.2186875" lon="11.3246311"><ele>336.0</ele><time>2026-03-27T14:38:44.705Z</time></trkpt><trkpt lat="43.2186833" lon="11.3247895"><ele>335.3333333333333</ele><time>2026-03-27T14:38:46.705Z</time></trkpt><trkpt lat="43.2186816" lon="11.3249225"><ele>334.6666666666667</ele><time>2026-03-27T14:38:48.706Z</time></trkpt><trkpt lat="43.2186826" lon="11.3250773"><ele>334.0</ele><time>2026-03-27T14:38:50.705Z</time></trkpt><trkpt lat="43.2186823" lon="11.3251698"><ele>333.33333333333337</ele><time>2026-03-27T14:38:51.705Z</time></trkpt><trkpt lat="43.2186879" lon="11.3252704"><ele>332.6666666666667</ele><time>2026-03-27T14:38:52.705Z</time></trkpt><trkpt lat="43.2187041" lon="11.3253735"><ele>332.0</ele><time>2026-03-27T14:38:53.705Z</time></trkpt><trkpt lat="43.2187217" lon="11.3254764"><ele>331.83333333333337</ele><time>2026-03-27T14:38:54.706Z</time></trkpt><trkpt lat="43.2187401" lon="11.3255778"><ele>331.6666666666667</ele><time>2026-03-27T14:38:55.706Z</time></trkpt><trkpt lat="43.2187649" lon="11.3256766"><ele>331.5</ele><time>2026-03-27T14:38:56.705Z</time></trkpt><trkpt lat="43.2187825" lon="11.3257832"><ele>331.3333333333333</ele><time>2026-03-27T14:38:57.705Z</time></trkpt><trkpt lat="43.2188074" lon="11.3258913"><ele>331.16666666666663</ele><time>2026-03-27T14:38:58.706Z</time></trkpt><trkpt lat="43.2188205" lon="11.3260111"><ele>331.0</ele><time>2026-03-27T14:38:59.705Z</time></trkpt><trkpt lat="43.2188425" lon="11.3261351"><ele>331.0</ele><time>2026-03-27T14:39:00.706Z</time></trkpt><trkpt lat="43.2188616" lon="11.3262567"><ele>331.0</ele><time>2026-03-27T14:39:01.706Z</time></trkpt><trkpt lat="43.2188919" lon="11.3263827"><ele>331.0</ele><time>2026-03-27T14:39:02.705Z</time></trkpt><trkpt lat="43.2189119" lon="11.3265094"><ele>331.0</ele><time>2026-03-27T14:39:03.705Z</time></trkpt><trkpt lat="43.2189387" lon="11.3266332"><ele>331.0</ele><time>2026-03-27T14:39:04.705Z</time></trkpt><trkpt lat="43.2189592" lon="11.3267636"><ele>328.2</ele><time>2026-03-27T14:39:05.705Z</time></trkpt><trkpt lat="43.218996" lon="11.3268842"><ele>325.40000000000003</ele><time>2026-03-27T14:39:06.705Z</time></trkpt><trkpt lat="43.2190439" lon="11.327"><ele>322.6</ele><time>2026-03-27T14:39:07.705Z</time></trkpt><trkpt lat="43.2190911" lon="11.327116"><ele>319.8</ele><time>2026-03-27T14:39:08.705Z</time></trkpt><trkpt lat="43.2191432" lon="11.3272298"><ele>317.0</ele><time>2026-03-27T14:39:09.705Z</time></trkpt><trkpt lat="43.2192084" lon="11.3273351"><ele>317.0</ele><time>2026-03-27T14:39:10.706Z</time></trkpt><trkpt lat="43.2192785" lon="11.3274355"><ele>317.0</ele><time>2026-03-27T14:39:11.706Z</time></trkpt><trkpt lat="43.2193496" lon="11.3275388"><ele>317.0</ele><time>2026-03-27T14:39:12.706Z</time></trkpt><trkpt lat="43.2194277" lon="11.3276401"><ele>317.0</ele><time>2026-03-27T14:39:13.706Z</time></trkpt><trkpt lat="43.2195046" lon="11.3277349"><ele>317.0</ele><time>2026-03-27T14:39:14.705Z</time></trkpt><trkpt lat="43.2195827" lon="11.3278359"><ele>317.0</ele><time>2026-03-27T14:39:15.705Z</time></trkpt><trkpt lat="43.2196599" lon="11.3279412"><ele>317.0</ele><time>2026-03-27T14:39:16.706Z</time></trkpt><trkpt lat="43.2197312" lon="11.3280531"><ele>317.0</ele><time>2026-03-27T14:39:17.706Z</time></trkpt><trkpt lat="43.2197972" lon="11.3281691"><ele>317.0</ele><time>2026-03-27T14:39:18.706Z</time></trkpt><trkpt lat="43.2198654" lon="11.3282851"><ele>317.0</ele><time>2026-03-27T14:39:19.706Z</time></trkpt><trkpt lat="43.2199267" lon="11.3284048"><ele>314.8</ele><time>2026-03-27T14:39:20.705Z</time></trkpt><trkpt lat="43.2199816" lon="11.3285399"><ele>312.6</ele><time>2026-03-27T14:39:21.705Z</time></trkpt><trkpt lat="43.2200392" lon="11.3286699"><ele>310.40000000000003</ele><time>2026-03-27T14:39:22.705Z</time></trkpt><trkpt lat="43.2200835" lon="11.3287945"><ele>308.2</ele><time>2026-03-27T14:39:23.705Z</time></trkpt><trkpt lat="43.2201416" lon="11.3289138"><ele>306.0</ele><time>2026-03-27T14:39:24.705Z</time></trkpt><trkpt lat="43.2201856" lon="11.3290287"><ele>306.0</ele><time>2026-03-27T14:39:25.705Z</time></trkpt><trkpt lat="43.2202364" lon="11.3291444"><ele>306.0</ele><time>2026-03-27T14:39:26.705Z</time></trkpt><trkpt lat="43.2202867" lon="11.3292552"><ele>306.0</ele><time>2026-03-27T14:39:27.705Z</time></trkpt><trkpt lat="43.2203584" lon="11.3293619"><ele>306.0</ele><time>2026-03-27T14:39:28.705Z</time></trkpt><trkpt lat="43.2204206" lon="11.3294599"><ele>306.0</ele><time>2026-03-27T14:39:29.705Z</time></trkpt><trkpt lat="43.2205044" lon="11.3295449"><ele>306.0</ele><time>2026-03-27T14:39:30.705Z</time></trkpt><trkpt lat="43.2205864" lon="11.32963"><ele>306.0</ele><time>2026-03-27T14:39:31.706Z</time></trkpt><trkpt lat="43.2206584" lon="11.3297276"><ele>306.0</ele><time>2026-03-27T14:39:32.706Z</time></trkpt><trkpt lat="43.2207369" lon="11.3298203"><ele>306.0</ele><time>2026-03-27T14:39:33.705Z</time></trkpt><trkpt lat="43.2208255" lon="11.3299196"><ele>306.0</ele><time>2026-03-27T14:39:34.705Z</time></trkpt><trkpt lat="43.2209145" lon="11.330017"><ele>303.8</ele><time>2026-03-27T14:39:35.705Z</time></trkpt><trkpt lat="43.2209963" lon="11.3301027"><ele>301.6</ele><time>2026-03-27T14:39:36.705Z</time></trkpt><trkpt lat="43.2210741" lon="11.3301876"><ele>299.4</ele><time>2026-03-27T14:39:37.705Z</time></trkpt><trkpt lat="43.221151" lon="11.330271"><ele>297.2</ele><time>2026-03-27T14:39:38.705Z</time></trkpt><trkpt lat="43.2212257" lon="11.3303532"><ele>295.0</ele><time>2026-03-27T14:39:39.705Z</time></trkpt><trkpt lat="43.221296" lon="11.3304323"><ele>295.0</ele><time>2026-03-27T14:39:40.706Z</time></trkpt><trkpt lat="43.2213643" lon="11.3305239"><ele>295.0</ele><time>2026-03-27T14:39:41.706Z</time></trkpt><trkpt lat="43.2214409" lon="11.3306092"><ele>295.0</ele><time>2026-03-27T14:39:42.705Z</time></trkpt><trkpt lat="43.2215143" lon="11.3306907"><ele>295.0</ele><time>2026-03-27T14:39:43.705Z</time></trkpt><trkpt lat="43.221589" lon="11.3307742"><ele>295.0</ele><time>2026-03-27T14:39:44.705Z</time></trkpt><trkpt lat="43.2216572" lon="11.3308713"><ele>294.0</ele><time>2026-03-27T14:39:45.706Z</time></trkpt><trkpt lat="43.2217273" lon="11.3309474"><ele>293.0</ele><time>2026-03-27T14:39:46.706Z</time></trkpt><trkpt lat="43.2217967" lon="11.3310244"><ele>292.0</ele><time>2026-03-27T14:39:47.705Z</time></trkpt><trkpt lat="43.2218747" lon="11.3311018"><ele>291.0</ele><time>2026-03-27T14:39:48.705Z</time></trkpt><trkpt lat="43.2219493" lon="11.3311704"><ele>290.0</ele><time>2026-03-27T14:39:49.705Z</time></trkpt><trkpt lat="43.2220366" lon="11.3312253"><ele>290.0</ele><time>2026-03-27T14:39:50.706Z</time></trkpt><trkpt lat="43.2221051" lon="11.3312833"><ele>290.0</ele><time>2026-03-27T14:39:51.706Z</time></trkpt><trkpt lat="43.2221525" lon="11.331353"><ele>290.0</ele><time>2026-03-27T14:39:52.705Z</time></trkpt><trkpt lat="43.2221794" lon="11.3314317"><ele>290.0</ele><time>2026-03-27T14:39:53.705Z</time></trkpt><trkpt lat="43.2221913" lon="11.3315189"><ele>290.0</ele><time>2026-03-27T14:39:54.705Z</time></trkpt><trkpt lat="43.2221678" lon="11.3316072"><ele>290.0</ele><time>2026-03-27T14:39:55.706Z</time></trkpt><trkpt lat="43.2221134" lon="11.3316889"><ele>290.0</ele><time>2026-03-27T14:39:56.705Z</time></trkpt><trkpt lat="43.2220549" lon="11.331758"><ele>289.33333333333337</ele><time>2026-03-27T14:39:57.705Z</time></trkpt><trkpt lat="43.2220054" lon="11.331838"><ele>288.6666666666667</ele><time>2026-03-27T14:39:58.706Z</time></trkpt><trkpt lat="43.221937" lon="11.3319228"><ele>288.0</ele><time>2026-03-27T14:39:59.705Z</time></trkpt><trkpt lat="43.2218724" lon="11.3320065"><ele>287.3333333333333</ele><time>2026-03-27T14:40:00.705Z</time></trkpt><trkpt lat="43.2218081" lon="11.3321022"><ele>286.66666666666663</ele><time>2026-03-27T14:40:01.706Z</time></trkpt><trkpt lat="43.2217419" lon="11.3321966"><ele>286.0</ele><time>2026-03-27T14:40:02.705Z</time></trkpt><trkpt lat="43.2216643" lon="11.3322966"><ele>284.5</ele><time>2026-03-27T14:40:03.705Z</time></trkpt><trkpt lat="43.2215842" lon="11.332406"><ele>283.0</ele><time>2026-03-27T14:40:04.705Z</time></trkpt><trkpt lat="43.2215015" lon="11.332512"><ele>281.5</ele><time>2026-03-27T14:40:05.706Z</time></trkpt><trkpt lat="43.22142" lon="11.3326232"><ele>280.0</ele><time>2026-03-27T14:40:06.705Z</time></trkpt><trkpt lat="43.2213423" lon="11.3327433"><ele>280.0</ele><time>2026-03-27T14:40:07.706Z</time></trkpt><trkpt lat="43.221263" lon="11.3328655"><ele>280.0</ele><time>2026-03-27T14:40:08.706Z</time></trkpt><trkpt lat="43.2211874" lon="11.3329899"><ele>280.0</ele><time>2026-03-27T14:40:09.706Z</time></trkpt><trkpt lat="43.2211106" lon="11.3331123"><ele>280.0</ele><time>2026-03-27T14:40:10.705Z</time></trkpt><trkpt lat="43.221034" lon="11.333237"><ele>278.4</ele><time>2026-03-27T14:40:11.705Z</time></trkpt><trkpt lat="43.2209435" lon="11.3333639"><ele>276.8</ele><time>2026-03-27T14:40:12.705Z</time></trkpt><trkpt lat="43.2208642" lon="11.3334638"><ele>275.2</ele><time>2026-03-27T14:40:13.705Z</time></trkpt><trkpt lat="43.2207891" lon="11.3335776"><ele>273.6</ele><time>2026-03-27T14:40:14.706Z</time></trkpt><trkpt lat="43.2207311" lon="11.3336787"><ele>272.0</ele><time>2026-03-27T14:40:15.705Z</time></trkpt><trkpt lat="43.2206719" lon="11.3337907"><ele>273.5</ele><time>2026-03-27T14:40:16.705Z</time></trkpt><trkpt lat="43.2206093" lon="11.333892"><ele>275.0</ele><time>2026-03-27T14:40:17.706Z</time></trkpt><trkpt lat="43.2205611" lon="11.3339778"><ele>276.5</ele><time>2026-03-27T14:40:18.705Z</time></trkpt><trkpt lat="43.2205177" lon="11.3340702"><ele>278.0</ele><time>2026-03-27T14:40:19.705Z</time></trkpt><trkpt lat="43.2204896" lon="11.3341485"><ele>279.5</ele><time>2026-03-27T14:40:20.706Z</time></trkpt><trkpt lat="43.2204582" lon="11.3342322"><ele>281.0</ele><time>2026-03-27T14:40:21.705Z</time></trkpt><trkpt lat="43.2204249" lon="11.3343846"><ele>281.0</ele><time>2026-03-27T14:40:23.706Z</time></trkpt><trkpt lat="43.2203913" lon="11.3345337"><ele>281.0</ele><time>2026-03-27T14:40:25.705Z</time></trkpt><trkpt lat="43.2203551" lon="11.3346793"><ele>281.0</ele><time>2026-03-27T14:40:27.705Z</time></trkpt><trkpt lat="43.220325" lon="11.3348001"><ele>281.0</ele><time>2026-03-27T14:40:29.705Z</time></trkpt><trkpt lat="43.2203086" lon="11.3349054"><ele>281.0</ele><time>2026-03-27T14:40:31.705Z</time></trkpt><trkpt lat="43.2202799" lon="11.3350181"><ele>281.1666666666667</ele><time>2026-03-27T14:40:33.705Z</time></trkpt><trkpt lat="43.22026" lon="11.3351379"><ele>281.33333333333337</ele><time>2026-03-27T14:40:35.706Z</time></trkpt><trkpt lat="43.2202307" lon="11.3352578"><ele>281.5</ele><time>2026-03-27T14:40:37.705Z</time></trkpt><trkpt lat="43.2202107" lon="11.3353738"><ele>281.6666666666667</ele><time>2026-03-27T14:40:39.705Z</time></trkpt><trkpt lat="43.2201926" lon="11.3354792"><ele>281.8333333333333</ele><time>2026-03-27T14:40:41.705Z</time></trkpt><trkpt lat="43.2201634" lon="11.3355803"><ele>282.0</ele><time>2026-03-27T14:40:43.705Z</time></trkpt><trkpt lat="43.2201329" lon="11.3356769"><ele>282.0</ele><time>2026-03-27T14:40:45.705Z</time></trkpt><trkpt lat="43.2201008" lon="11.3357804"><ele>282.0</ele><time>2026-03-27T14:40:47.705Z</time></trkpt><trkpt lat="43.2200552" lon="11.3358782"><ele>282.0</ele><time>2026-03-27T14:40:49.705Z</time></trkpt><trkpt lat="43.2200048" lon="11.3359582"><ele>282.0</ele><time>2026-03-27T14:40:51.705Z</time></trkpt><trkpt lat="43.2199405" lon="11.3360135"><ele>282.0</ele><time>2026-03-27T14:40:53.705Z</time></trkpt><trkpt lat="43.2198677" lon="11.3360305"><ele>282.0</ele><time>2026-03-27T14:40:55.705Z</time></trkpt><trkpt lat="43.219791" lon="11.3360441"><ele>282.8571428571429</ele><time>2026-03-27T14:40:57.705Z</time></trkpt><trkpt lat="43.2197165" lon="11.3360536"><ele>283.7142857142857</ele><time>2026-03-27T14:40:59.706Z</time></trkpt><trkpt lat="43.2196416" lon="11.3360628"><ele>284.57142857142856</ele><time>2026-03-27T14:41:01.705Z</time></trkpt><trkpt lat="43.2195661" lon="11.336073"><ele>285.42857142857144</ele><time>2026-03-27T14:41:03.705Z</time></trkpt><trkpt lat="43.2194931" lon="11.3360868"><ele>286.2857142857143</ele><time>2026-03-27T14:41:05.705Z</time></trkpt><trkpt lat="43.2194246" lon="11.336098"><ele>287.14285714285717</ele><time>2026-03-27T14:41:07.706Z</time></trkpt><trkpt lat="43.2193484" lon="11.3361097"><ele>288.0</ele><time>2026-03-27T14:41:09.705Z</time></trkpt><trkpt lat="43.2192708" lon="11.3361238"><ele>288.0</ele><time>2026-03-27T14:41:11.705Z</time></trkpt><trkpt lat="43.2191741" lon="11.336144"><ele>288.0</ele><time>2026-03-27T14:41:13.706Z</time></trkpt><trkpt lat="43.2190652" lon="11.3361585"><ele>288.0</ele><time>2026-03-27T14:41:15.705Z</time></trkpt><trkpt lat="43.2189524" lon="11.3361855"><ele>288.0</ele><time>2026-03-27T14:41:17.706Z</time></trkpt><trkpt lat="43.2188253" lon="11.3362095"><ele>287.14285714285717</ele><time>2026-03-27T14:41:19.706Z</time></trkpt><trkpt lat="43.2187552" lon="11.3362147"><ele>286.2857142857143</ele><time>2026-03-27T14:41:20.705Z</time></trkpt><trkpt lat="43.2186837" lon="11.3362325"><ele>285.42857142857144</ele><time>2026-03-27T14:41:21.705Z</time></trkpt><trkpt lat="43.2186094" lon="11.33625"><ele>284.57142857142856</ele><time>2026-03-27T14:41:22.705Z</time></trkpt><trkpt lat="43.2185447" lon="11.3362548"><ele>283.7142857142857</ele><time>2026-03-27T14:41:23.705Z</time></trkpt><trkpt lat="43.2184751" lon="11.3362591"><ele>282.8571428571429</ele><time>2026-03-27T14:41:24.705Z</time></trkpt><trkpt lat="43.218404" lon="11.3362668"><ele>282.0</ele><time>2026-03-27T14:41:25.706Z</time></trkpt><trkpt lat="43.2183244" lon="11.336261"><ele>282.0</ele><time>2026-03-27T14:41:26.706Z</time></trkpt><trkpt lat="43.2182476" lon="11.3362451"><ele>282.0</ele><time>2026-03-27T14:41:27.706Z</time></trkpt><trkpt lat="43.2181724" lon="11.3362101"><ele>282.0</ele><time>2026-03-27T14:41:28.706Z</time></trkpt><trkpt lat="43.2181042" lon="11.3361583"><ele>282.0</ele><time>2026-03-27T14:41:29.705Z</time></trkpt><trkpt lat="43.2180387" lon="11.3360999"><ele>282.0</ele><time>2026-03-27T14:41:30.706Z</time></trkpt><trkpt lat="43.2179794" lon="11.3360428"><ele>282.0</ele><time>2026-03-27T14:41:31.705Z</time></trkpt><trkpt lat="43.2179184" lon="11.3359889"><ele>281.8571428571429</ele><time>2026-03-27T14:41:32.706Z</time></trkpt><trkpt lat="43.2178557" lon="11.3359435"><ele>281.7142857142857</ele><time>2026-03-27T14:41:33.705Z</time></trkpt><trkpt lat="43.2177927" lon="11.335908"><ele>281.57142857142856</ele><time>2026-03-27T14:41:34.705Z</time></trkpt><trkpt lat="43.217732" lon="11.3358849"><ele>281.42857142857144</ele><time>2026-03-27T14:41:35.706Z</time></trkpt><trkpt lat="43.2176654" lon="11.3358708"><ele>281.2857142857143</ele><time>2026-03-27T14:41:36.705Z</time></trkpt><trkpt lat="43.2175988" lon="11.3358732"><ele>281.14285714285717</ele><time>2026-03-27T14:41:37.706Z</time></trkpt><trkpt lat="43.2175102" lon="11.3358541"><ele>281.0</ele><time>2026-03-27T14:41:39.705Z</time></trkpt><trkpt lat="43.2174145" lon="11.3358497"><ele>281.2</ele><time>2026-03-27T14:41:41.705Z</time></trkpt><trkpt lat="43.2173136" lon="11.3358341"><ele>281.40000000000003</ele><time>2026-03-27T14:41:43.705Z</time></trkpt><trkpt lat="43.2172081" lon="11.3357694"><ele>281.6</ele><time>2026-03-27T14:41:45.705Z</time></trkpt><trkpt lat="43.2171132" lon="11.3357298"><ele>281.8</ele><time>2026-03-27T14:41:47.706Z</time></trkpt><trkpt lat="43.2170446" lon="11.3357186"><ele>282.0</ele><time>2026-03-27T14:41:48.705Z</time></trkpt><trkpt lat="43.2169464" lon="11.3357305"><ele>282.0</ele><time>2026-03-27T14:41:50.705Z</time></trkpt><trkpt lat="43.216873" lon="11.3358105"><ele>282.0</ele><time>2026-03-27T14:41:52.705Z</time></trkpt><trkpt lat="43.2168184" lon="11.3359458"><ele>282.0</ele><time>2026-03-27T14:41:54.705Z</time></trkpt><trkpt lat="43.216793" lon="11.3360959"><ele>282.0</ele><time>2026-03-27T14:41:56.706Z</time></trkpt><trkpt lat="43.2167856" lon="11.3362664"><ele>282.0</ele><time>2026-03-27T14:41:58.706Z</time></trkpt><trkpt lat="43.2167708" lon="11.3364497"><ele>281.1666666666667</ele><time>2026-03-27T14:42:00.706Z</time></trkpt><trkpt lat="43.2167643" lon="11.336552"><ele>280.3333333333333</ele><time>2026-03-27T14:42:01.706Z</time></trkpt><trkpt lat="43.2167488" lon="11.336652"><ele>279.5</ele><time>2026-03-27T14:42:02.705Z</time></trkpt><trkpt lat="43.2167423" lon="11.3367527"><ele>278.66666666666663</ele><time>2026-03-27T14:42:03.706Z</time></trkpt><trkpt lat="43.2167305" lon="11.336861"><ele>277.8333333333333</ele><time>2026-03-27T14:42:04.705Z</time></trkpt><trkpt lat="43.2167117" lon="11.3369694"><ele>277.0</ele><time>2026-03-27T14:42:05.705Z</time></trkpt><trkpt lat="43.2166855" lon="11.3370756"><ele>277.0</ele><time>2026-03-27T14:42:06.706Z</time></trkpt><trkpt lat="43.216646" lon="11.3371786"><ele>277.0</ele><time>2026-03-27T14:42:07.705Z</time></trkpt><trkpt lat="43.2166308" lon="11.3372688"><ele>277.0</ele><time>2026-03-27T14:42:08.705Z</time></trkpt><trkpt lat="43.2166023" lon="11.337382"><ele>277.0</ele><time>2026-03-27T14:42:09.705Z</time></trkpt><trkpt lat="43.2165745" lon="11.337479"><ele>277.0</ele><time>2026-03-27T14:42:10.705Z</time></trkpt><trkpt lat="43.2165512" lon="11.3375764"><ele>277.0</ele><time>2026-03-27T14:42:11.705Z</time></trkpt><trkpt lat="43.2165238" lon="11.3376908"><ele>276.3333333333333</ele><time>2026-03-27T14:42:12.706Z</time></trkpt><trkpt lat="43.2164941" lon="11.3378029"><ele>275.66666666666663</ele><time>2026-03-27T14:42:13.706Z</time></trkpt><trkpt lat="43.2164732" lon="11.3379069"><ele>275.0</ele><time>2026-03-27T14:42:14.705Z</time></trkpt><trkpt lat="43.2164604" lon="11.3380227"><ele>274.3333333333333</ele><time>2026-03-27T14:42:15.705Z</time></trkpt><trkpt lat="43.216438" lon="11.3381428"><ele>273.6666666666667</ele><time>2026-03-27T14:42:16.705Z</time></trkpt><trkpt lat="43.2164103" lon="11.338257"><ele>273.0</ele><time>2026-03-27T14:42:17.706Z</time></trkpt><trkpt lat="43.2163904" lon="11.3383668"><ele>272.3333333333333</ele><time>2026-03-27T14:42:18.706Z</time></trkpt><trkpt lat="43.2163804" lon="11.3384836"><ele>271.6666666666667</ele><time>2026-03-27T14:42:19.705Z</time></trkpt><trkpt lat="43.2163774" lon="11.3386035"><ele>271.0</ele><time>2026-03-27T14:42:20.705Z</time></trkpt><trkpt lat="43.2163703" lon="11.3387182"><ele>270.33333333333337</ele><time>2026-03-27T14:42:21.706Z</time></trkpt><trkpt lat="43.2163646" lon="11.338837"><ele>269.6666666666667</ele><time>2026-03-27T14:42:22.705Z</time></trkpt><trkpt lat="43.2163596" lon="11.3389402"><ele>269.0</ele><time>2026-03-27T14:42:23.705Z</time></trkpt><trkpt lat="43.2163473" lon="11.3390515"><ele>268.83333333333337</ele><time>2026-03-27T14:42:24.705Z</time></trkpt><trkpt lat="43.2163394" lon="11.3391648"><ele>268.6666666666667</ele><time>2026-03-27T14:42:25.705Z</time></trkpt><trkpt lat="43.2163314" lon="11.3392742"><ele>268.5</ele><time>2026-03-27T14:42:26.706Z</time></trkpt><trkpt lat="43.2163211" lon="11.3393852"><ele>268.3333333333333</ele><time>2026-03-27T14:42:27.705Z</time></trkpt><trkpt lat="43.2163203" lon="11.3394966"><ele>268.16666666666663</ele><time>2026-03-27T14:42:28.706Z</time></trkpt><trkpt lat="43.2163105" lon="11.3396062"><ele>268.0</ele><time>2026-03-27T14:42:29.705Z</time></trkpt><trkpt lat="43.2163161" lon="11.3397171"><ele>268.2857142857143</ele><time>2026-03-27T14:42:30.706Z</time></trkpt><trkpt lat="43.216314" lon="11.3398217"><ele>268.57142857142856</ele><time>2026-03-27T14:42:31.706Z</time></trkpt><trkpt lat="43.2163034" lon="11.3399234"><ele>268.85714285714283</ele><time>2026-03-27T14:42:32.706Z</time></trkpt><trkpt lat="43.2163042" lon="11.3400364"><ele>269.1428571428571</ele><time>2026-03-27T14:42:33.705Z</time></trkpt><trkpt lat="43.2162997" lon="11.3401364"><ele>269.4285714285714</ele><time>2026-03-27T14:42:34.706Z</time></trkpt><trkpt lat="43.2162972" lon="11.3402298"><ele>269.7142857142857</ele><time>2026-03-27T14:42:35.705Z</time></trkpt><trkpt lat="43.2162947" lon="11.34032"><ele>270.0</ele><time>2026-03-27T14:42:36.706Z</time></trkpt><trkpt lat="43.2162878" lon="11.3404063"><ele>270.2</ele><time>2026-03-27T14:42:37.705Z</time></trkpt><trkpt lat="43.2162944" lon="11.3405683"><ele>270.4</ele><time>2026-03-27T14:42:39.705Z</time></trkpt><trkpt lat="43.216285" lon="11.3407128"><ele>270.6</ele><time>2026-03-27T14:42:41.706Z</time></trkpt><trkpt lat="43.2162748" lon="11.3408444"><ele>270.8</ele><time>2026-03-27T14:42:43.705Z</time></trkpt><trkpt lat="43.2162733" lon="11.3409896"><ele>271.0</ele><time>2026-03-27T14:42:45.705Z</time></trkpt><trkpt lat="43.2162677" lon="11.3410785"><ele>271.0</ele><time>2026-03-27T14:42:46.705Z</time></trkpt><trkpt lat="43.2162426" lon="11.3412545"><ele>271.0</ele><time>2026-03-27T14:42:48.705Z</time></trkpt><trkpt lat="43.2162326" lon="11.3413529"><ele>271.0</ele><time>2026-03-27T14:42:49.705Z</time></trkpt><trkpt lat="43.216217" lon="11.3414511"><ele>271.0</ele><time>2026-03-27T14:42:50.705Z</time></trkpt><trkpt lat="43.2162001" lon="11.3415455"><ele>271.0</ele><time>2026-03-27T14:42:51.705Z</time></trkpt><trkpt lat="43.2161895" lon="11.3416389"><ele>271.0</ele><time>2026-03-27T14:42:52.705Z</time></trkpt><trkpt lat="43.2161758" lon="11.341748"><ele>270.7142857142857</ele><time>2026-03-27T14:42:53.705Z</time></trkpt><trkpt lat="43.2161633" lon="11.3418548"><ele>270.42857142857144</ele><time>2026-03-27T14:42:54.706Z</time></trkpt><trkpt lat="43.2161513" lon="11.3419514"><ele>270.14285714285717</ele><time>2026-03-27T14:42:55.706Z</time></trkpt><trkpt lat="43.2161439" lon="11.3420464"><ele>269.8571428571429</ele><time>2026-03-27T14:42:56.706Z</time></trkpt><trkpt lat="43.2161426" lon="11.3421506"><ele>269.5714285714286</ele><time>2026-03-27T14:42:57.705Z</time></trkpt><trkpt lat="43.2161427" lon="11.3422531"><ele>269.2857142857143</ele><time>2026-03-27T14:42:58.706Z</time></trkpt><trkpt lat="43.2161494" lon="11.342353"><ele>269.0</ele><time>2026-03-27T14:42:59.705Z</time></trkpt><trkpt lat="43.2161572" lon="11.3424489"><ele>268.42857142857144</ele><time>2026-03-27T14:43:00.705Z</time></trkpt><trkpt lat="43.2161729" lon="11.3425381"><ele>267.8571428571429</ele><time>2026-03-27T14:43:01.706Z</time></trkpt><trkpt lat="43.2161896" lon="11.3426332"><ele>267.2857142857143</ele><time>2026-03-27T14:43:02.705Z</time></trkpt><trkpt lat="43.2162074" lon="11.3427209"><ele>266.7142857142857</ele><time>2026-03-27T14:43:03.705Z</time></trkpt><trkpt lat="43.2162259" lon="11.3428103"><ele>266.1428571428571</ele><time>2026-03-27T14:43:04.705Z</time></trkpt><trkpt lat="43.2162418" lon="11.3429038"><ele>265.57142857142856</ele><time>2026-03-27T14:43:05.705Z</time></trkpt><trkpt lat="43.2162624" lon="11.3429938"><ele>265.0</ele><time>2026-03-27T14:43:06.705Z</time></trkpt><trkpt lat="43.216282" lon="11.3430783"><ele>264.5</ele><time>2026-03-27T14:43:07.705Z</time></trkpt><trkpt lat="43.2163147" lon="11.3432374"><ele>264.0</ele><time>2026-03-27T14:43:09.705Z</time></trkpt><trkpt lat="43.2163393" lon="11.3433929"><ele>263.5</ele><time>2026-03-27T14:43:11.705Z</time></trkpt><trkpt lat="43.2163842" lon="11.3435458"><ele>263.0</ele><time>2026-03-27T14:43:13.706Z</time></trkpt><trkpt lat="43.2164386" lon="11.3436955"><ele>263.0</ele><time>2026-03-27T14:43:15.705Z</time></trkpt><trkpt lat="43.2164684" lon="11.3437759"><ele>263.0</ele><time>2026-03-27T14:43:16.706Z</time></trkpt><trkpt lat="43.2165024" lon="11.3438575"><ele>263.0</ele><time>2026-03-27T14:43:17.706Z</time></trkpt><trkpt lat="43.2165439" lon="11.3439543"><ele>263.0</ele><time>2026-03-27T14:43:18.706Z</time></trkpt><trkpt lat="43.2165792" lon="11.3440455"><ele>263.0</ele><time>2026-03-27T14:43:19.706Z</time></trkpt><trkpt lat="43.2166238" lon="11.3441505"><ele>263.0</ele><time>2026-03-27T14:43:20.705Z</time></trkpt><trkpt lat="43.216665" lon="11.3442691"><ele>262.0</ele><time>2026-03-27T14:43:21.705Z</time></trkpt><trkpt lat="43.2167069" lon="11.3443945"><ele>261.0</ele><time>2026-03-27T14:43:22.705Z</time></trkpt><trkpt lat="43.2167528" lon="11.344525"><ele>260.0</ele><time>2026-03-27T14:43:23.706Z</time></trkpt><trkpt lat="43.2168005" lon="11.3446524"><ele>259.0</ele><time>2026-03-27T14:43:24.705Z</time></trkpt><trkpt lat="43.2168479" lon="11.3447833"><ele>258.0</ele><time>2026-03-27T14:43:25.705Z</time></trkpt><trkpt lat="43.216901" lon="11.3449117"><ele>258.0</ele><time>2026-03-27T14:43:26.705Z</time></trkpt><trkpt lat="43.2169678" lon="11.3450273"><ele>258.0</ele><time>2026-03-27T14:43:27.705Z</time></trkpt><trkpt lat="43.2170397" lon="11.3451368"><ele>258.0</ele><time>2026-03-27T14:43:28.705Z</time></trkpt><trkpt lat="43.2171118" lon="11.3452241"><ele>258.0</ele><time>2026-03-27T14:43:29.705Z</time></trkpt><trkpt lat="43.217201" lon="11.3452996"><ele>258.0</ele><time>2026-03-27T14:43:30.705Z</time></trkpt><trkpt lat="43.2172869" lon="11.3453696"><ele>257.0</ele><time>2026-03-27T14:43:31.706Z</time></trkpt><trkpt lat="43.2173767" lon="11.3454335"><ele>256.0</ele><time>2026-03-27T14:43:32.705Z</time></trkpt><trkpt lat="43.2174633" lon="11.3455045"><ele>255.0</ele><time>2026-03-27T14:43:33.706Z</time></trkpt><trkpt lat="43.217544" lon="11.3455661"><ele>254.0</ele><time>2026-03-27T14:43:34.706Z</time></trkpt><trkpt lat="43.2176225" lon="11.3456326"><ele>253.0</ele><time>2026-03-27T14:43:35.705Z</time></trkpt><trkpt lat="43.2176913" lon="11.3456958"><ele>252.99999999999997</ele><time>2026-03-27T14:43:36.705Z</time></trkpt><trkpt lat="43.217771" lon="11.3457466"><ele>253.0</ele><time>2026-03-27T14:43:37.705Z</time></trkpt><trkpt lat="43.2178478" lon="11.3458016"><ele>253.0</ele><time>2026-03-27T14:43:38.705Z</time></trkpt><trkpt lat="43.2179273" lon="11.3458545"><ele>253.0</ele><time>2026-03-27T14:43:39.705Z</time></trkpt><trkpt lat="43.2180019" lon="11.3459056"><ele>252.99999999999997</ele><time>2026-03-27T14:43:40.705Z</time></trkpt><trkpt lat="43.2180798" lon="11.3459666"><ele>253.0</ele><time>2026-03-27T14:43:41.706Z</time></trkpt><trkpt lat="43.2181503" lon="11.346016"><ele>253.0</ele><time>2026-03-27T14:43:42.706Z</time></trkpt><trkpt lat="43.2182262" lon="11.3460685"><ele>253.0</ele><time>2026-03-27T14:43:43.705Z</time></trkpt><trkpt lat="43.2183011" lon="11.3461298"><ele>253.0</ele><time>2026-03-27T14:43:44.705Z</time></trkpt><trkpt lat="43.2183822" lon="11.3461887"><ele>253.0</ele><time>2026-03-27T14:43:45.705Z</time></trkpt><trkpt lat="43.2184714" lon="11.3462466"><ele>253.0</ele><time>2026-03-27T14:43:46.706Z</time></trkpt><trkpt lat="43.2185573" lon="11.3463134"><ele>253.0</ele><time>2026-03-27T14:43:47.705Z</time></trkpt><trkpt lat="43.2186393" lon="11.3463701"><ele>253.0</ele><time>2026-03-27T14:43:48.706Z</time></trkpt><trkpt lat="43.2187201" lon="11.3464439"><ele>253.0</ele><time>2026-03-27T14:43:49.706Z</time></trkpt><trkpt lat="43.2187977" lon="11.346538"><ele>253.0</ele><time>2026-03-27T14:43:50.705Z</time></trkpt><trkpt lat="43.2188744" lon="11.3466371"><ele>253.0</ele><time>2026-03-27T14:43:51.706Z</time></trkpt><trkpt lat="43.218924" lon="11.3467531"><ele>253.0</ele><time>2026-03-27T14:43:52.705Z</time></trkpt><trkpt lat="43.2189602" lon="11.3468764"><ele>253.0</ele><time>2026-03-27T14:43:53.706Z</time></trkpt><trkpt lat="43.2189927" lon="11.3470108"><ele>253.0</ele><time>2026-03-27T14:43:54.705Z</time></trkpt><trkpt lat="43.2190181" lon="11.3471507"><ele>253.0</ele><time>2026-03-27T14:43:55.705Z</time></trkpt><trkpt lat="43.2190508" lon="11.3472924"><ele>253.0</ele><time>2026-03-27T14:43:56.705Z</time></trkpt><trkpt lat="43.2190956" lon="11.3474335"><ele>249.5</ele><time>2026-03-27T14:43:57.705Z</time></trkpt><trkpt lat="43.2191439" lon="11.347576"><ele>246.0</ele><time>2026-03-27T14:43:58.705Z</time></trkpt><trkpt lat="43.2191943" lon="11.3477182"><ele>242.5</ele><time>2026-03-27T14:43:59.705Z</time></trkpt><trkpt lat="43.2192608" lon="11.3478764"><ele>239.0</ele><time>2026-03-27T14:44:00.705Z</time></trkpt><trkpt lat="43.2193122" lon="11.3480263"><ele>237.25</ele><time>2026-03-27T14:44:01.705Z</time></trkpt><trkpt lat="43.2193822" lon="11.3481679"><ele>235.5</ele><time>2026-03-27T14:44:02.705Z</time></trkpt><trkpt lat="43.2194515" lon="11.3483088"><ele>233.75</ele><time>2026-03-27T14:44:03.705Z</time></trkpt><trkpt lat="43.2195198" lon="11.3484409"><ele>232.0</ele><time>2026-03-27T14:44:04.706Z</time></trkpt><trkpt lat="43.2195909" lon="11.3485639"><ele>232.0</ele><time>2026-03-27T14:44:05.706Z</time></trkpt><trkpt lat="43.2196381" lon="11.3486875"><ele>232.0</ele><time>2026-03-27T14:44:06.705Z</time></trkpt><trkpt lat="43.2196689" lon="11.348807"><ele>232.0</ele><time>2026-03-27T14:44:07.706Z</time></trkpt><trkpt lat="43.2196733" lon="11.3489361"><ele>232.0</ele><time>2026-03-27T14:44:08.705Z</time></trkpt><trkpt lat="43.2196485" lon="11.3490485"><ele>232.0</ele><time>2026-03-27T14:44:09.706Z</time></trkpt><trkpt lat="43.2195792" lon="11.3491504"><ele>230.6</ele><time>2026-03-27T14:44:10.705Z</time></trkpt><trkpt lat="43.2195097" lon="11.349244"><ele>229.2</ele><time>2026-03-27T14:44:11.706Z</time></trkpt><trkpt lat="43.2194286" lon="11.3493403"><ele>227.8</ele><time>2026-03-27T14:44:12.705Z</time></trkpt><trkpt lat="43.2193496" lon="11.3494451"><ele>226.4</ele><time>2026-03-27T14:44:13.706Z</time></trkpt><trkpt lat="43.2192685" lon="11.3495457"><ele>225.0</ele><time>2026-03-27T14:44:14.705Z</time></trkpt><trkpt lat="43.2191828" lon="11.3496559"><ele>223.75</ele><time>2026-03-27T14:44:15.705Z</time></trkpt><trkpt lat="43.2190973" lon="11.3497599"><ele>222.5</ele><time>2026-03-27T14:44:16.706Z</time></trkpt><trkpt lat="43.2190117" lon="11.3498815"><ele>221.25</ele><time>2026-03-27T14:44:17.706Z</time></trkpt><trkpt lat="43.2189213" lon="11.35001"><ele>220.0</ele><time>2026-03-27T14:44:18.705Z</time></trkpt><trkpt lat="43.2188131" lon="11.3501434"><ele>218.0</ele><time>2026-03-27T14:44:19.705Z</time></trkpt><trkpt lat="43.2187011" lon="11.3502865"><ele>216.0</ele><time>2026-03-27T14:44:20.705Z</time></trkpt><trkpt lat="43.2185878" lon="11.3504339"><ele>214.0</ele><time>2026-03-27T14:44:21.705Z</time></trkpt><trkpt lat="43.2184827" lon="11.3505697"><ele>212.33333333333331</ele><time>2026-03-27T14:44:22.706Z</time></trkpt><trkpt lat="43.2183653" lon="11.3507177"><ele>210.66666666666669</ele><time>2026-03-27T14:44:23.705Z</time></trkpt><trkpt lat="43.2182503" lon="11.3508651"><ele>209.0</ele><time>2026-03-27T14:44:24.705Z</time></trkpt><trkpt lat="43.2181335" lon="11.3510071"><ele>207.33333333333334</ele><time>2026-03-27T14:44:25.706Z</time></trkpt><trkpt lat="43.2180095" lon="11.3511246"><ele>205.66666666666669</ele><time>2026-03-27T14:44:26.706Z</time></trkpt><trkpt lat="43.2178802" lon="11.3512379"><ele>204.0</ele><time>2026-03-27T14:44:27.705Z</time></trkpt><trkpt lat="43.2177543" lon="11.3513404"><ele>204.0</ele><time>2026-03-27T14:44:28.705Z</time></trkpt><trkpt lat="43.2176441" lon="11.3514477"><ele>204.0</ele><time>2026-03-27T14:44:29.706Z</time></trkpt><trkpt lat="43.2175409" lon="11.3515456"><ele>204.0</ele><time>2026-03-27T14:44:30.705Z</time></trkpt><trkpt lat="43.217454" lon="11.3516565"><ele>204.0</ele><time>2026-03-27T14:44:31.706Z</time></trkpt><trkpt lat="43.2174072" lon="11.351776"><ele>204.0</ele><time>2026-03-27T14:44:32.705Z</time></trkpt><trkpt lat="43.2173637" lon="11.351901"><ele>204.0</ele><time>2026-03-27T14:44:33.705Z</time></trkpt><trkpt lat="43.2173493" lon="11.3520198"><ele>204.0</ele><time>2026-03-27T14:44:34.705Z</time></trkpt><trkpt lat="43.2173344" lon="11.3521383"><ele>204.0</ele><time>2026-03-27T14:44:35.706Z</time></trkpt><trkpt lat="43.217331" lon="11.3522342"><ele>204.0</ele><time>2026-03-27T14:44:36.706Z</time></trkpt><trkpt lat="43.2173303" lon="11.3523455"><ele>204.0</ele><time>2026-03-27T14:44:37.705Z</time></trkpt><trkpt lat="43.217356" lon="11.3524991"><ele>204.5</ele><time>2026-03-27T14:44:39.705Z</time></trkpt><trkpt lat="43.2173865" lon="11.352624"><ele>205.0</ele><time>2026-03-27T14:44:41.705Z</time></trkpt><trkpt lat="43.2174053" lon="11.3527273"><ele>205.5</ele><time>2026-03-27T14:44:43.705Z</time></trkpt><trkpt lat="43.2174238" lon="11.3528301"><ele>206.0</ele><time>2026-03-27T14:44:46.706Z</time></trkpt><trkpt lat="43.2174318" lon="11.3529326"><ele>206.5</ele><time>2026-03-27T14:44:50.705Z</time></trkpt><trkpt lat="43.2174118" lon="11.3530313"><ele>207.0</ele><time>2026-03-27T14:44:54.705Z</time></trkpt><trkpt lat="43.217419" lon="11.353124"><ele>207.85714285714286</ele><time>2026-03-27T14:44:57.706Z</time></trkpt><trkpt lat="43.2173959" lon="11.3532276"><ele>208.71428571428572</ele><time>2026-03-27T14:45:01.705Z</time></trkpt><trkpt lat="43.217358" lon="11.3533132"><ele>209.57142857142856</ele><time>2026-03-27T14:45:04.705Z</time></trkpt><trkpt lat="43.2173176" lon="11.3533935"><ele>210.42857142857144</ele><time>2026-03-27T14:45:07.705Z</time></trkpt><trkpt lat="43.2172733" lon="11.3534713"><ele>211.28571428571428</ele><time>2026-03-27T14:45:10.706Z</time></trkpt><trkpt lat="43.2172358" lon="11.3535528"><ele>212.14285714285714</ele><time>2026-03-27T14:45:13.705Z</time></trkpt><trkpt lat="43.2171979" lon="11.3536358"><ele>213.0</ele><time>2026-03-27T14:45:16.706Z</time></trkpt><trkpt lat="43.217169" lon="11.3537147"><ele>213.0</ele><time>2026-03-27T14:45:19.705Z</time></trkpt><trkpt lat="43.217125" lon="11.3537835"><ele>213.0</ele><time>2026-03-27T14:45:22.705Z</time></trkpt><trkpt lat="43.2170799" lon="11.3538685"><ele>213.0</ele><time>2026-03-27T14:45:26.705Z</time></trkpt><trkpt lat="43.2170452" lon="11.353972"><ele>213.0</ele><time>2026-03-27T14:45:30.705Z</time></trkpt><trkpt lat="43.2170025" lon="11.3540569"><ele>213.0</ele><time>2026-03-27T14:45:34.705Z</time></trkpt><trkpt lat="43.2169582" lon="11.3541437"><ele>213.0</ele><time>2026-03-27T14:45:38.705Z</time></trkpt><trkpt lat="43.216915" lon="11.3542313"><ele>214.57142857142856</ele><time>2026-03-27T14:45:42.706Z</time></trkpt><trkpt lat="43.2168754" lon="11.3543281"><ele>216.14285714285714</ele><time>2026-03-27T14:45:46.705Z</time></trkpt><trkpt lat="43.2168378" lon="11.3544181"><ele>217.71428571428572</ele><time>2026-03-27T14:45:50.705Z</time></trkpt><trkpt lat="43.216791" lon="11.3544967"><ele>219.28571428571428</ele><time>2026-03-27T14:45:54.705Z</time></trkpt><trkpt lat="43.21676" lon="11.3545764"><ele>220.85714285714286</ele><time>2026-03-27T14:45:57.705Z</time></trkpt><trkpt lat="43.2167228" lon="11.3546804"><ele>222.42857142857142</ele><time>2026-03-27T14:46:01.706Z</time></trkpt><trkpt lat="43.2166949" lon="11.3547601"><ele>224.0</ele><time>2026-03-27T14:46:04.705Z</time></trkpt><trkpt lat="43.2166571" lon="11.3548387"><ele>224.85714285714286</ele><time>2026-03-27T14:46:07.706Z</time></trkpt><trkpt lat="43.2166218" lon="11.3549205"><ele>225.71428571428572</ele><time>2026-03-27T14:46:10.705Z</time></trkpt><trkpt lat="43.2165852" lon="11.3549981"><ele>226.57142857142856</ele><time>2026-03-27T14:46:13.705Z</time></trkpt><trkpt lat="43.2165348" lon="11.3550645"><ele>227.42857142857142</ele><time>2026-03-27T14:46:16.705Z</time></trkpt><trkpt lat="43.2164852" lon="11.3551376"><ele>228.28571428571428</ele><time>2026-03-27T14:46:19.705Z</time></trkpt><trkpt lat="43.2164257" lon="11.3551846"><ele>229.1428571428571</ele><time>2026-03-27T14:46:22.705Z</time></trkpt><trkpt lat="43.2163476" lon="11.3552228"><ele>229.99999999999997</ele><time>2026-03-27T14:46:25.705Z</time></trkpt><trkpt lat="43.2162671" lon="11.355235"><ele>230.00000000000003</ele><time>2026-03-27T14:46:28.706Z</time></trkpt><trkpt lat="43.2161814" lon="11.3552459"><ele>230.0</ele><time>2026-03-27T14:46:31.706Z</time></trkpt><trkpt lat="43.2160961" lon="11.3552663"><ele>230.0</ele><time>2026-03-27T14:46:34.706Z</time></trkpt><trkpt lat="43.2160129" lon="11.3552684"><ele>230.0</ele><time>2026-03-27T14:46:37.706Z</time></trkpt><trkpt lat="43.2159309" lon="11.3552749"><ele>230.00000000000003</ele><time>2026-03-27T14:46:40.706Z</time></trkpt><trkpt lat="43.2158429" lon="11.3552804"><ele>230.0</ele><time>2026-03-27T14:46:43.705Z</time></trkpt><trkpt lat="43.2157776" lon="11.3552857"><ele>229.99999999999997</ele><time>2026-03-27T14:46:45.705Z</time></trkpt><trkpt lat="43.2157133" lon="11.3552898"><ele>230.0</ele><time>2026-03-27T14:46:47.705Z</time></trkpt><trkpt lat="43.2156191" lon="11.3552893"><ele>229.99999999999997</ele><time>2026-03-27T14:46:50.705Z</time></trkpt><trkpt lat="43.2155546" lon="11.3552839"><ele>229.99999999999997</ele><time>2026-03-27T14:46:52.706Z</time></trkpt><trkpt lat="43.2154902" lon="11.3552926"><ele>230.0</ele><time>2026-03-27T14:46:54.705Z</time></trkpt><trkpt lat="43.2154159" lon="11.3552995"><ele>229.99999999999997</ele><time>2026-03-27T14:46:56.706Z</time></trkpt><trkpt lat="43.2153401" lon="11.355298"><ele>229.99999999999997</ele><time>2026-03-27T14:46:58.706Z</time></trkpt><trkpt lat="43.2152637" lon="11.3553067"><ele>230.50000000000003</ele><time>2026-03-27T14:47:00.705Z</time></trkpt><trkpt lat="43.2151879" lon="11.3553137"><ele>231.0</ele><time>2026-03-27T14:47:02.705Z</time></trkpt><trkpt lat="43.2151159" lon="11.3553257"><ele>231.5</ele><time>2026-03-27T14:47:04.706Z</time></trkpt><trkpt lat="43.2150407" lon="11.3553378"><ele>232.0</ele><time>2026-03-27T14:47:06.705Z</time></trkpt><trkpt lat="43.2149678" lon="11.3553484"><ele>232.50000000000003</ele><time>2026-03-27T14:47:08.705Z</time></trkpt><trkpt lat="43.2148776" lon="11.3553598"><ele>233.0</ele><time>2026-03-27T14:47:10.706Z</time></trkpt><trkpt lat="43.21477" lon="11.3553936"><ele>234.0</ele><time>2026-03-27T14:47:12.706Z</time></trkpt><trkpt lat="43.2146784" lon="11.3553989"><ele>235.0</ele><time>2026-03-27T14:47:14.706Z</time></trkpt><trkpt lat="43.2145723" lon="11.3554292"><ele>236.0</ele><time>2026-03-27T14:47:16.705Z</time></trkpt><trkpt lat="43.2144721" lon="11.3554435"><ele>237.0</ele><time>2026-03-27T14:47:18.706Z</time></trkpt><trkpt lat="43.2143634" lon="11.3554557"><ele>238.0</ele><time>2026-03-27T14:47:20.706Z</time></trkpt><trkpt lat="43.2142583" lon="11.355488"><ele>238.0</ele><time>2026-03-27T14:47:22.706Z</time></trkpt><trkpt lat="43.2141613" lon="11.3555347"><ele>238.0</ele><time>2026-03-27T14:47:24.705Z</time></trkpt><trkpt lat="43.2140722" lon="11.3555889"><ele>238.0</ele><time>2026-03-27T14:47:26.706Z</time></trkpt><trkpt lat="43.2139889" lon="11.3556358"><ele>238.0</ele><time>2026-03-27T14:47:28.705Z</time></trkpt><trkpt lat="43.2139162" lon="11.3556992"><ele>238.0</ele><time>2026-03-27T14:47:30.705Z</time></trkpt><trkpt lat="43.2138477" lon="11.355752"><ele>240.66666666666666</ele><time>2026-03-27T14:47:32.705Z</time></trkpt><trkpt lat="43.213776" lon="11.3558158"><ele>243.33333333333331</ele><time>2026-03-27T14:47:34.706Z</time></trkpt><trkpt lat="43.213709" lon="11.3558863"><ele>246.0</ele><time>2026-03-27T14:47:36.705Z</time></trkpt><trkpt lat="43.2136407" lon="11.3559701"><ele>248.66666666666669</ele><time>2026-03-27T14:47:38.705Z</time></trkpt><trkpt lat="43.2135717" lon="11.3560479"><ele>251.33333333333334</ele><time>2026-03-27T14:47:40.705Z</time></trkpt><trkpt lat="43.2134998" lon="11.3561399"><ele>254.0</ele><time>2026-03-27T14:47:42.705Z</time></trkpt><trkpt lat="43.2134449" lon="11.3562173"><ele>254.00000000000003</ele><time>2026-03-27T14:47:44.706Z</time></trkpt><trkpt lat="43.2133925" lon="11.3562981"><ele>254.0</ele><time>2026-03-27T14:47:46.706Z</time></trkpt><trkpt lat="43.213345" lon="11.3563959"><ele>254.0</ele><time>2026-03-27T14:47:48.706Z</time></trkpt><trkpt lat="43.2133006" lon="11.3564969"><ele>254.0</ele><time>2026-03-27T14:47:50.705Z</time></trkpt><trkpt lat="43.2132643" lon="11.3566063"><ele>254.00000000000003</ele><time>2026-03-27T14:47:52.705Z</time></trkpt><trkpt lat="43.2132403" lon="11.3567182"><ele>254.0</ele><time>2026-03-27T14:47:54.705Z</time></trkpt><trkpt lat="43.2132278" lon="11.3568297"><ele>253.16666666666669</ele><time>2026-03-27T14:47:56.705Z</time></trkpt><trkpt lat="43.2132326" lon="11.3569441"><ele>252.33333333333334</ele><time>2026-03-27T14:47:58.706Z</time></trkpt><trkpt lat="43.2132349" lon="11.3570553"><ele>251.5</ele><time>2026-03-27T14:48:00.705Z</time></trkpt><trkpt lat="43.2132445" lon="11.3571663"><ele>250.66666666666669</ele><time>2026-03-27T14:48:02.705Z</time></trkpt><trkpt lat="43.2132521" lon="11.3572859"><ele>249.83333333333334</ele><time>2026-03-27T14:48:04.706Z</time></trkpt><trkpt lat="43.2132714" lon="11.3574125"><ele>249.0</ele><time>2026-03-27T14:48:06.705Z</time></trkpt><trkpt lat="43.2132853" lon="11.3575485"><ele>248.25</ele><time>2026-03-27T14:48:08.705Z</time></trkpt><trkpt lat="43.2133062" lon="11.3576989"><ele>247.5</ele><time>2026-03-27T14:48:10.705Z</time></trkpt><trkpt lat="43.2133298" lon="11.3578441"><ele>246.75</ele><time>2026-03-27T14:48:12.705Z</time></trkpt><trkpt lat="43.213358" lon="11.3579973"><ele>246.0</ele><time>2026-03-27T14:48:14.705Z</time></trkpt><trkpt lat="43.2133854" lon="11.3581497"><ele>245.4</ele><time>2026-03-27T14:48:16.705Z</time></trkpt><trkpt lat="43.2134141" lon="11.3582981"><ele>244.8</ele><time>2026-03-27T14:48:18.706Z</time></trkpt><trkpt lat="43.2134513" lon="11.358451"><ele>244.20000000000002</ele><time>2026-03-27T14:48:20.705Z</time></trkpt><trkpt lat="43.2134703" lon="11.3585346"><ele>243.60000000000002</ele><time>2026-03-27T14:48:21.705Z</time></trkpt><trkpt lat="43.2135119" lon="11.358681"><ele>243.0</ele><time>2026-03-27T14:48:23.705Z</time></trkpt><trkpt lat="43.2135681" lon="11.3588174"><ele>242.25</ele><time>2026-03-27T14:48:25.705Z</time></trkpt><trkpt lat="43.2136374" lon="11.3589454"><ele>241.5</ele><time>2026-03-27T14:48:27.705Z</time></trkpt><trkpt lat="43.2137218" lon="11.3590551"><ele>240.75</ele><time>2026-03-27T14:48:29.705Z</time></trkpt><trkpt lat="43.2138192" lon="11.3591341"><ele>240.0</ele><time>2026-03-27T14:48:31.706Z</time></trkpt><trkpt lat="43.2139058" lon="11.3592172"><ele>241.25</ele><time>2026-03-27T14:48:33.705Z</time></trkpt><trkpt lat="43.2139993" lon="11.3592974"><ele>242.5</ele><time>2026-03-27T14:48:35.705Z</time></trkpt><trkpt lat="43.2141049" lon="11.3593619"><ele>243.75</ele><time>2026-03-27T14:48:37.706Z</time></trkpt><trkpt lat="43.2141984" lon="11.3594403"><ele>245.0</ele><time>2026-03-27T14:48:39.705Z</time></trkpt><trkpt lat="43.2143074" lon="11.3595015"><ele>245.0</ele><time>2026-03-27T14:48:41.706Z</time></trkpt><trkpt lat="43.2143981" lon="11.3595746"><ele>245.0</ele><time>2026-03-27T14:48:43.705Z</time></trkpt><trkpt lat="43.2144707" lon="11.3596434"><ele>245.0</ele><time>2026-03-27T14:48:45.705Z</time></trkpt><trkpt lat="43.2145521" lon="11.3597025"><ele>245.0</ele><time>2026-03-27T14:48:47.705Z</time></trkpt><trkpt lat="43.2146407" lon="11.3597724"><ele>245.0</ele><time>2026-03-27T14:48:49.705Z</time></trkpt><trkpt lat="43.2147227" lon="11.3598668"><ele>244.8</ele><time>2026-03-27T14:48:51.705Z</time></trkpt><trkpt lat="43.214792" lon="11.3599773"><ele>244.6</ele><time>2026-03-27T14:48:53.705Z</time></trkpt><trkpt lat="43.2148508" lon="11.3601086"><ele>244.39999999999998</ele><time>2026-03-27T14:48:55.706Z</time></trkpt><trkpt lat="43.2148854" lon="11.3602754"><ele>244.2</ele><time>2026-03-27T14:48:57.705Z</time></trkpt><trkpt lat="43.21488" lon="11.3603754"><ele>244.0</ele><time>2026-03-27T14:48:58.705Z</time></trkpt><trkpt lat="43.2148591" lon="11.3604778"><ele>243.66666666666666</ele><time>2026-03-27T14:48:59.705Z</time></trkpt><trkpt lat="43.2148414" lon="11.3605665"><ele>243.33333333333331</ele><time>2026-03-27T14:49:00.705Z</time></trkpt><trkpt lat="43.2148072" lon="11.3606678"><ele>243.0</ele><time>2026-03-27T14:49:01.705Z</time></trkpt><trkpt lat="43.2147716" lon="11.3607603"><ele>242.66666666666669</ele><time>2026-03-27T14:49:02.705Z</time></trkpt><trkpt lat="43.2147272" lon="11.3608533"><ele>242.33333333333334</ele><time>2026-03-27T14:49:03.705Z</time></trkpt><trkpt lat="43.214687" lon="11.3609443"><ele>242.0</ele><time>2026-03-27T14:49:04.705Z</time></trkpt><trkpt lat="43.2146247" lon="11.3610371"><ele>242.0</ele><time>2026-03-27T14:49:05.706Z</time></trkpt><trkpt lat="43.214558" lon="11.3611414"><ele>242.0</ele><time>2026-03-27T14:49:06.706Z</time></trkpt><trkpt lat="43.2144912" lon="11.361238"><ele>242.0</ele><time>2026-03-27T14:49:07.705Z</time></trkpt><trkpt lat="43.2144212" lon="11.3613381"><ele>242.0</ele><time>2026-03-27T14:49:08.706Z</time></trkpt><trkpt lat="43.2143414" lon="11.3614454"><ele>242.0</ele><time>2026-03-27T14:49:09.705Z</time></trkpt><trkpt lat="43.2142582" lon="11.3615594"><ele>240.5</ele><time>2026-03-27T14:49:10.705Z</time></trkpt><trkpt lat="43.21418" lon="11.3616679"><ele>239.0</ele><time>2026-03-27T14:49:11.706Z</time></trkpt><trkpt lat="43.2141005" lon="11.3617802"><ele>237.5</ele><time>2026-03-27T14:49:12.705Z</time></trkpt><trkpt lat="43.2140225" lon="11.3618984"><ele>236.0</ele><time>2026-03-27T14:49:13.706Z</time></trkpt><trkpt lat="43.2139373" lon="11.3620215"><ele>232.75</ele><time>2026-03-27T14:49:14.705Z</time></trkpt><trkpt lat="43.2138566" lon="11.3621457"><ele>229.5</ele><time>2026-03-27T14:49:15.706Z</time></trkpt><trkpt lat="43.2137758" lon="11.3622717"><ele>226.25</ele><time>2026-03-27T14:49:16.706Z</time></trkpt><trkpt lat="43.2136964" lon="11.3624085"><ele>223.0</ele><time>2026-03-27T14:49:17.705Z</time></trkpt><trkpt lat="43.2136231" lon="11.3625683"><ele>223.0</ele><time>2026-03-27T14:49:18.705Z</time></trkpt><trkpt lat="43.2135532" lon="11.3627354"><ele>223.0</ele><time>2026-03-27T14:49:19.705Z</time></trkpt><trkpt lat="43.2134926" lon="11.3629117"><ele>223.0</ele><time>2026-03-27T14:49:20.705Z</time></trkpt><trkpt lat="43.2134297" lon="11.3630911"><ele>223.0</ele><time>2026-03-27T14:49:21.705Z</time></trkpt><trkpt lat="43.2133691" lon="11.3632776"><ele>222.66666666666666</ele><time>2026-03-27T14:49:22.705Z</time></trkpt><trkpt lat="43.2133095" lon="11.3634633"><ele>222.33333333333331</ele><time>2026-03-27T14:49:23.706Z</time></trkpt><trkpt lat="43.2132458" lon="11.3636533"><ele>222.0</ele><time>2026-03-27T14:49:24.706Z</time></trkpt><trkpt lat="43.2131873" lon="11.3638419"><ele>218.25</ele><time>2026-03-27T14:49:25.705Z</time></trkpt><trkpt lat="43.2131299" lon="11.364028"><ele>214.5</ele><time>2026-03-27T14:49:26.706Z</time></trkpt><trkpt lat="43.2130715" lon="11.3642141"><ele>210.75</ele><time>2026-03-27T14:49:27.705Z</time></trkpt><trkpt lat="43.2130099" lon="11.3643954"><ele>207.0</ele><time>2026-03-27T14:49:28.705Z</time></trkpt><trkpt lat="43.2129618" lon="11.3645696"><ele>206.25</ele><time>2026-03-27T14:49:29.706Z</time></trkpt><trkpt lat="43.2129073" lon="11.3647485"><ele>205.5</ele><time>2026-03-27T14:49:30.705Z</time></trkpt><trkpt lat="43.2128684" lon="11.3649204"><ele>204.75</ele><time>2026-03-27T14:49:31.705Z</time></trkpt><trkpt lat="43.2128472" lon="11.3651086"><ele>204.0</ele><time>2026-03-27T14:49:32.706Z</time></trkpt><trkpt lat="43.2128419" lon="11.3652952"><ele>204.0</ele><time>2026-03-27T14:49:33.706Z</time></trkpt><trkpt lat="43.2128543" lon="11.365477"><ele>204.0</ele><time>2026-03-27T14:49:34.705Z</time></trkpt><trkpt lat="43.2128953" lon="11.3656723"><ele>204.0</ele><time>2026-03-27T14:49:35.705Z</time></trkpt><trkpt lat="43.2129551" lon="11.3658576"><ele>204.0</ele><time>2026-03-27T14:49:36.706Z</time></trkpt><trkpt lat="43.213024" lon="11.3660382"><ele>203.0</ele><time>2026-03-27T14:49:37.706Z</time></trkpt><trkpt lat="43.2130988" lon="11.3662031"><ele>202.0</ele><time>2026-03-27T14:49:38.705Z</time></trkpt><trkpt lat="43.2131825" lon="11.3663733"><ele>201.0</ele><time>2026-03-27T14:49:39.705Z</time></trkpt><trkpt lat="43.2132716" lon="11.3665421"><ele>200.0</ele><time>2026-03-27T14:49:40.706Z</time></trkpt><trkpt lat="43.2133623" lon="11.3666972"><ele>199.5</ele><time>2026-03-27T14:49:41.705Z</time></trkpt><trkpt lat="43.2134414" lon="11.3668496"><ele>199.0</ele><time>2026-03-27T14:49:42.706Z</time></trkpt><trkpt lat="43.2135139" lon="11.3670049"><ele>198.5</ele><time>2026-03-27T14:49:43.705Z</time></trkpt><trkpt lat="43.2135769" lon="11.3671534"><ele>198.0</ele><time>2026-03-27T14:49:44.705Z</time></trkpt><trkpt lat="43.2136286" lon="11.3673027"><ele>198.0</ele><time>2026-03-27T14:49:45.705Z</time></trkpt><trkpt lat="43.2136543" lon="11.3674498"><ele>198.0</ele><time>2026-03-27T14:49:46.705Z</time></trkpt><trkpt lat="43.2136659" lon="11.3675985"><ele>198.0</ele><time>2026-03-27T14:49:47.706Z</time></trkpt><trkpt lat="43.2136698" lon="11.3677254"><ele>198.0</ele><time>2026-03-27T14:49:48.706Z</time></trkpt><trkpt lat="43.213672" lon="11.3678511"><ele>198.0</ele><time>2026-03-27T14:49:49.705Z</time></trkpt><trkpt lat="43.2136699" lon="11.3679551"><ele>198.83333333333334</ele><time>2026-03-27T14:49:50.706Z</time></trkpt><trkpt lat="43.2136687" lon="11.3680542"><ele>199.66666666666669</ele><time>2026-03-27T14:49:51.705Z</time></trkpt><trkpt lat="43.2136674" lon="11.3681545"><ele>200.5</ele><time>2026-03-27T14:49:52.705Z</time></trkpt><trkpt lat="43.2136705" lon="11.368245"><ele>201.33333333333334</ele><time>2026-03-27T14:49:53.705Z</time></trkpt><trkpt lat="43.2136588" lon="11.3683864"><ele>202.16666666666669</ele><time>2026-03-27T14:49:55.705Z</time></trkpt><trkpt lat="43.213656" lon="11.3685068"><ele>203.0</ele><time>2026-03-27T14:49:57.706Z</time></trkpt><trkpt lat="43.2136522" lon="11.3685932"><ele>203.0</ele><time>2026-03-27T14:49:59.706Z</time></trkpt><trkpt lat="43.213649" lon="11.3687071"><ele>203.0</ele><time>2026-03-27T14:50:02.705Z</time></trkpt><trkpt lat="43.2136434" lon="11.3688076"><ele>203.0</ele><time>2026-03-27T14:50:05.705Z</time></trkpt><trkpt lat="43.2136321" lon="11.3688976"><ele>203.0</ele><time>2026-03-27T14:50:08.706Z</time></trkpt><trkpt lat="43.2136414" lon="11.3689925"><ele>203.0</ele><time>2026-03-27T14:50:11.706Z</time></trkpt><trkpt lat="43.2136489" lon="11.369097"><ele>203.0</ele><time>2026-03-27T14:50:15.705Z</time></trkpt><trkpt lat="43.2136471" lon="11.3691869"><ele>203.0</ele><time>2026-03-27T14:50:18.706Z</time></trkpt><trkpt lat="43.213649" lon="11.3692838"><ele>203.85714285714286</ele><time>2026-03-27T14:50:21.705Z</time></trkpt><trkpt lat="43.2136487" lon="11.3693754"><ele>204.71428571428572</ele><time>2026-03-27T14:50:24.705Z</time></trkpt><trkpt lat="43.2136512" lon="11.3694785"><ele>205.57142857142856</ele><time>2026-03-27T14:50:28.705Z</time></trkpt><trkpt lat="43.213651" lon="11.3695661"><ele>206.42857142857144</ele><time>2026-03-27T14:50:31.705Z</time></trkpt><trkpt lat="43.2136525" lon="11.3696581"><ele>207.28571428571428</ele><time>2026-03-27T14:50:34.705Z</time></trkpt><trkpt lat="43.2136509" lon="11.369757"><ele>208.14285714285714</ele><time>2026-03-27T14:50:38.705Z</time></trkpt><trkpt lat="43.2136439" lon="11.3698486"><ele>209.0</ele><time>2026-03-27T14:50:42.705Z</time></trkpt><trkpt lat="43.2136467" lon="11.3699492"><ele>210.14285714285714</ele><time>2026-03-27T14:50:46.705Z</time></trkpt><trkpt lat="43.2136448" lon="11.3700418"><ele>211.28571428571428</ele><time>2026-03-27T14:50:49.705Z</time></trkpt><trkpt lat="43.2136481" lon="11.3701296"><ele>212.42857142857144</ele><time>2026-03-27T14:50:52.705Z</time></trkpt><trkpt lat="43.2136486" lon="11.3702163"><ele>213.57142857142856</ele><time>2026-03-27T14:50:55.705Z</time></trkpt><trkpt lat="43.2136544" lon="11.3703277"><ele>214.71428571428572</ele><time>2026-03-27T14:50:59.705Z</time></trkpt><trkpt lat="43.2136442" lon="11.3704386"><ele>215.85714285714286</ele><time>2026-03-27T14:51:03.706Z</time></trkpt><trkpt lat="43.2136446" lon="11.3705517"><ele>217.0</ele><time>2026-03-27T14:51:07.705Z</time></trkpt><trkpt lat="43.2136456" lon="11.3706575"><ele>217.71428571428572</ele><time>2026-03-27T14:51:11.705Z</time></trkpt><trkpt lat="43.2136512" lon="11.3707638"><ele>218.42857142857144</ele><time>2026-03-27T14:51:15.705Z</time></trkpt><trkpt lat="43.2136563" lon="11.3708713"><ele>219.14285714285714</ele><time>2026-03-27T14:51:19.705Z</time></trkpt><trkpt lat="43.2136482" lon="11.3709588"><ele>219.85714285714286</ele><time>2026-03-27T14:51:22.706Z</time></trkpt><trkpt lat="43.213634" lon="11.3710436"><ele>220.57142857142858</ele><time>2026-03-27T14:51:25.706Z</time></trkpt><trkpt lat="43.2136437" lon="11.3711457"><ele>221.28571428571428</ele><time>2026-03-27T14:51:29.706Z</time></trkpt><trkpt lat="43.2136661" lon="11.3712389"><ele>222.0</ele><time>2026-03-27T14:51:34.706Z</time></trkpt><trkpt lat="43.2136824" lon="11.371325"><ele>222.0</ele><time>2026-03-27T14:51:39.705Z</time></trkpt><trkpt lat="43.213749" lon="11.3713085"><ele>222.0</ele><time>2026-03-27T14:51:46.706Z</time></trkpt><trkpt lat="43.2138146" lon="11.3712893"><ele>222.0</ele><time>2026-03-27T14:51:49.705Z</time></trkpt><trkpt lat="43.2138697" lon="11.3712353"><ele>222.0</ele><time>2026-03-27T14:51:52.706Z</time></trkpt><trkpt lat="43.2139378" lon="11.3711918"><ele>222.0</ele><time>2026-03-27T14:51:56.705Z</time></trkpt><trkpt lat="43.2139979" lon="11.3711612"><ele>222.0</ele><time>2026-03-27T14:51:59.705Z</time></trkpt><trkpt lat="43.2140741" lon="11.3711224"><ele>222.0</ele><time>2026-03-27T14:52:03.706Z</time></trkpt><trkpt lat="43.2141364" lon="11.3711021"><ele>222.85714285714283</ele><time>2026-03-27T14:52:06.706Z</time></trkpt><trkpt lat="43.2142094" lon="11.3710725"><ele>223.71428571428572</ele><time>2026-03-27T14:52:10.705Z</time></trkpt><trkpt lat="43.2142759" lon="11.3710312"><ele>224.57142857142856</ele><time>2026-03-27T14:52:14.705Z</time></trkpt><trkpt lat="43.2143331" lon="11.370977"><ele>225.42857142857142</ele><time>2026-03-27T14:52:18.705Z</time></trkpt><trkpt lat="43.2144037" lon="11.3709417"><ele>226.28571428571428</ele><time>2026-03-27T14:52:22.705Z</time></trkpt><trkpt lat="43.2144701" lon="11.3708987"><ele>227.14285714285714</ele><time>2026-03-27T14:52:26.705Z</time></trkpt><trkpt lat="43.2145406" lon="11.3708556"><ele>228.0</ele><time>2026-03-27T14:52:31.705Z</time></trkpt><trkpt lat="43.2146043" lon="11.370801"><ele>228.0</ele><time>2026-03-27T14:52:36.705Z</time></trkpt><trkpt lat="43.2146679" lon="11.3707768"><ele>227.99999999999997</ele><time>2026-03-27T14:52:40.706Z</time></trkpt><trkpt lat="43.2147391" lon="11.3707705"><ele>228.0</ele><time>2026-03-27T14:52:44.706Z</time></trkpt><trkpt lat="43.2148062" lon="11.3707523"><ele>228.0</ele><time>2026-03-27T14:52:48.705Z</time></trkpt><trkpt lat="43.2148839" lon="11.3707623"><ele>227.99999999999997</ele><time>2026-03-27T14:52:53.706Z</time></trkpt><trkpt lat="43.2149535" lon="11.3707863"><ele>228.0</ele><time>2026-03-27T14:52:58.705Z</time></trkpt><trkpt lat="43.2150311" lon="11.3708027"><ele>228.0</ele><time>2026-03-27T14:53:03.705Z</time></trkpt><trkpt lat="43.215095" lon="11.3708157"><ele>230.0</ele><time>2026-03-27T14:53:07.705Z</time></trkpt><trkpt lat="43.2151751" lon="11.3708396"><ele>232.0</ele><time>2026-03-27T14:53:11.705Z</time></trkpt><trkpt lat="43.2152489" lon="11.3708757"><ele>234.0</ele><time>2026-03-27T14:53:15.705Z</time></trkpt><trkpt lat="43.2153196" lon="11.370895"><ele>236.0</ele><time>2026-03-27T14:53:19.706Z</time></trkpt><trkpt lat="43.2153872" lon="11.3709521"><ele>238.0</ele><time>2026-03-27T14:53:23.705Z</time></trkpt><trkpt lat="43.2154462" lon="11.3710011"><ele>240.0</ele><time>2026-03-27T14:53:27.705Z</time></trkpt><trkpt lat="43.2155108" lon="11.3710449"><ele>240.0</ele><time>2026-03-27T14:53:31.706Z</time></trkpt><trkpt lat="43.215581" lon="11.3710981"><ele>240.0</ele><time>2026-03-27T14:53:35.705Z</time></trkpt><trkpt lat="43.2156316" lon="11.3711539"><ele>240.0</ele><time>2026-03-27T14:53:40.706Z</time></trkpt><trkpt lat="43.2156918" lon="11.3712144"><ele>240.0</ele><time>2026-03-27T14:53:45.705Z</time></trkpt><trkpt lat="43.2157558" lon="11.3712113"><ele>240.0</ele><time>2026-03-27T14:55:00.705Z</time></trkpt><trkpt lat="43.2157791" lon="11.3712996"><ele>240.0</ele><time>2026-03-27T14:56:32.705Z</time></trkpt><trkpt lat="43.2158284" lon="11.3713743"><ele>240.0</ele><time>2026-03-27T14:56:36.705Z</time></trkpt><trkpt lat="43.2158817" lon="11.3714413"><ele>240.66666666666666</ele><time>2026-03-27T14:56:39.706Z</time></trkpt><trkpt lat="43.2159494" lon="11.3714968"><ele>241.33333333333331</ele><time>2026-03-27T14:56:41.705Z</time></trkpt><trkpt lat="43.2160448" lon="11.3715912"><ele>242.0</ele><time>2026-03-27T14:56:43.705Z</time></trkpt><trkpt lat="43.2161067" lon="11.3716253"><ele>242.66666666666666</ele><time>2026-03-27T14:56:44.706Z</time></trkpt><trkpt lat="43.2161742" lon="11.3716609"><ele>243.33333333333331</ele><time>2026-03-27T14:56:45.706Z</time></trkpt><trkpt lat="43.2162395" lon="11.3716979"><ele>244.0</ele><time>2026-03-27T14:56:46.706Z</time></trkpt><trkpt lat="43.2162998" lon="11.3717291"><ele>244.0</ele><time>2026-03-27T14:56:47.705Z</time></trkpt><trkpt lat="43.2164281" lon="11.3717839"><ele>243.99999999999997</ele><time>2026-03-27T14:56:49.705Z</time></trkpt><trkpt lat="43.21649" lon="11.3718192"><ele>243.99999999999997</ele><time>2026-03-27T14:56:50.706Z</time></trkpt><trkpt lat="43.2166201" lon="11.3718708"><ele>244.0</ele><time>2026-03-27T14:56:52.705Z</time></trkpt><trkpt lat="43.2166894" lon="11.3718982"><ele>244.0</ele><time>2026-03-27T14:56:53.705Z</time></trkpt><trkpt lat="43.2167536" lon="11.3719305"><ele>242.99999999999997</ele><time>2026-03-27T14:56:54.706Z</time></trkpt><trkpt lat="43.2168146" lon="11.3719563"><ele>242.0</ele><time>2026-03-27T14:56:55.706Z</time></trkpt><trkpt lat="43.2169149" lon="11.3720099"><ele>241.0</ele><time>2026-03-27T14:56:57.705Z</time></trkpt><trkpt lat="43.2169788" lon="11.372025"><ele>240.0</ele><time>2026-03-27T14:56:58.706Z</time></trkpt><trkpt lat="43.2170898" lon="11.3720808"><ele>238.99999999999997</ele><time>2026-03-27T14:57:00.705Z</time></trkpt><trkpt lat="43.2171507" lon="11.3721047"><ele>238.0</ele><time>2026-03-27T14:57:01.705Z</time></trkpt><trkpt lat="43.2172564" lon="11.3721543"><ele>238.8</ele><time>2026-03-27T14:57:03.705Z</time></trkpt><trkpt lat="43.2173572" lon="11.3722112"><ele>239.60000000000002</ele><time>2026-03-27T14:57:05.706Z</time></trkpt><trkpt lat="43.2174261" lon="11.3722782"><ele>240.39999999999998</ele><time>2026-03-27T14:57:07.706Z</time></trkpt><trkpt lat="43.2174958" lon="11.3723217"><ele>241.2</ele><time>2026-03-27T14:57:09.705Z</time></trkpt><trkpt lat="43.2175875" lon="11.3723872"><ele>242.0</ele><time>2026-03-27T14:57:11.706Z</time></trkpt><trkpt lat="43.2176915" lon="11.3724183"><ele>242.0</ele><time>2026-03-27T14:57:13.705Z</time></trkpt><trkpt lat="43.2177773" lon="11.3724491"><ele>242.0</ele><time>2026-03-27T14:57:15.705Z</time></trkpt><trkpt lat="43.2178801" lon="11.3724833"><ele>242.0</ele><time>2026-03-27T14:57:17.706Z</time></trkpt><trkpt lat="43.2179622" lon="11.3725421"><ele>242.0</ele><time>2026-03-27T14:57:19.705Z</time></trkpt><trkpt lat="43.2180544" lon="11.3725719"><ele>242.0</ele><time>2026-03-27T14:57:21.705Z</time></trkpt><trkpt lat="43.21814" lon="11.3726043"><ele>244.0</ele><time>2026-03-27T14:57:23.705Z</time></trkpt><trkpt lat="43.2182452" lon="11.3726819"><ele>246.0</ele><time>2026-03-27T14:57:27.705Z</time></trkpt><trkpt lat="43.2183509" lon="11.3727334"><ele>248.0</ele><time>2026-03-27T14:57:28.705Z</time></trkpt><trkpt lat="43.2184373" lon="11.3727699"><ele>250.0</ele><time>2026-03-27T14:57:30.705Z</time></trkpt><trkpt lat="43.2185305" lon="11.3727972"><ele>252.0</ele><time>2026-03-27T14:57:32.705Z</time></trkpt><trkpt lat="43.2186288" lon="11.3728195"><ele>252.0</ele><time>2026-03-27T14:57:34.706Z</time></trkpt><trkpt lat="43.2187147" lon="11.3728752"><ele>252.0</ele><time>2026-03-27T14:57:36.705Z</time></trkpt><trkpt lat="43.2187978" lon="11.3729162"><ele>252.0</ele><time>2026-03-27T14:57:38.705Z</time></trkpt><trkpt lat="43.2188771" lon="11.3729681"><ele>252.0</ele><time>2026-03-27T14:57:40.705Z</time></trkpt><trkpt lat="43.2189563" lon="11.372998"><ele>252.0</ele><time>2026-03-27T14:57:42.705Z</time></trkpt><trkpt lat="43.2190215" lon="11.373031"><ele>252.0</ele><time>2026-03-27T14:57:44.705Z</time></trkpt><trkpt lat="43.2191155" lon="11.3730596"><ele>250.66666666666666</ele><time>2026-03-27T14:57:46.705Z</time></trkpt><trkpt lat="43.2192409" lon="11.3730701"><ele>249.33333333333331</ele><time>2026-03-27T14:57:48.705Z</time></trkpt><trkpt lat="43.2193089" lon="11.3730871"><ele>248.0</ele><time>2026-03-27T14:57:49.705Z</time></trkpt><trkpt lat="43.2193851" lon="11.3730904"><ele>246.66666666666666</ele><time>2026-03-27T14:57:50.706Z</time></trkpt><trkpt lat="43.2194732" lon="11.3730974"><ele>245.33333333333331</ele><time>2026-03-27T14:57:51.706Z</time></trkpt><trkpt lat="43.2195578" lon="11.3730884"><ele>244.0</ele><time>2026-03-27T14:57:52.706Z</time></trkpt><trkpt lat="43.2196646" lon="11.3730715"><ele>244.0</ele><time>2026-03-27T14:57:53.706Z</time></trkpt><trkpt lat="43.2197516" lon="11.3730701"><ele>243.99999999999997</ele><time>2026-03-27T14:57:54.706Z</time></trkpt><trkpt lat="43.2198402" lon="11.3730485"><ele>243.99999999999997</ele><time>2026-03-27T14:57:55.705Z</time></trkpt><trkpt lat="43.2199305" lon="11.3730215"><ele>244.0</ele><time>2026-03-27T14:57:56.705Z</time></trkpt><trkpt lat="43.2200244" lon="11.3729992"><ele>244.0</ele><time>2026-03-27T14:57:57.706Z</time></trkpt><trkpt lat="43.2201394" lon="11.3729952"><ele>241.75</ele><time>2026-03-27T14:57:58.705Z</time></trkpt><trkpt lat="43.2202645" lon="11.3729599"><ele>239.5</ele><time>2026-03-27T14:57:59.705Z</time></trkpt><trkpt lat="43.2203741" lon="11.3729364"><ele>237.25</ele><time>2026-03-27T14:58:00.705Z</time></trkpt><trkpt lat="43.2204803" lon="11.3729231"><ele>235.0</ele><time>2026-03-27T14:58:01.705Z</time></trkpt><trkpt lat="43.2205974" lon="11.3729032"><ele>233.0</ele><time>2026-03-27T14:58:02.705Z</time></trkpt><trkpt lat="43.2207055" lon="11.3728747"><ele>231.0</ele><time>2026-03-27T14:58:03.705Z</time></trkpt><trkpt lat="43.2208168" lon="11.3728464"><ele>229.0</ele><time>2026-03-27T14:58:04.705Z</time></trkpt><trkpt lat="43.2209277" lon="11.3728211"><ele>227.0</ele><time>2026-03-27T14:58:05.705Z</time></trkpt><trkpt lat="43.2210446" lon="11.3728101"><ele>227.0</ele><time>2026-03-27T14:58:06.705Z</time></trkpt><trkpt lat="43.2211557" lon="11.3727844"><ele>227.0</ele><time>2026-03-27T14:58:07.705Z</time></trkpt><trkpt lat="43.2212602" lon="11.3727567"><ele>227.0</ele><time>2026-03-27T14:58:08.705Z</time></trkpt><trkpt lat="43.2213548" lon="11.3727333"><ele>227.0</ele><time>2026-03-27T14:58:09.705Z</time></trkpt><trkpt lat="43.2214448" lon="11.3727075"><ele>227.0</ele><time>2026-03-27T14:58:10.705Z</time></trkpt><trkpt lat="43.2215393" lon="11.3726867"><ele>225.8</ele><time>2026-03-27T14:58:11.705Z</time></trkpt><trkpt lat="43.2216346" lon="11.3726609"><ele>224.6</ele><time>2026-03-27T14:58:12.705Z</time></trkpt><trkpt lat="43.2217293" lon="11.3726295"><ele>223.40000000000003</ele><time>2026-03-27T14:58:13.705Z</time></trkpt><trkpt lat="43.2218233" lon="11.3726001"><ele>222.20000000000002</ele><time>2026-03-27T14:58:14.706Z</time></trkpt><trkpt lat="43.2219196" lon="11.3725882"><ele>221.0</ele><time>2026-03-27T14:58:15.705Z</time></trkpt><trkpt lat="43.222005" lon="11.3725357"><ele>221.0</ele><time>2026-03-27T14:58:16.705Z</time></trkpt><trkpt lat="43.2220981" lon="11.3724926"><ele>221.00000000000003</ele><time>2026-03-27T14:58:17.705Z</time></trkpt><trkpt lat="43.2221928" lon="11.3724382"><ele>221.00000000000003</ele><time>2026-03-27T14:58:18.705Z</time></trkpt><trkpt lat="43.2222798" lon="11.3723459"><ele>221.0</ele><time>2026-03-27T14:58:19.705Z</time></trkpt><trkpt lat="43.222362" lon="11.3722539"><ele>221.0</ele><time>2026-03-27T14:58:20.705Z</time></trkpt><trkpt lat="43.2224477" lon="11.3721605"><ele>218.4</ele><time>2026-03-27T14:58:21.706Z</time></trkpt><trkpt lat="43.2225175" lon="11.3720568"><ele>215.8</ele><time>2026-03-27T14:58:22.706Z</time></trkpt><trkpt lat="43.2225859" lon="11.371948"><ele>213.20000000000002</ele><time>2026-03-27T14:58:23.705Z</time></trkpt><trkpt lat="43.2226535" lon="11.371836"><ele>210.60000000000002</ele><time>2026-03-27T14:58:24.705Z</time></trkpt><trkpt lat="43.2227165" lon="11.3717285"><ele>208.0</ele><time>2026-03-27T14:58:25.706Z</time></trkpt><trkpt lat="43.2227815" lon="11.3716176"><ele>208.0</ele><time>2026-03-27T14:58:26.706Z</time></trkpt><trkpt lat="43.2228475" lon="11.3715041"><ele>208.0</ele><time>2026-03-27T14:58:27.706Z</time></trkpt><trkpt lat="43.2229102" lon="11.3714021"><ele>208.0</ele><time>2026-03-27T14:58:28.706Z</time></trkpt><trkpt lat="43.2229791" lon="11.3713045"><ele>208.0</ele><time>2026-03-27T14:58:29.705Z</time></trkpt><trkpt lat="43.2230519" lon="11.3712627"><ele>208.0</ele><time>2026-03-27T14:58:30.705Z</time></trkpt><trkpt lat="43.22313" lon="11.3712106"><ele>207.66666666666666</ele><time>2026-03-27T14:58:31.705Z</time></trkpt><trkpt lat="43.2232151" lon="11.3712125"><ele>207.33333333333331</ele><time>2026-03-27T14:58:32.705Z</time></trkpt><trkpt lat="43.2233107" lon="11.3711913"><ele>207.0</ele><time>2026-03-27T14:58:33.706Z</time></trkpt><trkpt lat="43.2233931" lon="11.3712453"><ele>206.66666666666669</ele><time>2026-03-27T14:58:34.705Z</time></trkpt><trkpt lat="43.223465" lon="11.3713186"><ele>206.33333333333334</ele><time>2026-03-27T14:58:35.705Z</time></trkpt><trkpt lat="43.2235089" lon="11.3714165"><ele>206.0</ele><time>2026-03-27T14:58:36.705Z</time></trkpt><trkpt lat="43.2235688" lon="11.3715211"><ele>206.0</ele><time>2026-03-27T14:58:37.705Z</time></trkpt><trkpt lat="43.2236176" lon="11.3716258"><ele>206.0</ele><time>2026-03-27T14:58:38.706Z</time></trkpt><trkpt lat="43.223642" lon="11.3717438"><ele>206.0</ele><time>2026-03-27T14:58:39.705Z</time></trkpt><trkpt lat="43.2236581" lon="11.3718795"><ele>206.0</ele><time>2026-03-27T14:58:40.705Z</time></trkpt><trkpt lat="43.2236633" lon="11.3720049"><ele>206.0</ele><time>2026-03-27T14:58:41.705Z</time></trkpt><trkpt lat="43.2236573" lon="11.3721294"><ele>206.0</ele><time>2026-03-27T14:58:42.706Z</time></trkpt><trkpt lat="43.2236459" lon="11.3722669"><ele>206.0</ele><time>2026-03-27T14:58:43.706Z</time></trkpt><trkpt lat="43.2236118" lon="11.3724044"><ele>206.0</ele><time>2026-03-27T14:58:44.705Z</time></trkpt><trkpt lat="43.2235971" lon="11.3725263"><ele>206.0</ele><time>2026-03-27T14:58:45.705Z</time></trkpt><trkpt lat="43.2235822" lon="11.3726423"><ele>206.0</ele><time>2026-03-27T14:58:46.706Z</time></trkpt><trkpt lat="43.2235961" lon="11.3727548"><ele>206.00000000000003</ele><time>2026-03-27T14:58:47.705Z</time></trkpt><trkpt lat="43.2236166" lon="11.3728617"><ele>206.0</ele><time>2026-03-27T14:58:48.705Z</time></trkpt><trkpt lat="43.2236428" lon="11.3729823"><ele>206.0</ele><time>2026-03-27T14:58:49.706Z</time></trkpt><trkpt lat="43.2236692" lon="11.3730674"><ele>206.0</ele><time>2026-03-27T14:58:50.705Z</time></trkpt><trkpt lat="43.2237015" lon="11.3731581"><ele>206.00000000000003</ele><time>2026-03-27T14:58:51.705Z</time></trkpt><trkpt lat="43.2237824" lon="11.3732436"><ele>206.0</ele><time>2026-03-27T14:58:52.706Z</time></trkpt><trkpt lat="43.2238551" lon="11.3733331"><ele>206.0</ele><time>2026-03-27T14:58:53.705Z</time></trkpt><trkpt lat="43.2239476" lon="11.3734028"><ele>206.0</ele><time>2026-03-27T14:58:54.705Z</time></trkpt><trkpt lat="43.2240215" lon="11.3734641"><ele>206.0</ele><time>2026-03-27T14:58:55.706Z</time></trkpt><trkpt lat="43.2241017" lon="11.3735067"><ele>206.0</ele><time>2026-03-27T14:58:56.705Z</time></trkpt><trkpt lat="43.2241746" lon="11.3735285"><ele>206.0</ele><time>2026-03-27T14:58:57.705Z</time></trkpt><trkpt lat="43.2242746" lon="11.373535"><ele>202.4</ele><time>2026-03-27T14:58:58.705Z</time></trkpt><trkpt lat="43.2243661" lon="11.3735472"><ele>198.8</ele><time>2026-03-27T14:58:59.705Z</time></trkpt><trkpt lat="43.2244598" lon="11.3735424"><ele>195.20000000000002</ele><time>2026-03-27T14:59:00.705Z</time></trkpt><trkpt lat="43.2245595" lon="11.3735158"><ele>191.60000000000002</ele><time>2026-03-27T14:59:01.706Z</time></trkpt><trkpt lat="43.224646" lon="11.3734973"><ele>188.0</ele><time>2026-03-27T14:59:02.705Z</time></trkpt><trkpt lat="43.224736" lon="11.3734507"><ele>186.4</ele><time>2026-03-27T14:59:03.705Z</time></trkpt><trkpt lat="43.2248193" lon="11.3733906"><ele>184.8</ele><time>2026-03-27T14:59:04.705Z</time></trkpt><trkpt lat="43.2248916" lon="11.3732972"><ele>183.2</ele><time>2026-03-27T14:59:05.706Z</time></trkpt><trkpt lat="43.2249616" lon="11.3731892"><ele>181.6</ele><time>2026-03-27T14:59:06.705Z</time></trkpt><trkpt lat="43.225019" lon="11.3730717"><ele>180.0</ele><time>2026-03-27T14:59:07.705Z</time></trkpt><trkpt lat="43.2250752" lon="11.3729458"><ele>180.0</ele><time>2026-03-27T14:59:08.706Z</time></trkpt><trkpt lat="43.2251315" lon="11.3728195"><ele>180.0</ele><time>2026-03-27T14:59:09.705Z</time></trkpt><trkpt lat="43.2251872" lon="11.372697"><ele>180.0</ele><time>2026-03-27T14:59:10.705Z</time></trkpt><trkpt lat="43.2252287" lon="11.3725778"><ele>180.0</ele><time>2026-03-27T14:59:11.705Z</time></trkpt><trkpt lat="43.2252688" lon="11.3724618"><ele>180.0</ele><time>2026-03-27T14:59:12.706Z</time></trkpt><trkpt lat="43.2253255" lon="11.3723478"><ele>180.0</ele><time>2026-03-27T14:59:13.705Z</time></trkpt><trkpt lat="43.2253876" lon="11.3722647"><ele>180.0</ele><time>2026-03-27T14:59:14.706Z</time></trkpt><trkpt lat="43.2254638" lon="11.3722151"><ele>180.0</ele><time>2026-03-27T14:59:15.705Z</time></trkpt><trkpt lat="43.2255399" lon="11.3722181"><ele>180.0</ele><time>2026-03-27T14:59:16.705Z</time></trkpt><trkpt lat="43.2256074" lon="11.372232"><ele>180.0</ele><time>2026-03-27T14:59:17.705Z</time></trkpt><trkpt lat="43.2256841" lon="11.3723223"><ele>180.0</ele><time>2026-03-27T14:59:19.705Z</time></trkpt><trkpt lat="43.2257326" lon="11.37243"><ele>180.4</ele><time>2026-03-27T14:59:21.705Z</time></trkpt><trkpt lat="43.2257668" lon="11.3725341"><ele>180.8</ele><time>2026-03-27T14:59:23.705Z</time></trkpt><trkpt lat="43.2258042" lon="11.3726565"><ele>181.2</ele><time>2026-03-27T14:59:25.705Z</time></trkpt><trkpt lat="43.2258443" lon="11.3727802"><ele>181.6</ele><time>2026-03-27T14:59:27.706Z</time></trkpt><trkpt lat="43.2258771" lon="11.372915"><ele>182.0</ele><time>2026-03-27T14:59:29.705Z</time></trkpt><trkpt lat="43.2259304" lon="11.3730443"><ele>181.0</ele><time>2026-03-27T14:59:31.706Z</time></trkpt><trkpt lat="43.225976" lon="11.3731871"><ele>180.0</ele><time>2026-03-27T14:59:33.705Z</time></trkpt><trkpt lat="43.2260193" lon="11.3733351"><ele>179.0</ele><time>2026-03-27T14:59:35.705Z</time></trkpt><trkpt lat="43.2260555" lon="11.3734822"><ele>178.0</ele><time>2026-03-27T14:59:37.705Z</time></trkpt><trkpt lat="43.2260888" lon="11.3736329"><ele>178.0</ele><time>2026-03-27T14:59:39.705Z</time></trkpt><trkpt lat="43.2261074" lon="11.3737929"><ele>178.0</ele><time>2026-03-27T14:59:41.706Z</time></trkpt><trkpt lat="43.2261184" lon="11.3739561"><ele>178.0</ele><time>2026-03-27T14:59:43.706Z</time></trkpt><trkpt lat="43.2261119" lon="11.374118"><ele>178.0</ele><time>2026-03-27T14:59:45.705Z</time></trkpt><trkpt lat="43.2260941" lon="11.3742832"><ele>178.0</ele><time>2026-03-27T14:59:47.706Z</time></trkpt><trkpt lat="43.226083" lon="11.3743693"><ele>178.0</ele><time>2026-03-27T14:59:48.705Z</time></trkpt><trkpt lat="43.2260686" lon="11.3745372"><ele>178.0</ele><time>2026-03-27T14:59:50.705Z</time></trkpt><trkpt lat="43.2260587" lon="11.3746917"><ele>178.0</ele><time>2026-03-27T14:59:52.705Z</time></trkpt><trkpt lat="43.2260494" lon="11.3748723"><ele>178.0</ele><time>2026-03-27T14:59:54.706Z</time></trkpt><trkpt lat="43.2260244" lon="11.3750386"><ele>178.0</ele><time>2026-03-27T14:59:56.705Z</time></trkpt><trkpt lat="43.2260108" lon="11.3751235"><ele>178.0</ele><time>2026-03-27T14:59:57.706Z</time></trkpt><trkpt lat="43.2260106" lon="11.3752101"><ele>178.0</ele><time>2026-03-27T14:59:58.705Z</time></trkpt><trkpt lat="43.2260155" lon="11.3753829"><ele>178.0</ele><time>2026-03-27T15:00:00.706Z</time></trkpt><trkpt lat="43.2260265" lon="11.375468"><ele>178.0</ele><time>2026-03-27T15:00:01.706Z</time></trkpt><trkpt lat="43.2260404" lon="11.3756307"><ele>178.0</ele><time>2026-03-27T15:00:03.705Z</time></trkpt><trkpt lat="43.226052" lon="11.375716"><ele>178.16666666666669</ele><time>2026-03-27T15:00:04.705Z</time></trkpt><trkpt lat="43.2260891" lon="11.3758895"><ele>178.33333333333334</ele><time>2026-03-27T15:00:06.706Z</time></trkpt><trkpt lat="43.2261206" lon="11.3759729"><ele>178.5</ele><time>2026-03-27T15:00:07.705Z</time></trkpt><trkpt lat="43.2261429" lon="11.3760559"><ele>178.66666666666666</ele><time>2026-03-27T15:00:08.705Z</time></trkpt><trkpt lat="43.2261912" lon="11.376187"><ele>178.83333333333331</ele><time>2026-03-27T15:00:10.705Z</time></trkpt><trkpt lat="43.2262155" lon="11.3762688"><ele>179.0</ele><time>2026-03-27T15:00:11.705Z</time></trkpt><trkpt lat="43.2262537" lon="11.3763399"><ele>178.66666666666666</ele><time>2026-03-27T15:00:12.705Z</time></trkpt><trkpt lat="43.2263318" lon="11.3764678"><ele>178.33333333333331</ele><time>2026-03-27T15:00:14.705Z</time></trkpt><trkpt lat="43.2263778" lon="11.3765304"><ele>178.0</ele><time>2026-03-27T15:00:15.705Z</time></trkpt><trkpt lat="43.2264306" lon="11.3765973"><ele>177.66666666666666</ele><time>2026-03-27T15:00:16.706Z</time></trkpt><trkpt lat="43.2264808" lon="11.3766602"><ele>177.33333333333334</ele><time>2026-03-27T15:00:17.706Z</time></trkpt><trkpt lat="43.2265298" lon="11.3767174"><ele>177.0</ele><time>2026-03-27T15:00:18.705Z</time></trkpt><trkpt lat="43.2265854" lon="11.3767665"><ele>177.8</ele><time>2026-03-27T15:00:19.705Z</time></trkpt><trkpt lat="43.2266298" lon="11.3768302"><ele>178.6</ele><time>2026-03-27T15:00:20.706Z</time></trkpt><trkpt lat="43.2267335" lon="11.3769258"><ele>179.4</ele><time>2026-03-27T15:00:22.705Z</time></trkpt><trkpt lat="43.226837" lon="11.3770126"><ele>180.20000000000002</ele><time>2026-03-27T15:00:24.705Z</time></trkpt><trkpt lat="43.2269266" lon="11.3770953"><ele>181.0</ele><time>2026-03-27T15:00:26.705Z</time></trkpt><trkpt lat="43.2270307" lon="11.3771717"><ele>180.5</ele><time>2026-03-27T15:00:28.706Z</time></trkpt><trkpt lat="43.2270909" lon="11.3772057"><ele>180.0</ele><time>2026-03-27T15:00:29.706Z</time></trkpt><trkpt lat="43.2272055" lon="11.3772571"><ele>179.5</ele><time>2026-03-27T15:00:31.705Z</time></trkpt><trkpt lat="43.2272709" lon="11.3772803"><ele>179.0</ele><time>2026-03-27T15:00:32.705Z</time></trkpt><trkpt lat="43.2273788" lon="11.3772912"><ele>178.5</ele><time>2026-03-27T15:00:34.705Z</time></trkpt><trkpt lat="43.2274493" lon="11.3772984"><ele>178.0</ele><time>2026-03-27T15:00:35.706Z</time></trkpt><trkpt lat="43.2275575" lon="11.3772937"><ele>178.0</ele><time>2026-03-27T15:00:37.705Z</time></trkpt><trkpt lat="43.2276266" lon="11.3772875"><ele>178.0</ele><time>2026-03-27T15:00:38.706Z</time></trkpt><trkpt lat="43.2276919" lon="11.3772883"><ele>178.0</ele><time>2026-03-27T15:00:39.705Z</time></trkpt><trkpt lat="43.2278015" lon="11.3772817"><ele>178.0</ele><time>2026-03-27T15:00:41.706Z</time></trkpt><trkpt lat="43.2279066" lon="11.3772903"><ele>178.0</ele><time>2026-03-27T15:00:43.705Z</time></trkpt><trkpt lat="43.2280217" lon="11.3772765"><ele>178.0</ele><time>2026-03-27T15:00:45.706Z</time></trkpt><trkpt lat="43.2281335" lon="11.3772903"><ele>178.0</ele><time>2026-03-27T15:00:47.705Z</time></trkpt><trkpt lat="43.2282517" lon="11.3772866"><ele>178.0</ele><time>2026-03-27T15:00:49.705Z</time></trkpt><trkpt lat="43.2283597" lon="11.3772912"><ele>178.0</ele><time>2026-03-27T15:00:51.706Z</time></trkpt><trkpt lat="43.228423" lon="11.3772829"><ele>178.0</ele><time>2026-03-27T15:00:52.705Z</time></trkpt><trkpt lat="43.2284952" lon="11.377279"><ele>178.0</ele><time>2026-03-27T15:00:53.706Z</time></trkpt><trkpt lat="43.2286166" lon="11.3772549"><ele>178.0</ele><time>2026-03-27T15:00:55.705Z</time></trkpt><trkpt lat="43.2287259" lon="11.3772183"><ele>178.0</ele><time>2026-03-27T15:00:57.705Z</time></trkpt><trkpt lat="43.2288207" lon="11.3771812"><ele>178.0</ele><time>2026-03-27T15:00:59.705Z</time></trkpt><trkpt lat="43.2289096" lon="11.3771287"><ele>178.0</ele><time>2026-03-27T15:01:01.705Z</time></trkpt><trkpt lat="43.2290282" lon="11.3770684"><ele>179.60000000000002</ele><time>2026-03-27T15:01:03.705Z</time></trkpt><trkpt lat="43.2290935" lon="11.3770312"><ele>181.20000000000002</ele><time>2026-03-27T15:01:04.705Z</time></trkpt><trkpt lat="43.2291889" lon="11.3769551"><ele>182.8</ele><time>2026-03-27T15:01:06.705Z</time></trkpt><trkpt lat="43.2292952" lon="11.3768763"><ele>184.4</ele><time>2026-03-27T15:01:08.706Z</time></trkpt><trkpt lat="43.229399" lon="11.3767946"><ele>186.0</ele><time>2026-03-27T15:01:10.706Z</time></trkpt><trkpt lat="43.2295032" lon="11.3767129"><ele>186.0</ele><time>2026-03-27T15:01:12.705Z</time></trkpt><trkpt lat="43.2296076" lon="11.3766253"><ele>186.0</ele><time>2026-03-27T15:01:14.705Z</time></trkpt><trkpt lat="43.229709" lon="11.3765437"><ele>186.0</ele><time>2026-03-27T15:01:16.705Z</time></trkpt><trkpt lat="43.2297684" lon="11.3764955"><ele>186.0</ele><time>2026-03-27T15:01:17.705Z</time></trkpt><trkpt lat="43.2298243" lon="11.3764414"><ele>186.0</ele><time>2026-03-27T15:01:18.705Z</time></trkpt><trkpt lat="43.2298815" lon="11.3764033"><ele>186.0</ele><time>2026-03-27T15:01:19.705Z</time></trkpt><trkpt lat="43.2299355" lon="11.3763473"><ele>185.60000000000002</ele><time>2026-03-27T15:01:20.705Z</time></trkpt><trkpt lat="43.2300411" lon="11.3762558"><ele>185.2</ele><time>2026-03-27T15:01:22.705Z</time></trkpt><trkpt lat="43.2301037" lon="11.3762129"><ele>184.8</ele><time>2026-03-27T15:01:23.705Z</time></trkpt><trkpt lat="43.2302054" lon="11.3761403"><ele>184.39999999999998</ele><time>2026-03-27T15:01:25.705Z</time></trkpt><trkpt lat="43.2302656" lon="11.3761022"><ele>184.0</ele><time>2026-03-27T15:01:26.705Z</time></trkpt><trkpt lat="43.2303774" lon="11.3760192"><ele>184.0</ele><time>2026-03-27T15:01:28.705Z</time></trkpt><trkpt lat="43.2304872" lon="11.375946"><ele>184.0</ele><time>2026-03-27T15:01:30.705Z</time></trkpt><trkpt lat="43.2305983" lon="11.375874"><ele>184.0</ele><time>2026-03-27T15:01:32.706Z</time></trkpt><trkpt lat="43.2306556" lon="11.3758307"><ele>184.0</ele><time>2026-03-27T15:01:33.706Z</time></trkpt><trkpt lat="43.2307653" lon="11.3757441"><ele>184.0</ele><time>2026-03-27T15:01:35.705Z</time></trkpt><trkpt lat="43.2308285" lon="11.3756955"><ele>184.0</ele><time>2026-03-27T15:01:36.705Z</time></trkpt><trkpt lat="43.2309398" lon="11.3756164"><ele>184.0</ele><time>2026-03-27T15:01:38.705Z</time></trkpt><trkpt lat="43.231047" lon="11.375549"><ele>184.0</ele><time>2026-03-27T15:01:40.706Z</time></trkpt><trkpt lat="43.2311066" lon="11.3755042"><ele>184.0</ele><time>2026-03-27T15:01:41.705Z</time></trkpt><trkpt lat="43.2311628" lon="11.3754641"><ele>184.0</ele><time>2026-03-27T15:01:42.706Z</time></trkpt><trkpt lat="43.2312205" lon="11.3754238"><ele>184.0</ele><time>2026-03-27T15:01:43.706Z</time></trkpt><trkpt lat="43.2312791" lon="11.3753852"><ele>184.0</ele><time>2026-03-27T15:01:44.705Z</time></trkpt><trkpt lat="43.2313383" lon="11.3753537"><ele>184.0</ele><time>2026-03-27T15:01:45.705Z</time></trkpt><trkpt lat="43.2314391" lon="11.3752779"><ele>184.0</ele><time>2026-03-27T15:01:47.705Z</time></trkpt><trkpt lat="43.2314953" lon="11.375237"><ele>184.0</ele><time>2026-03-27T15:01:48.705Z</time></trkpt><trkpt lat="43.231558" lon="11.3751896"><ele>184.0</ele><time>2026-03-27T15:01:49.706Z</time></trkpt><trkpt lat="43.2316151" lon="11.3751434"><ele>184.0</ele><time>2026-03-27T15:01:50.705Z</time></trkpt><trkpt lat="43.2316712" lon="11.3750984"><ele>184.0</ele><time>2026-03-27T15:01:51.705Z</time></trkpt><trkpt lat="43.2317328" lon="11.37506"><ele>183.2857142857143</ele><time>2026-03-27T15:01:52.706Z</time></trkpt><trkpt lat="43.2318023" lon="11.3750079"><ele>182.57142857142856</ele><time>2026-03-27T15:01:53.705Z</time></trkpt><trkpt lat="43.2318661" lon="11.3749692"><ele>181.85714285714286</ele><time>2026-03-27T15:01:54.706Z</time></trkpt><trkpt lat="43.2319285" lon="11.3749225"><ele>181.14285714285717</ele><time>2026-03-27T15:01:55.706Z</time></trkpt><trkpt lat="43.2319842" lon="11.3748781"><ele>180.42857142857144</ele><time>2026-03-27T15:01:56.705Z</time></trkpt><trkpt lat="43.2320418" lon="11.3748335"><ele>179.71428571428572</ele><time>2026-03-27T15:01:57.706Z</time></trkpt><trkpt lat="43.2321037" lon="11.3747884"><ele>179.0</ele><time>2026-03-27T15:01:58.706Z</time></trkpt><trkpt lat="43.2321708" lon="11.3747503"><ele>179.00000000000003</ele><time>2026-03-27T15:01:59.705Z</time></trkpt><trkpt lat="43.2322342" lon="11.3747013"><ele>179.0</ele><time>2026-03-27T15:02:00.705Z</time></trkpt><trkpt lat="43.2322924" lon="11.3746601"><ele>179.0</ele><time>2026-03-27T15:02:01.705Z</time></trkpt><trkpt lat="43.2323568" lon="11.3746128"><ele>179.0</ele><time>2026-03-27T15:02:02.706Z</time></trkpt><trkpt lat="43.2324174" lon="11.3745732"><ele>179.0</ele><time>2026-03-27T15:02:03.706Z</time></trkpt><trkpt lat="43.2324835" lon="11.3745215"><ele>179.00000000000003</ele><time>2026-03-27T15:02:04.706Z</time></trkpt><trkpt lat="43.2325478" lon="11.3744791"><ele>179.0</ele><time>2026-03-27T15:02:05.705Z</time></trkpt><trkpt lat="43.232612" lon="11.3744343"><ele>179.0</ele><time>2026-03-27T15:02:06.705Z</time></trkpt><trkpt lat="43.2327276" lon="11.3743605"><ele>179.0</ele><time>2026-03-27T15:02:08.705Z</time></trkpt><trkpt lat="43.2327902" lon="11.3743166"><ele>179.0</ele><time>2026-03-27T15:02:09.705Z</time></trkpt><trkpt lat="43.2328533" lon="11.3742812"><ele>179.0</ele><time>2026-03-27T15:02:10.705Z</time></trkpt><trkpt lat="43.232912" lon="11.3742358"><ele>179.0</ele><time>2026-03-27T15:02:11.706Z</time></trkpt><trkpt lat="43.2329793" lon="11.3741974"><ele>179.0</ele><time>2026-03-27T15:02:12.706Z</time></trkpt><trkpt lat="43.233046" lon="11.3741529"><ele>179.00000000000003</ele><time>2026-03-27T15:02:13.705Z</time></trkpt><trkpt lat="43.2330991" lon="11.3741039"><ele>179.0</ele><time>2026-03-27T15:02:14.705Z</time></trkpt><trkpt lat="43.2331623" lon="11.3740591"><ele>179.0</ele><time>2026-03-27T15:02:15.705Z</time></trkpt><trkpt lat="43.233228" lon="11.374023"><ele>179.0</ele><time>2026-03-27T15:02:16.705Z</time></trkpt><trkpt lat="43.2332923" lon="11.3739806"><ele>179.0</ele><time>2026-03-27T15:02:17.706Z</time></trkpt><trkpt lat="43.2333578" lon="11.3739327"><ele>179.00000000000003</ele><time>2026-03-27T15:02:18.705Z</time></trkpt><trkpt lat="43.2334176" lon="11.3738831"><ele>179.0</ele><time>2026-03-27T15:02:19.705Z</time></trkpt><trkpt lat="43.2334793" lon="11.3738374"><ele>179.00000000000003</ele><time>2026-03-27T15:02:20.705Z</time></trkpt><trkpt lat="43.2335385" lon="11.3737969"><ele>179.0</ele><time>2026-03-27T15:02:21.705Z</time></trkpt><trkpt lat="43.2336074" lon="11.3737611"><ele>179.0</ele><time>2026-03-27T15:02:22.705Z</time></trkpt><trkpt lat="43.2336745" lon="11.3737262"><ele>179.0</ele><time>2026-03-27T15:02:23.706Z</time></trkpt><trkpt lat="43.233748" lon="11.3736907"><ele>179.0</ele><time>2026-03-27T15:02:24.705Z</time></trkpt><trkpt lat="43.233813" lon="11.3736672"><ele>179.00000000000003</ele><time>2026-03-27T15:02:25.705Z</time></trkpt><trkpt lat="43.2338767" lon="11.3736419"><ele>179.0</ele><time>2026-03-27T15:02:26.705Z</time></trkpt><trkpt lat="43.2339418" lon="11.373629"><ele>178.85714285714286</ele><time>2026-03-27T15:02:27.705Z</time></trkpt><trkpt lat="43.2340098" lon="11.3736244"><ele>178.71428571428572</ele><time>2026-03-27T15:02:28.705Z</time></trkpt><trkpt lat="43.2340759" lon="11.3736146"><ele>178.57142857142856</ele><time>2026-03-27T15:02:29.705Z</time></trkpt><trkpt lat="43.2341428" lon="11.3736153"><ele>178.42857142857144</ele><time>2026-03-27T15:02:30.705Z</time></trkpt><trkpt lat="43.2342103" lon="11.3736128"><ele>178.28571428571428</ele><time>2026-03-27T15:02:31.706Z</time></trkpt><trkpt lat="43.2342771" lon="11.3736018"><ele>178.14285714285714</ele><time>2026-03-27T15:02:32.705Z</time></trkpt><trkpt lat="43.2343478" lon="11.3735971"><ele>178.0</ele><time>2026-03-27T15:02:33.705Z</time></trkpt><trkpt lat="43.2344121" lon="11.3735989"><ele>178.0</ele><time>2026-03-27T15:02:34.705Z</time></trkpt><trkpt lat="43.2344775" lon="11.3735941"><ele>178.0</ele><time>2026-03-27T15:02:35.706Z</time></trkpt><trkpt lat="43.2345414" lon="11.373584"><ele>178.0</ele><time>2026-03-27T15:02:36.705Z</time></trkpt><trkpt lat="43.2346691" lon="11.3735616"><ele>178.0</ele><time>2026-03-27T15:02:38.705Z</time></trkpt><trkpt lat="43.2347381" lon="11.3735599"><ele>178.0</ele><time>2026-03-27T15:02:39.705Z</time></trkpt><trkpt lat="43.2348034" lon="11.3735576"><ele>178.0</ele><time>2026-03-27T15:02:40.705Z</time></trkpt><trkpt lat="43.2349302" lon="11.3735542"><ele>177.75</ele><time>2026-03-27T15:02:42.706Z</time></trkpt><trkpt lat="43.235057" lon="11.3735487"><ele>177.5</ele><time>2026-03-27T15:02:44.705Z</time></trkpt><trkpt lat="43.2351744" lon="11.3735192"><ele>177.25</ele><time>2026-03-27T15:02:46.705Z</time></trkpt><trkpt lat="43.2352924" lon="11.3735006"><ele>177.0</ele><time>2026-03-27T15:02:48.705Z</time></trkpt><trkpt lat="43.2353989" lon="11.373488"><ele>177.0</ele><time>2026-03-27T15:02:50.705Z</time></trkpt><trkpt lat="43.2355035" lon="11.3734707"><ele>177.0</ele><time>2026-03-27T15:02:52.705Z</time></trkpt><trkpt lat="43.2356032" lon="11.3734637"><ele>177.0</ele><time>2026-03-27T15:02:54.706Z</time></trkpt><trkpt lat="43.2356948" lon="11.3734584"><ele>177.0</ele><time>2026-03-27T15:02:56.705Z</time></trkpt><trkpt lat="43.2357788" lon="11.3734487"><ele>177.0</ele><time>2026-03-27T15:02:58.705Z</time></trkpt><trkpt lat="43.2358767" lon="11.3734392"><ele>177.71428571428572</ele><time>2026-03-27T15:03:00.705Z</time></trkpt><trkpt lat="43.2359477" lon="11.3734209"><ele>178.42857142857142</ele><time>2026-03-27T15:03:02.705Z</time></trkpt><trkpt lat="43.2360392" lon="11.3734047"><ele>179.14285714285714</ele><time>2026-03-27T15:03:04.706Z</time></trkpt><trkpt lat="43.2361152" lon="11.3734063"><ele>179.85714285714286</ele><time>2026-03-27T15:03:06.706Z</time></trkpt><trkpt lat="43.2361835" lon="11.3734093"><ele>180.57142857142856</ele><time>2026-03-27T15:03:08.705Z</time></trkpt><trkpt lat="43.2362525" lon="11.3734246"><ele>181.28571428571428</ele><time>2026-03-27T15:03:10.705Z</time></trkpt><trkpt lat="43.2363179" lon="11.3734569"><ele>182.0</ele><time>2026-03-27T15:03:12.705Z</time></trkpt><trkpt lat="43.2363765" lon="11.3735021"><ele>182.0</ele><time>2026-03-27T15:03:14.706Z</time></trkpt><trkpt lat="43.2364422" lon="11.3735797"><ele>182.0</ele><time>2026-03-27T15:03:17.705Z</time></trkpt><trkpt lat="43.2364874" lon="11.3736407"><ele>182.0</ele><time>2026-03-27T15:03:19.705Z</time></trkpt><trkpt lat="43.2365403" lon="11.3737458"><ele>182.0</ele><time>2026-03-27T15:03:22.705Z</time></trkpt><trkpt lat="43.2365617" lon="11.3738692"><ele>182.0</ele><time>2026-03-27T15:03:25.706Z</time></trkpt><trkpt lat="43.2365697" lon="11.3740003"><ele>182.0</ele><time>2026-03-27T15:03:28.706Z</time></trkpt><trkpt lat="43.2365596" lon="11.3740994"><ele>182.0</ele><time>2026-03-27T15:03:30.706Z</time></trkpt><trkpt lat="43.2365585" lon="11.3742011"><ele>182.0</ele><time>2026-03-27T15:03:32.706Z</time></trkpt><trkpt lat="43.2365413" lon="11.3742941"><ele>182.0</ele><time>2026-03-27T15:03:34.705Z</time></trkpt><trkpt lat="43.2365337" lon="11.3743928"><ele>182.0</ele><time>2026-03-27T15:03:36.705Z</time></trkpt><trkpt lat="43.2365116" lon="11.3744872"><ele>182.0</ele><time>2026-03-27T15:03:38.706Z</time></trkpt><trkpt lat="43.2364899" lon="11.3745796"><ele>182.0</ele><time>2026-03-27T15:03:40.706Z</time></trkpt><trkpt lat="43.236465" lon="11.374673"><ele>182.0</ele><time>2026-03-27T15:03:42.706Z</time></trkpt><trkpt lat="43.2364326" lon="11.37476"><ele>182.0</ele><time>2026-03-27T15:03:44.705Z</time></trkpt><trkpt lat="43.2363926" lon="11.3748465"><ele>182.0</ele><time>2026-03-27T15:03:46.705Z</time></trkpt><trkpt lat="43.2363564" lon="11.3749312"><ele>182.0</ele><time>2026-03-27T15:03:48.705Z</time></trkpt><trkpt lat="43.2363241" lon="11.3750164"><ele>182.0</ele><time>2026-03-27T15:03:50.705Z</time></trkpt><trkpt lat="43.2362891" lon="11.3750948"><ele>182.0</ele><time>2026-03-27T15:03:52.706Z</time></trkpt><trkpt lat="43.2362527" lon="11.3751804"><ele>182.0</ele><time>2026-03-27T15:03:54.705Z</time></trkpt><trkpt lat="43.2362136" lon="11.3752701"><ele>182.0</ele><time>2026-03-27T15:03:56.706Z</time></trkpt><trkpt lat="43.2361986" lon="11.3753688"><ele>182.0</ele><time>2026-03-27T15:03:58.705Z</time></trkpt><trkpt lat="43.2361879" lon="11.3754716"><ele>182.0</ele><time>2026-03-27T15:04:00.705Z</time></trkpt><trkpt lat="43.2361887" lon="11.3755746"><ele>182.0</ele><time>2026-03-27T15:04:02.705Z</time></trkpt><trkpt lat="43.2361999" lon="11.3756769"><ele>182.0</ele><time>2026-03-27T15:04:04.706Z</time></trkpt><trkpt lat="43.2362165" lon="11.3757786"><ele>182.0</ele><time>2026-03-27T15:04:06.705Z</time></trkpt><trkpt lat="43.2362366" lon="11.375872"><ele>182.0</ele><time>2026-03-27T15:04:08.705Z</time></trkpt><trkpt lat="43.2362511" lon="11.375961"><ele>182.0</ele><time>2026-03-27T15:04:10.705Z</time></trkpt><trkpt lat="43.2362911" lon="11.3760754"><ele>182.57142857142858</ele><time>2026-03-27T15:04:13.705Z</time></trkpt><trkpt lat="43.2363428" lon="11.3761878"><ele>183.14285714285714</ele><time>2026-03-27T15:04:16.705Z</time></trkpt><trkpt lat="43.2364012" lon="11.3762459"><ele>183.71428571428572</ele><time>2026-03-27T15:04:18.705Z</time></trkpt><trkpt lat="43.2364647" lon="11.3762943"><ele>184.28571428571428</ele><time>2026-03-27T15:04:20.705Z</time></trkpt><trkpt lat="43.2365278" lon="11.376335"><ele>184.85714285714286</ele><time>2026-03-27T15:04:22.706Z</time></trkpt><trkpt lat="43.2365945" lon="11.3763615"><ele>185.42857142857144</ele><time>2026-03-27T15:04:24.705Z</time></trkpt><trkpt lat="43.2366583" lon="11.3763727"><ele>186.0</ele><time>2026-03-27T15:04:26.705Z</time></trkpt><trkpt lat="43.2367266" lon="11.3763826"><ele>186.66666666666666</ele><time>2026-03-27T15:04:28.705Z</time></trkpt><trkpt lat="43.2367976" lon="11.376379"><ele>187.33333333333334</ele><time>2026-03-27T15:04:30.705Z</time></trkpt><trkpt lat="43.2368675" lon="11.376366"><ele>188.0</ele><time>2026-03-27T15:04:32.705Z</time></trkpt><trkpt lat="43.236937" lon="11.3763427"><ele>188.66666666666669</ele><time>2026-03-27T15:04:34.706Z</time></trkpt><trkpt lat="43.2370064" lon="11.3763006"><ele>189.33333333333334</ele><time>2026-03-27T15:04:36.706Z</time></trkpt><trkpt lat="43.2370791" lon="11.3762443"><ele>190.0</ele><time>2026-03-27T15:04:38.705Z</time></trkpt><trkpt lat="43.2371506" lon="11.3761892"><ele>191.0</ele><time>2026-03-27T15:04:40.705Z</time></trkpt><trkpt lat="43.2372173" lon="11.376121"><ele>192.0</ele><time>2026-03-27T15:04:42.705Z</time></trkpt><trkpt lat="43.2372829" lon="11.3760533"><ele>193.0</ele><time>2026-03-27T15:04:44.705Z</time></trkpt><trkpt lat="43.2373424" lon="11.3759825"><ele>194.0</ele><time>2026-03-27T15:04:46.706Z</time></trkpt><trkpt lat="43.2374026" lon="11.3759104"><ele>194.99999999999997</ele><time>2026-03-27T15:04:48.705Z</time></trkpt><trkpt lat="43.2374616" lon="11.3758471"><ele>196.0</ele><time>2026-03-27T15:04:50.706Z</time></trkpt><trkpt lat="43.2375173" lon="11.3757891"><ele>196.49999999999997</ele><time>2026-03-27T15:04:52.705Z</time></trkpt><trkpt lat="43.2375751" lon="11.3757344"><ele>197.0</ele><time>2026-03-27T15:04:54.705Z</time></trkpt><trkpt lat="43.2376322" lon="11.3756645"><ele>197.5</ele><time>2026-03-27T15:04:56.705Z</time></trkpt><trkpt lat="43.237688" lon="11.3755972"><ele>198.0</ele><time>2026-03-27T15:04:58.705Z</time></trkpt><trkpt lat="43.2377543" lon="11.3755422"><ele>198.49999999999997</ele><time>2026-03-27T15:05:00.706Z</time></trkpt><trkpt lat="43.2378249" lon="11.3754871"><ele>199.0</ele><time>2026-03-27T15:05:02.705Z</time></trkpt><trkpt lat="43.2378941" lon="11.3754305"><ele>199.42857142857142</ele><time>2026-03-27T15:05:04.705Z</time></trkpt><trkpt lat="43.2379628" lon="11.3753691"><ele>199.85714285714286</ele><time>2026-03-27T15:05:06.705Z</time></trkpt><trkpt lat="43.2380256" lon="11.375312"><ele>200.28571428571428</ele><time>2026-03-27T15:05:08.706Z</time></trkpt><trkpt lat="43.23809" lon="11.3752508"><ele>200.71428571428572</ele><time>2026-03-27T15:05:10.705Z</time></trkpt><trkpt lat="43.2381447" lon="11.3751843"><ele>201.14285714285714</ele><time>2026-03-27T15:05:12.705Z</time></trkpt><trkpt lat="43.2381913" lon="11.3751097"><ele>201.57142857142856</ele><time>2026-03-27T15:05:14.705Z</time></trkpt><trkpt lat="43.2382372" lon="11.3750412"><ele>202.0</ele><time>2026-03-27T15:05:16.705Z</time></trkpt><trkpt lat="43.23827" lon="11.3749643"><ele>202.0</ele><time>2026-03-27T15:05:18.705Z</time></trkpt><trkpt lat="43.2382982" lon="11.3748803"><ele>202.0</ele><time>2026-03-27T15:05:20.706Z</time></trkpt><trkpt lat="43.2383186" lon="11.3747821"><ele>202.0</ele><time>2026-03-27T15:05:22.705Z</time></trkpt><trkpt lat="43.2383211" lon="11.3746827"><ele>202.0</ele><time>2026-03-27T15:05:24.705Z</time></trkpt><trkpt lat="43.2383244" lon="11.3745828"><ele>202.0</ele><time>2026-03-27T15:05:26.706Z</time></trkpt><trkpt lat="43.2383201" lon="11.3744834"><ele>202.0</ele><time>2026-03-27T15:05:28.705Z</time></trkpt><trkpt lat="43.2383085" lon="11.3743819"><ele>202.0</ele><time>2026-03-27T15:05:30.705Z</time></trkpt><trkpt lat="43.2383006" lon="11.3742789"><ele>202.33333333333331</ele><time>2026-03-27T15:05:32.706Z</time></trkpt><trkpt lat="43.2383019" lon="11.3741719"><ele>202.66666666666666</ele><time>2026-03-27T15:05:34.705Z</time></trkpt><trkpt lat="43.2382953" lon="11.3740611"><ele>203.0</ele><time>2026-03-27T15:05:36.705Z</time></trkpt><trkpt lat="43.2382841" lon="11.3739418"><ele>203.33333333333331</ele><time>2026-03-27T15:05:38.705Z</time></trkpt><trkpt lat="43.2382768" lon="11.3738239"><ele>203.66666666666666</ele><time>2026-03-27T15:05:40.705Z</time></trkpt><trkpt lat="43.2382705" lon="11.3737111"><ele>204.0</ele><time>2026-03-27T15:05:42.705Z</time></trkpt><trkpt lat="43.2382622" lon="11.3735926"><ele>204.16666666666666</ele><time>2026-03-27T15:05:44.705Z</time></trkpt><trkpt lat="43.238251" lon="11.3734703"><ele>204.33333333333331</ele><time>2026-03-27T15:05:46.706Z</time></trkpt><trkpt lat="43.2382442" lon="11.3733542"><ele>204.5</ele><time>2026-03-27T15:05:48.705Z</time></trkpt><trkpt lat="43.2382462" lon="11.3732308"><ele>204.66666666666666</ele><time>2026-03-27T15:05:50.705Z</time></trkpt><trkpt lat="43.2382756" lon="11.3731154"><ele>204.83333333333331</ele><time>2026-03-27T15:05:52.705Z</time></trkpt><trkpt lat="43.2383272" lon="11.3730068"><ele>205.0</ele><time>2026-03-27T15:05:54.705Z</time></trkpt><trkpt lat="43.238407" lon="11.3729367"><ele>206.33333333333331</ele><time>2026-03-27T15:05:56.705Z</time></trkpt><trkpt lat="43.2384959" lon="11.3728793"><ele>207.66666666666666</ele><time>2026-03-27T15:05:58.706Z</time></trkpt><trkpt lat="43.2385775" lon="11.3728326"><ele>209.0</ele><time>2026-03-27T15:06:00.706Z</time></trkpt><trkpt lat="43.2386544" lon="11.3727827"><ele>210.33333333333331</ele><time>2026-03-27T15:06:02.705Z</time></trkpt><trkpt lat="43.2387305" lon="11.3727522"><ele>211.66666666666666</ele><time>2026-03-27T15:06:04.705Z</time></trkpt><trkpt lat="43.2388102" lon="11.3727288"><ele>213.0</ele><time>2026-03-27T15:06:06.706Z</time></trkpt><trkpt lat="43.2388874" lon="11.3727106"><ele>213.0</ele><time>2026-03-27T15:06:08.706Z</time></trkpt><trkpt lat="43.2389672" lon="11.372708"><ele>213.0</ele><time>2026-03-27T15:06:10.706Z</time></trkpt><trkpt lat="43.2390413" lon="11.3727112"><ele>213.0</ele><time>2026-03-27T15:06:12.705Z</time></trkpt><trkpt lat="43.2391169" lon="11.3727096"><ele>213.0</ele><time>2026-03-27T15:06:14.705Z</time></trkpt><trkpt lat="43.2391862" lon="11.372707"><ele>213.0</ele><time>2026-03-27T15:06:16.705Z</time></trkpt><trkpt lat="43.2392807" lon="11.3726912"><ele>213.0</ele><time>2026-03-27T15:06:19.705Z</time></trkpt><trkpt lat="43.2393454" lon="11.3726714"><ele>213.0</ele><time>2026-03-27T15:06:21.705Z</time></trkpt><trkpt lat="43.2394332" lon="11.3726302"><ele>213.0</ele><time>2026-03-27T15:06:24.705Z</time></trkpt><trkpt lat="43.2394911" lon="11.3725777"><ele>213.0</ele><time>2026-03-27T15:06:26.705Z</time></trkpt><trkpt lat="43.2395421" lon="11.3725201"><ele>213.0</ele><time>2026-03-27T15:06:28.705Z</time></trkpt><trkpt lat="43.2395849" lon="11.3724565"><ele>213.0</ele><time>2026-03-27T15:06:30.706Z</time></trkpt><trkpt lat="43.2396317" lon="11.3723481"><ele>213.0</ele><time>2026-03-27T15:06:33.705Z</time></trkpt><trkpt lat="43.2396654" lon="11.372268"><ele>212.99999999999997</ele><time>2026-03-27T15:06:35.705Z</time></trkpt><trkpt lat="43.2397047" lon="11.3721966"><ele>213.0</ele><time>2026-03-27T15:06:37.706Z</time></trkpt><trkpt lat="43.2397523" lon="11.3721323"><ele>213.0</ele><time>2026-03-27T15:06:39.706Z</time></trkpt><trkpt lat="43.2397974" lon="11.3720559"><ele>213.0</ele><time>2026-03-27T15:06:41.705Z</time></trkpt><trkpt lat="43.2398406" lon="11.3719758"><ele>213.0</ele><time>2026-03-27T15:06:43.705Z</time></trkpt><trkpt lat="43.2398792" lon="11.3718932"><ele>212.99999999999997</ele><time>2026-03-27T15:06:45.705Z</time></trkpt><trkpt lat="43.2399231" lon="11.3718196"><ele>213.0</ele><time>2026-03-27T15:06:47.706Z</time></trkpt><trkpt lat="43.2399658" lon="11.3717388"><ele>213.14285714285714</ele><time>2026-03-27T15:06:49.706Z</time></trkpt><trkpt lat="43.2400042" lon="11.3716505"><ele>213.28571428571428</ele><time>2026-03-27T15:06:51.705Z</time></trkpt><trkpt lat="43.2400494" lon="11.3715705"><ele>213.42857142857144</ele><time>2026-03-27T15:06:53.705Z</time></trkpt><trkpt lat="43.2400903" lon="11.3714902"><ele>213.57142857142856</ele><time>2026-03-27T15:06:55.705Z</time></trkpt><trkpt lat="43.2401367" lon="11.3714128"><ele>213.71428571428572</ele><time>2026-03-27T15:06:57.705Z</time></trkpt><trkpt lat="43.2401854" lon="11.3713355"><ele>213.85714285714286</ele><time>2026-03-27T15:06:59.706Z</time></trkpt><trkpt lat="43.240232" lon="11.3712599"><ele>214.0</ele><time>2026-03-27T15:07:01.706Z</time></trkpt><trkpt lat="43.2402719" lon="11.3711859"><ele>214.42857142857144</ele><time>2026-03-27T15:07:03.705Z</time></trkpt><trkpt lat="43.2403164" lon="11.3711083"><ele>214.85714285714286</ele><time>2026-03-27T15:07:05.705Z</time></trkpt><trkpt lat="43.2403608" lon="11.3710281"><ele>215.28571428571428</ele><time>2026-03-27T15:07:07.705Z</time></trkpt><trkpt lat="43.2404127" lon="11.3709579"><ele>215.71428571428572</ele><time>2026-03-27T15:07:09.705Z</time></trkpt><trkpt lat="43.2404616" lon="11.3708862"><ele>216.14285714285714</ele><time>2026-03-27T15:07:11.705Z</time></trkpt><trkpt lat="43.2405104" lon="11.3708049"><ele>216.57142857142858</ele><time>2026-03-27T15:07:13.706Z</time></trkpt><trkpt lat="43.2405631" lon="11.3707316"><ele>217.0</ele><time>2026-03-27T15:07:15.706Z</time></trkpt><trkpt lat="43.2406209" lon="11.3706548"><ele>216.6</ele><time>2026-03-27T15:07:17.705Z</time></trkpt><trkpt lat="43.2406812" lon="11.3705751"><ele>216.2</ele><time>2026-03-27T15:07:19.705Z</time></trkpt><trkpt lat="43.2407555" lon="11.3704928"><ele>215.8</ele><time>2026-03-27T15:07:21.705Z</time></trkpt><trkpt lat="43.2408242" lon="11.3704312"><ele>215.4</ele><time>2026-03-27T15:07:23.705Z</time></trkpt><trkpt lat="43.2409086" lon="11.3703647"><ele>215.0</ele><time>2026-03-27T15:07:25.706Z</time></trkpt><trkpt lat="43.240984" lon="11.3702903"><ele>215.0</ele><time>2026-03-27T15:07:27.705Z</time></trkpt><trkpt lat="43.2410594" lon="11.3702121"><ele>215.0</ele><time>2026-03-27T15:07:29.705Z</time></trkpt><trkpt lat="43.2411386" lon="11.3701413"><ele>215.0</ele><time>2026-03-27T15:07:31.706Z</time></trkpt><trkpt lat="43.2412181" lon="11.3700701"><ele>215.0</ele><time>2026-03-27T15:07:33.705Z</time></trkpt><trkpt lat="43.2412909" lon="11.3699881"><ele>215.0</ele><time>2026-03-27T15:07:35.705Z</time></trkpt><trkpt lat="43.2413652" lon="11.3699088"><ele>215.00000000000003</ele><time>2026-03-27T15:07:37.705Z</time></trkpt><trkpt lat="43.2414356" lon="11.3698433"><ele>215.0</ele><time>2026-03-27T15:07:39.706Z</time></trkpt><trkpt lat="43.2415018" lon="11.3697793"><ele>215.0</ele><time>2026-03-27T15:07:41.706Z</time></trkpt><trkpt lat="43.2415581" lon="11.3697062"><ele>215.0</ele><time>2026-03-27T15:07:43.705Z</time></trkpt><trkpt lat="43.2416119" lon="11.3696415"><ele>215.00000000000003</ele><time>2026-03-27T15:07:45.705Z</time></trkpt><trkpt lat="43.2416666" lon="11.3695715"><ele>215.0</ele><time>2026-03-27T15:07:47.706Z</time></trkpt><trkpt lat="43.2417167" lon="11.3695143"><ele>215.83333333333334</ele><time>2026-03-27T15:07:49.705Z</time></trkpt><trkpt lat="43.241763" lon="11.3694537"><ele>216.66666666666669</ele><time>2026-03-27T15:07:51.706Z</time></trkpt><trkpt lat="43.2418165" lon="11.3693909"><ele>217.5</ele><time>2026-03-27T15:07:53.706Z</time></trkpt><trkpt lat="43.2418755" lon="11.3693221"><ele>218.33333333333331</ele><time>2026-03-27T15:07:55.705Z</time></trkpt><trkpt lat="43.2419393" lon="11.3692459"><ele>219.16666666666666</ele><time>2026-03-27T15:07:57.705Z</time></trkpt><trkpt lat="43.2420028" lon="11.3691656"><ele>220.0</ele><time>2026-03-27T15:07:59.705Z</time></trkpt><trkpt lat="43.2420658" lon="11.3690886"><ele>219.99999999999997</ele><time>2026-03-27T15:08:01.705Z</time></trkpt><trkpt lat="43.2421286" lon="11.3690068"><ele>220.0</ele><time>2026-03-27T15:08:03.705Z</time></trkpt><trkpt lat="43.242183" lon="11.3689212"><ele>220.0</ele><time>2026-03-27T15:08:05.706Z</time></trkpt><trkpt lat="43.2422402" lon="11.3688407"><ele>220.0</ele><time>2026-03-27T15:08:07.706Z</time></trkpt><trkpt lat="43.2422974" lon="11.3687647"><ele>219.99999999999997</ele><time>2026-03-27T15:08:09.705Z</time></trkpt><trkpt lat="43.2423541" lon="11.3686832"><ele>220.0</ele><time>2026-03-27T15:08:11.705Z</time></trkpt><trkpt lat="43.2424076" lon="11.3686051"><ele>220.33333333333331</ele><time>2026-03-27T15:08:13.705Z</time></trkpt><trkpt lat="43.242464" lon="11.3685252"><ele>220.66666666666666</ele><time>2026-03-27T15:08:15.705Z</time></trkpt><trkpt lat="43.2425239" lon="11.3684572"><ele>221.0</ele><time>2026-03-27T15:08:17.706Z</time></trkpt><trkpt lat="43.2425837" lon="11.3683907"><ele>221.33333333333331</ele><time>2026-03-27T15:08:19.705Z</time></trkpt><trkpt lat="43.2426463" lon="11.3683323"><ele>221.66666666666666</ele><time>2026-03-27T15:08:21.705Z</time></trkpt><trkpt lat="43.2427073" lon="11.3682837"><ele>222.0</ele><time>2026-03-27T15:08:23.705Z</time></trkpt><trkpt lat="43.242774" lon="11.3682452"><ele>222.0</ele><time>2026-03-27T15:08:25.705Z</time></trkpt><trkpt lat="43.2428408" lon="11.3681968"><ele>222.0</ele><time>2026-03-27T15:08:27.705Z</time></trkpt><trkpt lat="43.2429042" lon="11.3681563"><ele>222.0</ele><time>2026-03-27T15:08:29.705Z</time></trkpt><trkpt lat="43.2429666" lon="11.3681162"><ele>222.0</ele><time>2026-03-27T15:08:31.705Z</time></trkpt><trkpt lat="43.2430385" lon="11.3680885"><ele>222.0</ele><time>2026-03-27T15:08:33.705Z</time></trkpt><trkpt lat="43.2431133" lon="11.3680674"><ele>222.0</ele><time>2026-03-27T15:08:35.705Z</time></trkpt><trkpt lat="43.2431927" lon="11.3680504"><ele>222.0</ele><time>2026-03-27T15:08:37.705Z</time></trkpt><trkpt lat="43.2432732" lon="11.3680326"><ele>222.57142857142856</ele><time>2026-03-27T15:08:39.706Z</time></trkpt><trkpt lat="43.2433511" lon="11.3680153"><ele>223.14285714285717</ele><time>2026-03-27T15:08:41.705Z</time></trkpt><trkpt lat="43.2434219" lon="11.3680014"><ele>223.71428571428572</ele><time>2026-03-27T15:08:43.705Z</time></trkpt><trkpt lat="43.2434916" lon="11.3679981"><ele>224.28571428571428</ele><time>2026-03-27T15:08:45.705Z</time></trkpt><trkpt lat="43.2435546" lon="11.3679863"><ele>224.85714285714283</ele><time>2026-03-27T15:08:47.706Z</time></trkpt><trkpt lat="43.2436206" lon="11.3679729"><ele>225.42857142857144</ele><time>2026-03-27T15:08:49.706Z</time></trkpt><trkpt lat="43.2436866" lon="11.3679554"><ele>226.0</ele><time>2026-03-27T15:08:51.705Z</time></trkpt><trkpt lat="43.2437783" lon="11.3679288"><ele>225.99999999999997</ele><time>2026-03-27T15:08:54.705Z</time></trkpt><trkpt lat="43.2438421" lon="11.3679047"><ele>226.0</ele><time>2026-03-27T15:08:56.705Z</time></trkpt><trkpt lat="43.2439117" lon="11.3678739"><ele>226.0</ele><time>2026-03-27T15:08:58.705Z</time></trkpt><trkpt lat="43.2439939" lon="11.3678431"><ele>226.0</ele><time>2026-03-27T15:09:00.705Z</time></trkpt><trkpt lat="43.2440869" lon="11.3677965"><ele>225.99999999999997</ele><time>2026-03-27T15:09:02.705Z</time></trkpt><trkpt lat="43.2441835" lon="11.3677709"><ele>226.0</ele><time>2026-03-27T15:09:04.706Z</time></trkpt><trkpt lat="43.244293" lon="11.3677494"><ele>225.49999999999997</ele><time>2026-03-27T15:09:06.705Z</time></trkpt><trkpt lat="43.2443932" lon="11.3677264"><ele>225.0</ele><time>2026-03-27T15:09:08.705Z</time></trkpt><trkpt lat="43.2444978" lon="11.3676781"><ele>224.5</ele><time>2026-03-27T15:09:10.705Z</time></trkpt><trkpt lat="43.2445612" lon="11.3676669"><ele>224.0</ele><time>2026-03-27T15:09:11.706Z</time></trkpt><trkpt lat="43.2446237" lon="11.367649"><ele>223.49999999999997</ele><time>2026-03-27T15:09:12.705Z</time></trkpt><trkpt lat="43.244695" lon="11.3676355"><ele>223.0</ele><time>2026-03-27T15:09:13.705Z</time></trkpt><trkpt lat="43.2447663" lon="11.3676175"><ele>222.49999999999997</ele><time>2026-03-27T15:09:14.705Z</time></trkpt><trkpt lat="43.2448349" lon="11.3675942"><ele>222.0</ele><time>2026-03-27T15:09:15.705Z</time></trkpt><trkpt lat="43.2449029" lon="11.3675754"><ele>221.5</ele><time>2026-03-27T15:09:16.705Z</time></trkpt><trkpt lat="43.2449657" lon="11.3675511"><ele>221.0</ele><time>2026-03-27T15:09:17.705Z</time></trkpt><trkpt lat="43.2450323" lon="11.3675187"><ele>220.49999999999997</ele><time>2026-03-27T15:09:18.705Z</time></trkpt><trkpt lat="43.2451557" lon="11.3674899"><ele>220.0</ele><time>2026-03-27T15:09:20.705Z</time></trkpt><trkpt lat="43.2452492" lon="11.3674541"><ele>220.0</ele><time>2026-03-27T15:09:22.705Z</time></trkpt><trkpt lat="43.2453503" lon="11.3674075"><ele>220.0</ele><time>2026-03-27T15:09:24.705Z</time></trkpt><trkpt lat="43.2454402" lon="11.3673833"><ele>220.0</ele><time>2026-03-27T15:09:26.705Z</time></trkpt><trkpt lat="43.2455192" lon="11.367327"><ele>220.0</ele><time>2026-03-27T15:09:28.705Z</time></trkpt><trkpt lat="43.2455877" lon="11.36727"><ele>220.0</ele><time>2026-03-27T15:09:30.705Z</time></trkpt><trkpt lat="43.2456626" lon="11.3672112"><ele>220.66666666666666</ele><time>2026-03-27T15:09:32.705Z</time></trkpt><trkpt lat="43.2457343" lon="11.3671504"><ele>221.33333333333331</ele><time>2026-03-27T15:09:34.706Z</time></trkpt><trkpt lat="43.2458031" lon="11.3671005"><ele>222.0</ele><time>2026-03-27T15:09:36.705Z</time></trkpt><trkpt lat="43.2458653" lon="11.3670464"><ele>222.66666666666669</ele><time>2026-03-27T15:09:38.705Z</time></trkpt><trkpt lat="43.2459302" lon="11.3669884"><ele>223.33333333333334</ele><time>2026-03-27T15:09:40.705Z</time></trkpt><trkpt lat="43.2459874" lon="11.3669279"><ele>224.0</ele><time>2026-03-27T15:09:42.706Z</time></trkpt><trkpt lat="43.2460422" lon="11.3668675"><ele>224.0</ele><time>2026-03-27T15:09:44.705Z</time></trkpt><trkpt lat="43.2460977" lon="11.3668044"><ele>224.0</ele><time>2026-03-27T15:09:46.706Z</time></trkpt><trkpt lat="43.2461565" lon="11.3667469"><ele>224.0</ele><time>2026-03-27T15:09:48.705Z</time></trkpt><trkpt lat="43.2462086" lon="11.366693"><ele>224.0</ele><time>2026-03-27T15:09:50.705Z</time></trkpt><trkpt lat="43.2462834" lon="11.3666178"><ele>224.0</ele><time>2026-03-27T15:09:53.705Z</time></trkpt><trkpt lat="43.2463386" lon="11.3665658"><ele>224.0</ele><time>2026-03-27T15:09:55.705Z</time></trkpt><trkpt lat="43.2464074" lon="11.3665234"><ele>224.0</ele><time>2026-03-27T15:09:57.706Z</time></trkpt><trkpt lat="43.2464827" lon="11.366469"><ele>223.79999999999998</ele><time>2026-03-27T15:09:59.705Z</time></trkpt><trkpt lat="43.2465664" lon="11.3664118"><ele>223.59999999999997</ele><time>2026-03-27T15:10:01.705Z</time></trkpt><trkpt lat="43.2466707" lon="11.3663578"><ele>223.4</ele><time>2026-03-27T15:10:03.705Z</time></trkpt><trkpt lat="43.2467753" lon="11.3663087"><ele>223.2</ele><time>2026-03-27T15:10:05.705Z</time></trkpt><trkpt lat="43.246878" lon="11.3662667"><ele>223.0</ele><time>2026-03-27T15:10:07.705Z</time></trkpt><trkpt lat="43.2469921" lon="11.3662363"><ele>223.0</ele><time>2026-03-27T15:10:09.705Z</time></trkpt><trkpt lat="43.2470981" lon="11.3661973"><ele>223.0</ele><time>2026-03-27T15:10:11.705Z</time></trkpt><trkpt lat="43.247213" lon="11.366163"><ele>223.0</ele><time>2026-03-27T15:10:13.706Z</time></trkpt><trkpt lat="43.247323" lon="11.3661256"><ele>223.0</ele><time>2026-03-27T15:10:15.705Z</time></trkpt><trkpt lat="43.2474447" lon="11.3661143"><ele>223.0</ele><time>2026-03-27T15:10:17.705Z</time></trkpt><trkpt lat="43.2475566" lon="11.3660733"><ele>223.0</ele><time>2026-03-27T15:10:19.705Z</time></trkpt><trkpt lat="43.2476578" lon="11.366039"><ele>223.0</ele><time>2026-03-27T15:10:21.705Z</time></trkpt><trkpt lat="43.2477461" lon="11.3660046"><ele>223.0</ele><time>2026-03-27T15:10:23.705Z</time></trkpt><trkpt lat="43.2478236" lon="11.3659613"><ele>223.0</ele><time>2026-03-27T15:10:25.706Z</time></trkpt><trkpt lat="43.2478932" lon="11.365895"><ele>222.99999999999997</ele><time>2026-03-27T15:10:27.705Z</time></trkpt><trkpt lat="43.2479632" lon="11.3658278"><ele>223.0</ele><time>2026-03-27T15:10:29.706Z</time></trkpt><trkpt lat="43.2480257" lon="11.3657437"><ele>223.0</ele><time>2026-03-27T15:10:31.705Z</time></trkpt><trkpt lat="43.2480836" lon="11.365665"><ele>223.0</ele><time>2026-03-27T15:10:33.706Z</time></trkpt><trkpt lat="43.2481435" lon="11.3655784"><ele>222.99999999999997</ele><time>2026-03-27T15:10:35.705Z</time></trkpt><trkpt lat="43.248198" lon="11.3654937"><ele>223.0</ele><time>2026-03-27T15:10:37.705Z</time></trkpt><trkpt lat="43.2482396" lon="11.3653929"><ele>223.4</ele><time>2026-03-27T15:10:39.705Z</time></trkpt><trkpt lat="43.2482709" lon="11.3652829"><ele>223.8</ele><time>2026-03-27T15:10:41.705Z</time></trkpt><trkpt lat="43.2482947" lon="11.3651597"><ele>224.2</ele><time>2026-03-27T15:10:43.705Z</time></trkpt><trkpt lat="43.2483051" lon="11.3650179"><ele>224.6</ele><time>2026-03-27T15:10:45.705Z</time></trkpt><trkpt lat="43.2483034" lon="11.3648556"><ele>225.0</ele><time>2026-03-27T15:10:47.705Z</time></trkpt><trkpt lat="43.2483079" lon="11.3646975"><ele>225.4</ele><time>2026-03-27T15:10:49.705Z</time></trkpt><trkpt lat="43.2483365" lon="11.364612"><ele>225.8</ele><time>2026-03-27T15:10:50.705Z</time></trkpt><trkpt lat="43.2483668" lon="11.3644753"><ele>226.2</ele><time>2026-03-27T15:10:52.705Z</time></trkpt><trkpt lat="43.2484031" lon="11.3643515"><ele>226.6</ele><time>2026-03-27T15:10:54.705Z</time></trkpt><trkpt lat="43.2484624" lon="11.3642553"><ele>227.0</ele><time>2026-03-27T15:10:56.705Z</time></trkpt><trkpt lat="43.2485331" lon="11.3641567"><ele>227.0</ele><time>2026-03-27T15:10:58.705Z</time></trkpt><trkpt lat="43.2486032" lon="11.3640534"><ele>227.0</ele><time>2026-03-27T15:11:00.705Z</time></trkpt><trkpt lat="43.2486786" lon="11.363954"><ele>227.0</ele><time>2026-03-27T15:11:02.705Z</time></trkpt><trkpt lat="43.2487522" lon="11.3638406"><ele>227.0</ele><time>2026-03-27T15:11:04.706Z</time></trkpt><trkpt lat="43.2488173" lon="11.3637427"><ele>227.0</ele><time>2026-03-27T15:11:06.705Z</time></trkpt><trkpt lat="43.2488908" lon="11.363629"><ele>227.2</ele><time>2026-03-27T15:11:08.706Z</time></trkpt><trkpt lat="43.2489539" lon="11.3635381"><ele>227.39999999999998</ele><time>2026-03-27T15:11:10.705Z</time></trkpt><trkpt lat="43.2490271" lon="11.3634395"><ele>227.60000000000002</ele><time>2026-03-27T15:11:12.705Z</time></trkpt><trkpt lat="43.2491135" lon="11.3633474"><ele>227.8</ele><time>2026-03-27T15:11:14.706Z</time></trkpt><trkpt lat="43.2492127" lon="11.3632673"><ele>228.0</ele><time>2026-03-27T15:11:16.706Z</time></trkpt><trkpt lat="43.2493255" lon="11.363201"><ele>228.0</ele><time>2026-03-27T15:11:18.706Z</time></trkpt><trkpt lat="43.2494427" lon="11.3631366"><ele>228.0</ele><time>2026-03-27T15:11:20.706Z</time></trkpt><trkpt lat="43.2495077" lon="11.363124"><ele>228.0</ele><time>2026-03-27T15:11:21.705Z</time></trkpt><trkpt lat="43.2495697" lon="11.363098"><ele>228.0</ele><time>2026-03-27T15:11:22.705Z</time></trkpt><trkpt lat="43.2496953" lon="11.3630906"><ele>228.0</ele><time>2026-03-27T15:11:24.706Z</time></trkpt><trkpt lat="43.2498091" lon="11.3630961"><ele>227.0</ele><time>2026-03-27T15:11:26.706Z</time></trkpt><trkpt lat="43.2498986" lon="11.3631272"><ele>226.0</ele><time>2026-03-27T15:11:28.706Z</time></trkpt><trkpt lat="43.2500002" lon="11.3631542"><ele>225.0</ele><time>2026-03-27T15:11:30.706Z</time></trkpt><trkpt lat="43.2501018" lon="11.3631895"><ele>224.0</ele><time>2026-03-27T15:11:32.705Z</time></trkpt><trkpt lat="43.2501949" lon="11.3632096"><ele>223.0</ele><time>2026-03-27T15:11:34.705Z</time></trkpt><trkpt lat="43.250292" lon="11.3632465"><ele>223.0</ele><time>2026-03-27T15:11:36.705Z</time></trkpt><trkpt lat="43.2503862" lon="11.3632715"><ele>223.0</ele><time>2026-03-27T15:11:38.705Z</time></trkpt><trkpt lat="43.2504798" lon="11.3633025"><ele>223.0</ele><time>2026-03-27T15:11:40.706Z</time></trkpt><trkpt lat="43.25057" lon="11.3633404"><ele>223.0</ele><time>2026-03-27T15:11:42.706Z</time></trkpt><trkpt lat="43.2506638" lon="11.3633543"><ele>223.0</ele><time>2026-03-27T15:11:44.705Z</time></trkpt><trkpt lat="43.2507481" lon="11.363371"><ele>223.33333333333331</ele><time>2026-03-27T15:11:46.706Z</time></trkpt><trkpt lat="43.2508299" lon="11.3633973"><ele>223.66666666666666</ele><time>2026-03-27T15:11:48.705Z</time></trkpt><trkpt lat="43.250911" lon="11.3634242"><ele>224.0</ele><time>2026-03-27T15:11:50.705Z</time></trkpt><trkpt lat="43.2509814" lon="11.3634577"><ele>224.33333333333331</ele><time>2026-03-27T15:11:52.705Z</time></trkpt><trkpt lat="43.2510581" lon="11.363487"><ele>224.66666666666666</ele><time>2026-03-27T15:11:54.706Z</time></trkpt><trkpt lat="43.2511278" lon="11.3635206"><ele>225.0</ele><time>2026-03-27T15:11:56.705Z</time></trkpt><trkpt lat="43.2511912" lon="11.3635485"><ele>225.0</ele><time>2026-03-27T15:11:58.706Z</time></trkpt><trkpt lat="43.2512562" lon="11.3635733"><ele>225.0</ele><time>2026-03-27T15:12:00.706Z</time></trkpt><trkpt lat="43.251345" lon="11.3635971"><ele>225.0</ele><time>2026-03-27T15:12:03.704Z</time></trkpt><trkpt lat="43.2514164" lon="11.363612"><ele>225.0</ele><time>2026-03-27T15:12:05.705Z</time></trkpt><trkpt lat="43.251493" lon="11.3636395"><ele>225.0</ele><time>2026-03-27T15:12:07.705Z</time></trkpt><trkpt lat="43.25157" lon="11.3636492"><ele>225.0</ele><time>2026-03-27T15:12:09.705Z</time></trkpt><trkpt lat="43.2516403" lon="11.3636454"><ele>226.33333333333334</ele><time>2026-03-27T15:12:11.705Z</time></trkpt><trkpt lat="43.2517128" lon="11.3636314"><ele>227.66666666666669</ele><time>2026-03-27T15:12:13.705Z</time></trkpt><trkpt lat="43.2517855" lon="11.3636074"><ele>229.0</ele><time>2026-03-27T15:12:15.705Z</time></trkpt><trkpt lat="43.2518626" lon="11.3635786"><ele>230.33333333333334</ele><time>2026-03-27T15:12:17.705Z</time></trkpt><trkpt lat="43.2519331" lon="11.3635499"><ele>231.66666666666669</ele><time>2026-03-27T15:12:19.705Z</time></trkpt><trkpt lat="43.2519971" lon="11.3635055"><ele>233.0</ele><time>2026-03-27T15:12:21.706Z</time></trkpt><trkpt lat="43.2520618" lon="11.3634473"><ele>233.00000000000003</ele><time>2026-03-27T15:12:23.705Z</time></trkpt><trkpt lat="43.2521222" lon="11.3633928"><ele>233.0</ele><time>2026-03-27T15:12:25.705Z</time></trkpt><trkpt lat="43.2521832" lon="11.3633337"><ele>233.0</ele><time>2026-03-27T15:12:27.706Z</time></trkpt><trkpt lat="43.2522473" lon="11.3632707"><ele>233.0</ele><time>2026-03-27T15:12:29.706Z</time></trkpt><trkpt lat="43.2523103" lon="11.3631952"><ele>233.00000000000003</ele><time>2026-03-27T15:12:31.705Z</time></trkpt><trkpt lat="43.2523939" lon="11.3631102"><ele>233.0</ele><time>2026-03-27T15:12:33.705Z</time></trkpt><trkpt lat="43.2524843" lon="11.3630153"><ele>232.0</ele><time>2026-03-27T15:12:35.705Z</time></trkpt><trkpt lat="43.252546" lon="11.3629675"><ele>231.0</ele><time>2026-03-27T15:12:36.705Z</time></trkpt><trkpt lat="43.252668" lon="11.3628693"><ele>230.0</ele><time>2026-03-27T15:12:38.705Z</time></trkpt><trkpt lat="43.2527534" lon="11.362819"><ele>229.0</ele><time>2026-03-27T15:12:39.705Z</time></trkpt><trkpt lat="43.2528452" lon="11.3627671"><ele>228.0</ele><time>2026-03-27T15:12:40.706Z</time></trkpt><trkpt lat="43.25294" lon="11.3627126"><ele>228.0</ele><time>2026-03-27T15:12:41.706Z</time></trkpt><trkpt lat="43.2530373" lon="11.3626488"><ele>228.0</ele><time>2026-03-27T15:12:42.705Z</time></trkpt><trkpt lat="43.2531373" lon="11.3625847"><ele>228.0</ele><time>2026-03-27T15:12:43.705Z</time></trkpt><trkpt lat="43.2532498" lon="11.3625387"><ele>228.0</ele><time>2026-03-27T15:12:44.705Z</time></trkpt><trkpt lat="43.2533495" lon="11.362497"><ele>228.0</ele><time>2026-03-27T15:12:45.705Z</time></trkpt><trkpt lat="43.2534536" lon="11.3624777"><ele>227.4</ele><time>2026-03-27T15:12:46.706Z</time></trkpt><trkpt lat="43.2535594" lon="11.3624559"><ele>226.8</ele><time>2026-03-27T15:12:47.705Z</time></trkpt><trkpt lat="43.2536644" lon="11.3624325"><ele>226.2</ele><time>2026-03-27T15:12:48.706Z</time></trkpt><trkpt lat="43.2537658" lon="11.3624136"><ele>225.6</ele><time>2026-03-27T15:12:49.705Z</time></trkpt><trkpt lat="43.2538657" lon="11.362405"><ele>225.0</ele><time>2026-03-27T15:12:50.705Z</time></trkpt><trkpt lat="43.2539672" lon="11.3623869"><ele>225.0</ele><time>2026-03-27T15:12:51.705Z</time></trkpt><trkpt lat="43.2540653" lon="11.362367"><ele>225.0</ele><time>2026-03-27T15:12:52.705Z</time></trkpt><trkpt lat="43.2541657" lon="11.3623407"><ele>225.0</ele><time>2026-03-27T15:12:53.706Z</time></trkpt><trkpt lat="43.2542562" lon="11.3622962"><ele>225.0</ele><time>2026-03-27T15:12:54.706Z</time></trkpt><trkpt lat="43.2543508" lon="11.3622513"><ele>225.0</ele><time>2026-03-27T15:12:55.705Z</time></trkpt><trkpt lat="43.2544361" lon="11.3621911"><ele>225.0</ele><time>2026-03-27T15:12:56.705Z</time></trkpt><trkpt lat="43.254513" lon="11.3621208"><ele>225.0</ele><time>2026-03-27T15:12:57.705Z</time></trkpt><trkpt lat="43.2545924" lon="11.362045"><ele>225.0</ele><time>2026-03-27T15:12:58.705Z</time></trkpt><trkpt lat="43.254667" lon="11.3619602"><ele>225.0</ele><time>2026-03-27T15:12:59.706Z</time></trkpt><trkpt lat="43.2547334" lon="11.3618713"><ele>225.0</ele><time>2026-03-27T15:13:00.705Z</time></trkpt><trkpt lat="43.2547972" lon="11.3617674"><ele>222.8</ele><time>2026-03-27T15:13:01.706Z</time></trkpt><trkpt lat="43.2548475" lon="11.361653"><ele>220.6</ele><time>2026-03-27T15:13:02.705Z</time></trkpt><trkpt lat="43.2549067" lon="11.3615343"><ele>218.39999999999998</ele><time>2026-03-27T15:13:03.705Z</time></trkpt><trkpt lat="43.2549587" lon="11.3614208"><ele>216.2</ele><time>2026-03-27T15:13:04.706Z</time></trkpt><trkpt lat="43.2550116" lon="11.3612976"><ele>214.0</ele><time>2026-03-27T15:13:05.705Z</time></trkpt><trkpt lat="43.255083" lon="11.3611807"><ele>214.0</ele><time>2026-03-27T15:13:06.705Z</time></trkpt><trkpt lat="43.2551548" lon="11.3610782"><ele>213.99999999999997</ele><time>2026-03-27T15:13:07.705Z</time></trkpt><trkpt lat="43.2552259" lon="11.3609818"><ele>213.99999999999997</ele><time>2026-03-27T15:13:08.705Z</time></trkpt><trkpt lat="43.2553044" lon="11.3608882"><ele>214.0</ele><time>2026-03-27T15:13:09.705Z</time></trkpt><trkpt lat="43.2553829" lon="11.3607998"><ele>214.0</ele><time>2026-03-27T15:13:10.706Z</time></trkpt><trkpt lat="43.255468" lon="11.3607309"><ele>214.0</ele><time>2026-03-27T15:13:11.706Z</time></trkpt><trkpt lat="43.2555555" lon="11.3606672"><ele>213.99999999999997</ele><time>2026-03-27T15:13:12.706Z</time></trkpt><trkpt lat="43.2556442" lon="11.3606056"><ele>213.99999999999997</ele><time>2026-03-27T15:13:13.705Z</time></trkpt><trkpt lat="43.2557307" lon="11.3605438"><ele>214.0</ele><time>2026-03-27T15:13:14.705Z</time></trkpt><trkpt lat="43.2558195" lon="11.3604888"><ele>214.0</ele><time>2026-03-27T15:13:15.705Z</time></trkpt><trkpt lat="43.2559044" lon="11.3604348"><ele>211.79999999999998</ele><time>2026-03-27T15:13:16.705Z</time></trkpt><trkpt lat="43.2559932" lon="11.3603804"><ele>209.59999999999997</ele><time>2026-03-27T15:13:17.705Z</time></trkpt><trkpt lat="43.2560855" lon="11.3603176"><ele>207.4</ele><time>2026-03-27T15:13:18.705Z</time></trkpt><trkpt lat="43.2561708" lon="11.3602649"><ele>205.2</ele><time>2026-03-27T15:13:19.705Z</time></trkpt><trkpt lat="43.2562614" lon="11.3602249"><ele>203.0</ele><time>2026-03-27T15:13:20.706Z</time></trkpt><trkpt lat="43.2563512" lon="11.360201"><ele>203.00000000000003</ele><time>2026-03-27T15:13:21.705Z</time></trkpt><trkpt lat="43.256439" lon="11.3601808"><ele>203.0</ele><time>2026-03-27T15:13:22.705Z</time></trkpt><trkpt lat="43.2565267" lon="11.3601658"><ele>203.0</ele><time>2026-03-27T15:13:23.705Z</time></trkpt><trkpt lat="43.256617" lon="11.3601553"><ele>203.0</ele><time>2026-03-27T15:13:24.706Z</time></trkpt><trkpt lat="43.2567058" lon="11.3601362"><ele>203.00000000000003</ele><time>2026-03-27T15:13:25.705Z</time></trkpt><trkpt lat="43.2567945" lon="11.3601202"><ele>203.0</ele><time>2026-03-27T15:13:26.705Z</time></trkpt><trkpt lat="43.2568843" lon="11.3601129"><ele>202.33333333333334</ele><time>2026-03-27T15:13:27.706Z</time></trkpt><trkpt lat="43.2569703" lon="11.3601119"><ele>201.66666666666669</ele><time>2026-03-27T15:13:28.705Z</time></trkpt><trkpt lat="43.2570614" lon="11.3601257"><ele>201.0</ele><time>2026-03-27T15:13:29.706Z</time></trkpt><trkpt lat="43.2571533" lon="11.3601371"><ele>200.33333333333331</ele><time>2026-03-27T15:13:30.705Z</time></trkpt><trkpt lat="43.2572408" lon="11.3601523"><ele>199.66666666666666</ele><time>2026-03-27T15:13:31.705Z</time></trkpt><trkpt lat="43.2573292" lon="11.3601766"><ele>199.0</ele><time>2026-03-27T15:13:32.705Z</time></trkpt><trkpt lat="43.2574163" lon="11.3602029"><ele>198.2</ele><time>2026-03-27T15:13:33.705Z</time></trkpt><trkpt lat="43.2575069" lon="11.360245"><ele>197.39999999999998</ele><time>2026-03-27T15:13:34.706Z</time></trkpt><trkpt lat="43.2575904" lon="11.3602841"><ele>196.6</ele><time>2026-03-27T15:13:35.705Z</time></trkpt><trkpt lat="43.2576744" lon="11.3603216"><ele>195.8</ele><time>2026-03-27T15:13:36.705Z</time></trkpt><trkpt lat="43.2577612" lon="11.3603594"><ele>195.0</ele><time>2026-03-27T15:13:37.705Z</time></trkpt><trkpt lat="43.2578437" lon="11.3604"><ele>195.0</ele><time>2026-03-27T15:13:38.705Z</time></trkpt><trkpt lat="43.2579282" lon="11.3604433"><ele>195.0</ele><time>2026-03-27T15:13:39.705Z</time></trkpt><trkpt lat="43.2580134" lon="11.3604988"><ele>195.0</ele><time>2026-03-27T15:13:40.706Z</time></trkpt><trkpt lat="43.2580903" lon="11.3605577"><ele>195.0</ele><time>2026-03-27T15:13:41.705Z</time></trkpt><trkpt lat="43.2581682" lon="11.3606216"><ele>195.0</ele><time>2026-03-27T15:13:42.705Z</time></trkpt><trkpt lat="43.2582477" lon="11.3606904"><ele>195.0</ele><time>2026-03-27T15:13:43.706Z</time></trkpt><trkpt lat="43.2583291" lon="11.3607628"><ele>195.0</ele><time>2026-03-27T15:13:44.705Z</time></trkpt><trkpt lat="43.2583983" lon="11.3608347"><ele>195.0</ele><time>2026-03-27T15:13:45.705Z</time></trkpt><trkpt lat="43.2584747" lon="11.3609041"><ele>195.0</ele><time>2026-03-27T15:13:46.705Z</time></trkpt><trkpt lat="43.25855" lon="11.3609691"><ele>195.0</ele><time>2026-03-27T15:13:47.705Z</time></trkpt><trkpt lat="43.258628" lon="11.36104"><ele>195.0</ele><time>2026-03-27T15:13:48.705Z</time></trkpt><trkpt lat="43.2587025" lon="11.3611061"><ele>195.0</ele><time>2026-03-27T15:13:49.705Z</time></trkpt><trkpt lat="43.2587718" lon="11.3611794"><ele>195.0</ele><time>2026-03-27T15:13:50.705Z</time></trkpt><trkpt lat="43.2588368" lon="11.361254"><ele>195.0</ele><time>2026-03-27T15:13:51.706Z</time></trkpt><trkpt lat="43.2588832" lon="11.3613419"><ele>195.0</ele><time>2026-03-27T15:13:52.705Z</time></trkpt><trkpt lat="43.2589272" lon="11.3614255"><ele>195.0</ele><time>2026-03-27T15:13:53.706Z</time></trkpt><trkpt lat="43.258976" lon="11.3614861"><ele>194.66666666666666</ele><time>2026-03-27T15:13:54.706Z</time></trkpt><trkpt lat="43.2590301" lon="11.3615405"><ele>194.33333333333331</ele><time>2026-03-27T15:13:55.705Z</time></trkpt><trkpt lat="43.2590825" lon="11.3615969"><ele>194.0</ele><time>2026-03-27T15:13:56.705Z</time></trkpt><trkpt lat="43.2591789" lon="11.3617097"><ele>193.66666666666666</ele><time>2026-03-27T15:13:58.705Z</time></trkpt><trkpt lat="43.2592789" lon="11.3618057"><ele>193.33333333333331</ele><time>2026-03-27T15:14:00.705Z</time></trkpt><trkpt lat="43.2593273" lon="11.3618635"><ele>193.0</ele><time>2026-03-27T15:14:01.705Z</time></trkpt><trkpt lat="43.2594069" lon="11.3619837"><ele>192.99999999999997</ele><time>2026-03-27T15:14:03.706Z</time></trkpt><trkpt lat="43.2594532" lon="11.3620831"><ele>193.0</ele><time>2026-03-27T15:14:05.705Z</time></trkpt><trkpt lat="43.2594647" lon="11.3621896"><ele>193.0</ele><time>2026-03-27T15:14:07.705Z</time></trkpt><trkpt lat="43.2594612" lon="11.3622932"><ele>193.0</ele><time>2026-03-27T15:14:09.705Z</time></trkpt><trkpt lat="43.2594748" lon="11.362392"><ele>192.99999999999997</ele><time>2026-03-27T15:14:11.706Z</time></trkpt><trkpt lat="43.2594936" lon="11.3624956"><ele>193.0</ele><time>2026-03-27T15:14:13.705Z</time></trkpt><trkpt lat="43.259547" lon="11.3625851"><ele>193.33333333333331</ele><time>2026-03-27T15:14:15.705Z</time></trkpt><trkpt lat="43.259583" lon="11.3626869"><ele>193.66666666666666</ele><time>2026-03-27T15:14:17.705Z</time></trkpt><trkpt lat="43.2595396" lon="11.3627631"><ele>194.0</ele><time>2026-03-27T15:14:19.705Z</time></trkpt><trkpt lat="43.2594597" lon="11.362708"><ele>194.33333333333331</ele><time>2026-03-27T15:14:22.705Z</time></trkpt><trkpt lat="43.2593612" lon="11.3626059"><ele>194.66666666666666</ele><time>2026-03-27T15:14:26.705Z</time></trkpt><trkpt lat="43.2592977" lon="11.3625454"><ele>195.0</ele><time>2026-03-27T15:14:29.705Z</time></trkpt><trkpt lat="43.2592392" lon="11.3624753"><ele>195.0</ele><time>2026-03-27T15:14:32.705Z</time></trkpt><trkpt lat="43.2591818" lon="11.3624322"><ele>195.0</ele><time>2026-03-27T15:14:34.705Z</time></trkpt><trkpt lat="43.2591165" lon="11.362389"><ele>195.0</ele><time>2026-03-27T15:14:36.705Z</time></trkpt><trkpt lat="43.2590583" lon="11.3623299"><ele>195.0</ele><time>2026-03-27T15:14:39.705Z</time></trkpt><trkpt lat="43.2590211" lon="11.3622506"><ele>195.0</ele><time>2026-03-27T15:14:43.705Z</time></trkpt></trkseg></trk></gpx>